<?xml version='1.0' encoding='UTF-8'?><gpx version="1.1" creator="JPX - https://github.com/jenetics/jpx" xmlns="http://www.topografix.com/GPX/1/1"><trk><trkseg><trkpt lat="45.599559423340004" lon="8.217875758767242"><ele>336.0</ele><time>2026-04-07T12:47:33Z</time></trkpt><trkpt lat="45.599657008727476" lon="8.217888436103054"><ele>336.0</ele><time>2026-04-07T12:47:35Z</time></trkpt><trkpt lat="45.599770354736286" lon="8.217952202523367"><ele>336.0</ele><time>2026-04-07T12:47:37Z</time></trkpt><trkpt lat="45.59982105572488" lon="8.218033232718119"><ele>336.0</ele><time>2026-04-07T12:47:39Z</time></trkpt><trkpt lat="45.59987461711709" lon="8.218143873041623"><ele>336.0</ele><time>2026-04-07T12:47:41Z</time></trkpt><trkpt lat="45.59993231220908" lon="8.218282744366157"><ele>335.8</ele><time>2026-04-07T12:47:43Z</time></trkpt><trkpt lat="45.599938300116555" lon="8.218417778677683"><ele>335.6</ele><time>2026-04-07T12:47:45Z</time></trkpt><trkpt lat="45.599884831042885" lon="8.21856681233949"><ele>335.4</ele><time>2026-04-07T12:47:47Z</time></trkpt><trkpt lat="45.59984332825558" lon="8.21870423417926"><ele>335.2</ele><time>2026-04-07T12:47:49Z</time></trkpt><trkpt lat="45.59983717641147" lon="8.218806510524251"><ele>335.0</ele><time>2026-04-07T12:47:52Z</time></trkpt><trkpt lat="45.59984214319369" lon="8.21865221106744"><ele>335.0</ele><time>2026-04-07T12:48:00Z</time></trkpt><trkpt lat="45.59988078680546" lon="8.218567852256268"><ele>335.0</ele><time>2026-04-07T12:48:01Z</time></trkpt><trkpt lat="45.59991646847401" lon="8.218480574104017"><ele>335.0</ele><time>2026-04-07T12:48:02Z</time></trkpt><trkpt lat="45.59994108922972" lon="8.218392941941689"><ele>335.0</ele><time>2026-04-07T12:48:02.999Z</time></trkpt><trkpt lat="45.59991541076875" lon="8.21823882831687"><ele>335.0</ele><time>2026-04-07T12:48:04.999Z</time></trkpt><trkpt lat="45.59984668287865" lon="8.218099826786034"><ele>335.0</ele><time>2026-04-07T12:48:06.999Z</time></trkpt><trkpt lat="45.59977406273482" lon="8.217983633193198"><ele>335.1666666666667</ele><time>2026-04-07T12:48:08.999Z</time></trkpt><trkpt lat="45.599692438370866" lon="8.217935267530569"><ele>335.33333333333337</ele><time>2026-04-07T12:48:11.999Z</time></trkpt><trkpt lat="45.59961769254833" lon="8.217890890304774"><ele>335.5</ele><time>2026-04-07T12:48:13.999Z</time></trkpt><trkpt lat="45.59955464469344" lon="8.217875464130474"><ele>335.6666666666667</ele><time>2026-04-07T12:48:15.999Z</time></trkpt><trkpt lat="45.599528076614625" lon="8.217768599514395"><ele>335.8333333333333</ele><time>2026-04-07T12:48:17.999Z</time></trkpt><trkpt lat="45.59957454453788" lon="8.21764305591412"><ele>336.0</ele><time>2026-04-07T12:48:19.999Z</time></trkpt><trkpt lat="45.59960665484549" lon="8.217452936977015"><ele>336.0</ele><time>2026-04-07T12:48:21.999Z</time></trkpt><trkpt lat="45.599616431455786" lon="8.217350501661231"><ele>336.0</ele><time>2026-04-07T12:48:22.999Z</time></trkpt><trkpt lat="45.599644864510196" lon="8.2172513174231"><ele>336.0</ele><time>2026-04-07T12:48:23.999Z</time></trkpt><trkpt lat="45.599628975908914" lon="8.217139878723025"><ele>336.0</ele><time>2026-04-07T12:48:24.999Z</time></trkpt><trkpt lat="45.59961655644606" lon="8.217040669004666"><ele>336.0</ele><time>2026-04-07T12:48:25.999Z</time></trkpt><trkpt lat="45.59958623047384" lon="8.216955872809747"><ele>336.0</ele><time>2026-04-07T12:48:26.999Z</time></trkpt><trkpt lat="45.59956948063672" lon="8.216864397625734"><ele>336.0</ele><time>2026-04-07T12:48:27.999Z</time></trkpt><trkpt lat="45.599540559542916" lon="8.216783418433108"><ele>336.14285714285717</ele><time>2026-04-07T12:48:28.999Z</time></trkpt><trkpt lat="45.59950980089402" lon="8.216701233915085"><ele>336.2857142857143</ele><time>2026-04-07T12:48:29.999Z</time></trkpt><trkpt lat="45.599479355753" lon="8.216619716719812"><ele>336.42857142857144</ele><time>2026-04-07T12:48:30.999Z</time></trkpt><trkpt lat="45.59944582430872" lon="8.216530895999593"><ele>336.57142857142856</ele><time>2026-04-07T12:48:31.999Z</time></trkpt><trkpt lat="45.599402290509346" lon="8.216457623490934"><ele>336.7142857142857</ele><time>2026-04-07T12:48:32.999Z</time></trkpt><trkpt lat="45.59937550272218" lon="8.216369846009476"><ele>336.8571428571429</ele><time>2026-04-07T12:48:33.999Z</time></trkpt><trkpt lat="45.59934624816987" lon="8.2162879072619"><ele>337.0</ele><time>2026-04-07T12:48:34.999Z</time></trkpt><trkpt lat="45.59931620979898" lon="8.21620189668566"><ele>339.0</ele><time>2026-04-07T12:48:35.999Z</time></trkpt><trkpt lat="45.59923075704996" lon="8.216070715434492"><ele>341.0</ele><time>2026-04-07T12:48:37.999Z</time></trkpt><trkpt lat="45.599177825593145" lon="8.21601008692507"><ele>343.0</ele><time>2026-04-07T12:48:38.999Z</time></trkpt><trkpt lat="45.59909810794759" lon="8.215897893885291"><ele>345.0</ele><time>2026-04-07T12:48:40.999Z</time></trkpt><trkpt lat="45.599049218719045" lon="8.215823454093428"><ele>347.0</ele><time>2026-04-07T12:48:41.999Z</time></trkpt><trkpt lat="45.59902341769567" lon="8.215657486016557"><ele>347.0</ele><time>2026-04-07T12:48:43.999Z</time></trkpt><trkpt lat="45.59899964043728" lon="8.21557089130686"><ele>347.0</ele><time>2026-04-07T12:48:44.999Z</time></trkpt><trkpt lat="45.59896610475579" lon="8.215474033081412"><ele>347.0</ele><time>2026-04-07T12:48:45.999Z</time></trkpt><trkpt lat="45.598927343153655" lon="8.215388971577962"><ele>347.0</ele><time>2026-04-07T12:48:46.999Z</time></trkpt><trkpt lat="45.59888555855189" lon="8.215313621892028"><ele>347.0</ele><time>2026-04-07T12:48:47.999Z</time></trkpt><trkpt lat="45.59880967856013" lon="8.215198640174837"><ele>347.0</ele><time>2026-04-07T12:48:49.999Z</time></trkpt><trkpt lat="45.59874054261271" lon="8.215117155043833"><ele>347.7142857142857</ele><time>2026-04-07T12:48:51.999Z</time></trkpt><trkpt lat="45.598662914547916" lon="8.215123436169707"><ele>348.4285714285714</ele><time>2026-04-07T12:48:53.999Z</time></trkpt><trkpt lat="45.598600465794824" lon="8.215098897353505"><ele>349.1428571428571</ele><time>2026-04-07T12:48:57.999Z</time></trkpt><trkpt lat="45.59862088616878" lon="8.215003876655587"><ele>349.8571428571429</ele><time>2026-04-07T12:48:59.999Z</time></trkpt><trkpt lat="45.59864351066661" lon="8.214898249643824"><ele>350.57142857142856</ele><time>2026-04-07T12:49:00.999Z</time></trkpt><trkpt lat="45.59865585480695" lon="8.214800668993245"><ele>351.2857142857143</ele><time>2026-04-07T12:49:01.999Z</time></trkpt><trkpt lat="45.59866913320825" lon="8.214677632081006"><ele>352.0</ele><time>2026-04-07T12:49:03.999Z</time></trkpt><trkpt lat="45.59869639843403" lon="8.214478645527192"><ele>352.0</ele><time>2026-04-07T12:49:05.999Z</time></trkpt><trkpt lat="45.598719013352095" lon="8.214382855307806"><ele>352.0</ele><time>2026-04-07T12:49:06.999Z</time></trkpt><trkpt lat="45.59874372853744" lon="8.214246640550545"><ele>352.0</ele><time>2026-04-07T12:49:08.999Z</time></trkpt><trkpt lat="45.59878509273152" lon="8.214083430570259"><ele>352.0</ele><time>2026-04-07T12:49:10.999Z</time></trkpt><trkpt lat="45.598820720058725" lon="8.213995338007967"><ele>352.0</ele><time>2026-04-07T12:49:11.999Z</time></trkpt><trkpt lat="45.59885651795471" lon="8.213909858169618"><ele>352.0</ele><time>2026-04-07T12:49:12.999Z</time></trkpt><trkpt lat="45.598903101478086" lon="8.213824290051912"><ele>352.2857142857143</ele><time>2026-04-07T12:49:13.998Z</time></trkpt><trkpt lat="45.598946492744396" lon="8.213748168849646"><ele>352.57142857142856</ele><time>2026-04-07T12:49:14.998Z</time></trkpt><trkpt lat="45.59899290562617" lon="8.213682937468505"><ele>352.8571428571429</ele><time>2026-04-07T12:49:15.998Z</time></trkpt><trkpt lat="45.5990419196892" lon="8.213624983022596"><ele>353.1428571428571</ele><time>2026-04-07T12:49:16.998Z</time></trkpt><trkpt lat="45.59909293840591" lon="8.21356062189785"><ele>353.4285714285714</ele><time>2026-04-07T12:49:17.998Z</time></trkpt><trkpt lat="45.5991408067069" lon="8.213483942290962"><ele>353.7142857142857</ele><time>2026-04-07T12:49:18.999Z</time></trkpt><trkpt lat="45.59918050035658" lon="8.213403192318703"><ele>354.0</ele><time>2026-04-07T12:49:19.999Z</time></trkpt><trkpt lat="45.5992112456687" lon="8.213303662836442"><ele>354.0</ele><time>2026-04-07T12:49:20.999Z</time></trkpt><trkpt lat="45.59925420693839" lon="8.213190585022833"><ele>354.0</ele><time>2026-04-07T12:49:21.999Z</time></trkpt><trkpt lat="45.59929228019481" lon="8.213072894771988"><ele>354.0</ele><time>2026-04-07T12:49:22.999Z</time></trkpt><trkpt lat="45.599336857470334" lon="8.212941920206386"><ele>354.0</ele><time>2026-04-07T12:49:23.999Z</time></trkpt><trkpt lat="45.59937840046493" lon="8.212825590500046"><ele>354.0</ele><time>2026-04-07T12:49:24.999Z</time></trkpt><trkpt lat="45.59941766655285" lon="8.212700151343098"><ele>354.6666666666667</ele><time>2026-04-07T12:49:25.999Z</time></trkpt><trkpt lat="45.59946116435549" lon="8.212594768337372"><ele>355.3333333333333</ele><time>2026-04-07T12:49:26.999Z</time></trkpt><trkpt lat="45.59949495520076" lon="8.212481542009467"><ele>356.0</ele><time>2026-04-07T12:49:27.999Z</time></trkpt><trkpt lat="45.59952539134939" lon="8.21236211261438"><ele>356.66666666666663</ele><time>2026-04-07T12:49:28.999Z</time></trkpt><trkpt lat="45.59953688680547" lon="8.212248728177364"><ele>357.3333333333333</ele><time>2026-04-07T12:49:29.999Z</time></trkpt><trkpt lat="45.59957408073876" lon="8.212152481270401"><ele>358.0</ele><time>2026-04-07T12:49:30.999Z</time></trkpt><trkpt lat="45.599625782547385" lon="8.21207113360481"><ele>358.8333333333333</ele><time>2026-04-07T12:49:31.999Z</time></trkpt><trkpt lat="45.59967739012573" lon="8.211983723755788"><ele>359.66666666666663</ele><time>2026-04-07T12:49:32.999Z</time></trkpt><trkpt lat="45.59973019357325" lon="8.211896492196813"><ele>360.5</ele><time>2026-04-07T12:49:33.999Z</time></trkpt><trkpt lat="45.59977742156425" lon="8.211811289415639"><ele>361.3333333333333</ele><time>2026-04-07T12:49:34.999Z</time></trkpt><trkpt lat="45.59980950919988" lon="8.211712406570863"><ele>362.1666666666667</ele><time>2026-04-07T12:49:35.999Z</time></trkpt><trkpt lat="45.59986312811841" lon="8.211628278221914"><ele>363.0</ele><time>2026-04-07T12:49:36.999Z</time></trkpt><trkpt lat="45.59990285939515" lon="8.211528284457772"><ele>364.3333333333333</ele><time>2026-04-07T12:49:37.999Z</time></trkpt><trkpt lat="45.599938840680075" lon="8.211430861572733"><ele>365.6666666666667</ele><time>2026-04-07T12:49:38.999Z</time></trkpt><trkpt lat="45.59997253178327" lon="8.21134715320892"><ele>367.0</ele><time>2026-04-07T12:49:39.999Z</time></trkpt><trkpt lat="45.600019417322386" lon="8.211261698877713"><ele>368.33333333333337</ele><time>2026-04-07T12:49:40.999Z</time></trkpt><trkpt lat="45.60011044262499" lon="8.21114598237167"><ele>369.6666666666667</ele><time>2026-04-07T12:49:42.999Z</time></trkpt><trkpt lat="45.60019605163764" lon="8.211058534525852"><ele>371.0</ele><time>2026-04-07T12:49:43.999Z</time></trkpt><trkpt lat="45.60026011754966" lon="8.211006274003338"><ele>370.6</ele><time>2026-04-07T12:49:44.999Z</time></trkpt><trkpt lat="45.60035946199062" lon="8.210995609211848"><ele>370.20000000000005</ele><time>2026-04-07T12:49:46.999Z</time></trkpt><trkpt lat="45.600434404570294" lon="8.211113730126606"><ele>369.79999999999995</ele><time>2026-04-07T12:49:48.999Z</time></trkpt><trkpt lat="45.60044959318585" lon="8.211224420709161"><ele>369.4</ele><time>2026-04-07T12:49:49.999Z</time></trkpt><trkpt lat="45.60045260950195" lon="8.211335975579464"><ele>369.0</ele><time>2026-04-07T12:49:50.999Z</time></trkpt><trkpt lat="45.60042738901823" lon="8.211463799379754"><ele>369.3333333333333</ele><time>2026-04-07T12:49:51.999Z</time></trkpt><trkpt lat="45.60043779800975" lon="8.211593684251364"><ele>369.6666666666667</ele><time>2026-04-07T12:49:52.999Z</time></trkpt><trkpt lat="45.60043554152779" lon="8.211720858199367"><ele>370.0</ele><time>2026-04-07T12:49:53.999Z</time></trkpt><trkpt lat="45.60044222445952" lon="8.211825676261697"><ele>370.33333333333337</ele><time>2026-04-07T12:49:54.999Z</time></trkpt><trkpt lat="45.60044881843279" lon="8.211915672568034"><ele>370.6666666666667</ele><time>2026-04-07T12:49:55.999Z</time></trkpt><trkpt lat="45.600498203359436" lon="8.212067491872942"><ele>371.0</ele><time>2026-04-07T12:49:57.999Z</time></trkpt><trkpt lat="45.60057244920666" lon="8.21213151450008"><ele>371.0</ele><time>2026-04-07T12:49:58.999Z</time></trkpt><trkpt lat="45.600644924977" lon="8.212210836250302"><ele>371.0</ele><time>2026-04-07T12:49:59.999Z</time></trkpt><trkpt lat="45.60071540410774" lon="8.212241728948017"><ele>371.0</ele><time>2026-04-07T12:50:00.999Z</time></trkpt><trkpt lat="45.600810571628344" lon="8.212248745290571"><ele>371.0</ele><time>2026-04-07T12:50:02.999Z</time></trkpt><trkpt lat="45.600905828112936" lon="8.212157997958663"><ele>371.0</ele><time>2026-04-07T12:50:04.999Z</time></trkpt><trkpt lat="45.60096721467471" lon="8.212054505828865"><ele>371.0</ele><time>2026-04-07T12:50:05.999Z</time></trkpt><trkpt lat="45.60101273957248" lon="8.211947557330854"><ele>371.0</ele><time>2026-04-07T12:50:06.999Z</time></trkpt><trkpt lat="45.60107207437519" lon="8.211855969900057"><ele>371.0</ele><time>2026-04-07T12:50:07.999Z</time></trkpt><trkpt lat="45.60112410327368" lon="8.211738077534626"><ele>371.0</ele><time>2026-04-07T12:50:08.999Z</time></trkpt><trkpt lat="45.601176248915344" lon="8.211636728862743"><ele>371.0</ele><time>2026-04-07T12:50:09.999Z</time></trkpt><trkpt lat="45.60123366805604" lon="8.211545240373571"><ele>371.0</ele><time>2026-04-07T12:50:10.999Z</time></trkpt><trkpt lat="45.60129892915732" lon="8.211445366464893"><ele>374.0</ele><time>2026-04-07T12:50:11.999Z</time></trkpt><trkpt lat="45.60136523293726" lon="8.211355651023487"><ele>377.0</ele><time>2026-04-07T12:50:12.999Z</time></trkpt><trkpt lat="45.6014472604041" lon="8.211269193600563"><ele>380.0</ele><time>2026-04-07T12:50:13.999Z</time></trkpt><trkpt lat="45.60152738253765" lon="8.211207961478605"><ele>383.0</ele><time>2026-04-07T12:50:14.999Z</time></trkpt><trkpt lat="45.60161096571208" lon="8.211165277974494"><ele>386.0</ele><time>2026-04-07T12:50:15.999Z</time></trkpt><trkpt lat="45.60170189598593" lon="8.211131548637821"><ele>385.99999999999994</ele><time>2026-04-07T12:50:16.999Z</time></trkpt><trkpt lat="45.60179417390547" lon="8.211117411678467"><ele>386.0</ele><time>2026-04-07T12:50:17.999Z</time></trkpt><trkpt lat="45.60187567710164" lon="8.21111066671692"><ele>386.0</ele><time>2026-04-07T12:50:18.999Z</time></trkpt><trkpt lat="45.60196627514625" lon="8.211098467395994"><ele>386.0</ele><time>2026-04-07T12:50:19.999Z</time></trkpt><trkpt lat="45.60205614067378" lon="8.21106106801372"><ele>385.99999999999994</ele><time>2026-04-07T12:50:20.999Z</time></trkpt><trkpt lat="45.60212344607032" lon="8.21100142630139"><ele>386.0</ele><time>2026-04-07T12:50:21.999Z</time></trkpt><trkpt lat="45.60220676087384" lon="8.21093316072178"><ele>386.3333333333333</ele><time>2026-04-07T12:50:22.999Z</time></trkpt><trkpt lat="45.602288471825474" lon="8.210865572116356"><ele>386.66666666666663</ele><time>2026-04-07T12:50:23.999Z</time></trkpt><trkpt lat="45.60235485817566" lon="8.21082285996137"><ele>387.0</ele><time>2026-04-07T12:50:24.999Z</time></trkpt><trkpt lat="45.602418929026165" lon="8.210926929966792"><ele>387.33333333333337</ele><time>2026-04-07T12:50:26.999Z</time></trkpt><trkpt lat="45.602461848084644" lon="8.211020595697615"><ele>387.6666666666667</ele><time>2026-04-07T12:50:27.999Z</time></trkpt><trkpt lat="45.6025300271164" lon="8.21112203007251"><ele>388.0</ele><time>2026-04-07T12:50:28.999Z</time></trkpt><trkpt lat="45.60260477855085" lon="8.211175877501788"><ele>388.00000000000006</ele><time>2026-04-07T12:50:29.999Z</time></trkpt><trkpt lat="45.602685370933266" lon="8.21120427297239"><ele>388.0</ele><time>2026-04-07T12:50:30.999Z</time></trkpt><trkpt lat="45.60276466997952" lon="8.21119337840798"><ele>388.0</ele><time>2026-04-07T12:50:31.999Z</time></trkpt><trkpt lat="45.60283823142421" lon="8.211168967898022"><ele>388.0</ele><time>2026-04-07T12:50:32.999Z</time></trkpt><trkpt lat="45.602933875844315" lon="8.211086180268573"><ele>388.00000000000006</ele><time>2026-04-07T12:50:34.999Z</time></trkpt><trkpt lat="45.602987276845255" lon="8.210977860434767"><ele>388.0</ele><time>2026-04-07T12:50:35.999Z</time></trkpt><trkpt lat="45.603031173615435" lon="8.210860525786387"><ele>388.1666666666667</ele><time>2026-04-07T12:50:36.999Z</time></trkpt><trkpt lat="45.60309947514933" lon="8.210764094558158"><ele>388.33333333333337</ele><time>2026-04-07T12:50:37.999Z</time></trkpt><trkpt lat="45.603143882053736" lon="8.210659810172828"><ele>388.5</ele><time>2026-04-07T12:50:38.999Z</time></trkpt><trkpt lat="45.6031864551852" lon="8.210567180893358"><ele>388.66666666666663</ele><time>2026-04-07T12:50:39.999Z</time></trkpt><trkpt lat="45.60325579433321" lon="8.21048825873452"><ele>388.8333333333333</ele><time>2026-04-07T12:50:41.999Z</time></trkpt><trkpt lat="45.60332060679681" lon="8.210503092071502"><ele>389.0</ele><time>2026-04-07T12:50:42.999Z</time></trkpt><trkpt lat="45.60337202459962" lon="8.210589716706268"><ele>388.99999999999994</ele><time>2026-04-07T12:50:43.999Z</time></trkpt><trkpt lat="45.603428074109814" lon="8.210688656911364"><ele>389.0</ele><time>2026-04-07T12:50:44.999Z</time></trkpt><trkpt lat="45.60348530625937" lon="8.210771125891966"><ele>389.0</ele><time>2026-04-07T12:50:45.999Z</time></trkpt><trkpt lat="45.60355177286594" lon="8.210830839220447"><ele>389.0</ele><time>2026-04-07T12:50:46.999Z</time></trkpt><trkpt lat="45.603620444097416" lon="8.210887059843508"><ele>388.99999999999994</ele><time>2026-04-07T12:50:47.999Z</time></trkpt><trkpt lat="45.603696775346314" lon="8.210906503281686"><ele>389.0</ele><time>2026-04-07T12:50:48.999Z</time></trkpt><trkpt lat="45.60376534206115" lon="8.210871867308102"><ele>389.79999999999995</ele><time>2026-04-07T12:50:49.999Z</time></trkpt><trkpt lat="45.60385479747536" lon="8.210779295376387"><ele>390.59999999999997</ele><time>2026-04-07T12:50:51.999Z</time></trkpt><trkpt lat="45.603952689545146" lon="8.21068521199654"><ele>391.4</ele><time>2026-04-07T12:50:53.999Z</time></trkpt><trkpt lat="45.60403523675782" lon="8.210684539029522"><ele>392.2</ele><time>2026-04-07T12:50:57.999Z</time></trkpt><trkpt lat="45.6040297630114" lon="8.21079970214342"><ele>393.0</ele><time>2026-04-07T12:50:59.999Z</time></trkpt><trkpt lat="45.60421673754976" lon="8.210641956052338"><ele>393.0</ele><time>2026-04-07T12:51:13.998Z</time></trkpt><trkpt lat="45.60429509318693" lon="8.210674082121189"><ele>393.0</ele><time>2026-04-07T12:51:15.998Z</time></trkpt><trkpt lat="45.60437836043108" lon="8.210735329644299"><ele>393.0</ele><time>2026-04-07T12:51:17.998Z</time></trkpt><trkpt lat="45.60442797648807" lon="8.210875491297433"><ele>393.0</ele><time>2026-04-07T12:51:19.998Z</time></trkpt><trkpt lat="45.60445366678495" lon="8.211045407572483"><ele>393.0</ele><time>2026-04-07T12:51:21.998Z</time></trkpt><trkpt lat="45.60447202762333" lon="8.211146278231384"><ele>393.6666666666667</ele><time>2026-04-07T12:51:22.998Z</time></trkpt><trkpt lat="45.604497069678295" lon="8.211264565128952"><ele>394.33333333333337</ele><time>2026-04-07T12:51:23.999Z</time></trkpt><trkpt lat="45.60451878335229" lon="8.211377378593495"><ele>395.0</ele><time>2026-04-07T12:51:24.999Z</time></trkpt><trkpt lat="45.6045427724519" lon="8.211488088509986"><ele>395.6666666666667</ele><time>2026-04-07T12:51:25.999Z</time></trkpt><trkpt lat="45.60457486212489" lon="8.211590721592568"><ele>396.33333333333337</ele><time>2026-04-07T12:51:26.999Z</time></trkpt><trkpt lat="45.60461032311928" lon="8.211668786635032"><ele>397.0</ele><time>2026-04-07T12:51:27.999Z</time></trkpt><trkpt lat="45.60468152699013" lon="8.211773431381134"><ele>397.0</ele><time>2026-04-07T12:51:29.999Z</time></trkpt><trkpt lat="45.60473972310845" lon="8.211887068524979"><ele>397.0</ele><time>2026-04-07T12:51:31.999Z</time></trkpt><trkpt lat="45.604842817586096" lon="8.21200366014074"><ele>397.0</ele><time>2026-04-07T12:51:33.999Z</time></trkpt><trkpt lat="45.60490464082673" lon="8.212069424089597"><ele>397.0</ele><time>2026-04-07T12:51:34.999Z</time></trkpt><trkpt lat="45.6049761085694" lon="8.212121974633437"><ele>397.0</ele><time>2026-04-07T12:51:35.999Z</time></trkpt><trkpt lat="45.605058294777635" lon="8.212172790969717"><ele>397.0</ele><time>2026-04-07T12:51:36.999Z</time></trkpt><trkpt lat="45.60514139882933" lon="8.212236619944509"><ele>397.0</ele><time>2026-04-07T12:51:37.999Z</time></trkpt><trkpt lat="45.605238837580515" lon="8.21228864155228"><ele>397.0</ele><time>2026-04-07T12:51:38.999Z</time></trkpt><trkpt lat="45.605359156185344" lon="8.212322869082781"><ele>397.0</ele><time>2026-04-07T12:51:39.999Z</time></trkpt><trkpt lat="45.6054781155496" lon="8.212336199182976"><ele>397.0</ele><time>2026-04-07T12:51:40.999Z</time></trkpt><trkpt lat="45.60558795474026" lon="8.212347562599408"><ele>397.00000000000006</ele><time>2026-04-07T12:51:41.999Z</time></trkpt><trkpt lat="45.605681917144146" lon="8.212358327060958"><ele>397.0</ele><time>2026-04-07T12:51:42.999Z</time></trkpt><trkpt lat="45.605760299070795" lon="8.212413220117641"><ele>397.0</ele><time>2026-04-07T12:51:43.999Z</time></trkpt><trkpt lat="45.605827417318345" lon="8.212487014021255"><ele>397.0</ele><time>2026-04-07T12:51:44.999Z</time></trkpt><trkpt lat="45.60588082224728" lon="8.212582402068156"><ele>397.00000000000006</ele><time>2026-04-07T12:51:45.999Z</time></trkpt><trkpt lat="45.6059334209904" lon="8.212659805565231"><ele>397.0</ele><time>2026-04-07T12:51:46.999Z</time></trkpt><trkpt lat="45.60599720345334" lon="8.2127379723959"><ele>397.00000000000006</ele><time>2026-04-07T12:51:47.999Z</time></trkpt><trkpt lat="45.60605581199337" lon="8.212817122119413"><ele>397.0</ele><time>2026-04-07T12:51:48.999Z</time></trkpt><trkpt lat="45.60612006593196" lon="8.212888672469651"><ele>397.0</ele><time>2026-04-07T12:51:49.999Z</time></trkpt><trkpt lat="45.606154605589474" lon="8.212999001977524"><ele>397.0</ele><time>2026-04-07T12:51:50.999Z</time></trkpt><trkpt lat="45.60618372979638" lon="8.213124013535957"><ele>397.00000000000006</ele><time>2026-04-07T12:51:51.999Z</time></trkpt><trkpt lat="45.606193465909335" lon="8.213277430012262"><ele>397.0</ele><time>2026-04-07T12:51:52.999Z</time></trkpt><trkpt lat="45.60622300208819" lon="8.213408476823608"><ele>394.8</ele><time>2026-04-07T12:51:53.999Z</time></trkpt><trkpt lat="45.60624165125748" lon="8.213532596127717"><ele>392.6</ele><time>2026-04-07T12:51:54.999Z</time></trkpt><trkpt lat="45.60623599107456" lon="8.213663132573322"><ele>390.40000000000003</ele><time>2026-04-07T12:51:55.999Z</time></trkpt><trkpt lat="45.606234020952805" lon="8.213800752761095"><ele>388.20000000000005</ele><time>2026-04-07T12:51:56.999Z</time></trkpt><trkpt lat="45.60621769131079" lon="8.213924119172809"><ele>386.0</ele><time>2026-04-07T12:51:57.999Z</time></trkpt><trkpt lat="45.606172150850014" lon="8.21403153542247"><ele>385.6</ele><time>2026-04-07T12:51:58.999Z</time></trkpt><trkpt lat="45.60615349150105" lon="8.214170623742206"><ele>385.20000000000005</ele><time>2026-04-07T12:51:59.999Z</time></trkpt><trkpt lat="45.60616049542833" lon="8.214302106240835"><ele>384.79999999999995</ele><time>2026-04-07T12:52:00.999Z</time></trkpt><trkpt lat="45.60618718773428" lon="8.214409509483893"><ele>384.4</ele><time>2026-04-07T12:52:01.999Z</time></trkpt><trkpt lat="45.606255326788926" lon="8.21448959183389"><ele>384.0</ele><time>2026-04-07T12:52:02.999Z</time></trkpt><trkpt lat="45.60634732739768" lon="8.214536399056533"><ele>384.0</ele><time>2026-04-07T12:52:03.999Z</time></trkpt><trkpt lat="45.60643229065992" lon="8.214577493676465"><ele>384.0</ele><time>2026-04-07T12:52:04.999Z</time></trkpt><trkpt lat="45.606507465217405" lon="8.214649985614333"><ele>384.0</ele><time>2026-04-07T12:52:05.999Z</time></trkpt><trkpt lat="45.606569811897984" lon="8.214737503950849"><ele>384.0</ele><time>2026-04-07T12:52:06.999Z</time></trkpt><trkpt lat="45.60661416668422" lon="8.214819796616121"><ele>384.0</ele><time>2026-04-07T12:52:07.999Z</time></trkpt><trkpt lat="45.60668114124471" lon="8.214865915983527"><ele>384.0</ele><time>2026-04-07T12:52:08.999Z</time></trkpt><trkpt lat="45.60676436712609" lon="8.21491858236926"><ele>384.3333333333333</ele><time>2026-04-07T12:52:09.999Z</time></trkpt><trkpt lat="45.606842956789166" lon="8.214978511285196"><ele>384.66666666666663</ele><time>2026-04-07T12:52:10.999Z</time></trkpt><trkpt lat="45.60690137415404" lon="8.215050534804872"><ele>385.0</ele><time>2026-04-07T12:52:11.999Z</time></trkpt><trkpt lat="45.606928762935155" lon="8.215136840123709"><ele>385.3333333333333</ele><time>2026-04-07T12:52:12.999Z</time></trkpt><trkpt lat="45.60696444889546" lon="8.21524363959598"><ele>385.66666666666663</ele><time>2026-04-07T12:52:14.999Z</time></trkpt><trkpt lat="45.60699018443595" lon="8.21533405584404"><ele>386.0</ele><time>2026-04-07T12:52:18.999Z</time></trkpt><trkpt lat="45.606984010338415" lon="8.215443432365795"><ele>385.99999999999994</ele><time>2026-04-07T12:52:59.999Z</time></trkpt><trkpt lat="45.606923681627244" lon="8.215577341946126"><ele>386.0</ele><time>2026-04-07T12:53:01.999Z</time></trkpt><trkpt lat="45.60683575322983" lon="8.215679713647162"><ele>386.0</ele><time>2026-04-07T12:53:03.999Z</time></trkpt><trkpt lat="45.606769074154016" lon="8.215720278167321"><ele>386.0</ele><time>2026-04-07T12:53:05.999Z</time></trkpt><trkpt lat="45.60672115526147" lon="8.215790381117548"><ele>385.99999999999994</ele><time>2026-04-07T12:53:12.999Z</time></trkpt><trkpt lat="45.60666683368334" lon="8.21587194600214"><ele>386.0</ele><time>2026-04-07T12:53:14.999Z</time></trkpt><trkpt lat="45.60656462820819" lon="8.216002919205813"><ele>384.99999999999994</ele><time>2026-04-07T12:53:16.999Z</time></trkpt><trkpt lat="45.60652060566567" lon="8.216107587626682"><ele>384.0</ele><time>2026-04-07T12:53:17.999Z</time></trkpt><trkpt lat="45.6065005744306" lon="8.21626208771395"><ele>383.0</ele><time>2026-04-07T12:53:18.999Z</time></trkpt><trkpt lat="45.60649471574876" lon="8.216411648400332"><ele>382.0</ele><time>2026-04-07T12:53:19.999Z</time></trkpt><trkpt lat="45.606501992333094" lon="8.216528219382257"><ele>381.0</ele><time>2026-04-07T12:53:20.999Z</time></trkpt><trkpt lat="45.606495049150524" lon="8.216620837034968"><ele>380.0</ele><time>2026-04-07T12:53:21.999Z</time></trkpt><trkpt lat="45.606476203681254" lon="8.216712800112145"><ele>378.0</ele><time>2026-04-07T12:53:22.999Z</time></trkpt><trkpt lat="45.60643090627366" lon="8.216796693156965"><ele>376.0</ele><time>2026-04-07T12:53:23.999Z</time></trkpt><trkpt lat="45.6063767180696" lon="8.216877428338643"><ele>374.0</ele><time>2026-04-07T12:53:24.999Z</time></trkpt><trkpt lat="45.606303709959455" lon="8.216945978065974"><ele>372.0</ele><time>2026-04-07T12:53:25.999Z</time></trkpt><trkpt lat="45.606243894679295" lon="8.217025738655153"><ele>370.0</ele><time>2026-04-07T12:53:26.999Z</time></trkpt><trkpt lat="45.60616631828017" lon="8.217096816956234"><ele>368.0</ele><time>2026-04-07T12:53:27.999Z</time></trkpt><trkpt lat="45.60610463353604" lon="8.217180743685322"><ele>367.79999999999995</ele><time>2026-04-07T12:53:28.999Z</time></trkpt><trkpt lat="45.606045896091224" lon="8.217269319903501"><ele>367.6</ele><time>2026-04-07T12:53:29.999Z</time></trkpt><trkpt lat="45.60597309466144" lon="8.217370311712088"><ele>367.4</ele><time>2026-04-07T12:53:30.999Z</time></trkpt><trkpt lat="45.605901023799625" lon="8.217469937785056"><ele>367.20000000000005</ele><time>2026-04-07T12:53:31.999Z</time></trkpt><trkpt lat="45.605831655608526" lon="8.217570463614797"><ele>367.0</ele><time>2026-04-07T12:53:32.999Z</time></trkpt><trkpt lat="45.605761165542106" lon="8.217678859572196"><ele>367.0</ele><time>2026-04-07T12:53:33.999Z</time></trkpt><trkpt lat="45.6056952704846" lon="8.217771860208895"><ele>367.0</ele><time>2026-04-07T12:53:34.999Z</time></trkpt><trkpt lat="45.605636021034755" lon="8.217858825828957"><ele>367.0</ele><time>2026-04-07T12:53:35.999Z</time></trkpt><trkpt lat="45.605587597882185" lon="8.217932044228407"><ele>367.0</ele><time>2026-04-07T12:53:36.999Z</time></trkpt><trkpt lat="45.605529826123245" lon="8.218027379049362"><ele>367.0</ele><time>2026-04-07T12:53:37.999Z</time></trkpt><trkpt lat="45.60547989462299" lon="8.218126154062038"><ele>367.0</ele><time>2026-04-07T12:53:39Z</time></trkpt><trkpt lat="45.60542478851077" lon="8.218229993070212"><ele>367.0</ele><time>2026-04-07T12:53:40Z</time></trkpt><trkpt lat="45.60538256451543" lon="8.218328145218713"><ele>367.0</ele><time>2026-04-07T12:53:41Z</time></trkpt><trkpt lat="45.60531954010316" lon="8.218419744006974"><ele>367.0</ele><time>2026-04-07T12:53:42Z</time></trkpt><trkpt lat="45.60525636530288" lon="8.21849991339381"><ele>367.0</ele><time>2026-04-07T12:53:43Z</time></trkpt><trkpt lat="45.6051889156934" lon="8.218581485032892"><ele>367.0</ele><time>2026-04-07T12:53:44Z</time></trkpt><trkpt lat="45.605132003690365" lon="8.218664022367301"><ele>367.0</ele><time>2026-04-07T12:53:45Z</time></trkpt><trkpt lat="45.60508267215053" lon="8.218747435933903"><ele>366.8333333333333</ele><time>2026-04-07T12:53:46Z</time></trkpt><trkpt lat="45.6050395604227" lon="8.218816818705697"><ele>366.66666666666663</ele><time>2026-04-07T12:53:47Z</time></trkpt><trkpt lat="45.6049862467225" lon="8.218864826984777"><ele>366.5</ele><time>2026-04-07T12:53:48Z</time></trkpt><trkpt lat="45.604922224491055" lon="8.218889445088308"><ele>366.3333333333333</ele><time>2026-04-07T12:53:49Z</time></trkpt><trkpt lat="45.60478440702086" lon="8.218913670708615"><ele>366.1666666666667</ele><time>2026-04-07T12:53:51Z</time></trkpt><trkpt lat="45.6047152515593" lon="8.21893810963309"><ele>366.0</ele><time>2026-04-07T12:53:52Z</time></trkpt><trkpt lat="45.6046410068823" lon="8.218995506464893"><ele>365.5</ele><time>2026-04-07T12:53:53Z</time></trkpt><trkpt lat="45.60456804634303" lon="8.21906207661403"><ele>365.0</ele><time>2026-04-07T12:53:54Z</time></trkpt><trkpt lat="45.604502264196825" lon="8.219132711761073"><ele>364.5</ele><time>2026-04-07T12:53:55Z</time></trkpt><trkpt lat="45.604431728620604" lon="8.219197970972834"><ele>364.0</ele><time>2026-04-07T12:53:56Z</time></trkpt><trkpt lat="45.60435417185385" lon="8.219252699716602"><ele>363.5</ele><time>2026-04-07T12:53:57Z</time></trkpt><trkpt lat="45.604281721102744" lon="8.21927954061215"><ele>363.0</ele><time>2026-04-07T12:53:58Z</time></trkpt><trkpt lat="45.60419920477917" lon="8.219272529808814"><ele>361.59999999999997</ele><time>2026-04-07T12:53:59Z</time></trkpt><trkpt lat="45.60412014545312" lon="8.219325363595985"><ele>360.2</ele><time>2026-04-07T12:54:00Z</time></trkpt><trkpt lat="45.60405159037504" lon="8.21941510963675"><ele>358.8</ele><time>2026-04-07T12:54:01Z</time></trkpt><trkpt lat="45.603974634444484" lon="8.219519225064404"><ele>357.4</ele><time>2026-04-07T12:54:02Z</time></trkpt><trkpt lat="45.60390588200225" lon="8.21960781382416"><ele>356.0</ele><time>2026-04-07T12:54:03Z</time></trkpt><trkpt lat="45.6038363000631" lon="8.21969602111775"><ele>356.0</ele><time>2026-04-07T12:54:04Z</time></trkpt><trkpt lat="45.60377642442341" lon="8.219793262614928"><ele>356.0</ele><time>2026-04-07T12:54:05Z</time></trkpt><trkpt lat="45.603728950868216" lon="8.219898038269594"><ele>356.0</ele><time>2026-04-07T12:54:06Z</time></trkpt><trkpt lat="45.603685635799025" lon="8.219997769546175"><ele>356.0</ele><time>2026-04-07T12:54:07Z</time></trkpt><trkpt lat="45.60365411972922" lon="8.220097054729136"><ele>356.0</ele><time>2026-04-07T12:54:08Z</time></trkpt><trkpt lat="45.60361602056528" lon="8.220182252456091"><ele>356.0</ele><time>2026-04-07T12:54:09Z</time></trkpt><trkpt lat="45.60356663339198" lon="8.220242830462215"><ele>355.20000000000005</ele><time>2026-04-07T12:54:10Z</time></trkpt><trkpt lat="45.603518114519176" lon="8.220314126364002"><ele>354.40000000000003</ele><time>2026-04-07T12:54:11Z</time></trkpt><trkpt lat="45.60346450582145" lon="8.220442157670648"><ele>353.6</ele><time>2026-04-07T12:54:12Z</time></trkpt><trkpt lat="45.60344227322278" lon="8.22057766386147"><ele>352.8</ele><time>2026-04-07T12:54:13Z</time></trkpt><trkpt lat="45.60340905354255" lon="8.220702651336063"><ele>352.0</ele><time>2026-04-07T12:54:14Z</time></trkpt><trkpt lat="45.60335756635426" lon="8.220817922601874"><ele>352.0</ele><time>2026-04-07T12:54:15Z</time></trkpt><trkpt lat="45.60330355800964" lon="8.22094110577772"><ele>352.0</ele><time>2026-04-07T12:54:16Z</time></trkpt><trkpt lat="45.60325969711829" lon="8.221046386661165"><ele>352.0</ele><time>2026-04-07T12:54:17Z</time></trkpt><trkpt lat="45.6032261847137" lon="8.22114631769142"><ele>352.0</ele><time>2026-04-07T12:54:18Z</time></trkpt><trkpt lat="45.60321165573807" lon="8.221242652973773"><ele>352.0</ele><time>2026-04-07T12:54:19Z</time></trkpt><trkpt lat="45.60323066835592" lon="8.22132996591631"><ele>352.0</ele><time>2026-04-07T12:54:19.999Z</time></trkpt><trkpt lat="45.603244226693334" lon="8.221434898032529"><ele>352.0</ele><time>2026-04-07T12:54:20.999Z</time></trkpt><trkpt lat="45.60323016189349" lon="8.221549519195737"><ele>352.0</ele><time>2026-04-07T12:54:21.999Z</time></trkpt><trkpt lat="45.60319459502623" lon="8.22165964882918"><ele>352.0</ele><time>2026-04-07T12:54:22.999Z</time></trkpt><trkpt lat="45.60317134790706" lon="8.221791718069362"><ele>352.0</ele><time>2026-04-07T12:54:23.999Z</time></trkpt><trkpt lat="45.60316121830292" lon="8.22192345062982"><ele>352.0</ele><time>2026-04-07T12:54:24.999Z</time></trkpt><trkpt lat="45.603144137545655" lon="8.222061035035034"><ele>352.0</ele><time>2026-04-07T12:54:25.999Z</time></trkpt><trkpt lat="45.603128306166866" lon="8.222180588946006"><ele>352.0</ele><time>2026-04-07T12:54:26.999Z</time></trkpt><trkpt lat="45.603098610643784" lon="8.222293802815551"><ele>352.0</ele><time>2026-04-07T12:54:27.999Z</time></trkpt><trkpt lat="45.603068647789335" lon="8.222393000786342"><ele>352.0</ele><time>2026-04-07T12:54:28.999Z</time></trkpt><trkpt lat="45.60300393985718" lon="8.22253108322588"><ele>352.0</ele><time>2026-04-07T12:54:30.999Z</time></trkpt><trkpt lat="45.602980500273304" lon="8.222642859598528"><ele>352.0</ele><time>2026-04-07T12:54:31.999Z</time></trkpt><trkpt lat="45.60295408251063" lon="8.222758630653129"><ele>351.0</ele><time>2026-04-07T12:54:32.999Z</time></trkpt><trkpt lat="45.60292808657346" lon="8.222903776003353"><ele>350.0</ele><time>2026-04-07T12:54:33.999Z</time></trkpt><trkpt lat="45.60289868344638" lon="8.223020320305608"><ele>349.0</ele><time>2026-04-07T12:54:34.999Z</time></trkpt><trkpt lat="45.602862341126475" lon="8.223130774265346"><ele>348.0</ele><time>2026-04-07T12:54:35.999Z</time></trkpt><trkpt lat="45.60281181452736" lon="8.223221801708286"><ele>347.0</ele><time>2026-04-07T12:54:36.999Z</time></trkpt><trkpt lat="45.602751439348154" lon="8.223312636035239"><ele>346.0</ele><time>2026-04-07T12:54:37.999Z</time></trkpt><trkpt lat="45.60269049471614" lon="8.223388051411723"><ele>345.3333333333333</ele><time>2026-04-07T12:54:38.999Z</time></trkpt><trkpt lat="45.60265009261589" lon="8.22347688798427"><ele>344.66666666666663</ele><time>2026-04-07T12:54:39.999Z</time></trkpt><trkpt lat="45.60259820747809" lon="8.22357181870991"><ele>344.0</ele><time>2026-04-07T12:54:40.999Z</time></trkpt><trkpt lat="45.602549761713085" lon="8.223672748697089"><ele>343.3333333333333</ele><time>2026-04-07T12:54:41.999Z</time></trkpt><trkpt lat="45.60249804139047" lon="8.223740708358845"><ele>342.6666666666667</ele><time>2026-04-07T12:54:42.999Z</time></trkpt><trkpt lat="45.60244787238517" lon="8.22381492541924"><ele>342.0</ele><time>2026-04-07T12:54:43.999Z</time></trkpt><trkpt lat="45.60241581059235" lon="8.223908526185827"><ele>341.20000000000005</ele><time>2026-04-07T12:54:44.999Z</time></trkpt><trkpt lat="45.602413599260395" lon="8.224030346905133"><ele>340.4</ele><time>2026-04-07T12:54:45.999Z</time></trkpt><trkpt lat="45.6023873455444" lon="8.224162352365719"><ele>339.6</ele><time>2026-04-07T12:54:46.999Z</time></trkpt><trkpt lat="45.60233883545997" lon="8.224282862181683"><ele>338.79999999999995</ele><time>2026-04-07T12:54:47.999Z</time></trkpt><trkpt lat="45.60228824250974" lon="8.224397754354877"><ele>338.0</ele><time>2026-04-07T12:54:48.999Z</time></trkpt><trkpt lat="45.60226220076604" lon="8.224501975516281"><ele>338.0</ele><time>2026-04-07T12:54:49.999Z</time></trkpt><trkpt lat="45.60225061201825" lon="8.224614563605094"><ele>338.0</ele><time>2026-04-07T12:54:50.999Z</time></trkpt><trkpt lat="45.60225735939512" lon="8.224734957403175"><ele>338.0</ele><time>2026-04-07T12:54:51.999Z</time></trkpt><trkpt lat="45.602246850600615" lon="8.2248389679406"><ele>338.0</ele><time>2026-04-07T12:54:52.999Z</time></trkpt><trkpt lat="45.602184087299364" lon="8.225001989318267"><ele>338.0</ele><time>2026-04-07T12:54:54.999Z</time></trkpt><trkpt lat="45.60209261561518" lon="8.225142155297313"><ele>336.1666666666667</ele><time>2026-04-07T12:54:56.999Z</time></trkpt><trkpt lat="45.60204705799292" lon="8.225205476521516"><ele>334.33333333333337</ele><time>2026-04-07T12:54:57.999Z</time></trkpt><trkpt lat="45.60199540655296" lon="8.225266024928237"><ele>332.5</ele><time>2026-04-07T12:54:58.999Z</time></trkpt><trkpt lat="45.601926975031056" lon="8.225292485136146"><ele>330.6666666666667</ele><time>2026-04-07T12:54:59.999Z</time></trkpt><trkpt lat="45.601861590634236" lon="8.225292008884473"><ele>328.8333333333333</ele><time>2026-04-07T12:55:00.999Z</time></trkpt><trkpt lat="45.60174438386335" lon="8.22526761671449"><ele>327.0</ele><time>2026-04-07T12:55:02.999Z</time></trkpt><trkpt lat="45.6016690703379" lon="8.225240716842663"><ele>327.0</ele><time>2026-04-07T12:55:04.999Z</time></trkpt><trkpt lat="45.6016865945898" lon="8.225344653562667"><ele>327.0</ele><time>2026-04-07T12:55:09.999Z</time></trkpt><trkpt lat="45.601787028790014" lon="8.225415427776568"><ele>327.0</ele><time>2026-04-07T12:55:11.999Z</time></trkpt><trkpt lat="45.60188654902395" lon="8.225516867845482"><ele>327.0</ele><time>2026-04-07T12:55:13.999Z</time></trkpt><trkpt lat="45.60199993886359" lon="8.225556542258856"><ele>327.0</ele><time>2026-04-07T12:55:15.999Z</time></trkpt><trkpt lat="45.60205294191152" lon="8.22562190185188"><ele>325.0</ele><time>2026-04-07T12:55:17.999Z</time></trkpt><trkpt lat="45.60200667607334" lon="8.22569742652009"><ele>323.0</ele><time>2026-04-07T12:55:20.999Z</time></trkpt><trkpt lat="45.60193004112997" lon="8.225709526489087"><ele>321.0</ele><time>2026-04-07T12:55:22.999Z</time></trkpt><trkpt lat="45.60181883965245" lon="8.225730945394421"><ele>319.0</ele><time>2026-04-07T12:55:24.999Z</time></trkpt><trkpt lat="45.6017126233921" lon="8.225805239000191"><ele>317.0</ele><time>2026-04-07T12:55:26.999Z</time></trkpt><trkpt lat="45.601696006545346" lon="8.225900115285592"><ele>315.0</ele><time>2026-04-07T12:55:27.999Z</time></trkpt><trkpt lat="45.601701047762525" lon="8.226003236885939"><ele>315.0</ele><time>2026-04-07T12:55:28.999Z</time></trkpt><trkpt lat="45.601712970401806" lon="8.22610488574577"><ele>315.0</ele><time>2026-04-07T12:55:29.999Z</time></trkpt><trkpt lat="45.601698128070645" lon="8.226211526519497"><ele>315.0</ele><time>2026-04-07T12:55:30.999Z</time></trkpt><trkpt lat="45.60170918024681" lon="8.226325262763847"><ele>315.0</ele><time>2026-04-07T12:55:31.999Z</time></trkpt><trkpt lat="45.60167917180957" lon="8.22643605134948"><ele>315.0</ele><time>2026-04-07T12:55:32.999Z</time></trkpt><trkpt lat="45.6016307251401" lon="8.226539340240016"><ele>315.0</ele><time>2026-04-07T12:55:33.999Z</time></trkpt><trkpt lat="45.601549928092105" lon="8.226618348213814"><ele>312.8333333333333</ele><time>2026-04-07T12:55:34.999Z</time></trkpt><trkpt lat="45.6014773691577" lon="8.226693641396077"><ele>310.6666666666667</ele><time>2026-04-07T12:55:35.999Z</time></trkpt><trkpt lat="45.6014000555512" lon="8.226760628911029"><ele>308.5</ele><time>2026-04-07T12:55:36.999Z</time></trkpt><trkpt lat="45.60132324792172" lon="8.226818082648121"><ele>306.33333333333337</ele><time>2026-04-07T12:55:37.999Z</time></trkpt><trkpt lat="45.60123878766386" lon="8.226856936680838"><ele>304.1666666666667</ele><time>2026-04-07T12:55:38.999Z</time></trkpt><trkpt lat="45.60115523770296" lon="8.226887832727957"><ele>302.0</ele><time>2026-04-07T12:55:39.999Z</time></trkpt><trkpt lat="45.6010739457968" lon="8.226907972729624"><ele>301.1666666666667</ele><time>2026-04-07T12:55:40.999Z</time></trkpt><trkpt lat="45.60098903592881" lon="8.226918939030599"><ele>300.33333333333337</ele><time>2026-04-07T12:55:41.999Z</time></trkpt><trkpt lat="45.600909027135295" lon="8.226915527327424"><ele>299.5</ele><time>2026-04-07T12:55:42.999Z</time></trkpt><trkpt lat="45.6008359797243" lon="8.226889249303616"><ele>298.6666666666667</ele><time>2026-04-07T12:55:43.999Z</time></trkpt><trkpt lat="45.600761901067166" lon="8.226837850452002"><ele>297.8333333333333</ele><time>2026-04-07T12:55:44.999Z</time></trkpt><trkpt lat="45.60069820245149" lon="8.226769285850512"><ele>297.0</ele><time>2026-04-07T12:55:45.999Z</time></trkpt><trkpt lat="45.60065038516739" lon="8.226683523604095"><ele>297.0</ele><time>2026-04-07T12:55:47Z</time></trkpt><trkpt lat="45.60062716534122" lon="8.226584584394585"><ele>297.0</ele><time>2026-04-07T12:55:48Z</time></trkpt><trkpt lat="45.60061218656774" lon="8.22647284831978"><ele>297.0</ele><time>2026-04-07T12:55:49Z</time></trkpt><trkpt lat="45.60064463393041" lon="8.226349083115762"><ele>297.0</ele><time>2026-04-07T12:55:50Z</time></trkpt><trkpt lat="45.6006605966054" lon="8.22623451415829"><ele>297.0</ele><time>2026-04-07T12:55:51Z</time></trkpt><trkpt lat="45.60064883257297" lon="8.22613340090591"><ele>297.0</ele><time>2026-04-07T12:55:52Z</time></trkpt><trkpt lat="45.600608592195236" lon="8.226042020704835"><ele>298.0</ele><time>2026-04-07T12:55:53Z</time></trkpt><trkpt lat="45.60053738473014" lon="8.225960883019543"><ele>299.0</ele><time>2026-04-07T12:55:54Z</time></trkpt><trkpt lat="45.60046554847341" lon="8.225886064499065"><ele>300.0</ele><time>2026-04-07T12:55:55Z</time></trkpt><trkpt lat="45.60039592812183" lon="8.225780397923325"><ele>301.0</ele><time>2026-04-07T12:55:56Z</time></trkpt><trkpt lat="45.60034090615752" lon="8.22568766379465"><ele>302.0</ele><time>2026-04-07T12:55:57Z</time></trkpt><trkpt lat="45.60030718965424" lon="8.225605460322159"><ele>303.0</ele><time>2026-04-07T12:55:58Z</time></trkpt><trkpt lat="45.60033649983997" lon="8.22550080243998"><ele>303.0</ele><time>2026-04-07T12:55:59Z</time></trkpt><trkpt lat="45.600369833938366" lon="8.22542044724819"><ele>303.0</ele><time>2026-04-07T12:56:00Z</time></trkpt><trkpt lat="45.60033814860594" lon="8.22530702813463"><ele>303.0</ele><time>2026-04-07T12:56:02Z</time></trkpt><trkpt lat="45.60024009207207" lon="8.225374537320628"><ele>303.0</ele><time>2026-04-07T12:56:03Z</time></trkpt><trkpt lat="45.6002104525199" lon="8.225503809716344"><ele>303.0</ele><time>2026-04-07T12:56:04Z</time></trkpt><trkpt lat="45.60018455068487" lon="8.225638060146053"><ele>299.0</ele><time>2026-04-07T12:56:05Z</time></trkpt><trkpt lat="45.60016716234711" lon="8.225776976251776"><ele>295.0</ele><time>2026-04-07T12:56:06Z</time></trkpt><trkpt lat="45.600162877307426" lon="8.225906881964294"><ele>291.0</ele><time>2026-04-07T12:56:07Z</time></trkpt><trkpt lat="45.60016285087704" lon="8.226013758359052"><ele>287.0</ele><time>2026-04-07T12:56:08Z</time></trkpt><trkpt lat="45.600181381066555" lon="8.226107031254106"><ele>283.0</ele><time>2026-04-07T12:56:09Z</time></trkpt><trkpt lat="45.600229903689325" lon="8.226175431825077"><ele>279.0</ele><time>2026-04-07T12:56:10Z</time></trkpt><trkpt lat="45.600295459009516" lon="8.226280019137642"><ele>279.0</ele><time>2026-04-07T12:56:12Z</time></trkpt><trkpt lat="45.60023406167487" lon="8.226321260971675"><ele>279.0</ele><time>2026-04-07T12:56:13Z</time></trkpt><trkpt lat="45.60013586009581" lon="8.226273853393982"><ele>279.0</ele><time>2026-04-07T12:56:15Z</time></trkpt><trkpt lat="45.600080958073264" lon="8.226214464398604"><ele>279.0</ele><time>2026-04-07T12:56:16Z</time></trkpt><trkpt lat="45.60001546792975" lon="8.226187000372796"><ele>279.0</ele><time>2026-04-07T12:56:17Z</time></trkpt><trkpt lat="45.59995982994701" lon="8.226138756586982"><ele>279.0</ele><time>2026-04-07T12:56:18Z</time></trkpt><trkpt lat="45.599846228272504" lon="8.22611606056483"><ele>279.0</ele><time>2026-04-07T12:56:20Z</time></trkpt><trkpt lat="45.59979392922896" lon="8.226174239180043"><ele>279.0</ele><time>2026-04-07T12:56:21Z</time></trkpt><trkpt lat="45.59981444830038" lon="8.226325026383469"><ele>279.0</ele><time>2026-04-07T12:56:22Z</time></trkpt><trkpt lat="45.59985596935684" lon="8.226447175420255"><ele>279.0</ele><time>2026-04-07T12:56:23Z</time></trkpt><trkpt lat="45.599890114859" lon="8.22655679432782"><ele>279.0</ele><time>2026-04-07T12:56:24Z</time></trkpt><trkpt lat="45.599916916489995" lon="8.226668641525967"><ele>279.0</ele><time>2026-04-07T12:56:25Z</time></trkpt><trkpt lat="45.59993576509768" lon="8.226776419956378"><ele>278.1666666666667</ele><time>2026-04-07T12:56:26Z</time></trkpt><trkpt lat="45.59993729992831" lon="8.226874220960559"><ele>277.3333333333333</ele><time>2026-04-07T12:56:27Z</time></trkpt><trkpt lat="45.59989708891436" lon="8.22699398790668"><ele>276.5</ele><time>2026-04-07T12:56:28.999Z</time></trkpt><trkpt lat="45.59981376066625" lon="8.226979256205388"><ele>275.66666666666663</ele><time>2026-04-07T12:56:30.999Z</time></trkpt><trkpt lat="45.59976476151813" lon="8.226894338429338"><ele>274.8333333333333</ele><time>2026-04-07T12:56:32.999Z</time></trkpt><trkpt lat="45.59974458799535" lon="8.227006389446771"><ele>274.0</ele><time>2026-04-07T12:56:34.999Z</time></trkpt><trkpt lat="45.59979600020794" lon="8.227083539496507"><ele>274.0</ele><time>2026-04-07T12:56:35.999Z</time></trkpt><trkpt lat="45.599845514670236" lon="8.227155840210717"><ele>274.0</ele><time>2026-04-07T12:56:36.999Z</time></trkpt><trkpt lat="45.59985801658218" lon="8.227317152253505"><ele>274.0</ele><time>2026-04-07T12:56:38.999Z</time></trkpt><trkpt lat="45.599828060866486" lon="8.227397453010962"><ele>274.0</ele><time>2026-04-07T12:56:39.999Z</time></trkpt><trkpt lat="45.59984088100446" lon="8.227562786321869"><ele>274.0</ele><time>2026-04-07T12:56:41.999Z</time></trkpt><trkpt lat="45.599897352634684" lon="8.227627833630796"><ele>274.0</ele><time>2026-04-07T12:56:42.999Z</time></trkpt><trkpt lat="45.599970507154985" lon="8.227667416391977"><ele>274.5</ele><time>2026-04-07T12:56:43.999Z</time></trkpt><trkpt lat="45.600047134977196" lon="8.227697151290068"><ele>275.0</ele><time>2026-04-07T12:56:44.999Z</time></trkpt><trkpt lat="45.60012397458626" lon="8.227731088761919"><ele>275.5</ele><time>2026-04-07T12:56:45.999Z</time></trkpt><trkpt lat="45.60020100406787" lon="8.227769195567186"><ele>276.0</ele><time>2026-04-07T12:56:46.999Z</time></trkpt><trkpt lat="45.60027810873635" lon="8.22781173415538"><ele>276.5</ele><time>2026-04-07T12:56:47.999Z</time></trkpt><trkpt lat="45.60035179918743" lon="8.227854185017948"><ele>277.0</ele><time>2026-04-07T12:56:48.999Z</time></trkpt><trkpt lat="45.60041813550824" lon="8.22791741497963"><ele>277.0</ele><time>2026-04-07T12:56:49.999Z</time></trkpt><trkpt lat="45.600480269806646" lon="8.22798503116992"><ele>277.0</ele><time>2026-04-07T12:56:50.999Z</time></trkpt><trkpt lat="45.600513956654716" lon="8.22806490846957"><ele>277.0</ele><time>2026-04-07T12:56:51.999Z</time></trkpt><trkpt lat="45.60057159343414" lon="8.228138399871817"><ele>277.0</ele><time>2026-04-07T12:56:52.999Z</time></trkpt><trkpt lat="45.600608177695754" lon="8.228235238948027"><ele>277.0</ele><time>2026-04-07T12:56:53.999Z</time></trkpt><trkpt lat="45.60065791423279" lon="8.228323107986034"><ele>277.0</ele><time>2026-04-07T12:56:54.999Z</time></trkpt><trkpt lat="45.600708634691244" lon="8.228421945806254"><ele>275.5</ele><time>2026-04-07T12:56:55.999Z</time></trkpt><trkpt lat="45.6007592170921" lon="8.228509922188163"><ele>274.0</ele><time>2026-04-07T12:56:56.999Z</time></trkpt><trkpt lat="45.6008241326969" lon="8.228570784404724"><ele>272.5</ele><time>2026-04-07T12:56:57.999Z</time></trkpt><trkpt lat="45.60089413513938" lon="8.228608251403578"><ele>271.0</ele><time>2026-04-07T12:56:58.999Z</time></trkpt><trkpt lat="45.60095850645377" lon="8.228629494501117"><ele>269.5</ele><time>2026-04-07T12:56:59.999Z</time></trkpt><trkpt lat="45.60101829369494" lon="8.228717194423204"><ele>268.0</ele><time>2026-04-07T12:57:01.999Z</time></trkpt><trkpt lat="45.60106231140253" lon="8.228789564136619"><ele>268.8</ele><time>2026-04-07T12:57:03.999Z</time></trkpt><trkpt lat="45.60104240190465" lon="8.22899925651543"><ele>269.6</ele><time>2026-04-07T12:57:04.999Z</time></trkpt><trkpt lat="45.60105555464469" lon="8.229118807110739"><ele>270.4</ele><time>2026-04-07T12:57:05.999Z</time></trkpt><trkpt lat="45.601061980746294" lon="8.229244058792434"><ele>271.2</ele><time>2026-04-07T12:57:06.999Z</time></trkpt><trkpt lat="45.60105839059968" lon="8.229375916385013"><ele>272.0</ele><time>2026-04-07T12:57:07.999Z</time></trkpt><trkpt lat="45.60106186778005" lon="8.229514648200627"><ele>272.0</ele><time>2026-04-07T12:57:08.999Z</time></trkpt><trkpt lat="45.60107579742579" lon="8.22963501328645"><ele>272.0</ele><time>2026-04-07T12:57:09.999Z</time></trkpt><trkpt lat="45.6010742350061" lon="8.229738897780416"><ele>272.0</ele><time>2026-04-07T12:57:10.999Z</time></trkpt><trkpt lat="45.60104887867917" lon="8.229824356650658"><ele>272.0</ele><time>2026-04-07T12:57:11.999Z</time></trkpt><trkpt lat="45.60102192507202" lon="8.229925690987098"><ele>272.0</ele><time>2026-04-07T12:57:12.999Z</time></trkpt><trkpt lat="45.600990413981336" lon="8.23002757040319"><ele>272.0</ele><time>2026-04-07T12:57:13.999Z</time></trkpt><trkpt lat="45.60095815503315" lon="8.230131493767235"><ele>273.0</ele><time>2026-04-07T12:57:14.999Z</time></trkpt><trkpt lat="45.6009272377769" lon="8.230232482914703"><ele>274.0</ele><time>2026-04-07T12:57:15.999Z</time></trkpt><trkpt lat="45.60089278888022" lon="8.23033616527479"><ele>275.0</ele><time>2026-04-07T12:57:16.999Z</time></trkpt><trkpt lat="45.60087842706277" lon="8.230449769580307"><ele>276.0</ele><time>2026-04-07T12:57:17.999Z</time></trkpt><trkpt lat="45.60086674372997" lon="8.230584618946184"><ele>277.0</ele><time>2026-04-07T12:57:18.999Z</time></trkpt><trkpt lat="45.60082960253846" lon="8.230713338509922"><ele>278.0</ele><time>2026-04-07T12:57:19.999Z</time></trkpt><trkpt lat="45.60076934425631" lon="8.230841949120581"><ele>279.0</ele><time>2026-04-07T12:57:20.999Z</time></trkpt><trkpt lat="45.60072028378455" lon="8.230959233418453"><ele>280.0</ele><time>2026-04-07T12:57:21.999Z</time></trkpt><trkpt lat="45.60067439008924" lon="8.231066357291057"><ele>281.0</ele><time>2026-04-07T12:57:22.999Z</time></trkpt><trkpt lat="45.600629792721904" lon="8.23114494901871"><ele>282.0</ele><time>2026-04-07T12:57:23.999Z</time></trkpt><trkpt lat="45.600618486639114" lon="8.231245270472412"><ele>283.0</ele><time>2026-04-07T12:57:25.999Z</time></trkpt><trkpt lat="45.60072333776381" lon="8.231299221783825"><ele>284.0</ele><time>2026-04-07T12:57:27.999Z</time></trkpt><trkpt lat="45.600777504181394" lon="8.231392247067793"><ele>284.0</ele><time>2026-04-07T12:57:29.999Z</time></trkpt><trkpt lat="45.600850415152514" lon="8.231452247838776"><ele>284.0</ele><time>2026-04-07T12:57:31.999Z</time></trkpt><trkpt lat="45.60092805389005" lon="8.23149930237997"><ele>284.0</ele><time>2026-04-07T12:57:33.999Z</time></trkpt><trkpt lat="45.601013132496455" lon="8.231535380739688"><ele>284.0</ele><time>2026-04-07T12:57:35.999Z</time></trkpt><trkpt lat="45.60107308166857" lon="8.231583197367353"><ele>284.0</ele><time>2026-04-07T12:57:39.999Z</time></trkpt><trkpt lat="45.60113995686401" lon="8.231617445842819"><ele>284.0</ele><time>2026-04-07T12:57:43Z</time></trkpt><trkpt lat="45.6012247845375" lon="8.231674497269438"><ele>284.5</ele><time>2026-04-07T12:57:46Z</time></trkpt><trkpt lat="45.60129199677294" lon="8.231708228854783"><ele>285.0</ele><time>2026-04-07T12:57:48Z</time></trkpt><trkpt lat="45.60137567856205" lon="8.231745890869412"><ele>285.5</ele><time>2026-04-07T12:57:50Z</time></trkpt><trkpt lat="45.601450980537706" lon="8.231764668780345"><ele>286.0</ele><time>2026-04-07T12:57:51Z</time></trkpt><trkpt lat="45.6015394463888" lon="8.231799479454219"><ele>286.5</ele><time>2026-04-07T12:57:52Z</time></trkpt><trkpt lat="45.601616065747685" lon="8.231881641765536"><ele>287.0</ele><time>2026-04-07T12:57:53Z</time></trkpt><trkpt lat="45.60166272066274" lon="8.231945013929925"><ele>287.0</ele><time>2026-04-07T12:57:54Z</time></trkpt><trkpt lat="45.60170899368137" lon="8.232031186798558"><ele>287.0</ele><time>2026-04-07T12:59:09.999Z</time></trkpt><trkpt lat="45.60176227317716" lon="8.232080514129583"><ele>287.0</ele><time>2026-04-07T12:59:15.999Z</time></trkpt><trkpt lat="45.60181600341405" lon="8.232133150692828"><ele>287.0</ele><time>2026-04-07T12:59:24.999Z</time></trkpt><trkpt lat="45.60187496087586" lon="8.232171778777118"><ele>287.0</ele><time>2026-04-07T13:00:02Z</time></trkpt><trkpt lat="45.6018188726285" lon="8.232116089470798"><ele>287.0</ele><time>2026-04-07T13:00:25Z</time></trkpt><trkpt lat="45.601760483463494" lon="8.232052607694651"><ele>287.0</ele><time>2026-04-07T13:00:31Z</time></trkpt><trkpt lat="45.601681950347874" lon="8.231999061094424"><ele>287.0</ele><time>2026-04-07T13:01:21Z</time></trkpt><trkpt lat="45.601775365193355" lon="8.23206718254788"><ele>287.0</ele><time>2026-04-07T13:01:26Z</time></trkpt><trkpt lat="45.60184291802149" lon="8.232127707828566"><ele>287.0</ele><time>2026-04-07T13:01:28Z</time></trkpt><trkpt lat="45.60192868636213" lon="8.232192826246461"><ele>287.0</ele><time>2026-04-07T13:01:30Z</time></trkpt><trkpt lat="45.60198647738552" lon="8.23226688677237"><ele>287.0</ele><time>2026-04-07T13:01:31Z</time></trkpt><trkpt lat="45.60205730670192" lon="8.232371764739897"><ele>289.0</ele><time>2026-04-07T13:01:31.999Z</time></trkpt><trkpt lat="45.602136477099506" lon="8.232460405111013"><ele>291.0</ele><time>2026-04-07T13:01:32.999Z</time></trkpt><trkpt lat="45.602193209678646" lon="8.232502029717944"><ele>293.0</ele><time>2026-04-07T13:01:33.999Z</time></trkpt><trkpt lat="45.602266827611146" lon="8.23251837317855"><ele>295.0</ele><time>2026-04-07T13:01:35.999Z</time></trkpt><trkpt lat="45.60235113016144" lon="8.232528465819188"><ele>297.0</ele><time>2026-04-07T13:01:37.999Z</time></trkpt><trkpt lat="45.60243601105162" lon="8.2326253438623"><ele>299.0</ele><time>2026-04-07T13:01:39.999Z</time></trkpt><trkpt lat="45.602485754758106" lon="8.232741356640254"><ele>299.0</ele><time>2026-04-07T13:01:40.999Z</time></trkpt><trkpt lat="45.60255138223044" lon="8.232835024293342"><ele>299.0</ele><time>2026-04-07T13:01:41.999Z</time></trkpt><trkpt lat="45.60260926473597" lon="8.232923359945334"><ele>299.0</ele><time>2026-04-07T13:01:42.999Z</time></trkpt><trkpt lat="45.60267374583338" lon="8.2330161322342"><ele>299.0</ele><time>2026-04-07T13:01:43.999Z</time></trkpt><trkpt lat="45.602726733598416" lon="8.233122468327933"><ele>299.0</ele><time>2026-04-07T13:01:44.999Z</time></trkpt><trkpt lat="45.602778219996765" lon="8.233215623030782"><ele>299.0</ele><time>2026-04-07T13:01:45.999Z</time></trkpt><trkpt lat="45.60282978046406" lon="8.233281215682798"><ele>301.8</ele><time>2026-04-07T13:01:46.999Z</time></trkpt><trkpt lat="45.60292781736153" lon="8.233328319885022"><ele>304.59999999999997</ele><time>2026-04-07T13:01:48.999Z</time></trkpt><trkpt lat="45.60299526554102" lon="8.233337937981677"><ele>307.4</ele><time>2026-04-07T13:01:49.999Z</time></trkpt><trkpt lat="45.603131622082564" lon="8.233381762186463"><ele>310.2</ele><time>2026-04-07T13:01:51.999Z</time></trkpt><trkpt lat="45.603197706471356" lon="8.233417739569358"><ele>313.0</ele><time>2026-04-07T13:01:53Z</time></trkpt><trkpt lat="45.60326062431424" lon="8.233454933258264"><ele>313.0</ele><time>2026-04-07T13:01:54Z</time></trkpt><trkpt lat="45.60337844721636" lon="8.233526028665851"><ele>313.0</ele><time>2026-04-07T13:01:56Z</time></trkpt><trkpt lat="45.60346574400604" lon="8.233622298763011"><ele>313.0</ele><time>2026-04-07T13:01:58Z</time></trkpt><trkpt lat="45.60356443765346" lon="8.233720719797544"><ele>313.0</ele><time>2026-04-07T13:02:00Z</time></trkpt><trkpt lat="45.603623355413724" lon="8.233754429929853"><ele>313.0</ele><time>2026-04-07T13:02:01Z</time></trkpt><trkpt lat="45.60369387401162" lon="8.233778201160348"><ele>314.3333333333333</ele><time>2026-04-07T13:02:02Z</time></trkpt><trkpt lat="45.603765080730504" lon="8.233774867253885"><ele>315.66666666666663</ele><time>2026-04-07T13:02:03Z</time></trkpt><trkpt lat="45.60382274690946" lon="8.233815973088769"><ele>317.0</ele><time>2026-04-07T13:02:04Z</time></trkpt><trkpt lat="45.6038908187828" lon="8.23383026304773"><ele>318.3333333333333</ele><time>2026-04-07T13:02:05Z</time></trkpt><trkpt lat="45.604001833361764" lon="8.233807741048428"><ele>319.6666666666667</ele><time>2026-04-07T13:02:07Z</time></trkpt><trkpt lat="45.60410443287959" lon="8.233819516799127"><ele>321.0</ele><time>2026-04-07T13:02:09Z</time></trkpt><trkpt lat="45.604129341800856" lon="8.233905668609056"><ele>321.20000000000005</ele><time>2026-04-07T13:02:22Z</time></trkpt><trkpt lat="45.604186389787905" lon="8.234013407970995"><ele>321.40000000000003</ele><time>2026-04-07T13:02:38Z</time></trkpt><trkpt lat="45.60424593224379" lon="8.234115166277322"><ele>321.6</ele><time>2026-04-07T13:02:40Z</time></trkpt><trkpt lat="45.60427411270525" lon="8.234232440990287"><ele>321.8</ele><time>2026-04-07T13:02:42Z</time></trkpt><trkpt lat="45.60428459468603" lon="8.23433464872375"><ele>322.0</ele><time>2026-04-07T13:02:44Z</time></trkpt><trkpt lat="45.60436415267089" lon="8.2344873100208"><ele>322.0</ele><time>2026-04-07T13:02:46Z</time></trkpt><trkpt lat="45.60441808641346" lon="8.234574110637753"><ele>322.0</ele><time>2026-04-07T13:02:47Z</time></trkpt><trkpt lat="45.60451455571115" lon="8.23467697001131"><ele>322.0</ele><time>2026-04-07T13:02:48Z</time></trkpt><trkpt lat="45.60459301885319" lon="8.234780420289388"><ele>322.0</ele><time>2026-04-07T13:02:49Z</time></trkpt><trkpt lat="45.60465659822879" lon="8.234870529205068"><ele>322.0</ele><time>2026-04-07T13:02:50Z</time></trkpt><trkpt lat="45.60470352295094" lon="8.234966876314449"><ele>324.16666666666663</ele><time>2026-04-07T13:02:51Z</time></trkpt><trkpt lat="45.60473129150036" lon="8.23505881376678"><ele>326.3333333333333</ele><time>2026-04-07T13:02:52Z</time></trkpt><trkpt lat="45.60474528112276" lon="8.235174041645946"><ele>328.5</ele><time>2026-04-07T13:02:53Z</time></trkpt><trkpt lat="45.60476924546452" lon="8.235276827387512"><ele>330.6666666666667</ele><time>2026-04-07T13:02:54Z</time></trkpt><trkpt lat="45.60480934148799" lon="8.23535965515989"><ele>332.83333333333337</ele><time>2026-04-07T13:02:55Z</time></trkpt><trkpt lat="45.60489953038949" lon="8.23548232511914"><ele>335.0</ele><time>2026-04-07T13:02:57Z</time></trkpt><trkpt lat="45.60495990052977" lon="8.235547835132953"><ele>335.0</ele><time>2026-04-07T13:02:58Z</time></trkpt><trkpt lat="45.60503122234047" lon="8.235613335788345"><ele>335.0</ele><time>2026-04-07T13:02:59Z</time></trkpt><trkpt lat="45.60510041784489" lon="8.235682607179918"><ele>335.0</ele><time>2026-04-07T13:03:00Z</time></trkpt><trkpt lat="45.605191632480974" lon="8.235755950089677"><ele>335.0</ele><time>2026-04-07T13:03:01Z</time></trkpt><trkpt lat="45.60526026987407" lon="8.235775338277861"><ele>335.0</ele><time>2026-04-07T13:03:02Z</time></trkpt><trkpt lat="45.60538798100434" lon="8.235817118842368"><ele>335.83333333333337</ele><time>2026-04-07T13:03:04Z</time></trkpt><trkpt lat="45.605495009061045" lon="8.23581397885846"><ele>336.6666666666667</ele><time>2026-04-07T13:03:06Z</time></trkpt><trkpt lat="45.60562175728192" lon="8.235839285708739"><ele>337.5</ele><time>2026-04-07T13:03:08Z</time></trkpt><trkpt lat="45.60568771271275" lon="8.235819987631332"><ele>338.3333333333333</ele><time>2026-04-07T13:03:09Z</time></trkpt><trkpt lat="45.60575672861056" lon="8.235809423662587"><ele>339.16666666666663</ele><time>2026-04-07T13:03:10Z</time></trkpt><trkpt lat="45.60582919279144" lon="8.23581010213164"><ele>340.0</ele><time>2026-04-07T13:03:11Z</time></trkpt><trkpt lat="45.60589859418388" lon="8.235811097785556"><ele>340.0</ele><time>2026-04-07T13:03:12Z</time></trkpt><trkpt lat="45.605961694508046" lon="8.235794732702503"><ele>340.0</ele><time>2026-04-07T13:03:13Z</time></trkpt><trkpt lat="45.60602723502581" lon="8.235794827064703"><ele>340.0</ele><time>2026-04-07T13:03:14Z</time></trkpt><trkpt lat="45.60605297754223" lon="8.235957395793237"><ele>340.0</ele><time>2026-04-07T13:03:16Z</time></trkpt><trkpt lat="45.60604111462487" lon="8.236073283848368"><ele>340.0</ele><time>2026-04-07T13:03:17Z</time></trkpt><trkpt lat="45.606040109265095" lon="8.236180383749192"><ele>340.0</ele><time>2026-04-07T13:03:18Z</time></trkpt><trkpt lat="45.60603476519892" lon="8.236284328311479"><ele>340.0</ele><time>2026-04-07T13:03:19Z</time></trkpt><trkpt lat="45.606000759180084" lon="8.236385087722255"><ele>340.0</ele><time>2026-04-07T13:03:20Z</time></trkpt><trkpt lat="45.60596027106634" lon="8.23647634306798"><ele>340.0</ele><time>2026-04-07T13:03:22Z</time></trkpt><trkpt lat="45.60587874714255" lon="8.236540412580757"><ele>340.0</ele><time>2026-04-07T13:03:39Z</time></trkpt><trkpt lat="45.6057893667811" lon="8.236606890837821"><ele>340.0</ele><time>2026-04-07T13:03:41Z</time></trkpt><trkpt lat="45.60573211821474" lon="8.236645548275582"><ele>340.0</ele><time>2026-04-07T13:03:42Z</time></trkpt><trkpt lat="45.60567352747556" lon="8.23670391333356"><ele>340.0</ele><time>2026-04-07T13:03:43Z</time></trkpt><trkpt lat="45.60561473757332" lon="8.23678011549748"><ele>340.0</ele><time>2026-04-07T13:03:44Z</time></trkpt><trkpt lat="45.605583773499525" lon="8.236939629401279"><ele>340.0</ele><time>2026-04-07T13:03:45Z</time></trkpt><trkpt lat="45.605522945152146" lon="8.23699738046319"><ele>340.0</ele><time>2026-04-07T13:03:45.999Z</time></trkpt><trkpt lat="45.60545668377815" lon="8.237060291702253"><ele>340.0</ele><time>2026-04-07T13:03:46.999Z</time></trkpt><trkpt lat="45.60538019844907" lon="8.237106439932706"><ele>340.0</ele><time>2026-04-07T13:03:47.999Z</time></trkpt><trkpt lat="45.60533060793056" lon="8.23720360695963"><ele>340.66666666666663</ele><time>2026-04-07T13:03:48.999Z</time></trkpt><trkpt lat="45.60526322921343" lon="8.23724430425581"><ele>341.3333333333333</ele><time>2026-04-07T13:03:49.999Z</time></trkpt><trkpt lat="45.60519727983941" lon="8.237307381875212"><ele>342.0</ele><time>2026-04-07T13:03:50.999Z</time></trkpt><trkpt lat="45.605132881190286" lon="8.237371276667306"><ele>342.6666666666667</ele><time>2026-04-07T13:03:51.999Z</time></trkpt><trkpt lat="45.60507471466945" lon="8.237430684193628"><ele>343.33333333333337</ele><time>2026-04-07T13:03:52.999Z</time></trkpt><trkpt lat="45.60500330064919" lon="8.237506536806299"><ele>344.0</ele><time>2026-04-07T13:03:53.999Z</time></trkpt><trkpt lat="45.60493830263915" lon="8.237581041037052"><ele>344.33333333333337</ele><time>2026-04-07T13:03:54.999Z</time></trkpt><trkpt lat="45.604870890772375" lon="8.237656078264004"><ele>344.6666666666667</ele><time>2026-04-07T13:03:55.999Z</time></trkpt><trkpt lat="45.60481054927657" lon="8.237715079305582"><ele>345.0</ele><time>2026-04-07T13:03:56.999Z</time></trkpt><trkpt lat="45.604754752576355" lon="8.237766532113362"><ele>345.3333333333333</ele><time>2026-04-07T13:03:57.999Z</time></trkpt><trkpt lat="45.60469487856256" lon="8.237816208890774"><ele>345.66666666666663</ele><time>2026-04-07T13:03:59Z</time></trkpt><trkpt lat="45.60458818321825" lon="8.237882877860962"><ele>346.0</ele><time>2026-04-07T13:04:01Z</time></trkpt><trkpt lat="45.604493920035765" lon="8.237853510698534"><ele>346.0</ele><time>2026-04-07T13:04:03Z</time></trkpt><trkpt lat="45.604418187296965" lon="8.237934475369961"><ele>346.0</ele><time>2026-04-07T13:04:05Z</time></trkpt><trkpt lat="45.60432916432489" lon="8.23797179073554"><ele>346.0</ele><time>2026-04-07T13:04:07Z</time></trkpt><trkpt lat="45.60425198124791" lon="8.238017053956675"><ele>346.0</ele><time>2026-04-07T13:04:09Z</time></trkpt><trkpt lat="45.60415019999184" lon="8.238035013437177"><ele>346.0</ele><time>2026-04-07T13:04:11Z</time></trkpt><trkpt lat="45.60402424502819" lon="8.238072949511011"><ele>346.0</ele><time>2026-04-07T13:04:13Z</time></trkpt><trkpt lat="45.60395507572937" lon="8.238090159495206"><ele>346.0</ele><time>2026-04-07T13:04:14Z</time></trkpt><trkpt lat="45.60388739359223" lon="8.238105008203679"><ele>346.0</ele><time>2026-04-07T13:04:15Z</time></trkpt><trkpt lat="45.60381547010075" lon="8.238117829945772"><ele>346.0</ele><time>2026-04-07T13:04:16Z</time></trkpt><trkpt lat="45.60375024086436" lon="8.238127828199746"><ele>346.0</ele><time>2026-04-07T13:04:17Z</time></trkpt><trkpt lat="45.60368128812059" lon="8.238137024806116"><ele>346.0</ele><time>2026-04-07T13:04:18Z</time></trkpt><trkpt lat="45.60361435492831" lon="8.238145182744397"><ele>346.0</ele><time>2026-04-07T13:04:19Z</time></trkpt><trkpt lat="45.60354993782442" lon="8.238153068060074"><ele>345.8</ele><time>2026-04-07T13:04:20Z</time></trkpt><trkpt lat="45.60343397362086" lon="8.238179653544888"><ele>345.6</ele><time>2026-04-07T13:04:22Z</time></trkpt><trkpt lat="45.603363032492744" lon="8.238177252975253"><ele>345.4</ele><time>2026-04-07T13:04:23Z</time></trkpt><trkpt lat="45.60328652708082" lon="8.238173286799148"><ele>345.2</ele><time>2026-04-07T13:04:24Z</time></trkpt><trkpt lat="45.60321878165183" lon="8.238198780614589"><ele>345.0</ele><time>2026-04-07T13:04:25Z</time></trkpt><trkpt lat="45.60310234187316" lon="8.23817457540229"><ele>345.0</ele><time>2026-04-07T13:04:27Z</time></trkpt><trkpt lat="45.60297159216244" lon="8.238175936567568"><ele>345.0</ele><time>2026-04-07T13:04:29Z</time></trkpt><trkpt lat="45.602911224648054" lon="8.238142961056994"><ele>345.0</ele><time>2026-04-07T13:04:30Z</time></trkpt><trkpt lat="45.60279760382927" lon="8.238104516795637"><ele>345.0</ele><time>2026-04-07T13:04:32Z</time></trkpt><trkpt lat="45.60272197379501" lon="8.238029214519079"><ele>345.0</ele><time>2026-04-07T13:04:34Z</time></trkpt><trkpt lat="45.602648059873594" lon="8.237889428994274"><ele>344.0</ele><time>2026-04-07T13:04:36Z</time></trkpt><trkpt lat="45.602592845258656" lon="8.237816853978325"><ele>343.0</ele><time>2026-04-07T13:04:37Z</time></trkpt><trkpt lat="45.60255864879034" lon="8.237707427412982"><ele>342.0</ele><time>2026-04-07T13:04:38Z</time></trkpt><trkpt lat="45.602513215599714" lon="8.237621676387263"><ele>341.0</ele><time>2026-04-07T13:04:39Z</time></trkpt><trkpt lat="45.602468100362984" lon="8.237544737235698"><ele>340.0</ele><time>2026-04-07T13:04:40Z</time></trkpt><trkpt lat="45.60239948025202" lon="8.237490479507754"><ele>339.0</ele><time>2026-04-07T13:04:41Z</time></trkpt><trkpt lat="45.60231100481542" lon="8.23750183604572"><ele>339.0</ele><time>2026-04-07T13:04:42Z</time></trkpt><trkpt lat="45.60222865970932" lon="8.237522926588392"><ele>339.0</ele><time>2026-04-07T13:04:43Z</time></trkpt><trkpt lat="45.60213476047108" lon="8.237527604702056"><ele>339.0</ele><time>2026-04-07T13:04:44Z</time></trkpt><trkpt lat="45.60204525172979" lon="8.237542665581012"><ele>339.0</ele><time>2026-04-07T13:04:45Z</time></trkpt><trkpt lat="45.601954760457325" lon="8.237627560408978"><ele>339.0</ele><time>2026-04-07T13:04:46Z</time></trkpt><trkpt lat="45.6018808507531" lon="8.237701907407262"><ele>336.6666666666667</ele><time>2026-04-07T13:04:47Z</time></trkpt><trkpt lat="45.60180414554048" lon="8.237783046292227"><ele>334.3333333333333</ele><time>2026-04-07T13:04:48Z</time></trkpt><trkpt lat="45.60173800099756" lon="8.237865944675578"><ele>332.0</ele><time>2026-04-07T13:04:49Z</time></trkpt><trkpt lat="45.6016780899237" lon="8.237928033510865"><ele>329.66666666666663</ele><time>2026-04-07T13:04:50Z</time></trkpt><trkpt lat="45.60160492211932" lon="8.237950154745771"><ele>327.3333333333333</ele><time>2026-04-07T13:04:51Z</time></trkpt><trkpt lat="45.601531612834144" lon="8.237936502498505"><ele>325.0</ele><time>2026-04-07T13:04:52Z</time></trkpt><trkpt lat="45.60148519234041" lon="8.237817652724411"><ele>325.0</ele><time>2026-04-07T13:04:53Z</time></trkpt><trkpt lat="45.60142515390306" lon="8.23773579416296"><ele>325.0</ele><time>2026-04-07T13:04:54Z</time></trkpt><trkpt lat="45.601348441621106" lon="8.237668761156973"><ele>325.0</ele><time>2026-04-07T13:04:55Z</time></trkpt><trkpt lat="45.60129066910546" lon="8.237587388068373"><ele>325.0</ele><time>2026-04-07T13:04:56Z</time></trkpt><trkpt lat="45.601223628161314" lon="8.237560607326373"><ele>325.0</ele><time>2026-04-07T13:04:57Z</time></trkpt><trkpt lat="45.60116166195381" lon="8.23741783532778"><ele>325.0</ele><time>2026-04-07T13:05:00Z</time></trkpt><trkpt lat="45.60107349421865" lon="8.237352987484227"><ele>323.2</ele><time>2026-04-07T13:05:02Z</time></trkpt><trkpt lat="45.60110624379605" lon="8.237156583418281"><ele>321.4</ele><time>2026-04-07T13:05:03Z</time></trkpt><trkpt lat="45.60108942209162" lon="8.236993268240303"><ele>319.6</ele><time>2026-04-07T13:05:05Z</time></trkpt><trkpt lat="45.60106486833511" lon="8.236870727491812"><ele>317.8</ele><time>2026-04-07T13:05:07Z</time></trkpt><trkpt lat="45.601050007771185" lon="8.236757826052306"><ele>316.0</ele><time>2026-04-07T13:05:09Z</time></trkpt><trkpt lat="45.6010002630439" lon="8.23664011192783"><ele>316.0</ele><time>2026-04-07T13:05:11Z</time></trkpt><trkpt lat="45.600921223186695" lon="8.236621988088503"><ele>316.0</ele><time>2026-04-07T13:05:13Z</time></trkpt><trkpt lat="45.60083799325629" lon="8.236655989362387"><ele>316.0</ele><time>2026-04-07T13:05:16Z</time></trkpt><trkpt lat="45.6007673429699" lon="8.236643241379923"><ele>316.0</ele><time>2026-04-07T13:05:18Z</time></trkpt><trkpt lat="45.60068917716901" lon="8.236671955092914"><ele>316.0</ele><time>2026-04-07T13:05:21Z</time></trkpt><trkpt lat="45.60059252038105" lon="8.236664956725331"><ele>316.0</ele><time>2026-04-07T13:05:24Z</time></trkpt><trkpt lat="45.60054873744966" lon="8.236550139162295"><ele>316.0</ele><time>2026-04-07T13:05:28Z</time></trkpt><trkpt lat="45.60050676531815" lon="8.236428345699215"><ele>316.0</ele><time>2026-04-07T13:05:46.999Z</time></trkpt><trkpt lat="45.60052199047646" lon="8.236339209914581"><ele>316.0</ele><time>2026-04-07T13:05:48.999Z</time></trkpt><trkpt lat="45.600491713406505" lon="8.23620644727253"><ele>316.0</ele><time>2026-04-07T13:05:50.999Z</time></trkpt><trkpt lat="45.60044689038897" lon="8.236129982421614"><ele>316.0</ele><time>2026-04-07T13:05:51.999Z</time></trkpt><trkpt lat="45.60039669485866" lon="8.236062410908616"><ele>316.0</ele><time>2026-04-07T13:05:52.999Z</time></trkpt><trkpt lat="45.60030395327167" lon="8.235946768995236"><ele>314.40000000000003</ele><time>2026-04-07T13:05:54.999Z</time></trkpt><trkpt lat="45.60018400133255" lon="8.235892582575172"><ele>312.8</ele><time>2026-04-07T13:05:56.999Z</time></trkpt><trkpt lat="45.60011903487964" lon="8.235822200697804"><ele>311.20000000000005</ele><time>2026-04-07T13:05:58.999Z</time></trkpt><trkpt lat="45.60009119206164" lon="8.235736878280067"><ele>309.6</ele><time>2026-04-07T13:06:01.999Z</time></trkpt><trkpt lat="45.600048804107594" lon="8.235645791941481"><ele>308.0</ele><time>2026-04-07T13:06:05Z</time></trkpt><trkpt lat="45.59998223910285" lon="8.235514023362953"><ele>308.0</ele><time>2026-04-07T13:06:08Z</time></trkpt><trkpt lat="45.599898895596766" lon="8.235407194820073"><ele>308.0</ele><time>2026-04-07T13:06:10Z</time></trkpt><trkpt lat="45.599838395630655" lon="8.235306609149607"><ele>308.0</ele><time>2026-04-07T13:06:12Z</time></trkpt><trkpt lat="45.59979146173316" lon="8.235231335921602"><ele>308.0</ele><time>2026-04-07T13:06:14Z</time></trkpt><trkpt lat="45.59976354988524" lon="8.235149669539437"><ele>308.0</ele><time>2026-04-07T13:06:23Z</time></trkpt><trkpt lat="45.5997323076834" lon="8.235068541369849"><ele>308.0</ele><time>2026-04-07T13:07:27Z</time></trkpt><trkpt lat="45.59976668378416" lon="8.235145555045822"><ele>308.0</ele><time>2026-04-07T13:07:47Z</time></trkpt><trkpt lat="45.599714539569874" lon="8.235050825791003"><ele>308.0</ele><time>2026-04-07T13:07:56.999Z</time></trkpt><trkpt lat="45.599670148721394" lon="8.234919330730623"><ele>308.0</ele><time>2026-04-07T13:07:59.999Z</time></trkpt><trkpt lat="45.59965135882151" lon="8.234815380788918"><ele>308.0</ele><time>2026-04-07T13:08:07.999Z</time></trkpt><trkpt lat="45.59963042870692" lon="8.234693350386303"><ele>308.0</ele><time>2026-04-07T13:08:09.999Z</time></trkpt><trkpt lat="45.59960896958638" lon="8.234596817789505"><ele>308.0</ele><time>2026-04-07T13:08:11Z</time></trkpt><trkpt lat="45.599589645668615" lon="8.234507448751236"><ele>307.0</ele><time>2026-04-07T13:08:12Z</time></trkpt><trkpt lat="45.59951463520746" lon="8.234370969746934"><ele>306.0</ele><time>2026-04-07T13:08:14Z</time></trkpt><trkpt lat="45.59946265897262" lon="8.234288130766737"><ele>305.0</ele><time>2026-04-07T13:08:15Z</time></trkpt><trkpt lat="45.599392764607934" lon="8.234169968054518"><ele>304.0</ele><time>2026-04-07T13:08:17Z</time></trkpt><trkpt lat="45.59937199110656" lon="8.234074025135723"><ele>303.0</ele><time>2026-04-07T13:09:46.999Z</time></trkpt><trkpt lat="45.59940376134049" lon="8.234155647768912"><ele>302.0</ele><time>2026-04-07T13:10:21Z</time></trkpt><trkpt lat="45.5993514299864" lon="8.23405564199468"><ele>302.0</ele><time>2026-04-07T13:11:03Z</time></trkpt><trkpt lat="45.59930705505749" lon="8.233974313839278"><ele>302.0</ele><time>2026-04-07T13:11:04Z</time></trkpt><trkpt lat="45.59922717172408" lon="8.233892032032676"><ele>302.0</ele><time>2026-04-07T13:11:06Z</time></trkpt><trkpt lat="45.59911614440579" lon="8.233861749479763"><ele>302.0</ele><time>2026-04-07T13:11:08Z</time></trkpt><trkpt lat="45.59903912963208" lon="8.233873400599593"><ele>302.0</ele><time>2026-04-07T13:11:09Z</time></trkpt><trkpt lat="45.598966391926425" lon="8.233900106451351"><ele>302.0</ele><time>2026-04-07T13:11:10Z</time></trkpt><trkpt lat="45.5988437882734" lon="8.23392600093373"><ele>300.6666666666667</ele><time>2026-04-07T13:11:12Z</time></trkpt><trkpt lat="45.59877506060731" lon="8.233915940103012"><ele>299.33333333333337</ele><time>2026-04-07T13:11:13Z</time></trkpt><trkpt lat="45.59869696559298" lon="8.233908032881798"><ele>298.0</ele><time>2026-04-07T13:11:14Z</time></trkpt><trkpt lat="45.598611783988865" lon="8.233912669706168"><ele>296.6666666666667</ele><time>2026-04-07T13:11:15Z</time></trkpt><trkpt lat="45.59853894689907" lon="8.233918072649276"><ele>295.3333333333333</ele><time>2026-04-07T13:11:16Z</time></trkpt><trkpt lat="45.598411067504905" lon="8.233913218397396"><ele>294.0</ele><time>2026-04-07T13:11:18Z</time></trkpt><trkpt lat="45.59834364424493" lon="8.233895019862622"><ele>293.1666666666667</ele><time>2026-04-07T13:11:19Z</time></trkpt><trkpt lat="45.59827468316052" lon="8.233877653037805"><ele>292.3333333333333</ele><time>2026-04-07T13:11:20Z</time></trkpt><trkpt lat="45.59820484631448" lon="8.233862482252924"><ele>291.5</ele><time>2026-04-07T13:11:21Z</time></trkpt><trkpt lat="45.59812498343626" lon="8.233856322029144"><ele>290.66666666666663</ele><time>2026-04-07T13:11:22Z</time></trkpt><trkpt lat="45.59800159683681" lon="8.233840902704738"><ele>289.8333333333333</ele><time>2026-04-07T13:11:24Z</time></trkpt><trkpt lat="45.597934462817996" lon="8.233836014683826"><ele>289.0</ele><time>2026-04-07T13:11:25Z</time></trkpt><trkpt lat="45.597830421552075" lon="8.233818760661606"><ele>288.8</ele><time>2026-04-07T13:11:27Z</time></trkpt><trkpt lat="45.597725311397156" lon="8.233823882232183"><ele>288.59999999999997</ele><time>2026-04-07T13:11:29Z</time></trkpt><trkpt lat="45.59761609118384" lon="8.23382616807781"><ele>288.4</ele><time>2026-04-07T13:11:31Z</time></trkpt><trkpt lat="45.59751230551743" lon="8.233843472185562"><ele>288.2</ele><time>2026-04-07T13:11:33Z</time></trkpt><trkpt lat="45.59740241074523" lon="8.233855445624329"><ele>288.0</ele><time>2026-04-07T13:11:35Z</time></trkpt><trkpt lat="45.59730438162491" lon="8.2337639962859"><ele>288.0</ele><time>2026-04-07T13:11:37Z</time></trkpt><trkpt lat="45.5972570697617" lon="8.23370105875217"><ele>288.0</ele><time>2026-04-07T13:11:39Z</time></trkpt><trkpt lat="45.59716274034873" lon="8.233637144862628"><ele>288.0</ele><time>2026-04-07T13:11:56.999Z</time></trkpt><trkpt lat="45.597091831799226" lon="8.233574716303227"><ele>288.0</ele><time>2026-04-07T13:11:58.999Z</time></trkpt><trkpt lat="45.5970149082279" lon="8.233514907571468"><ele>288.0</ele><time>2026-04-07T13:12:00.999Z</time></trkpt><trkpt lat="45.59690879206635" lon="8.233409258231465"><ele>286.0</ele><time>2026-04-07T13:12:02.999Z</time></trkpt><trkpt lat="45.596789575372355" lon="8.23331410473489"><ele>284.0</ele><time>2026-04-07T13:12:04.999Z</time></trkpt><trkpt lat="45.596722131908216" lon="8.233265686718404"><ele>282.0</ele><time>2026-04-07T13:12:05.999Z</time></trkpt><trkpt lat="45.59665679596303" lon="8.233209955669915"><ele>280.0</ele><time>2026-04-07T13:12:06.999Z</time></trkpt><trkpt lat="45.59652802454982" lon="8.233138695780081"><ele>278.0</ele><time>2026-04-07T13:12:08.999Z</time></trkpt><trkpt lat="45.59646055316229" lon="8.23309510607559"><ele>276.6</ele><time>2026-04-07T13:12:09.999Z</time></trkpt><trkpt lat="45.596395165835276" lon="8.233060255196108"><ele>275.20000000000005</ele><time>2026-04-07T13:12:10.999Z</time></trkpt><trkpt lat="45.59633433903875" lon="8.233017004463045"><ele>273.8</ele><time>2026-04-07T13:12:11.999Z</time></trkpt><trkpt lat="45.59622845789305" lon="8.232940271638835"><ele>272.40000000000003</ele><time>2026-04-07T13:12:13.999Z</time></trkpt><trkpt lat="45.59614540831516" lon="8.232829526769175"><ele>271.0</ele><time>2026-04-07T13:12:15.999Z</time></trkpt><trkpt lat="45.596065924310174" lon="8.232724194186826"><ele>270.2</ele><time>2026-04-07T13:12:17.999Z</time></trkpt><trkpt lat="45.59597546810491" lon="8.23268778394882"><ele>269.40000000000003</ele><time>2026-04-07T13:12:19.999Z</time></trkpt><trkpt lat="45.59586366596913" lon="8.23271795384113"><ele>268.6</ele><time>2026-04-07T13:12:21.999Z</time></trkpt><trkpt lat="45.59578233866665" lon="8.232787811746508"><ele>267.8</ele><time>2026-04-07T13:12:24Z</time></trkpt><trkpt lat="45.595707281447" lon="8.232896639645112"><ele>267.0</ele><time>2026-04-07T13:12:26Z</time></trkpt><trkpt lat="45.59562688104167" lon="8.23301846390346"><ele>267.0</ele><time>2026-04-07T13:12:28Z</time></trkpt><trkpt lat="45.59557760011541" lon="8.23307493950192"><ele>267.0</ele><time>2026-04-07T13:12:29Z</time></trkpt><trkpt lat="45.595494710668724" lon="8.233179538831177"><ele>267.0</ele><time>2026-04-07T13:12:31Z</time></trkpt><trkpt lat="45.595414544269076" lon="8.233295166222367"><ele>267.0</ele><time>2026-04-07T13:12:33Z</time></trkpt><trkpt lat="45.595262564379574" lon="8.233323499301404"><ele>267.0</ele><time>2026-04-07T13:12:35Z</time></trkpt><trkpt lat="45.5952325359662" lon="8.233441082632215"><ele>265.25</ele><time>2026-04-07T13:12:37Z</time></trkpt><trkpt lat="45.59517997925257" lon="8.233496191239029"><ele>263.5</ele><time>2026-04-07T13:12:38Z</time></trkpt><trkpt lat="45.59504494672592" lon="8.23351004000955"><ele>261.75</ele><time>2026-04-07T13:12:40Z</time></trkpt><trkpt lat="45.59495458925537" lon="8.233483325639893"><ele>260.0</ele><time>2026-04-07T13:12:42Z</time></trkpt><trkpt lat="45.59494095160704" lon="8.233255454734497"><ele>260.0</ele><time>2026-04-07T13:12:46Z</time></trkpt><trkpt lat="45.59497989907675" lon="8.233119682530335"><ele>260.0</ele><time>2026-04-07T13:12:47Z</time></trkpt><trkpt lat="45.59500119571411" lon="8.232958059307208"><ele>260.0</ele><time>2026-04-07T13:12:48Z</time></trkpt><trkpt lat="45.59502309753335" lon="8.232829788422858"><ele>260.0</ele><time>2026-04-07T13:12:49Z</time></trkpt><trkpt lat="45.59504475624102" lon="8.23271348603762"><ele>260.0</ele><time>2026-04-07T13:12:50Z</time></trkpt><trkpt lat="45.59506579227334" lon="8.23259588552828"><ele>260.0</ele><time>2026-04-07T13:12:51Z</time></trkpt><trkpt lat="45.595085652396534" lon="8.232468618057705"><ele>260.0</ele><time>2026-04-07T13:12:52Z</time></trkpt><trkpt lat="45.59510790767774" lon="8.232344857199049"><ele>260.0</ele><time>2026-04-07T13:12:53Z</time></trkpt><trkpt lat="45.595129392221835" lon="8.232221303399276"><ele>260.0</ele><time>2026-04-07T13:12:54Z</time></trkpt><trkpt lat="45.59514587679003" lon="8.232100286674696"><ele>260.0</ele><time>2026-04-07T13:12:55Z</time></trkpt><trkpt lat="45.5951499700393" lon="8.231984020760105"><ele>260.0</ele><time>2026-04-07T13:12:56Z</time></trkpt><trkpt lat="45.59512984568258" lon="8.231879127866332"><ele>260.33333333333337</ele><time>2026-04-07T13:12:57Z</time></trkpt><trkpt lat="45.59508334722274" lon="8.231781509205334"><ele>260.6666666666667</ele><time>2026-04-07T13:12:58Z</time></trkpt><trkpt lat="45.59501369687072" lon="8.231716381631003"><ele>261.0</ele><time>2026-04-07T13:12:59Z</time></trkpt><trkpt lat="45.59492683978521" lon="8.23169192381964"><ele>261.3333333333333</ele><time>2026-04-07T13:13:00Z</time></trkpt><trkpt lat="45.5948413983275" lon="8.231696617546051"><ele>261.66666666666663</ele><time>2026-04-07T13:13:01Z</time></trkpt><trkpt lat="45.59475715128669" lon="8.231726206764415"><ele>262.0</ele><time>2026-04-07T13:13:02Z</time></trkpt><trkpt lat="45.59467299371081" lon="8.23174005741757"><ele>262.0</ele><time>2026-04-07T13:13:03Z</time></trkpt><trkpt lat="45.59459675809887" lon="8.23174837800021"><ele>262.0</ele><time>2026-04-07T13:13:04Z</time></trkpt><trkpt lat="45.59452817566218" lon="8.231759844651776"><ele>262.0</ele><time>2026-04-07T13:13:05Z</time></trkpt><trkpt lat="45.59444508044013" lon="8.231789616231218"><ele>262.0</ele><time>2026-04-07T13:13:07Z</time></trkpt><trkpt lat="45.5943561703663" lon="8.231822353804937"><ele>262.0</ele><time>2026-04-07T13:13:09Z</time></trkpt><trkpt lat="45.59427204499001" lon="8.231960585454623"><ele>263.3333333333333</ele><time>2026-04-07T13:13:11Z</time></trkpt><trkpt lat="45.59421896901554" lon="8.232047796877401"><ele>264.66666666666663</ele><time>2026-04-07T13:13:12Z</time></trkpt><trkpt lat="45.594174660331596" lon="8.232113542776117"><ele>266.0</ele><time>2026-04-07T13:13:13Z</time></trkpt><trkpt lat="45.59407393667771" lon="8.232233843154459"><ele>267.3333333333333</ele><time>2026-04-07T13:13:15Z</time></trkpt><trkpt lat="45.59398516171872" lon="8.232262499443715"><ele>268.6666666666667</ele><time>2026-04-07T13:13:17Z</time></trkpt><trkpt lat="45.59392021122158" lon="8.23230150249298"><ele>270.0</ele><time>2026-04-07T13:13:18Z</time></trkpt><trkpt lat="45.59382372050356" lon="8.23226293280281"><ele>270.0</ele><time>2026-04-07T13:13:21Z</time></trkpt><trkpt lat="45.59375785124463" lon="8.232262051499607"><ele>270.0</ele><time>2026-04-07T13:13:22Z</time></trkpt><trkpt lat="45.59369267537597" lon="8.232261179475843"><ele>270.0</ele><time>2026-04-07T13:13:23Z</time></trkpt><trkpt lat="45.59355892112926" lon="8.232257231045452"><ele>270.0</ele><time>2026-04-07T13:13:25Z</time></trkpt><trkpt lat="45.593484430189065" lon="8.232254802984531"><ele>270.0</ele><time>2026-04-07T13:13:26Z</time></trkpt><trkpt lat="45.59341651664924" lon="8.232252589311969"><ele>270.0</ele><time>2026-04-07T13:13:27Z</time></trkpt><trkpt lat="45.59333636487751" lon="8.232249976729818"><ele>270.5</ele><time>2026-04-07T13:13:28Z</time></trkpt><trkpt lat="45.59326532015096" lon="8.232247660994888"><ele>271.0</ele><time>2026-04-07T13:13:29Z</time></trkpt><trkpt lat="45.59315866730731" lon="8.232257424528441"><ele>271.5</ele><time>2026-04-07T13:13:31Z</time></trkpt><trkpt lat="45.59307989374925" lon="8.232226445180986"><ele>272.0</ele><time>2026-04-07T13:13:33Z</time></trkpt><trkpt lat="45.59301393120285" lon="8.232203502326387"><ele>272.5</ele><time>2026-04-07T13:13:35Z</time></trkpt><trkpt lat="45.592946624968285" lon="8.232173784384498"><ele>273.0</ele><time>2026-04-07T13:13:37Z</time></trkpt><trkpt lat="45.59288469642913" lon="8.232140294505678"><ele>272.6</ele><time>2026-04-07T13:13:39Z</time></trkpt><trkpt lat="45.59280640545341" lon="8.23210267960312"><ele>272.20000000000005</ele><time>2026-04-07T13:13:40.999Z</time></trkpt><trkpt lat="45.59272207311425" lon="8.232112424899196"><ele>271.8</ele><time>2026-04-07T13:13:42.999Z</time></trkpt><trkpt lat="45.59264475433754" lon="8.232176613479542"><ele>271.40000000000003</ele><time>2026-04-07T13:13:44.999Z</time></trkpt><trkpt lat="45.59256210376928" lon="8.23224153664436"><ele>271.0</ele><time>2026-04-07T13:13:46.999Z</time></trkpt><trkpt lat="45.59244652586612" lon="8.232277965460158"><ele>271.0</ele><time>2026-04-07T13:13:48.999Z</time></trkpt><trkpt lat="45.59233399098496" lon="8.232305453983086"><ele>271.0</ele><time>2026-04-07T13:13:50.999Z</time></trkpt><trkpt lat="45.592246009367756" lon="8.232374586638612"><ele>271.0</ele><time>2026-04-07T13:13:53.999Z</time></trkpt><trkpt lat="45.592120765150014" lon="8.232341053404191"><ele>271.0</ele><time>2026-04-07T13:13:55.999Z</time></trkpt><trkpt lat="45.592038985537435" lon="8.23228789173603"><ele>271.0</ele><time>2026-04-07T13:13:58.999Z</time></trkpt><trkpt lat="45.59185338820381" lon="8.23245508424014"><ele>269.8</ele><time>2026-04-07T13:14:01.999Z</time></trkpt><trkpt lat="45.591767019134934" lon="8.232412977208464"><ele>268.6</ele><time>2026-04-07T13:14:17.999Z</time></trkpt><trkpt lat="45.59166420711764" lon="8.232415329930697"><ele>267.4</ele><time>2026-04-07T13:14:19.999Z</time></trkpt><trkpt lat="45.59154918730969" lon="8.23240145860915"><ele>266.2</ele><time>2026-04-07T13:14:21.999Z</time></trkpt><trkpt lat="45.591488873131965" lon="8.23231893534632"><ele>265.0</ele><time>2026-04-07T13:14:22.999Z</time></trkpt><trkpt lat="45.59141781168574" lon="8.232302572979581"><ele>265.0</ele><time>2026-04-07T13:14:23.999Z</time></trkpt><trkpt lat="45.591344509686806" lon="8.232292215588375"><ele>265.0</ele><time>2026-04-07T13:14:24.999Z</time></trkpt><trkpt lat="45.591269087420585" lon="8.232312247087874"><ele>265.0</ele><time>2026-04-07T13:14:25.999Z</time></trkpt><trkpt lat="45.59120414713118" lon="8.232369808685881"><ele>265.0</ele><time>2026-04-07T13:14:26.999Z</time></trkpt><trkpt lat="45.59113906273452" lon="8.232409659512822"><ele>265.0</ele><time>2026-04-07T13:14:27.999Z</time></trkpt><trkpt lat="45.59107172472896" lon="8.232449387297928"><ele>265.0</ele><time>2026-04-07T13:14:29Z</time></trkpt><trkpt lat="45.59099633034001" lon="8.232492716090167"><ele>263.16666666666663</ele><time>2026-04-07T13:14:30Z</time></trkpt><trkpt lat="45.59092479515189" lon="8.232530501164456"><ele>261.3333333333333</ele><time>2026-04-07T13:14:31Z</time></trkpt><trkpt lat="45.59084346047647" lon="8.23254793246782"><ele>259.5</ele><time>2026-04-07T13:14:32Z</time></trkpt><trkpt lat="45.59076015189914" lon="8.23253904896304"><ele>257.6666666666667</ele><time>2026-04-07T13:14:33Z</time></trkpt><trkpt lat="45.590672827603086" lon="8.232529050720384"><ele>255.83333333333334</ele><time>2026-04-07T13:14:34Z</time></trkpt><trkpt lat="45.59057984151633" lon="8.232526953599791"><ele>254.0</ele><time>2026-04-07T13:14:35Z</time></trkpt><trkpt lat="45.59048372583706" lon="8.232513162970458"><ele>254.00000000000003</ele><time>2026-04-07T13:14:36Z</time></trkpt><trkpt lat="45.59038630830266" lon="8.232511638378911"><ele>254.0</ele><time>2026-04-07T13:14:37Z</time></trkpt><trkpt lat="45.59029967900044" lon="8.232520579814933"><ele>254.0</ele><time>2026-04-07T13:14:38Z</time></trkpt><trkpt lat="45.59021737995992" lon="8.232533447426684"><ele>254.0</ele><time>2026-04-07T13:14:39Z</time></trkpt><trkpt lat="45.590141073500455" lon="8.232558070581701"><ele>254.00000000000003</ele><time>2026-04-07T13:14:40Z</time></trkpt><trkpt lat="45.59007062944401" lon="8.232552403323536"><ele>254.0</ele><time>2026-04-07T13:14:41Z</time></trkpt><trkpt lat="45.59000358645978" lon="8.232570983994213"><ele>253.79999999999998</ele><time>2026-04-07T13:14:42Z</time></trkpt><trkpt lat="45.589884642350526" lon="8.232626885675177"><ele>253.59999999999997</ele><time>2026-04-07T13:14:44Z</time></trkpt><trkpt lat="45.58978780354046" lon="8.232653378964676"><ele>253.4</ele><time>2026-04-07T13:14:46Z</time></trkpt><trkpt lat="45.58969372397031" lon="8.23269131888398"><ele>253.2</ele><time>2026-04-07T13:14:48Z</time></trkpt><trkpt lat="45.58957930300879" lon="8.232711534712434"><ele>253.0</ele><time>2026-04-07T13:14:50Z</time></trkpt><trkpt lat="45.589520844545625" lon="8.232763160280127"><ele>252.99999999999997</ele><time>2026-04-07T13:14:51Z</time></trkpt><trkpt lat="45.58945505914631" lon="8.232793612817748"><ele>253.0</ele><time>2026-04-07T13:14:52Z</time></trkpt><trkpt lat="45.58939026749211" lon="8.232821088482613"><ele>253.0</ele><time>2026-04-07T13:14:53Z</time></trkpt><trkpt lat="45.589328968636536" lon="8.232856987823244"><ele>253.0</ele><time>2026-04-07T13:14:54Z</time></trkpt><trkpt lat="45.58920686780625" lon="8.232877545608796"><ele>252.99999999999997</ele><time>2026-04-07T13:14:56Z</time></trkpt><trkpt lat="45.589088520923944" lon="8.23291658212399"><ele>253.0</ele><time>2026-04-07T13:14:58Z</time></trkpt><trkpt lat="45.58901816976869" lon="8.232921497174926"><ele>252.99999999999997</ele><time>2026-04-07T13:14:59Z</time></trkpt><trkpt lat="45.588940738087736" lon="8.232918430179513"><ele>253.0</ele><time>2026-04-07T13:15:00Z</time></trkpt><trkpt lat="45.588860900139466" lon="8.232920427666173"><ele>253.0</ele><time>2026-04-07T13:15:01Z</time></trkpt><trkpt lat="45.58877998540888" lon="8.232920464353223"><ele>253.0</ele><time>2026-04-07T13:15:02Z</time></trkpt><trkpt lat="45.588697112989514" lon="8.232916328215419"><ele>252.99999999999997</ele><time>2026-04-07T13:15:03Z</time></trkpt><trkpt lat="45.58862103492232" lon="8.23289434642657"><ele>253.0</ele><time>2026-04-07T13:15:04Z</time></trkpt><trkpt lat="45.58855204921309" lon="8.232866107870054"><ele>252.71428571428575</ele><time>2026-04-07T13:15:05Z</time></trkpt><trkpt lat="45.58849262418947" lon="8.232810576238371"><ele>252.42857142857144</ele><time>2026-04-07T13:15:06Z</time></trkpt><trkpt lat="45.5884363711517" lon="8.23274153881273"><ele>252.14285714285714</ele><time>2026-04-07T13:15:07Z</time></trkpt><trkpt lat="45.58837522725963" lon="8.23271670852029"><ele>251.85714285714286</ele><time>2026-04-07T13:15:08Z</time></trkpt><trkpt lat="45.58829348033349" lon="8.232722292587217"><ele>251.57142857142856</ele><time>2026-04-07T13:15:09Z</time></trkpt><trkpt lat="45.58822635872473" lon="8.232753632206299"><ele>251.28571428571425</ele><time>2026-04-07T13:15:10Z</time></trkpt><trkpt lat="45.588169009592534" lon="8.232798451922276"><ele>250.99999999999997</ele><time>2026-04-07T13:15:11Z</time></trkpt><trkpt lat="45.5880456373845" lon="8.232842457636826"><ele>251.00000000000003</ele><time>2026-04-07T13:15:13Z</time></trkpt><trkpt lat="45.58797200475564" lon="8.23288324987859"><ele>251.0</ele><time>2026-04-07T13:15:14Z</time></trkpt><trkpt lat="45.58789527685036" lon="8.232933805551982"><ele>251.0</ele><time>2026-04-07T13:15:15Z</time></trkpt><trkpt lat="45.58781961622363" lon="8.232990828162093"><ele>251.0</ele><time>2026-04-07T13:15:16Z</time></trkpt><trkpt lat="45.58774146065189" lon="8.23304160498249"><ele>251.00000000000003</ele><time>2026-04-07T13:15:17Z</time></trkpt><trkpt lat="45.58766545538534" lon="8.233081252127478"><ele>251.0</ele><time>2026-04-07T13:15:18Z</time></trkpt><trkpt lat="45.587588848667224" lon="8.233100610199246"><ele>250.0</ele><time>2026-04-07T13:15:19Z</time></trkpt><trkpt lat="45.587519846805144" lon="8.233087832847328"><ele>249.00000000000003</ele><time>2026-04-07T13:15:20Z</time></trkpt><trkpt lat="45.58742754735216" lon="8.232993209847223"><ele>248.00000000000003</ele><time>2026-04-07T13:15:22Z</time></trkpt><trkpt lat="45.58738901820207" lon="8.23290555823001"><ele>247.0</ele><time>2026-04-07T13:15:23Z</time></trkpt><trkpt lat="45.58731712855177" lon="8.232793747136157"><ele>246.0</ele><time>2026-04-07T13:15:25Z</time></trkpt><trkpt lat="45.58715549894651" lon="8.23295011467815"><ele>246.00000000000003</ele><time>2026-04-07T13:15:27Z</time></trkpt><trkpt lat="45.58709122363804" lon="8.232976726244447"><ele>246.0</ele><time>2026-04-07T13:15:28Z</time></trkpt><trkpt lat="45.58701076346804" lon="8.233008136758441"><ele>246.00000000000003</ele><time>2026-04-07T13:15:29Z</time></trkpt><trkpt lat="45.58693463090163" lon="8.233035932170234"><ele>246.00000000000003</ele><time>2026-04-07T13:15:30Z</time></trkpt><trkpt lat="45.58686470176154" lon="8.233061252239514"><ele>246.0</ele><time>2026-04-07T13:15:31Z</time></trkpt><trkpt lat="45.586790509604974" lon="8.233088042780988"><ele>246.00000000000003</ele><time>2026-04-07T13:15:32Z</time></trkpt><trkpt lat="45.58672466207121" lon="8.233111820120973"><ele>246.00000000000003</ele><time>2026-04-07T13:15:33Z</time></trkpt><trkpt lat="45.586619374595394" lon="8.23314819615976"><ele>245.83333333333334</ele><time>2026-04-07T13:15:34.999Z</time></trkpt><trkpt lat="45.586541396670604" lon="8.233176212940393"><ele>245.66666666666669</ele><time>2026-04-07T13:15:37.999Z</time></trkpt><trkpt lat="45.586464933154744" lon="8.233234796987764"><ele>245.5</ele><time>2026-04-07T13:15:40.999Z</time></trkpt><trkpt lat="45.586415373494724" lon="8.233354770649466"><ele>245.33333333333334</ele><time>2026-04-07T13:15:42.999Z</time></trkpt><trkpt lat="45.58637339768089" lon="8.233434744528042"><ele>245.16666666666669</ele><time>2026-04-07T13:15:43.999Z</time></trkpt><trkpt lat="45.586280664246424" lon="8.23348013190089"><ele>245.0</ele><time>2026-04-07T13:15:45.999Z</time></trkpt><trkpt lat="45.58620159154256" lon="8.233481566333648"><ele>245.25</ele><time>2026-04-07T13:15:46.999Z</time></trkpt><trkpt lat="45.586094294909735" lon="8.233486794661928"><ele>245.5</ele><time>2026-04-07T13:15:47.999Z</time></trkpt><trkpt lat="45.585989378583776" lon="8.233487232613124"><ele>245.75</ele><time>2026-04-07T13:15:48.999Z</time></trkpt><trkpt lat="45.58586624554983" lon="8.233502184462186"><ele>246.0</ele><time>2026-04-07T13:15:49.999Z</time></trkpt><trkpt lat="45.5857470286968" lon="8.233555033682315"><ele>246.0</ele><time>2026-04-07T13:15:50.999Z</time></trkpt><trkpt lat="45.58564156342842" lon="8.2336573935665"><ele>246.00000000000003</ele><time>2026-04-07T13:15:51.999Z</time></trkpt><trkpt lat="45.585539283786225" lon="8.233698951278283"><ele>246.00000000000003</ele><time>2026-04-07T13:15:52.999Z</time></trkpt><trkpt lat="45.585450116963244" lon="8.233684465950677"><ele>246.0</ele><time>2026-04-07T13:15:53.999Z</time></trkpt><trkpt lat="45.58536942723624" lon="8.233696319896787"><ele>246.0</ele><time>2026-04-07T13:15:54.999Z</time></trkpt><trkpt lat="45.585306756447075" lon="8.23372607983491"><ele>246.20000000000002</ele><time>2026-04-07T13:15:55.999Z</time></trkpt><trkpt lat="45.58524020841547" lon="8.233866301337484"><ele>246.40000000000003</ele><time>2026-04-07T13:15:57.999Z</time></trkpt><trkpt lat="45.58523779265881" lon="8.233995618844725"><ele>246.6</ele><time>2026-04-07T13:15:58.999Z</time></trkpt><trkpt lat="45.58525860822087" lon="8.234132735887064"><ele>246.8</ele><time>2026-04-07T13:15:59.999Z</time></trkpt><trkpt lat="45.585304134983694" lon="8.23425183618145"><ele>247.0</ele><time>2026-04-07T13:16:00.999Z</time></trkpt><trkpt lat="45.585319098386805" lon="8.234365762481335"><ele>247.33333333333331</ele><time>2026-04-07T13:16:01.999Z</time></trkpt><trkpt lat="45.585349589783746" lon="8.234481008055628"><ele>247.66666666666666</ele><time>2026-04-07T13:16:02.999Z</time></trkpt><trkpt lat="45.58538750557767" lon="8.234588516916878"><ele>248.0</ele><time>2026-04-07T13:16:03.999Z</time></trkpt><trkpt lat="45.58543346025847" lon="8.234690936553816"><ele>248.33333333333331</ele><time>2026-04-07T13:16:04.999Z</time></trkpt><trkpt lat="45.58543033377633" lon="8.234804841515182"><ele>248.66666666666666</ele><time>2026-04-07T13:16:05.999Z</time></trkpt><trkpt lat="45.58542465546435" lon="8.234912683390984"><ele>249.0</ele><time>2026-04-07T13:16:06.999Z</time></trkpt><trkpt lat="45.585402564279654" lon="8.235081235568302"><ele>249.66666666666669</ele><time>2026-04-07T13:16:08.999Z</time></trkpt><trkpt lat="45.58535313616743" lon="8.235199217903542"><ele>250.33333333333334</ele><time>2026-04-07T13:16:10.999Z</time></trkpt><trkpt lat="45.5853473724598" lon="8.235301462902044"><ele>251.0</ele><time>2026-04-07T13:16:12.999Z</time></trkpt><trkpt lat="45.58568496747257" lon="8.235488654676164"><ele>251.0</ele><time>2026-04-07T13:16:13.999Z</time></trkpt><trkpt lat="45.585766741567205" lon="8.235541838368906"><ele>251.00000000000003</ele><time>2026-04-07T13:16:14.999Z</time></trkpt><trkpt lat="45.58584817924044" lon="8.23557486262212"><ele>251.00000000000003</ele><time>2026-04-07T13:16:15.999Z</time></trkpt><trkpt lat="45.585940931767354" lon="8.235594180738525"><ele>251.0</ele><time>2026-04-07T13:16:16.999Z</time></trkpt><trkpt lat="45.58603615863336" lon="8.23558107240052"><ele>251.0</ele><time>2026-04-07T13:16:17.999Z</time></trkpt><trkpt lat="45.586124603179215" lon="8.235558845106404"><ele>251.00000000000003</ele><time>2026-04-07T13:16:18.999Z</time></trkpt><trkpt lat="45.586197299863265" lon="8.235552942165745"><ele>251.0</ele><time>2026-04-07T13:16:19.999Z</time></trkpt><trkpt lat="45.58629708562343" lon="8.235597121379394"><ele>251.0</ele><time>2026-04-07T13:16:21.999Z</time></trkpt><trkpt lat="45.586347146252066" lon="8.235656571832996"><ele>251.0</ele><time>2026-04-07T13:16:22.999Z</time></trkpt><trkpt lat="45.586412037017084" lon="8.235706854018884"><ele>251.00000000000003</ele><time>2026-04-07T13:16:23.999Z</time></trkpt><trkpt lat="45.58647103000588" lon="8.235751493617917"><ele>251.0</ele><time>2026-04-07T13:16:24.999Z</time></trkpt><trkpt lat="45.58647279014237" lon="8.235907399108205"><ele>252.0</ele><time>2026-04-07T13:16:26.999Z</time></trkpt><trkpt lat="45.58644393560992" lon="8.235998139335381"><ele>253.00000000000003</ele><time>2026-04-07T13:16:27.999Z</time></trkpt><trkpt lat="45.586384954649134" lon="8.236058065347143"><ele>254.00000000000003</ele><time>2026-04-07T13:16:30.999Z</time></trkpt><trkpt lat="45.58625925397062" lon="8.23611755767962"><ele>255.0</ele><time>2026-04-07T13:16:32.999Z</time></trkpt><trkpt lat="45.58617283190301" lon="8.236193720369963"><ele>256.0</ele><time>2026-04-07T13:16:33.999Z</time></trkpt><trkpt lat="45.58613250253818" lon="8.236294230630243"><ele>256.66666666666663</ele><time>2026-04-07T13:16:35Z</time></trkpt><trkpt lat="45.586145598387056" lon="8.236452034670162"><ele>257.3333333333333</ele><time>2026-04-07T13:16:46Z</time></trkpt><trkpt lat="45.58612229814113" lon="8.236582885958125"><ele>258.0</ele><time>2026-04-07T13:16:48Z</time></trkpt><trkpt lat="45.586102249596465" lon="8.236668753083258"><ele>258.6666666666667</ele><time>2026-04-07T13:16:49Z</time></trkpt><trkpt lat="45.58604343328528" lon="8.236791846346463"><ele>259.33333333333337</ele><time>2026-04-07T13:16:51Z</time></trkpt><trkpt lat="45.58597205284258" lon="8.236778373701084"><ele>260.0</ele><time>2026-04-07T13:16:52Z</time></trkpt><trkpt lat="45.585885239116266" lon="8.236713602653396"><ele>261.6</ele><time>2026-04-07T13:16:53Z</time></trkpt><trkpt lat="45.585806424381225" lon="8.236884075467248"><ele>263.2</ele><time>2026-04-07T13:16:55Z</time></trkpt><trkpt lat="45.58577131949905" lon="8.236989998191367"><ele>264.8</ele><time>2026-04-07T13:16:56Z</time></trkpt><trkpt lat="45.585756039858566" lon="8.237078702586398"><ele>266.4</ele><time>2026-04-07T13:16:57Z</time></trkpt><trkpt lat="45.585732000388745" lon="8.237198884868327"><ele>268.0</ele><time>2026-04-07T13:16:58Z</time></trkpt><trkpt lat="45.58570543778383" lon="8.237327794584163"><ele>269.6</ele><time>2026-04-07T13:16:59Z</time></trkpt><trkpt lat="45.585741931131075" lon="8.237487357539369"><ele>271.20000000000005</ele><time>2026-04-07T13:17:01Z</time></trkpt><trkpt lat="45.58578357028687" lon="8.23759619365944"><ele>272.8</ele><time>2026-04-07T13:17:02Z</time></trkpt><trkpt lat="45.58579069410266" lon="8.237732608038225"><ele>274.40000000000003</ele><time>2026-04-07T13:17:03Z</time></trkpt><trkpt lat="45.58579756632116" lon="8.237859286569172"><ele>276.0</ele><time>2026-04-07T13:17:04Z</time></trkpt><trkpt lat="45.585811695282786" lon="8.237979522633525"><ele>276.0</ele><time>2026-04-07T13:17:05Z</time></trkpt><trkpt lat="45.585815739551215" lon="8.238098587579257"><ele>276.0</ele><time>2026-04-07T13:17:06Z</time></trkpt><trkpt lat="45.585800536897445" lon="8.23821586429001"><ele>276.0</ele><time>2026-04-07T13:17:07Z</time></trkpt><trkpt lat="45.585795228587294" lon="8.238315167064664"><ele>276.0</ele><time>2026-04-07T13:17:08Z</time></trkpt><trkpt lat="45.58578792091089" lon="8.238514753296565"><ele>276.0</ele><time>2026-04-07T13:17:10Z</time></trkpt><trkpt lat="45.58575839120449" lon="8.238623623131788"><ele>277.5</ele><time>2026-04-07T13:17:11Z</time></trkpt><trkpt lat="45.58573665592653" lon="8.238762441039793"><ele>279.0</ele><time>2026-04-07T13:17:12Z</time></trkpt><trkpt lat="45.585728999196846" lon="8.23888262625183"><ele>280.5</ele><time>2026-04-07T13:17:13Z</time></trkpt><trkpt lat="45.585728104406655" lon="8.238994844874316"><ele>282.0</ele><time>2026-04-07T13:17:14Z</time></trkpt><trkpt lat="45.58573366591561" lon="8.239095503202154"><ele>283.5</ele><time>2026-04-07T13:17:15Z</time></trkpt><trkpt lat="45.58572692368484" lon="8.23920664769991"><ele>285.0</ele><time>2026-04-07T13:17:16Z</time></trkpt><trkpt lat="45.58571069631627" lon="8.239327960323651"><ele>286.1666666666667</ele><time>2026-04-07T13:17:17Z</time></trkpt><trkpt lat="45.585704054621104" lon="8.239425090351402"><ele>287.3333333333333</ele><time>2026-04-07T13:17:18Z</time></trkpt><trkpt lat="45.58566854696982" lon="8.239521198503619"><ele>288.5</ele><time>2026-04-07T13:17:20Z</time></trkpt><trkpt lat="45.585593489723365" lon="8.239632882903237"><ele>289.66666666666663</ele><time>2026-04-07T13:18:04.999Z</time></trkpt><trkpt lat="45.58554984798699" lon="8.239775611325893"><ele>290.8333333333333</ele><time>2026-04-07T13:18:06.999Z</time></trkpt><trkpt lat="45.58557252069864" lon="8.239870177637505"><ele>292.0</ele><time>2026-04-07T13:18:07.999Z</time></trkpt><trkpt lat="45.58563456403965" lon="8.239926515943768"><ele>292.16666666666663</ele><time>2026-04-07T13:18:09.999Z</time></trkpt><trkpt lat="45.585709895648236" lon="8.239970144299233"><ele>292.3333333333333</ele><time>2026-04-07T13:18:11.999Z</time></trkpt><trkpt lat="45.58569780003001" lon="8.240094147165031"><ele>292.5</ele><time>2026-04-07T13:18:12.999Z</time></trkpt><trkpt lat="45.585683223557794" lon="8.240190735459343"><ele>292.6666666666667</ele><time>2026-04-07T13:18:13.999Z</time></trkpt><trkpt lat="45.5856507433437" lon="8.240284691633448"><ele>292.83333333333337</ele><time>2026-04-07T13:18:34.999Z</time></trkpt><trkpt lat="45.58557344756348" lon="8.240277154976756"><ele>293.0</ele><time>2026-04-07T13:18:38.999Z</time></trkpt><trkpt lat="45.58551234369007" lon="8.240319707370153"><ele>293.0</ele><time>2026-04-07T13:18:41Z</time></trkpt><trkpt lat="45.58542006889369" lon="8.24042450022146"><ele>293.0</ele><time>2026-04-07T13:18:44Z</time></trkpt><trkpt lat="45.58538185527108" lon="8.240510793562377"><ele>293.0</ele><time>2026-04-07T13:18:45Z</time></trkpt><trkpt lat="45.58533790098812" lon="8.240600118863659"><ele>293.0</ele><time>2026-04-07T13:18:46Z</time></trkpt><trkpt lat="45.585296266896" lon="8.240689950078858"><ele>293.0</ele><time>2026-04-07T13:18:47Z</time></trkpt><trkpt lat="45.585198190555026" lon="8.240794119610909"><ele>293.33333333333337</ele><time>2026-04-07T13:18:49Z</time></trkpt><trkpt lat="45.58513165310924" lon="8.240833434745419"><ele>293.6666666666667</ele><time>2026-04-07T13:18:50Z</time></trkpt><trkpt lat="45.58504723549558" lon="8.240886915622221"><ele>294.0</ele><time>2026-04-07T13:18:51Z</time></trkpt><trkpt lat="45.58498896982889" lon="8.24093328515346"><ele>294.3333333333333</ele><time>2026-04-07T13:18:52Z</time></trkpt><trkpt lat="45.5848929233105" lon="8.24097761426337"><ele>294.66666666666663</ele><time>2026-04-07T13:18:54Z</time></trkpt><trkpt lat="45.58481579502547" lon="8.240986830765594"><ele>295.0</ele><time>2026-04-07T13:18:55Z</time></trkpt><trkpt lat="45.58469647573579" lon="8.241046077811651"><ele>295.0</ele><time>2026-04-07T13:18:57Z</time></trkpt><trkpt lat="45.584594916482914" lon="8.241112852561292"><ele>295.0</ele><time>2026-04-07T13:18:59Z</time></trkpt><trkpt lat="45.58454097539819" lon="8.24135564554658"><ele>295.0</ele><time>2026-04-07T13:19:55.999Z</time></trkpt><trkpt lat="45.584426240218725" lon="8.241427919001021"><ele>295.0</ele><time>2026-04-07T13:19:57.999Z</time></trkpt><trkpt lat="45.584352973847004" lon="8.24149542501866"><ele>295.5</ele><time>2026-04-07T13:19:58.999Z</time></trkpt><trkpt lat="45.58435031035453" lon="8.241594658550328"><ele>296.0</ele><time>2026-04-07T13:20:04.999Z</time></trkpt><trkpt lat="45.58432063503674" lon="8.241701183550385"><ele>296.5</ele><time>2026-04-07T13:20:06.999Z</time></trkpt><trkpt lat="45.58425719181021" lon="8.241743606550541"><ele>297.0</ele><time>2026-04-07T13:20:08.999Z</time></trkpt><trkpt lat="45.58420390191081" lon="8.241821568193755"><ele>297.5</ele><time>2026-04-07T13:21:02.999Z</time></trkpt><trkpt lat="45.58415949548801" lon="8.241907405506778"><ele>298.0</ele><time>2026-04-07T13:21:07.999Z</time></trkpt><trkpt lat="45.58420226795138" lon="8.241807713341847"><ele>298.0</ele><time>2026-04-07T13:21:58.999Z</time></trkpt><trkpt lat="45.584199663042114" lon="8.241899344476831"><ele>298.0</ele><time>2026-04-07T13:22:32.999Z</time></trkpt><trkpt lat="45.58421723560485" lon="8.242024110111052"><ele>298.0</ele><time>2026-04-07T13:22:59Z</time></trkpt><trkpt lat="45.58420068080234" lon="8.242140360536307"><ele>298.0</ele><time>2026-04-07T13:23:01Z</time></trkpt><trkpt lat="45.58414895414438" lon="8.24221109557417"><ele>298.0</ele><time>2026-04-07T13:23:04Z</time></trkpt><trkpt lat="45.584117601283864" lon="8.242293316129661"><ele>298.0</ele><time>2026-04-07T13:23:06Z</time></trkpt><trkpt lat="45.58406599182596" lon="8.242381212402345"><ele>297.5</ele><time>2026-04-07T13:23:08Z</time></trkpt><trkpt lat="45.584009377611544" lon="8.242431410062133"><ele>297.0</ele><time>2026-04-07T13:23:10Z</time></trkpt><trkpt lat="45.58391908988007" lon="8.242461536028182"><ele>296.5</ele><time>2026-04-07T13:23:15Z</time></trkpt><trkpt lat="45.5838441327646" lon="8.242507116874537"><ele>296.0</ele><time>2026-04-07T13:23:18Z</time></trkpt><trkpt lat="45.583752127720885" lon="8.242449695138712"><ele>295.5</ele><time>2026-04-07T13:23:21Z</time></trkpt><trkpt lat="45.58368700286972" lon="8.242406823300545"><ele>295.0</ele><time>2026-04-07T13:23:24Z</time></trkpt><trkpt lat="45.58359746801209" lon="8.242400415564264"><ele>295.0</ele><time>2026-04-07T13:23:40Z</time></trkpt><trkpt lat="45.583530319203945" lon="8.242390320293993"><ele>295.0</ele><time>2026-04-07T13:23:41Z</time></trkpt><trkpt lat="45.58347155927524" lon="8.24231838061401"><ele>295.0</ele><time>2026-04-07T13:23:42Z</time></trkpt><trkpt lat="45.583410678678135" lon="8.242255268583499"><ele>295.0</ele><time>2026-04-07T13:23:42.999Z</time></trkpt><trkpt lat="45.583326089152656" lon="8.242189194892198"><ele>295.0</ele><time>2026-04-07T13:23:43.999Z</time></trkpt><trkpt lat="45.58323215805247" lon="8.242171458951038"><ele>295.0</ele><time>2026-04-07T13:23:44.999Z</time></trkpt><trkpt lat="45.58315167940128" lon="8.242232605277968"><ele>295.0</ele><time>2026-04-07T13:23:45.999Z</time></trkpt><trkpt lat="45.58307135255525" lon="8.242284552971983"><ele>295.0</ele><time>2026-04-07T13:23:46.999Z</time></trkpt><trkpt lat="45.58299169567002" lon="8.242298314165867"><ele>295.0</ele><time>2026-04-07T13:23:47.999Z</time></trkpt><trkpt lat="45.58291049966161" lon="8.242279309079763"><ele>295.0</ele><time>2026-04-07T13:23:48.999Z</time></trkpt><trkpt lat="45.58282892586165" lon="8.242249170156228"><ele>295.0</ele><time>2026-04-07T13:23:49.999Z</time></trkpt><trkpt lat="45.58272102978684" lon="8.242232892671883"><ele>295.0</ele><time>2026-04-07T13:23:51.999Z</time></trkpt><trkpt lat="45.58264555019767" lon="8.242348946413173"><ele>295.66666666666663</ele><time>2026-04-07T13:23:53.999Z</time></trkpt><trkpt lat="45.582585094316144" lon="8.242391224890598"><ele>296.3333333333333</ele><time>2026-04-07T13:23:54.999Z</time></trkpt><trkpt lat="45.5825199705604" lon="8.242406370550325"><ele>297.0</ele><time>2026-04-07T13:23:55.999Z</time></trkpt><trkpt lat="45.58244655405296" lon="8.242452013944803"><ele>297.6666666666667</ele><time>2026-04-07T13:23:56.999Z</time></trkpt><trkpt lat="45.58236200755309" lon="8.242514787877107"><ele>298.33333333333337</ele><time>2026-04-07T13:23:57.999Z</time></trkpt><trkpt lat="45.58226244175924" lon="8.242578587513053"><ele>299.0</ele><time>2026-04-07T13:23:58.999Z</time></trkpt><trkpt lat="45.582188164648336" lon="8.242616263461692"><ele>299.0</ele><time>2026-04-07T13:23:59.999Z</time></trkpt><trkpt lat="45.582121900913606" lon="8.242633673863358"><ele>299.0</ele><time>2026-04-07T13:24:00.999Z</time></trkpt><trkpt lat="45.58205116788193" lon="8.242664358914679"><ele>299.0</ele><time>2026-04-07T13:24:01.999Z</time></trkpt><trkpt lat="45.58197142118774" lon="8.242687744562257"><ele>299.0</ele><time>2026-04-07T13:24:02.999Z</time></trkpt><trkpt lat="45.58189768567557" lon="8.242707730219028"><ele>299.0</ele><time>2026-04-07T13:24:03.999Z</time></trkpt><trkpt lat="45.58182467075645" lon="8.242690213931931"><ele>299.0</ele><time>2026-04-07T13:24:04.999Z</time></trkpt><trkpt lat="45.581758816614546" lon="8.242650055144685"><ele>299.0</ele><time>2026-04-07T13:24:05.999Z</time></trkpt><trkpt lat="45.581642410605006" lon="8.242544934017062"><ele>299.0</ele><time>2026-04-07T13:24:07.999Z</time></trkpt><trkpt lat="45.581576876901295" lon="8.242495319925446"><ele>299.0</ele><time>2026-04-07T13:24:08.999Z</time></trkpt><trkpt lat="45.58151337757562" lon="8.242446476350878"><ele>299.0</ele><time>2026-04-07T13:24:09.999Z</time></trkpt><trkpt lat="45.58146079849148" lon="8.242532458250267"><ele>299.0</ele><time>2026-04-07T13:24:12.999Z</time></trkpt><trkpt lat="45.581355724984896" lon="8.242589375719737"><ele>299.0</ele><time>2026-04-07T13:24:15.999Z</time></trkpt><trkpt lat="45.58123780591916" lon="8.242642075949838"><ele>298.4</ele><time>2026-04-07T13:24:17.999Z</time></trkpt><trkpt lat="45.581171963857884" lon="8.242628812686023"><ele>297.79999999999995</ele><time>2026-04-07T13:24:19.999Z</time></trkpt><trkpt lat="45.58113764159025" lon="8.242552231758673"><ele>297.20000000000005</ele><time>2026-04-07T13:24:21.999Z</time></trkpt><trkpt lat="45.58107419353054" lon="8.242490195849353"><ele>296.6</ele><time>2026-04-07T13:24:23.999Z</time></trkpt><trkpt lat="45.58096042119907" lon="8.242380812837093"><ele>296.0</ele><time>2026-04-07T13:24:25.999Z</time></trkpt><trkpt lat="45.580853593479695" lon="8.242343922195651"><ele>296.0</ele><time>2026-04-07T13:24:27.999Z</time></trkpt><trkpt lat="45.58073440910854" lon="8.242327937283875"><ele>296.0</ele><time>2026-04-07T13:24:29.999Z</time></trkpt><trkpt lat="45.580644738561254" lon="8.24228844776341"><ele>296.0</ele><time>2026-04-07T13:24:30.999Z</time></trkpt><trkpt lat="45.58053944366408" lon="8.242292160036332"><ele>296.0</ele><time>2026-04-07T13:24:31.999Z</time></trkpt><trkpt lat="45.58045333414864" lon="8.242299167202102"><ele>296.0</ele><time>2026-04-07T13:24:32.999Z</time></trkpt><trkpt lat="45.58036344857684" lon="8.242293360846658"><ele>293.8</ele><time>2026-04-07T13:24:33.999Z</time></trkpt><trkpt lat="45.580273747776765" lon="8.242318368136765"><ele>291.6</ele><time>2026-04-07T13:24:34.999Z</time></trkpt><trkpt lat="45.580204806949745" lon="8.242374054631993"><ele>289.4</ele><time>2026-04-07T13:24:35.999Z</time></trkpt><trkpt lat="45.58007449128015" lon="8.242410502569935"><ele>287.2</ele><time>2026-04-07T13:24:37.999Z</time></trkpt><trkpt lat="45.57999456952491" lon="8.242388276831047"><ele>285.0</ele><time>2026-04-07T13:24:38.999Z</time></trkpt><trkpt lat="45.57991875707941" lon="8.242361303097889"><ele>285.6</ele><time>2026-04-07T13:24:39.999Z</time></trkpt><trkpt lat="45.57984177195236" lon="8.242276970931348"><ele>286.2</ele><time>2026-04-07T13:24:40.999Z</time></trkpt><trkpt lat="45.579763752216145" lon="8.24213520696551"><ele>286.8</ele><time>2026-04-07T13:24:41.999Z</time></trkpt><trkpt lat="45.5796896927212" lon="8.242012802354001"><ele>287.4</ele><time>2026-04-07T13:24:42.999Z</time></trkpt><trkpt lat="45.579604584287644" lon="8.241926700510197"><ele>288.0</ele><time>2026-04-07T13:24:43.999Z</time></trkpt><trkpt lat="45.57951396521908" lon="8.241875741308245"><ele>289.0</ele><time>2026-04-07T13:24:44.999Z</time></trkpt><trkpt lat="45.57943809464087" lon="8.241798952212196"><ele>290.0</ele><time>2026-04-07T13:24:45.999Z</time></trkpt><trkpt lat="45.57934240723998" lon="8.24172736779643"><ele>291.0</ele><time>2026-04-07T13:24:46.999Z</time></trkpt><trkpt lat="45.57926042846661" lon="8.241792971453352"><ele>292.0</ele><time>2026-04-07T13:24:47.999Z</time></trkpt><trkpt lat="45.579150289291604" lon="8.241854011056544"><ele>293.0</ele><time>2026-04-07T13:24:48.999Z</time></trkpt><trkpt lat="45.57906307840682" lon="8.241918291068227"><ele>293.0</ele><time>2026-04-07T13:24:49.999Z</time></trkpt><trkpt lat="45.57899099140386" lon="8.241996631552247"><ele>293.0</ele><time>2026-04-07T13:24:50.999Z</time></trkpt><trkpt lat="45.57893050551444" lon="8.2420813620577"><ele>293.0</ele><time>2026-04-07T13:24:52.999Z</time></trkpt><trkpt lat="45.5787991582896" lon="8.242171511381805"><ele>293.0</ele><time>2026-04-07T13:24:54.999Z</time></trkpt><trkpt lat="45.57871477956375" lon="8.242245351073555"><ele>293.0</ele><time>2026-04-07T13:24:55.999Z</time></trkpt><trkpt lat="45.57866041117499" lon="8.242315680586414"><ele>291.5</ele><time>2026-04-07T13:24:56.999Z</time></trkpt><trkpt lat="45.578610420265335" lon="8.242181550302613"><ele>290.0</ele><time>2026-04-07T13:25:00Z</time></trkpt><trkpt lat="45.578558300801575" lon="8.24210167904259"><ele>288.5</ele><time>2026-04-07T13:25:02Z</time></trkpt><trkpt lat="45.57850870049838" lon="8.24204302756858"><ele>287.0</ele><time>2026-04-07T13:25:03Z</time></trkpt><trkpt lat="45.578446600774676" lon="8.24197406980111"><ele>285.5</ele><time>2026-04-07T13:25:04Z</time></trkpt><trkpt lat="45.57834133515734" lon="8.241933497888393"><ele>284.0</ele><time>2026-04-07T13:25:05Z</time></trkpt><trkpt lat="45.578247248172325" lon="8.24188923270094"><ele>284.0</ele><time>2026-04-07T13:25:06Z</time></trkpt><trkpt lat="45.57816328273918" lon="8.24179766057188"><ele>284.0</ele><time>2026-04-07T13:25:07Z</time></trkpt><trkpt lat="45.578061549592476" lon="8.241640041834614"><ele>284.0</ele><time>2026-04-07T13:25:08Z</time></trkpt><trkpt lat="45.57796636949741" lon="8.24152057117199"><ele>284.0</ele><time>2026-04-07T13:25:09Z</time></trkpt><trkpt lat="45.57791581421527" lon="8.241409018565559"><ele>282.5</ele><time>2026-04-07T13:25:10Z</time></trkpt><trkpt lat="45.57785032873013" lon="8.241303588221282"><ele>281.0</ele><time>2026-04-07T13:25:11Z</time></trkpt><trkpt lat="45.57777832351958" lon="8.241248742836031"><ele>279.5</ele><time>2026-04-07T13:25:12Z</time></trkpt><trkpt lat="45.577720454890894" lon="8.241201403528635"><ele>278.0</ele><time>2026-04-07T13:25:13Z</time></trkpt><trkpt lat="45.57767573345109" lon="8.24111238522433"><ele>276.5</ele><time>2026-04-07T13:25:28Z</time></trkpt><trkpt lat="45.577583578624115" lon="8.241054911066028"><ele>275.0</ele><time>2026-04-07T13:25:30Z</time></trkpt><trkpt lat="45.57753439538014" lon="8.24098440711829"><ele>275.0</ele><time>2026-04-07T13:25:31Z</time></trkpt><trkpt lat="45.57749301769671" lon="8.240896217374287"><ele>275.0</ele><time>2026-04-07T13:25:32Z</time></trkpt><trkpt lat="45.57745160987172" lon="8.240785262887131"><ele>275.0</ele><time>2026-04-07T13:25:33Z</time></trkpt><trkpt lat="45.57741253796983" lon="8.240666503693054"><ele>275.0</ele><time>2026-04-07T13:25:34Z</time></trkpt><trkpt lat="45.57736248971748" lon="8.24056325883643"><ele>275.0</ele><time>2026-04-07T13:25:35Z</time></trkpt><trkpt lat="45.57730027139827" lon="8.240494744282833"><ele>275.0</ele><time>2026-04-07T13:25:36Z</time></trkpt><trkpt lat="45.577216427965006" lon="8.240467713207416"><ele>275.0</ele><time>2026-04-07T13:25:37Z</time></trkpt><trkpt lat="45.57714115475019" lon="8.240480855345476"><ele>275.0</ele><time>2026-04-07T13:25:38Z</time></trkpt><trkpt lat="45.577084420685" lon="8.24052110083569"><ele>275.0</ele><time>2026-04-07T13:25:39Z</time></trkpt><trkpt lat="45.5770752319409" lon="8.240666044400125"><ele>275.0</ele><time>2026-04-07T13:25:41Z</time></trkpt><trkpt lat="45.57705221782016" lon="8.240802253088606"><ele>275.0</ele><time>2026-04-07T13:25:43Z</time></trkpt><trkpt lat="45.577011533056215" lon="8.24089748199519"><ele>275.0</ele><time>2026-04-07T13:25:44Z</time></trkpt><trkpt lat="45.5770366604401" lon="8.240993666385819"><ele>275.0</ele><time>2026-04-07T13:25:45Z</time></trkpt><trkpt lat="45.5770608976682" lon="8.241102580364437"><ele>275.0</ele><time>2026-04-07T13:25:46Z</time></trkpt><trkpt lat="45.57708013052895" lon="8.241214386078553"><ele>275.0</ele><time>2026-04-07T13:25:47Z</time></trkpt><trkpt lat="45.57712016728989" lon="8.241303044308008"><ele>275.0</ele><time>2026-04-07T13:25:48Z</time></trkpt><trkpt lat="45.57715430708733" lon="8.241379231052306"><ele>275.0</ele><time>2026-04-07T13:25:49Z</time></trkpt><trkpt lat="45.577123037127244" lon="8.241522846976153"><ele>275.0</ele><time>2026-04-07T13:25:51Z</time></trkpt><trkpt lat="45.577086536013915" lon="8.241607617521733"><ele>275.0</ele><time>2026-04-07T13:25:52Z</time></trkpt><trkpt lat="45.57701341171535" lon="8.241587556147348"><ele>275.0</ele><time>2026-04-07T13:25:55Z</time></trkpt><trkpt lat="45.57694391260198" lon="8.241536661346434"><ele>275.0</ele><time>2026-04-07T13:25:56.999Z</time></trkpt><trkpt lat="45.57677209950335" lon="8.24138527013561"><ele>275.0</ele><time>2026-04-07T13:25:58.999Z</time></trkpt><trkpt lat="45.57669253865737" lon="8.241292778167786"><ele>274.1666666666667</ele><time>2026-04-07T13:25:59.999Z</time></trkpt><trkpt lat="45.576612285546894" lon="8.241215955760016"><ele>273.33333333333337</ele><time>2026-04-07T13:26:00.999Z</time></trkpt><trkpt lat="45.576537154756295" lon="8.241137746172985"><ele>272.5</ele><time>2026-04-07T13:26:01.999Z</time></trkpt><trkpt lat="45.576473618252585" lon="8.241044369709277"><ele>271.6666666666667</ele><time>2026-04-07T13:26:02.999Z</time></trkpt><trkpt lat="45.576420107472586" lon="8.240948525851362"><ele>270.8333333333333</ele><time>2026-04-07T13:26:03.999Z</time></trkpt><trkpt lat="45.57637909572373" lon="8.240851044288238"><ele>270.0</ele><time>2026-04-07T13:26:04.999Z</time></trkpt><trkpt lat="45.576332200158355" lon="8.240708534664876"><ele>270.0</ele><time>2026-04-07T13:26:06.999Z</time></trkpt><trkpt lat="45.57623521343548" lon="8.240655386962452"><ele>270.0</ele><time>2026-04-07T13:26:17.999Z</time></trkpt><trkpt lat="45.57613548843952" lon="8.240701837243376"><ele>270.0</ele><time>2026-04-07T13:26:19.999Z</time></trkpt><trkpt lat="45.576086517651476" lon="8.240628009744642"><ele>270.0</ele><time>2026-04-07T13:26:30.999Z</time></trkpt><trkpt lat="45.57602560030806" lon="8.240602339026667"><ele>270.0</ele><time>2026-04-07T13:26:32.999Z</time></trkpt><trkpt lat="45.57588877919214" lon="8.240587998709396"><ele>270.6</ele><time>2026-04-07T13:26:34.999Z</time></trkpt><trkpt lat="45.57579514165582" lon="8.240651180009191"><ele>271.2</ele><time>2026-04-07T13:26:36.999Z</time></trkpt><trkpt lat="45.57571209726663" lon="8.240659399521705"><ele>271.8</ele><time>2026-04-07T13:26:38.999Z</time></trkpt><trkpt lat="45.57564766756035" lon="8.240574952366963"><ele>272.4</ele><time>2026-04-07T13:26:40.999Z</time></trkpt><trkpt lat="45.57568534229911" lon="8.240412070527158"><ele>273.0</ele><time>2026-04-07T13:26:42.999Z</time></trkpt><trkpt lat="45.5757145737991" lon="8.240279434968182"><ele>272.0</ele><time>2026-04-07T13:26:44.999Z</time></trkpt><trkpt lat="45.57571024726556" lon="8.24018523529879"><ele>271.0</ele><time>2026-04-07T13:26:45.999Z</time></trkpt><trkpt lat="45.57563215246104" lon="8.240062855279433"><ele>270.0</ele><time>2026-04-07T13:26:47.999Z</time></trkpt><trkpt lat="45.57558301869677" lon="8.239978011960524"><ele>269.0</ele><time>2026-04-07T13:26:48.999Z</time></trkpt><trkpt lat="45.57552903918771" lon="8.239880663377546"><ele>268.0</ele><time>2026-04-07T13:26:49.999Z</time></trkpt><trkpt lat="45.57548742199027" lon="8.239777827668085"><ele>267.0</ele><time>2026-04-07T13:26:50.999Z</time></trkpt><trkpt lat="45.575444675590354" lon="8.239688149038125"><ele>266.6</ele><time>2026-04-07T13:26:52.999Z</time></trkpt><trkpt lat="45.57534435911582" lon="8.239800881859413"><ele>266.2</ele><time>2026-04-07T13:26:54.999Z</time></trkpt><trkpt lat="45.575292072287496" lon="8.239909091090482"><ele>265.8</ele><time>2026-04-07T13:26:55.999Z</time></trkpt><trkpt lat="45.57524419152294" lon="8.240002034827187"><ele>265.4</ele><time>2026-04-07T13:26:56.999Z</time></trkpt><trkpt lat="45.57518664896143" lon="8.240083123520444"><ele>265.0</ele><time>2026-04-07T13:26:57.999Z</time></trkpt><trkpt lat="45.57513188864918" lon="8.240158068619564"><ele>265.0</ele><time>2026-04-07T13:26:58.999Z</time></trkpt><trkpt lat="45.57499657758022" lon="8.240202267995338"><ele>265.0</ele><time>2026-04-07T13:27:00.999Z</time></trkpt><trkpt lat="45.57492591469243" lon="8.240236187762944"><ele>265.0</ele><time>2026-04-07T13:27:01.999Z</time></trkpt><trkpt lat="45.57485276873496" lon="8.240266028542985"><ele>265.0</ele><time>2026-04-07T13:27:02.999Z</time></trkpt><trkpt lat="45.57476344816302" lon="8.240263824163629"><ele>265.0</ele><time>2026-04-07T13:27:03.999Z</time></trkpt><trkpt lat="45.57468116108543" lon="8.240260531951654"><ele>265.0</ele><time>2026-04-07T13:27:05Z</time></trkpt><trkpt lat="45.57458824326658" lon="8.240271581130536"><ele>265.0</ele><time>2026-04-07T13:27:06Z</time></trkpt><trkpt lat="45.57449603158008" lon="8.24027776005365"><ele>265.0</ele><time>2026-04-07T13:27:07Z</time></trkpt><trkpt lat="45.57441719749802" lon="8.240278501661827"><ele>265.0</ele><time>2026-04-07T13:27:08Z</time></trkpt><trkpt lat="45.574351067759714" lon="8.240268586366641"><ele>265.0</ele><time>2026-04-07T13:27:09Z</time></trkpt><trkpt lat="45.574280300131214" lon="8.24027433815224"><ele>265.0</ele><time>2026-04-07T13:27:10Z</time></trkpt><trkpt lat="45.574200160272355" lon="8.240293341379784"><ele>264.66666666666663</ele><time>2026-04-07T13:27:11Z</time></trkpt><trkpt lat="45.574128717798374" lon="8.240318712172188"><ele>264.3333333333333</ele><time>2026-04-07T13:27:12Z</time></trkpt><trkpt lat="45.574065905122055" lon="8.240334192163596"><ele>264.0</ele><time>2026-04-07T13:27:13Z</time></trkpt><trkpt lat="45.5739663750711" lon="8.24033973537463"><ele>263.6666666666667</ele><time>2026-04-07T13:27:15Z</time></trkpt><trkpt lat="45.57388588196472" lon="8.24019523390934"><ele>263.33333333333337</ele><time>2026-04-07T13:27:19Z</time></trkpt><trkpt lat="45.57386651627387" lon="8.240095763819795"><ele>263.0</ele><time>2026-04-07T13:27:20Z</time></trkpt><trkpt lat="45.57387264746829" lon="8.239983885528158"><ele>263.0</ele><time>2026-04-07T13:27:21Z</time></trkpt><trkpt lat="45.573919044924764" lon="8.239837886836058"><ele>263.0</ele><time>2026-04-07T13:27:23Z</time></trkpt><trkpt lat="45.57391280168113" lon="8.239689460251107"><ele>263.0</ele><time>2026-04-07T13:27:25Z</time></trkpt><trkpt lat="45.573880596976416" lon="8.239608832189589"><ele>263.0</ele><time>2026-04-07T13:27:26Z</time></trkpt><trkpt lat="45.57385174578437" lon="8.239498047989725"><ele>263.0</ele><time>2026-04-07T13:27:27Z</time></trkpt><trkpt lat="45.57382013603696" lon="8.239403711053473"><ele>263.0</ele><time>2026-04-07T13:27:28Z</time></trkpt><trkpt lat="45.573813421571806" lon="8.239298235320861"><ele>262.33333333333337</ele><time>2026-04-07T13:27:29Z</time></trkpt><trkpt lat="45.57383230559387" lon="8.239181635888915"><ele>261.6666666666667</ele><time>2026-04-07T13:27:30Z</time></trkpt><trkpt lat="45.57384893781224" lon="8.239066037281113"><ele>261.0</ele><time>2026-04-07T13:27:31Z</time></trkpt><trkpt lat="45.57386253265596" lon="8.238936515639088"><ele>260.3333333333333</ele><time>2026-04-07T13:27:32Z</time></trkpt><trkpt lat="45.573858017935294" lon="8.238840241221656"><ele>259.66666666666663</ele><time>2026-04-07T13:27:33Z</time></trkpt><trkpt lat="45.57380964395163" lon="8.238782208832925"><ele>259.0</ele><time>2026-04-07T13:27:35Z</time></trkpt><trkpt lat="45.573709836370384" lon="8.238748320599523"><ele>258.3333333333333</ele><time>2026-04-07T13:27:37Z</time></trkpt><trkpt lat="45.573624369288574" lon="8.238759288529655"><ele>257.66666666666663</ele><time>2026-04-07T13:27:39Z</time></trkpt><trkpt lat="45.573517154893935" lon="8.23870409990816"><ele>257.0</ele><time>2026-04-07T13:27:41Z</time></trkpt><trkpt lat="45.573442899285496" lon="8.238680831556534"><ele>256.3333333333333</ele><time>2026-04-07T13:27:42Z</time></trkpt><trkpt lat="45.573382563435075" lon="8.238650057957466"><ele>255.66666666666666</ele><time>2026-04-07T13:27:43Z</time></trkpt><trkpt lat="45.573297601290356" lon="8.238559277961246"><ele>255.0</ele><time>2026-04-07T13:27:45Z</time></trkpt><trkpt lat="45.573264102994436" lon="8.23842032322084"><ele>255.0</ele><time>2026-04-07T13:27:47Z</time></trkpt><trkpt lat="45.5732695550612" lon="8.23831392169979"><ele>255.0</ele><time>2026-04-07T13:27:48Z</time></trkpt><trkpt lat="45.57326217182747" lon="8.238164365437646"><ele>255.0</ele><time>2026-04-07T13:27:49Z</time></trkpt><trkpt lat="45.5732543989017" lon="8.238032026197967"><ele>255.0</ele><time>2026-04-07T13:27:50Z</time></trkpt><trkpt lat="45.573257966346794" lon="8.237918889506782"><ele>255.0</ele><time>2026-04-07T13:27:51Z</time></trkpt><trkpt lat="45.57326466706466" lon="8.237817680365405"><ele>255.0</ele><time>2026-04-07T13:27:52Z</time></trkpt><trkpt lat="45.57327382851187" lon="8.23771493035795"><ele>254.33333333333334</ele><time>2026-04-07T13:27:52.999Z</time></trkpt><trkpt lat="45.57328395245887" lon="8.23762013853263"><ele>253.66666666666669</ele><time>2026-04-07T13:27:53.999Z</time></trkpt><trkpt lat="45.57329942269464" lon="8.237531531356987"><ele>253.0</ele><time>2026-04-07T13:27:54.999Z</time></trkpt><trkpt lat="45.57327943503519" lon="8.237359862214905"><ele>252.33333333333334</ele><time>2026-04-07T13:27:56.999Z</time></trkpt><trkpt lat="45.573252371986705" lon="8.237228430406924"><ele>251.66666666666669</ele><time>2026-04-07T13:27:57.999Z</time></trkpt><trkpt lat="45.573258272347765" lon="8.237092559155784"><ele>251.0</ele><time>2026-04-07T13:27:58.999Z</time></trkpt><trkpt lat="45.573249196218626" lon="8.236970413447722"><ele>249.33333333333334</ele><time>2026-04-07T13:27:59.999Z</time></trkpt><trkpt lat="45.573234197479216" lon="8.23685538748864"><ele>247.66666666666669</ele><time>2026-04-07T13:28:00.999Z</time></trkpt><trkpt lat="45.57321692101105" lon="8.236732691972067"><ele>246.0</ele><time>2026-04-07T13:28:01.999Z</time></trkpt><trkpt lat="45.573207682480216" lon="8.236611832737218"><ele>244.33333333333331</ele><time>2026-04-07T13:28:02.999Z</time></trkpt><trkpt lat="45.57326398206261" lon="8.23645956441627"><ele>242.66666666666666</ele><time>2026-04-07T13:28:04.999Z</time></trkpt><trkpt lat="45.573324008074174" lon="8.236398649751655"><ele>241.0</ele><time>2026-04-07T13:28:05.999Z</time></trkpt><trkpt lat="45.57332281988353" lon="8.2362605410755"><ele>240.60000000000002</ele><time>2026-04-07T13:28:07.999Z</time></trkpt><trkpt lat="45.57324909971274" lon="8.236138346600162"><ele>240.20000000000002</ele><time>2026-04-07T13:28:09.999Z</time></trkpt><trkpt lat="45.57317822079535" lon="8.23604953032764"><ele>239.79999999999998</ele><time>2026-04-07T13:28:11.999Z</time></trkpt><trkpt lat="45.57305460929075" lon="8.236069704644223"><ele>239.39999999999998</ele><time>2026-04-07T13:28:13.999Z</time></trkpt><trkpt lat="45.573014760063636" lon="8.235957961836096"><ele>239.0</ele><time>2026-04-07T13:28:15.999Z</time></trkpt><trkpt lat="45.57300091058133" lon="8.235863281219475"><ele>239.00000000000003</ele><time>2026-04-07T13:28:16.999Z</time></trkpt><trkpt lat="45.57298008621987" lon="8.235749182545462"><ele>239.0</ele><time>2026-04-07T13:28:17.999Z</time></trkpt><trkpt lat="45.572937758352396" lon="8.235629157675794"><ele>239.0</ele><time>2026-04-07T13:28:19.999Z</time></trkpt><trkpt lat="45.57290778708577" lon="8.235484221228186"><ele>239.0</ele><time>2026-04-07T13:28:21.999Z</time></trkpt><trkpt lat="45.57288474091925" lon="8.23538682430556"><ele>239.00000000000003</ele><time>2026-04-07T13:28:22.999Z</time></trkpt><trkpt lat="45.57285316043981" lon="8.235260666042233"><ele>239.0</ele><time>2026-04-07T13:28:24.999Z</time></trkpt><trkpt lat="45.57274154673978" lon="8.235258994544047"><ele>238.16666666666669</ele><time>2026-04-07T13:28:26.999Z</time></trkpt><trkpt lat="45.57266377777186" lon="8.235330237701243"><ele>237.33333333333334</ele><time>2026-04-07T13:28:27.999Z</time></trkpt><trkpt lat="45.57259861818203" lon="8.235384228602102"><ele>236.5</ele><time>2026-04-07T13:28:28.999Z</time></trkpt><trkpt lat="45.57254185544831" lon="8.23533411203697"><ele>235.66666666666669</ele><time>2026-04-07T13:28:29.999Z</time></trkpt><trkpt lat="45.57250568140505" lon="8.235252831482939"><ele>234.83333333333334</ele><time>2026-04-07T13:28:30.999Z</time></trkpt><trkpt lat="45.572502512924665" lon="8.235159218035134"><ele>234.0</ele><time>2026-04-07T13:28:31.999Z</time></trkpt><trkpt lat="45.57246440529107" lon="8.23496870213493"><ele>234.16666666666666</ele><time>2026-04-07T13:28:33.999Z</time></trkpt><trkpt lat="45.57244615517605" lon="8.23480278940793"><ele>234.33333333333331</ele><time>2026-04-07T13:28:35.999Z</time></trkpt><trkpt lat="45.57245345459618" lon="8.234679207276583"><ele>234.5</ele><time>2026-04-07T13:28:39.999Z</time></trkpt><trkpt lat="45.57246749405644" lon="8.23458799282461"><ele>234.66666666666666</ele><time>2026-04-07T13:28:42.999Z</time></trkpt><trkpt lat="45.57251770210066" lon="8.234494286178757"><ele>234.83333333333331</ele><time>2026-04-07T13:28:45.999Z</time></trkpt><trkpt lat="45.57260406997533" lon="8.234539309973329"><ele>235.0</ele><time>2026-04-07T13:28:47.999Z</time></trkpt><trkpt lat="45.572702161825525" lon="8.234565717513771"><ele>234.99999999999997</ele><time>2026-04-07T13:28:48.999Z</time></trkpt><trkpt lat="45.572771036644305" lon="8.234531665431103"><ele>235.0</ele><time>2026-04-07T13:28:49.999Z</time></trkpt><trkpt lat="45.572820435756604" lon="8.234446992726625"><ele>235.0</ele><time>2026-04-07T13:28:51.999Z</time></trkpt><trkpt lat="45.57284530412869" lon="8.234356717392126"><ele>235.0</ele><time>2026-04-07T13:28:52.999Z</time></trkpt><trkpt lat="45.57287548211256" lon="8.23423734002349"><ele>234.99999999999997</ele><time>2026-04-07T13:28:53.999Z</time></trkpt><trkpt lat="45.572895793734006" lon="8.234108247546018"><ele>235.0</ele><time>2026-04-07T13:28:54.999Z</time></trkpt><trkpt lat="45.572931056541705" lon="8.233969970257245"><ele>235.66666666666666</ele><time>2026-04-07T13:28:55.999Z</time></trkpt><trkpt lat="45.57295694099042" lon="8.23385437103676"><ele>236.33333333333331</ele><time>2026-04-07T13:28:56.999Z</time></trkpt><trkpt lat="45.57296958864388" lon="8.233744937582834"><ele>237.0</ele><time>2026-04-07T13:28:57.999Z</time></trkpt><trkpt lat="45.572971465317856" lon="8.233628103335851"><ele>237.66666666666669</ele><time>2026-04-07T13:28:58.999Z</time></trkpt><trkpt lat="45.572963551666085" lon="8.233538414490464"><ele>238.33333333333334</ele><time>2026-04-07T13:28:59.999Z</time></trkpt><trkpt lat="45.57292079739055" lon="8.233416052391062"><ele>239.0</ele><time>2026-04-07T13:29:01.999Z</time></trkpt><trkpt lat="45.57285975665817" lon="8.233323603778603"><ele>239.2</ele><time>2026-04-07T13:29:49Z</time></trkpt><trkpt lat="45.57278428293777" lon="8.233310416251795"><ele>239.39999999999998</ele><time>2026-04-07T13:29:50Z</time></trkpt><trkpt lat="45.57269416447712" lon="8.233324069878943"><ele>239.6</ele><time>2026-04-07T13:29:51Z</time></trkpt><trkpt lat="45.57259644284382" lon="8.233333882887088"><ele>239.8</ele><time>2026-04-07T13:29:52Z</time></trkpt><trkpt lat="45.57249923265839" lon="8.233343110824705"><ele>240.0</ele><time>2026-04-07T13:29:53Z</time></trkpt><trkpt lat="45.5723955269907" lon="8.233354628335034"><ele>240.0</ele><time>2026-04-07T13:29:53.999Z</time></trkpt><trkpt lat="45.572289028547054" lon="8.233368341717856"><ele>240.0</ele><time>2026-04-07T13:29:54.999Z</time></trkpt><trkpt lat="45.57218080009239" lon="8.233382856579036"><ele>240.0</ele><time>2026-04-07T13:29:55.999Z</time></trkpt><trkpt lat="45.572068888725624" lon="8.233399899556499"><ele>240.0</ele><time>2026-04-07T13:29:56.999Z</time></trkpt><trkpt lat="45.57196012068251" lon="8.23341712823047"><ele>240.0</ele><time>2026-04-07T13:29:57.999Z</time></trkpt><trkpt lat="45.57185028268905" lon="8.233432963721162"><ele>240.8</ele><time>2026-04-07T13:29:58.999Z</time></trkpt><trkpt lat="45.57174042860181" lon="8.233446089502044"><ele>241.6</ele><time>2026-04-07T13:29:59.999Z</time></trkpt><trkpt lat="45.571630655376794" lon="8.233461221559415"><ele>242.39999999999998</ele><time>2026-04-07T13:30:00.999Z</time></trkpt><trkpt lat="45.57151984595492" lon="8.23347796711047"><ele>243.2</ele><time>2026-04-07T13:30:01.999Z</time></trkpt><trkpt lat="45.57140931203027" lon="8.23349206401325"><ele>244.0</ele><time>2026-04-07T13:30:02.999Z</time></trkpt><trkpt lat="45.571299520152536" lon="8.233507482534955"><ele>243.2</ele><time>2026-04-07T13:30:03.999Z</time></trkpt><trkpt lat="45.57118724764948" lon="8.233521689444984"><ele>242.39999999999998</ele><time>2026-04-07T13:30:04.999Z</time></trkpt><trkpt lat="45.571077917480785" lon="8.233537239708717"><ele>241.6</ele><time>2026-04-07T13:30:05.999Z</time></trkpt><trkpt lat="45.57097351359872" lon="8.233553337276124"><ele>240.8</ele><time>2026-04-07T13:30:06.999Z</time></trkpt><trkpt lat="45.57087250403159" lon="8.233569927850143"><ele>240.0</ele><time>2026-04-07T13:30:07.999Z</time></trkpt><trkpt lat="45.570778689067005" lon="8.23358421364186"><ele>240.0</ele><time>2026-04-07T13:30:08.999Z</time></trkpt><trkpt lat="45.57071137530939" lon="8.233594542557201"><ele>240.0</ele><time>2026-04-07T13:30:09.999Z</time></trkpt><trkpt lat="45.570648360457035" lon="8.23357058433046"><ele>240.0</ele><time>2026-04-07T13:30:11.999Z</time></trkpt><trkpt lat="45.570636113432144" lon="8.233448218604684"><ele>240.0</ele><time>2026-04-07T13:30:12.999Z</time></trkpt><trkpt lat="45.57063475306452" lon="8.233336917278056"><ele>240.0</ele><time>2026-04-07T13:30:13.999Z</time></trkpt><trkpt lat="45.57060859637572" lon="8.23322023498099"><ele>240.0</ele><time>2026-04-07T13:30:14.999Z</time></trkpt><trkpt lat="45.57057884489465" lon="8.233099820054804"><ele>241.66666666666666</ele><time>2026-04-07T13:30:15.999Z</time></trkpt><trkpt lat="45.57054433532248" lon="8.232977923991731"><ele>243.33333333333331</ele><time>2026-04-07T13:30:16.999Z</time></trkpt><trkpt lat="45.570500251222605" lon="8.232863811161984"><ele>245.0</ele><time>2026-04-07T13:30:17.999Z</time></trkpt><trkpt lat="45.570456752223734" lon="8.232757350927052"><ele>246.66666666666666</ele><time>2026-04-07T13:30:18.999Z</time></trkpt><trkpt lat="45.57042603912549" lon="8.232646253353622"><ele>248.33333333333331</ele><time>2026-04-07T13:30:19.999Z</time></trkpt><trkpt lat="45.570407742320825" lon="8.232537178694393"><ele>250.0</ele><time>2026-04-07T13:30:20.999Z</time></trkpt><trkpt lat="45.5703972868874" lon="8.23243082776777"><ele>249.99999999999997</ele><time>2026-04-07T13:30:21.999Z</time></trkpt><trkpt lat="45.570383651729756" lon="8.232334932145514"><ele>250.0</ele><time>2026-04-07T13:30:22.999Z</time></trkpt><trkpt lat="45.5703806146413" lon="8.232165179172501"><ele>250.0</ele><time>2026-04-07T13:30:24.999Z</time></trkpt><trkpt lat="45.57044033601754" lon="8.232056450079252"><ele>250.0</ele><time>2026-04-07T13:30:26.999Z</time></trkpt><trkpt lat="45.570499668893305" lon="8.23202330128139"><ele>249.99999999999997</ele><time>2026-04-07T13:30:27.999Z</time></trkpt><trkpt lat="45.57057334815315" lon="8.231987016212877"><ele>250.0</ele><time>2026-04-07T13:30:28.999Z</time></trkpt><trkpt lat="45.570654886048345" lon="8.231949505098553"><ele>250.4</ele><time>2026-04-07T13:30:29.999Z</time></trkpt><trkpt lat="45.57074476816537" lon="8.23190815526846"><ele>250.8</ele><time>2026-04-07T13:30:30.999Z</time></trkpt><trkpt lat="45.57083889613501" lon="8.231865064955295"><ele>251.2</ele><time>2026-04-07T13:30:31.999Z</time></trkpt><trkpt lat="45.57091561286766" lon="8.231813406902315"><ele>251.6</ele><time>2026-04-07T13:30:32.999Z</time></trkpt><trkpt lat="45.57102205650366" lon="8.231760990290146"><ele>252.0</ele><time>2026-04-07T13:30:33.999Z</time></trkpt><trkpt lat="45.571126436264514" lon="8.231705799096712"><ele>253.6</ele><time>2026-04-07T13:30:34.999Z</time></trkpt><trkpt lat="45.57122839668155" lon="8.231650633290995"><ele>255.2</ele><time>2026-04-07T13:30:35.999Z</time></trkpt><trkpt lat="45.57132771113529" lon="8.231603234823739"><ele>256.8</ele><time>2026-04-07T13:30:36.999Z</time></trkpt><trkpt lat="45.57142409188405" lon="8.231562875338287"><ele>258.4</ele><time>2026-04-07T13:30:37.999Z</time></trkpt><trkpt lat="45.57151366140289" lon="8.23152030895502"><ele>260.0</ele><time>2026-04-07T13:30:38.999Z</time></trkpt><trkpt lat="45.571606332533484" lon="8.23151875551193"><ele>260.0</ele><time>2026-04-07T13:30:39.999Z</time></trkpt><trkpt lat="45.5716810839126" lon="8.231525698377304"><ele>260.0</ele><time>2026-04-07T13:30:40.999Z</time></trkpt><trkpt lat="45.571764970374296" lon="8.231543598083695"><ele>260.0</ele><time>2026-04-07T13:30:41.999Z</time></trkpt><trkpt lat="45.57185387633293" lon="8.231567933619864"><ele>260.0</ele><time>2026-04-07T13:30:42.999Z</time></trkpt><trkpt lat="45.5719350869122" lon="8.231581410186031"><ele>260.0</ele><time>2026-04-07T13:30:43.999Z</time></trkpt><trkpt lat="45.57200488749156" lon="8.23163207975259"><ele>260.0</ele><time>2026-04-07T13:30:44.999Z</time></trkpt><trkpt lat="45.572101825095686" lon="8.23169138761076"><ele>259.83333333333337</ele><time>2026-04-07T13:30:46.999Z</time></trkpt><trkpt lat="45.5721286038652" lon="8.231577675238837"><ele>259.6666666666667</ele><time>2026-04-07T13:31:09.999Z</time></trkpt><trkpt lat="45.57211329935046" lon="8.231482958670115"><ele>259.5</ele><time>2026-04-07T13:31:12.999Z</time></trkpt><trkpt lat="45.57214649451397" lon="8.231358347624019"><ele>259.3333333333333</ele><time>2026-04-07T13:31:13.999Z</time></trkpt><trkpt lat="45.57213653573721" lon="8.23124932986529"><ele>259.16666666666663</ele><time>2026-04-07T13:31:14.999Z</time></trkpt><trkpt lat="45.57205838205584" lon="8.231140206137063"><ele>259.0</ele><time>2026-04-07T13:31:16.999Z</time></trkpt><trkpt lat="45.57198152952919" lon="8.231097171656907"><ele>258.2</ele><time>2026-04-07T13:31:17.999Z</time></trkpt><trkpt lat="45.571941586745154" lon="8.230996551202058"><ele>257.4</ele><time>2026-04-07T13:31:18.999Z</time></trkpt><trkpt lat="45.57190084906307" lon="8.230883480176162"><ele>256.6</ele><time>2026-04-07T13:31:19.999Z</time></trkpt><trkpt lat="45.57184422767494" lon="8.230777297156504"><ele>255.8</ele><time>2026-04-07T13:31:20.999Z</time></trkpt><trkpt lat="45.571764161804104" lon="8.230685213396619"><ele>255.0</ele><time>2026-04-07T13:31:21.999Z</time></trkpt><trkpt lat="45.57170074262556" lon="8.230582741635816"><ele>254.0</ele><time>2026-04-07T13:31:22.999Z</time></trkpt><trkpt lat="45.57163889136349" lon="8.230460323775283"><ele>253.0</ele><time>2026-04-07T13:31:23.999Z</time></trkpt><trkpt lat="45.571570544609514" lon="8.230347679358317"><ele>252.0</ele><time>2026-04-07T13:31:24.999Z</time></trkpt><trkpt lat="45.571513739675154" lon="8.23025059166805"><ele>251.0</ele><time>2026-04-07T13:31:25.999Z</time></trkpt><trkpt lat="45.57145076480264" lon="8.230174098790599"><ele>250.0</ele><time>2026-04-07T13:31:26.999Z</time></trkpt><trkpt lat="45.571408092613225" lon="8.230075995833555"><ele>249.99999999999997</ele><time>2026-04-07T13:31:27.999Z</time></trkpt><trkpt lat="45.571429441091205" lon="8.229933742309967"><ele>250.0</ele><time>2026-04-07T13:31:28.999Z</time></trkpt><trkpt lat="45.571417173639354" lon="8.229823321506174"><ele>250.0</ele><time>2026-04-07T13:31:29.999Z</time></trkpt><trkpt lat="45.57140257966646" lon="8.229701133714954"><ele>250.0</ele><time>2026-04-07T13:31:31.999Z</time></trkpt><trkpt lat="45.57145010773423" lon="8.22963426939162"><ele>249.99999999999997</ele><time>2026-04-07T13:31:34.999Z</time></trkpt><trkpt lat="45.571514705317234" lon="8.229623827748934"><ele>250.0</ele><time>2026-04-07T13:31:36.999Z</time></trkpt><trkpt lat="45.57201329888474" lon="8.229265958421202"><ele>249.8</ele><time>2026-04-07T13:31:42.999Z</time></trkpt><trkpt lat="45.57207794451942" lon="8.229153449718737"><ele>249.6</ele><time>2026-04-07T13:31:43.999Z</time></trkpt><trkpt lat="45.57213865086434" lon="8.22902991664109"><ele>249.39999999999998</ele><time>2026-04-07T13:31:44.999Z</time></trkpt><trkpt lat="45.572194101433816" lon="8.228912807736215"><ele>249.2</ele><time>2026-04-07T13:31:45.999Z</time></trkpt><trkpt lat="45.57224947078476" lon="8.228802763805406"><ele>249.0</ele><time>2026-04-07T13:31:46.999Z</time></trkpt><trkpt lat="45.57230639148304" lon="8.228722341242245"><ele>247.66666666666666</ele><time>2026-04-07T13:31:47.999Z</time></trkpt><trkpt lat="45.57237339503985" lon="8.22866280777635"><ele>246.33333333333331</ele><time>2026-04-07T13:31:48.999Z</time></trkpt><trkpt lat="45.57245860666042" lon="8.228639190343722"><ele>245.0</ele><time>2026-04-07T13:31:49.999Z</time></trkpt><trkpt lat="45.57253490785168" lon="8.228606094098739"><ele>243.66666666666666</ele><time>2026-04-07T13:31:50.999Z</time></trkpt><trkpt lat="45.57260562928879" lon="8.22856734160089"><ele>242.33333333333331</ele><time>2026-04-07T13:31:51.999Z</time></trkpt><trkpt lat="45.57269041695874" lon="8.228529337926458"><ele>241.0</ele><time>2026-04-07T13:31:52.999Z</time></trkpt><trkpt lat="45.572786878910584" lon="8.228474948515947"><ele>241.20000000000002</ele><time>2026-04-07T13:31:53.999Z</time></trkpt><trkpt lat="45.572880953915444" lon="8.228412957344931"><ele>241.40000000000003</ele><time>2026-04-07T13:31:54.999Z</time></trkpt><trkpt lat="45.572958333000585" lon="8.228355286473242"><ele>241.6</ele><time>2026-04-07T13:31:55.999Z</time></trkpt><trkpt lat="45.57302234622583" lon="8.228298693449052"><ele>241.8</ele><time>2026-04-07T13:31:56.999Z</time></trkpt><trkpt lat="45.57313562126568" lon="8.228189217197569"><ele>242.0</ele><time>2026-04-07T13:31:58.999Z</time></trkpt><trkpt lat="45.57319253458358" lon="8.228116604817146"><ele>242.0</ele><time>2026-04-07T13:31:59.999Z</time></trkpt><trkpt lat="45.57325500423504" lon="8.228043879035354"><ele>242.0</ele><time>2026-04-07T13:32:00.999Z</time></trkpt><trkpt lat="45.57331982912049" lon="8.227970794242554"><ele>242.0</ele><time>2026-04-07T13:32:01.999Z</time></trkpt><trkpt lat="45.57342587660182" lon="8.227901351808653"><ele>242.0</ele><time>2026-04-07T13:32:02.999Z</time></trkpt><trkpt lat="45.573500669354246" lon="8.227829221285118"><ele>242.0</ele><time>2026-04-07T13:32:03.999Z</time></trkpt><trkpt lat="45.57357888740417" lon="8.227757193807037"><ele>242.0</ele><time>2026-04-07T13:32:04.999Z</time></trkpt><trkpt lat="45.573660750648365" lon="8.227685555868575"><ele>242.0</ele><time>2026-04-07T13:32:05.999Z</time></trkpt><trkpt lat="45.573738321553044" lon="8.227602862612088"><ele>242.0</ele><time>2026-04-07T13:32:06.999Z</time></trkpt><trkpt lat="45.57381211154066" lon="8.22751876371628"><ele>242.0</ele><time>2026-04-07T13:32:07.999Z</time></trkpt><trkpt lat="45.57388570879005" lon="8.227425285149423"><ele>242.0</ele><time>2026-04-07T13:32:08.999Z</time></trkpt><trkpt lat="45.573960063328215" lon="8.227357812587671"><ele>241.83333333333334</ele><time>2026-04-07T13:32:09.999Z</time></trkpt><trkpt lat="45.574044981444295" lon="8.22730731225463"><ele>241.66666666666669</ele><time>2026-04-07T13:32:10.999Z</time></trkpt><trkpt lat="45.57416706419151" lon="8.227326882813125"><ele>241.5</ele><time>2026-04-07T13:32:12.999Z</time></trkpt><trkpt lat="45.57423118346148" lon="8.227293098064772"><ele>241.33333333333331</ele><time>2026-04-07T13:32:13.999Z</time></trkpt><trkpt lat="45.57427159422492" lon="8.227215502302602"><ele>241.16666666666666</ele><time>2026-04-07T13:32:14.999Z</time></trkpt><trkpt lat="45.57432105535338" lon="8.227128393228961"><ele>241.0</ele><time>2026-04-07T13:32:15.999Z</time></trkpt><trkpt lat="45.57437079827105" lon="8.227062974513814"><ele>241.0</ele><time>2026-04-07T13:32:16.999Z</time></trkpt><trkpt lat="45.574431783084" lon="8.226984290254322"><ele>241.00000000000003</ele><time>2026-04-07T13:32:17.999Z</time></trkpt><trkpt lat="45.5744757060237" lon="8.226894536717143"><ele>241.0</ele><time>2026-04-07T13:32:18.999Z</time></trkpt><trkpt lat="45.574492307647795" lon="8.226793742988209"><ele>241.0</ele><time>2026-04-07T13:32:19.999Z</time></trkpt><trkpt lat="45.574496921794065" lon="8.226682186682892"><ele>241.00000000000003</ele><time>2026-04-07T13:32:20.999Z</time></trkpt><trkpt lat="45.57452690859282" lon="8.226598348848583"><ele>241.0</ele><time>2026-04-07T13:32:21.999Z</time></trkpt><trkpt lat="45.574580060219006" lon="8.226528726916184"><ele>241.0</ele><time>2026-04-07T13:32:22.999Z</time></trkpt><trkpt lat="45.574637879071375" lon="8.22644755477455"><ele>240.83333333333331</ele><time>2026-04-07T13:32:23.999Z</time></trkpt><trkpt lat="45.57468545034798" lon="8.226384959858516"><ele>240.66666666666666</ele><time>2026-04-07T13:32:25.999Z</time></trkpt><trkpt lat="45.5747413967108" lon="8.226292088958166"><ele>240.5</ele><time>2026-04-07T13:32:30.999Z</time></trkpt><trkpt lat="45.57477669579353" lon="8.226196970298139"><ele>240.33333333333331</ele><time>2026-04-07T13:32:35.999Z</time></trkpt><trkpt lat="45.57481480145391" lon="8.226114398509035"><ele>240.16666666666666</ele><time>2026-04-07T13:32:39.999Z</time></trkpt><trkpt lat="45.57488494343992" lon="8.226117700686533"><ele>240.0</ele><time>2026-04-07T13:32:41.999Z</time></trkpt><trkpt lat="45.57500246819929" lon="8.226162804833255"><ele>240.0</ele><time>2026-04-07T13:32:43.999Z</time></trkpt><trkpt lat="45.57507712469514" lon="8.226172697109075"><ele>240.0</ele><time>2026-04-07T13:32:44.999Z</time></trkpt><trkpt lat="45.575133325057564" lon="8.226122530625393"><ele>240.0</ele><time>2026-04-07T13:32:45.999Z</time></trkpt><trkpt lat="45.5751776787593" lon="8.226020538148774"><ele>240.0</ele><time>2026-04-07T13:32:46.999Z</time></trkpt><trkpt lat="45.57530068060677" lon="8.226008260009568"><ele>240.0</ele><time>2026-04-07T13:32:48.999Z</time></trkpt><trkpt lat="45.575367646866866" lon="8.226000630407924"><ele>240.0</ele><time>2026-04-07T13:32:49.999Z</time></trkpt><trkpt lat="45.57538157132402" lon="8.22591238733076"><ele>240.33333333333334</ele><time>2026-04-07T13:32:50.999Z</time></trkpt><trkpt lat="45.5753868243212" lon="8.225772043329371"><ele>240.66666666666669</ele><time>2026-04-07T13:32:51.999Z</time></trkpt><trkpt lat="45.57541001239383" lon="8.225665395456517"><ele>241.0</ele><time>2026-04-07T13:32:52.999Z</time></trkpt><trkpt lat="45.5754863165401" lon="8.225525137126924"><ele>241.33333333333334</ele><time>2026-04-07T13:32:54.999Z</time></trkpt><trkpt lat="45.57553165472453" lon="8.225449084988094"><ele>241.66666666666669</ele><time>2026-04-07T13:32:55.999Z</time></trkpt><trkpt lat="45.575590167820785" lon="8.225388160493837"><ele>242.0</ele><time>2026-04-07T13:32:56.999Z</time></trkpt><trkpt lat="45.57566105091838" lon="8.225293496812625"><ele>242.0</ele><time>2026-04-07T13:32:57.999Z</time></trkpt><trkpt lat="45.5757281366619" lon="8.225187068523"><ele>242.0</ele><time>2026-04-07T13:32:58.999Z</time></trkpt><trkpt lat="45.575792706742064" lon="8.22511317769703"><ele>242.0</ele><time>2026-04-07T13:32:59.999Z</time></trkpt><trkpt lat="45.57585744637528" lon="8.22506353113532"><ele>242.0</ele><time>2026-04-07T13:33:00.999Z</time></trkpt><trkpt lat="45.57594209329207" lon="8.225122471706001"><ele>242.0</ele><time>2026-04-07T13:33:02.999Z</time></trkpt><trkpt lat="45.576052428427026" lon="8.225171818062552"><ele>242.00000000000003</ele><time>2026-04-07T13:33:04.999Z</time></trkpt><trkpt lat="45.576130090320994" lon="8.225128704327936"><ele>242.0</ele><time>2026-04-07T13:33:06.999Z</time></trkpt><trkpt lat="45.57608405311442" lon="8.225033879046084"><ele>242.0</ele><time>2026-04-07T13:33:08.999Z</time></trkpt><trkpt lat="45.576121103326116" lon="8.224924696798627"><ele>242.0</ele><time>2026-04-07T13:33:11.999Z</time></trkpt><trkpt lat="45.57615727730281" lon="8.224806585680147"><ele>242.00000000000003</ele><time>2026-04-07T13:33:13.999Z</time></trkpt><trkpt lat="45.57616716188049" lon="8.224701979759539"><ele>242.0</ele><time>2026-04-07T13:33:14.999Z</time></trkpt><trkpt lat="45.57617586778172" lon="8.22461234334437"><ele>242.33333333333334</ele><time>2026-04-07T13:33:15.999Z</time></trkpt><trkpt lat="45.576252585372515" lon="8.224589917094672"><ele>242.66666666666669</ele><time>2026-04-07T13:33:17.999Z</time></trkpt><trkpt lat="45.57632238009011" lon="8.224571309982325"><ele>243.0</ele><time>2026-04-07T13:33:18.999Z</time></trkpt><trkpt lat="45.57641466093907" lon="8.224515257019519"><ele>243.33333333333331</ele><time>2026-04-07T13:33:19.999Z</time></trkpt><trkpt lat="45.576499070023694" lon="8.22442942323155"><ele>243.66666666666666</ele><time>2026-04-07T13:33:20.999Z</time></trkpt><trkpt lat="45.5765835529003" lon="8.224374231657647"><ele>244.0</ele><time>2026-04-07T13:33:21.999Z</time></trkpt><trkpt lat="45.576675079012325" lon="8.224350298535102"><ele>243.99999999999997</ele><time>2026-04-07T13:33:22.999Z</time></trkpt><trkpt lat="45.576767537574355" lon="8.22433115463322"><ele>244.0</ele><time>2026-04-07T13:33:23.999Z</time></trkpt><trkpt lat="45.576839054324836" lon="8.224331838234288"><ele>244.0</ele><time>2026-04-07T13:33:24.999Z</time></trkpt><trkpt lat="45.57691419034363" lon="8.224349854729226"><ele>244.0</ele><time>2026-04-07T13:33:25.999Z</time></trkpt><trkpt lat="45.57697366579453" lon="8.224392397260516"><ele>243.99999999999997</ele><time>2026-04-07T13:33:26.999Z</time></trkpt><trkpt lat="45.57705435113925" lon="8.224432869221026"><ele>244.0</ele><time>2026-04-07T13:33:31.999Z</time></trkpt><trkpt lat="45.577138164398235" lon="8.224431889580547"><ele>244.79999999999998</ele><time>2026-04-07T13:33:34.999Z</time></trkpt><trkpt lat="45.57720484031916" lon="8.224387857117279"><ele>245.59999999999997</ele><time>2026-04-07T13:33:35.999Z</time></trkpt><trkpt lat="45.577253512693254" lon="8.224300779851589"><ele>246.4</ele><time>2026-04-07T13:33:36.999Z</time></trkpt><trkpt lat="45.57730772777128" lon="8.224186985552748"><ele>247.2</ele><time>2026-04-07T13:33:37.999Z</time></trkpt><trkpt lat="45.577400439428715" lon="8.22407561327695"><ele>248.0</ele><time>2026-04-07T13:33:38.999Z</time></trkpt><trkpt lat="45.577518310901546" lon="8.223954743700402"><ele>248.0</ele><time>2026-04-07T13:33:39.999Z</time></trkpt><trkpt lat="45.57763096234185" lon="8.223856276343499"><ele>248.0</ele><time>2026-04-07T13:33:40.999Z</time></trkpt><trkpt lat="45.57775663592009" lon="8.223771550064118"><ele>248.0</ele><time>2026-04-07T13:33:41.999Z</time></trkpt><trkpt lat="45.57787537736317" lon="8.22367832559605"><ele>248.0</ele><time>2026-04-07T13:33:42.999Z</time></trkpt><trkpt lat="45.577934245986526" lon="8.223724522540325"><ele>249.00000000000003</ele><time>2026-04-07T13:33:43.999Z</time></trkpt><trkpt lat="45.578027512112016" lon="8.223705504547459"><ele>250.0</ele><time>2026-04-07T13:33:44.999Z</time></trkpt><trkpt lat="45.578103643303095" lon="8.223675684705821"><ele>251.0</ele><time>2026-04-07T13:33:45.999Z</time></trkpt><trkpt lat="45.578169323297345" lon="8.223628911666868"><ele>252.0</ele><time>2026-04-07T13:33:46.999Z</time></trkpt><trkpt lat="45.57822393825484" lon="8.22357769877845"><ele>253.00000000000003</ele><time>2026-04-07T13:33:47.999Z</time></trkpt><trkpt lat="45.57827780549951" lon="8.223524088313374"><ele>254.0</ele><time>2026-04-07T13:33:48.999Z</time></trkpt><trkpt lat="45.57835703038269" lon="8.223372800182903"><ele>254.0</ele><time>2026-04-07T13:33:50.999Z</time></trkpt><trkpt lat="45.57839498686176" lon="8.223270637710602"><ele>253.99999999999997</ele><time>2026-04-07T13:33:51.999Z</time></trkpt><trkpt lat="45.57844485468016" lon="8.223151856836388"><ele>253.99999999999997</ele><time>2026-04-07T13:33:52.999Z</time></trkpt><trkpt lat="45.57847523039303" lon="8.223003260354373"><ele>254.0</ele><time>2026-04-07T13:33:53.999Z</time></trkpt><trkpt lat="45.57850046421292" lon="8.22285037025885"><ele>254.0</ele><time>2026-04-07T13:33:54.999Z</time></trkpt><trkpt lat="45.57853606816377" lon="8.222745633056382"><ele>253.83333333333334</ele><time>2026-04-07T13:33:55.999Z</time></trkpt><trkpt lat="45.578564715441146" lon="8.222663902382852"><ele>253.66666666666669</ele><time>2026-04-07T13:33:56.999Z</time></trkpt><trkpt lat="45.57861848569855" lon="8.222587523154324"><ele>253.5</ele><time>2026-04-07T13:33:57.999Z</time></trkpt><trkpt lat="45.57869086117748" lon="8.222539384543376"><ele>253.33333333333331</ele><time>2026-04-07T13:33:58.999Z</time></trkpt><trkpt lat="45.57878335409968" lon="8.222513527025415"><ele>253.16666666666666</ele><time>2026-04-07T13:33:59.999Z</time></trkpt><trkpt lat="45.57886498336278" lon="8.222499466668916"><ele>253.0</ele><time>2026-04-07T13:34:00.999Z</time></trkpt><trkpt lat="45.5789346704111" lon="8.222527627008184"><ele>253.0</ele><time>2026-04-07T13:34:01.999Z</time></trkpt><trkpt lat="45.579017624728685" lon="8.222569822709076"><ele>253.0</ele><time>2026-04-07T13:34:02.999Z</time></trkpt><trkpt lat="45.57909903897109" lon="8.222624752536458"><ele>253.0</ele><time>2026-04-07T13:34:03.999Z</time></trkpt><trkpt lat="45.579226451903736" lon="8.222654239113428"><ele>253.0</ele><time>2026-04-07T13:34:05.999Z</time></trkpt><trkpt lat="45.57931006577961" lon="8.222665730051238"><ele>253.0</ele><time>2026-04-07T13:34:06.999Z</time></trkpt><trkpt lat="45.579390540192186" lon="8.2226589469715"><ele>253.0</ele><time>2026-04-07T13:34:07.999Z</time></trkpt><trkpt lat="45.57946435256738" lon="8.222644880723653"><ele>253.0</ele><time>2026-04-07T13:34:08.999Z</time></trkpt><trkpt lat="45.57955766361066" lon="8.222626042115307"><ele>253.0</ele><time>2026-04-07T13:34:09.999Z</time></trkpt><trkpt lat="45.579656379896626" lon="8.222576087992728"><ele>253.0</ele><time>2026-04-07T13:34:10.999Z</time></trkpt><trkpt lat="45.579742927719494" lon="8.222561189730492"><ele>253.0</ele><time>2026-04-07T13:34:11.999Z</time></trkpt><trkpt lat="45.57983874549709" lon="8.2225442423593"><ele>253.2</ele><time>2026-04-07T13:34:12.999Z</time></trkpt><trkpt lat="45.57993502915763" lon="8.222510724458198"><ele>253.4</ele><time>2026-04-07T13:34:13.999Z</time></trkpt><trkpt lat="45.580024150274596" lon="8.222491882114957"><ele>253.59999999999997</ele><time>2026-04-07T13:34:14.999Z</time></trkpt><trkpt lat="45.58010820488387" lon="8.222466900548145"><ele>253.79999999999998</ele><time>2026-04-07T13:34:15.999Z</time></trkpt><trkpt lat="45.58017540006363" lon="8.222433456584014"><ele>254.0</ele><time>2026-04-07T13:34:16.999Z</time></trkpt><trkpt lat="45.58025920014265" lon="8.222332304538973"><ele>253.2</ele><time>2026-04-07T13:34:18.999Z</time></trkpt><trkpt lat="45.58030793844477" lon="8.222210172807785"><ele>252.39999999999998</ele><time>2026-04-07T13:34:20.999Z</time></trkpt><trkpt lat="45.58032162072633" lon="8.222020364461779"><ele>251.6</ele><time>2026-04-07T13:34:22.999Z</time></trkpt><trkpt lat="45.5803215975902" lon="8.221906908225156"><ele>250.8</ele><time>2026-04-07T13:34:23.999Z</time></trkpt><trkpt lat="45.58031992916892" lon="8.221801516211055"><ele>250.0</ele><time>2026-04-07T13:34:24.999Z</time></trkpt><trkpt lat="45.58033723590417" lon="8.221703637782522"><ele>250.57142857142856</ele><time>2026-04-07T13:34:26.999Z</time></trkpt><trkpt lat="45.5803717744688" lon="8.221622397253604"><ele>251.14285714285717</ele><time>2026-04-07T13:35:47Z</time></trkpt><trkpt lat="45.580412316110575" lon="8.221550827845165"><ele>251.71428571428572</ele><time>2026-04-07T13:35:48Z</time></trkpt><trkpt lat="45.58046171319089" lon="8.221488007734193"><ele>252.28571428571428</ele><time>2026-04-07T13:35:49Z</time></trkpt><trkpt lat="45.580516184275346" lon="8.221414000135162"><ele>252.85714285714283</ele><time>2026-04-07T13:35:50Z</time></trkpt><trkpt lat="45.58057583619154" lon="8.221334091057784"><ele>253.42857142857144</ele><time>2026-04-07T13:35:51Z</time></trkpt><trkpt lat="45.58063680521577" lon="8.221277168340993"><ele>254.0</ele><time>2026-04-07T13:35:52Z</time></trkpt><trkpt lat="45.58070579217054" lon="8.2212296413947"><ele>254.0</ele><time>2026-04-07T13:35:53Z</time></trkpt><trkpt lat="45.580797265472405" lon="8.221197394695677"><ele>253.99999999999997</ele><time>2026-04-07T13:35:54Z</time></trkpt><trkpt lat="45.58090456388558" lon="8.221173721160252"><ele>253.99999999999997</ele><time>2026-04-07T13:35:55Z</time></trkpt><trkpt lat="45.581014439254" lon="8.221141013817869"><ele>254.0</ele><time>2026-04-07T13:35:56Z</time></trkpt><trkpt lat="45.581129044682484" lon="8.221108219267702"><ele>254.0</ele><time>2026-04-07T13:35:57Z</time></trkpt><trkpt lat="45.58123840264482" lon="8.221075152499909"><ele>255.79999999999998</ele><time>2026-04-07T13:35:58Z</time></trkpt><trkpt lat="45.58133975392004" lon="8.221025678083198"><ele>257.59999999999997</ele><time>2026-04-07T13:35:59Z</time></trkpt><trkpt lat="45.58143778190604" lon="8.220964397473468"><ele>259.4</ele><time>2026-04-07T13:36:00Z</time></trkpt><trkpt lat="45.58152763623202" lon="8.22090918671909"><ele>261.2</ele><time>2026-04-07T13:36:01Z</time></trkpt><trkpt lat="45.581624776871436" lon="8.22087399193204"><ele>263.0</ele><time>2026-04-07T13:36:02Z</time></trkpt><trkpt lat="45.581721757740034" lon="8.22084250491637"><ele>263.0</ele><time>2026-04-07T13:36:03Z</time></trkpt><trkpt lat="45.5818127593303" lon="8.22083325313864"><ele>263.0</ele><time>2026-04-07T13:36:04Z</time></trkpt><trkpt lat="45.58190501403745" lon="8.22084509678279"><ele>263.0</ele><time>2026-04-07T13:36:05Z</time></trkpt><trkpt lat="45.58199651679487" lon="8.22087912898141"><ele>263.0</ele><time>2026-04-07T13:36:06Z</time></trkpt><trkpt lat="45.58208635221779" lon="8.220945646481006"><ele>263.0</ele><time>2026-04-07T13:36:07Z</time></trkpt><trkpt lat="45.58218750365651" lon="8.221021285947465"><ele>264.33333333333337</ele><time>2026-04-07T13:36:08Z</time></trkpt><trkpt lat="45.58227574915317" lon="8.221064018512315"><ele>265.6666666666667</ele><time>2026-04-07T13:36:09Z</time></trkpt><trkpt lat="45.58236097953741" lon="8.221094564563769"><ele>267.0</ele><time>2026-04-07T13:36:10Z</time></trkpt><trkpt lat="45.58243449827432" lon="8.22113771464159"><ele>268.3333333333333</ele><time>2026-04-07T13:36:11Z</time></trkpt><trkpt lat="45.582508168106685" lon="8.221158000243252"><ele>269.66666666666663</ele><time>2026-04-07T13:36:12Z</time></trkpt><trkpt lat="45.582574387870935" lon="8.221184614084473"><ele>271.0</ele><time>2026-04-07T13:36:13Z</time></trkpt><trkpt lat="45.582688912689825" lon="8.221186827698702"><ele>271.0</ele><time>2026-04-07T13:36:15Z</time></trkpt><trkpt lat="45.582757511449145" lon="8.22118748290104"><ele>271.0</ele><time>2026-04-07T13:36:16Z</time></trkpt><trkpt lat="45.58283541578528" lon="8.22117032135156"><ele>271.0</ele><time>2026-04-07T13:36:17Z</time></trkpt><trkpt lat="45.58291791226464" lon="8.221144766458977"><ele>271.0</ele><time>2026-04-07T13:36:18Z</time></trkpt><trkpt lat="45.58300546184324" lon="8.221104878819343"><ele>271.0</ele><time>2026-04-07T13:36:19Z</time></trkpt><trkpt lat="45.583093715911915" lon="8.221075895281409"><ele>271.0</ele><time>2026-04-07T13:36:20Z</time></trkpt><trkpt lat="45.583181229739374" lon="8.221047905991458"><ele>272.2</ele><time>2026-04-07T13:36:21Z</time></trkpt><trkpt lat="45.58327698759329" lon="8.221029950588438"><ele>273.40000000000003</ele><time>2026-04-07T13:36:22Z</time></trkpt><trkpt lat="45.58337307894351" lon="8.22099581131247"><ele>274.6</ele><time>2026-04-07T13:36:23Z</time></trkpt><trkpt lat="45.58347134386075" lon="8.220939545631651"><ele>275.8</ele><time>2026-04-07T13:36:24Z</time></trkpt><trkpt lat="45.583579259859114" lon="8.220869835018187"><ele>277.0</ele><time>2026-04-07T13:36:25Z</time></trkpt><trkpt lat="45.58368134822035" lon="8.220791932098097"><ele>277.75</ele><time>2026-04-07T13:36:26Z</time></trkpt><trkpt lat="45.583768703298205" lon="8.220698875798854"><ele>278.5</ele><time>2026-04-07T13:36:27Z</time></trkpt><trkpt lat="45.58387407786714" lon="8.220599043772134"><ele>279.25</ele><time>2026-04-07T13:36:28Z</time></trkpt><trkpt lat="45.58397222498377" lon="8.220499644094286"><ele>280.0</ele><time>2026-04-07T13:36:29Z</time></trkpt><trkpt lat="45.58406649405605" lon="8.220402773707145"><ele>280.8</ele><time>2026-04-07T13:36:30Z</time></trkpt><trkpt lat="45.58415196738636" lon="8.220333103717337"><ele>281.6</ele><time>2026-04-07T13:36:31Z</time></trkpt><trkpt lat="45.58424288933488" lon="8.220301585458216"><ele>282.4</ele><time>2026-04-07T13:36:32Z</time></trkpt><trkpt lat="45.58434000264976" lon="8.22029741824513"><ele>283.2</ele><time>2026-04-07T13:36:33Z</time></trkpt><trkpt lat="45.58443163189259" lon="8.220318573994145"><ele>284.0</ele><time>2026-04-07T13:36:34Z</time></trkpt><trkpt lat="45.58450263032942" lon="8.220326103280021"><ele>285.59999999999997</ele><time>2026-04-07T13:36:35Z</time></trkpt><trkpt lat="45.584595876997376" lon="8.220334323862721"><ele>287.2</ele><time>2026-04-07T13:36:37Z</time></trkpt><trkpt lat="45.58468909556157" lon="8.220437210232054"><ele>288.79999999999995</ele><time>2026-04-07T13:36:39Z</time></trkpt><trkpt lat="45.58475306990106" lon="8.220481918500864"><ele>290.4</ele><time>2026-04-07T13:36:40Z</time></trkpt><trkpt lat="45.5848355403262" lon="8.220544460212626"><ele>292.0</ele><time>2026-04-07T13:36:41Z</time></trkpt><trkpt lat="45.584912014092374" lon="8.2206060531211"><ele>292.0</ele><time>2026-04-07T13:36:42Z</time></trkpt><trkpt lat="45.584996925103574" lon="8.220645874253231"><ele>292.0</ele><time>2026-04-07T13:36:43Z</time></trkpt><trkpt lat="45.5850824787063" lon="8.220674057800034"><ele>292.0</ele><time>2026-04-07T13:36:44Z</time></trkpt><trkpt lat="45.58516534800904" lon="8.220697315671218"><ele>292.0</ele><time>2026-04-07T13:36:45Z</time></trkpt><trkpt lat="45.58525266942939" lon="8.220728698197078"><ele>292.0</ele><time>2026-04-07T13:36:46Z</time></trkpt><trkpt lat="45.58533969534719" lon="8.220760973835604"><ele>292.0</ele><time>2026-04-07T13:36:47Z</time></trkpt><trkpt lat="45.58543297759288" lon="8.220792769747037"><ele>291.6</ele><time>2026-04-07T13:36:48Z</time></trkpt><trkpt lat="45.58551768242874" lon="8.22084523040127"><ele>291.2</ele><time>2026-04-07T13:36:49Z</time></trkpt><trkpt lat="45.585598639280754" lon="8.220912701079406"><ele>290.8</ele><time>2026-04-07T13:36:50Z</time></trkpt><trkpt lat="45.58567897586319" lon="8.220972900406936"><ele>290.4</ele><time>2026-04-07T13:36:51Z</time></trkpt><trkpt lat="45.58575846329292" lon="8.221031998146891"><ele>290.0</ele><time>2026-04-07T13:36:52Z</time></trkpt><trkpt lat="45.58584054055214" lon="8.221083355535196"><ele>290.0</ele><time>2026-04-07T13:36:53Z</time></trkpt><trkpt lat="45.58592438399673" lon="8.22113201576044"><ele>290.0</ele><time>2026-04-07T13:36:54Z</time></trkpt><trkpt lat="45.58601427484935" lon="8.221183506226845"><ele>290.0</ele><time>2026-04-07T13:36:55Z</time></trkpt><trkpt lat="45.58610312527541" lon="8.221241751346158"><ele>290.0</ele><time>2026-04-07T13:36:56Z</time></trkpt><trkpt lat="45.58618695636284" lon="8.221311628264026"><ele>290.0</ele><time>2026-04-07T13:36:57Z</time></trkpt><trkpt lat="45.586267500289196" lon="8.221377158822104"><ele>290.2</ele><time>2026-04-07T13:36:58Z</time></trkpt><trkpt lat="45.58634839886962" lon="8.221437530494"><ele>290.4</ele><time>2026-04-07T13:36:59Z</time></trkpt><trkpt lat="45.58643515242396" lon="8.221491101593156"><ele>290.6</ele><time>2026-04-07T13:37:00Z</time></trkpt><trkpt lat="45.58652862224466" lon="8.221535716555941"><ele>290.8</ele><time>2026-04-07T13:37:01Z</time></trkpt><trkpt lat="45.586619313971255" lon="8.221579736537551"><ele>291.0</ele><time>2026-04-07T13:37:02Z</time></trkpt><trkpt lat="45.58671232218319" lon="8.22161887449695"><ele>291.0</ele><time>2026-04-07T13:37:03Z</time></trkpt><trkpt lat="45.5867991464333" lon="8.221685078652332"><ele>291.0</ele><time>2026-04-07T13:37:04Z</time></trkpt><trkpt lat="45.58688128395149" lon="8.221726726905851"><ele>291.0</ele><time>2026-04-07T13:37:05Z</time></trkpt><trkpt lat="45.586962139431364" lon="8.221737525504754"><ele>291.0</ele><time>2026-04-07T13:37:06Z</time></trkpt><trkpt lat="45.587040685931754" lon="8.221724479920546"><ele>291.0</ele><time>2026-04-07T13:37:07Z</time></trkpt><trkpt lat="45.58712427544816" lon="8.221700584022459"><ele>291.0</ele><time>2026-04-07T13:37:08Z</time></trkpt><trkpt lat="45.587215120062815" lon="8.221705912444595"><ele>290.5</ele><time>2026-04-07T13:37:09Z</time></trkpt><trkpt lat="45.58730200938804" lon="8.221723814391757"><ele>290.0</ele><time>2026-04-07T13:37:10Z</time></trkpt><trkpt lat="45.587388854966164" lon="8.22174985589059"><ele>289.5</ele><time>2026-04-07T13:37:11Z</time></trkpt><trkpt lat="45.58746726453054" lon="8.221786860861949"><ele>289.0</ele><time>2026-04-07T13:37:12Z</time></trkpt><trkpt lat="45.58753981784252" lon="8.221810520439545"><ele>288.5</ele><time>2026-04-07T13:37:13Z</time></trkpt><trkpt lat="45.587611225583025" lon="8.221809664417508"><ele>288.0</ele><time>2026-04-07T13:37:14Z</time></trkpt><trkpt lat="45.58768831844625" lon="8.22177888866039"><ele>288.0</ele><time>2026-04-07T13:37:15Z</time></trkpt><trkpt lat="45.58775663262553" lon="8.221732613451183"><ele>288.0</ele><time>2026-04-07T13:37:16Z</time></trkpt><trkpt lat="45.587824162730094" lon="8.221704085153306"><ele>288.0</ele><time>2026-04-07T13:37:17Z</time></trkpt><trkpt lat="45.58793323229691" lon="8.221740788137858"><ele>288.0</ele><time>2026-04-07T13:37:19Z</time></trkpt><trkpt lat="45.58798359176986" lon="8.221818228968356"><ele>288.0</ele><time>2026-04-07T13:37:20Z</time></trkpt><trkpt lat="45.588027229080794" lon="8.221883574691848"><ele>288.0</ele><time>2026-04-07T13:37:21Z</time></trkpt><trkpt lat="45.58809448603811" lon="8.222039440123336"><ele>288.14285714285717</ele><time>2026-04-07T13:37:23Z</time></trkpt><trkpt lat="45.58812669602172" lon="8.222120162486409"><ele>288.2857142857143</ele><time>2026-04-07T13:37:24Z</time></trkpt><trkpt lat="45.58820232038974" lon="8.22217620427129"><ele>288.42857142857144</ele><time>2026-04-07T13:37:26Z</time></trkpt><trkpt lat="45.58826592686134" lon="8.222169259113654"><ele>288.57142857142856</ele><time>2026-04-07T13:37:27Z</time></trkpt><trkpt lat="45.58834085031119" lon="8.222179196655901"><ele>288.7142857142857</ele><time>2026-04-07T13:37:28Z</time></trkpt><trkpt lat="45.58841829875098" lon="8.222205299630204"><ele>288.8571428571429</ele><time>2026-04-07T13:37:29Z</time></trkpt><trkpt lat="45.588481384123575" lon="8.222140875769645"><ele>289.0</ele><time>2026-04-07T13:37:31Z</time></trkpt><trkpt lat="45.58848014866237" lon="8.222010490440578"><ele>289.0</ele><time>2026-04-07T13:37:33Z</time></trkpt><trkpt lat="45.588465777320366" lon="8.221911581575492"><ele>289.0</ele><time>2026-04-07T13:37:34Z</time></trkpt><trkpt lat="45.58848779977835" lon="8.221790687730634"><ele>289.0</ele><time>2026-04-07T13:37:34.999Z</time></trkpt><trkpt lat="45.58851134058093" lon="8.221682196435424"><ele>289.0</ele><time>2026-04-07T13:37:35.999Z</time></trkpt><trkpt lat="45.58855240180607" lon="8.221610023698831"><ele>289.0</ele><time>2026-04-07T13:37:36.999Z</time></trkpt><trkpt lat="45.58861147573291" lon="8.221558868573755"><ele>289.0</ele><time>2026-04-07T13:37:37.999Z</time></trkpt><trkpt lat="45.58868666229448" lon="8.22150600373299"><ele>291.0</ele><time>2026-04-07T13:37:38.999Z</time></trkpt><trkpt lat="45.58875445506568" lon="8.221405374386569"><ele>293.0</ele><time>2026-04-07T13:37:39.999Z</time></trkpt><trkpt lat="45.58880887662359" lon="8.221291520270537"><ele>295.0</ele><time>2026-04-07T13:37:40.999Z</time></trkpt><trkpt lat="45.588849401846346" lon="8.221217984440223"><ele>297.0</ele><time>2026-04-07T13:37:41.999Z</time></trkpt><trkpt lat="45.58892862623276" lon="8.22121735132101"><ele>299.0</ele><time>2026-04-07T13:37:42.999Z</time></trkpt><trkpt lat="45.58901393396845" lon="8.2212109653854"><ele>301.0</ele><time>2026-04-07T13:37:43.999Z</time></trkpt><trkpt lat="45.58909475476828" lon="8.221195677613087"><ele>301.0</ele><time>2026-04-07T13:37:44.999Z</time></trkpt><trkpt lat="45.58916827663346" lon="8.221162078158224"><ele>301.0</ele><time>2026-04-07T13:37:45.999Z</time></trkpt><trkpt lat="45.589235005423184" lon="8.22110194304163"><ele>301.0</ele><time>2026-04-07T13:37:46.999Z</time></trkpt><trkpt lat="45.58930421771549" lon="8.221051897070398"><ele>301.0</ele><time>2026-04-07T13:37:48.999Z</time></trkpt><trkpt lat="45.58941317318458" lon="8.220962277709964"><ele>301.0</ele><time>2026-04-07T13:37:50.999Z</time></trkpt><trkpt lat="45.58948683075079" lon="8.220902627286794"><ele>301.0</ele><time>2026-04-07T13:37:51.999Z</time></trkpt><trkpt lat="45.58955621014269" lon="8.220828397818359"><ele>302.0</ele><time>2026-04-07T13:37:52.999Z</time></trkpt><trkpt lat="45.58962018943039" lon="8.220780020564792"><ele>303.0</ele><time>2026-04-07T13:37:53.999Z</time></trkpt><trkpt lat="45.58972923629784" lon="8.220684961182318"><ele>304.0</ele><time>2026-04-07T13:37:55.999Z</time></trkpt><trkpt lat="45.5897728683702" lon="8.220587903228182"><ele>305.0</ele><time>2026-04-07T13:37:56.999Z</time></trkpt><trkpt lat="45.589823846615595" lon="8.220492190868262"><ele>306.0</ele><time>2026-04-07T13:37:57.999Z</time></trkpt><trkpt lat="45.589874910924436" lon="8.220390133643612"><ele>306.0</ele><time>2026-04-07T13:37:58.999Z</time></trkpt><trkpt lat="45.589937955316245" lon="8.220281634006142"><ele>306.0</ele><time>2026-04-07T13:38:00Z</time></trkpt><trkpt lat="45.59000562094877" lon="8.220166292027315"><ele>306.0</ele><time>2026-04-07T13:38:01Z</time></trkpt><trkpt lat="45.590069857891876" lon="8.220057155011762"><ele>306.0</ele><time>2026-04-07T13:38:02Z</time></trkpt><trkpt lat="45.590134592487665" lon="8.219964950104004"><ele>306.0</ele><time>2026-04-07T13:38:03Z</time></trkpt><trkpt lat="45.5901830306003" lon="8.219879593699861"><ele>306.0</ele><time>2026-04-07T13:38:04Z</time></trkpt><trkpt lat="45.590256563134105" lon="8.21988858931903"><ele>306.0</ele><time>2026-04-07T13:38:06Z</time></trkpt><trkpt lat="45.59037471407899" lon="8.219932792274244"><ele>306.0</ele><time>2026-04-07T13:38:08Z</time></trkpt><trkpt lat="45.59045285376705" lon="8.219960300466287"><ele>306.0</ele><time>2026-04-07T13:38:09Z</time></trkpt><trkpt lat="45.590538390328966" lon="8.21995915483645"><ele>306.0</ele><time>2026-04-07T13:38:10Z</time></trkpt><trkpt lat="45.590662849517315" lon="8.219866067534815"><ele>307.1666666666667</ele><time>2026-04-07T13:38:12Z</time></trkpt><trkpt lat="45.59075031713421" lon="8.219781347070546"><ele>308.3333333333333</ele><time>2026-04-07T13:38:13Z</time></trkpt><trkpt lat="45.59082306715572" lon="8.219749601541661"><ele>309.5</ele><time>2026-04-07T13:38:14Z</time></trkpt><trkpt lat="45.59089421423033" lon="8.219725528265721"><ele>310.66666666666663</ele><time>2026-04-07T13:38:15Z</time></trkpt><trkpt lat="45.59097306296831" lon="8.219711070363546"><ele>311.8333333333333</ele><time>2026-04-07T13:38:16Z</time></trkpt><trkpt lat="45.59104587479939" lon="8.219686512597665"><ele>313.0</ele><time>2026-04-07T13:38:17Z</time></trkpt><trkpt lat="45.59114803229614" lon="8.219649275035911"><ele>313.4</ele><time>2026-04-07T13:38:18Z</time></trkpt><trkpt lat="45.59126391126578" lon="8.2196454421427"><ele>313.8</ele><time>2026-04-07T13:38:19Z</time></trkpt><trkpt lat="45.59136558716818" lon="8.219695756213818"><ele>314.2</ele><time>2026-04-07T13:38:21Z</time></trkpt><trkpt lat="45.5914639691349" lon="8.219616465548341"><ele>314.6</ele><time>2026-04-07T13:38:24Z</time></trkpt><trkpt lat="45.59152636377574" lon="8.219576454245326"><ele>315.0</ele><time>2026-04-07T13:38:25Z</time></trkpt><trkpt lat="45.59161475887656" lon="8.219552547305828"><ele>315.0</ele><time>2026-04-07T13:38:26Z</time></trkpt><trkpt lat="45.59170537413974" lon="8.21955539912887"><ele>315.0</ele><time>2026-04-07T13:38:27Z</time></trkpt><trkpt lat="45.59179455774397" lon="8.219552745047768"><ele>315.0</ele><time>2026-04-07T13:38:28Z</time></trkpt><trkpt lat="45.59186756106822" lon="8.219554564533754"><ele>315.0</ele><time>2026-04-07T13:38:29Z</time></trkpt><trkpt lat="45.59195098253516" lon="8.219558820468988"><ele>315.0</ele><time>2026-04-07T13:38:30Z</time></trkpt><trkpt lat="45.592053085285954" lon="8.219499421433216"><ele>315.0</ele><time>2026-04-07T13:38:32Z</time></trkpt><trkpt lat="45.59212341098795" lon="8.219488208398488"><ele>315.6</ele><time>2026-04-07T13:38:33Z</time></trkpt><trkpt lat="45.592252989546296" lon="8.219570118608626"><ele>316.2</ele><time>2026-04-07T13:38:35Z</time></trkpt><trkpt lat="45.5923207523693" lon="8.219659305678947"><ele>316.8</ele><time>2026-04-07T13:38:36Z</time></trkpt><trkpt lat="45.592387140245535" lon="8.219727893614133"><ele>317.4</ele><time>2026-04-07T13:38:37Z</time></trkpt><trkpt lat="45.59246363592072" lon="8.219739085172431"><ele>318.0</ele><time>2026-04-07T13:38:38Z</time></trkpt><trkpt lat="45.59257900373775" lon="8.219693477023894"><ele>318.0</ele><time>2026-04-07T13:38:40Z</time></trkpt><trkpt lat="45.592665556066486" lon="8.219670005395722"><ele>318.0</ele><time>2026-04-07T13:38:41Z</time></trkpt><trkpt lat="45.59274839080396" lon="8.219672777200794"><ele>318.0</ele><time>2026-04-07T13:38:42Z</time></trkpt><trkpt lat="45.59281127401662" lon="8.219678548853905"><ele>318.0</ele><time>2026-04-07T13:38:43Z</time></trkpt><trkpt lat="45.592874093315196" lon="8.219656139359758"><ele>318.0</ele><time>2026-04-07T13:38:44Z</time></trkpt><trkpt lat="45.59293155313496" lon="8.219612563347953"><ele>318.0</ele><time>2026-04-07T13:38:45Z</time></trkpt><trkpt lat="45.59299592705295" lon="8.219585107029024"><ele>318.0</ele><time>2026-04-07T13:38:46Z</time></trkpt><trkpt lat="45.59307556274404" lon="8.219559359564604"><ele>318.8</ele><time>2026-04-07T13:38:47Z</time></trkpt><trkpt lat="45.593201266935516" lon="8.219587587340746"><ele>319.6</ele><time>2026-04-07T13:38:49Z</time></trkpt><trkpt lat="45.59332484744034" lon="8.219617424589016"><ele>320.40000000000003</ele><time>2026-04-07T13:38:51Z</time></trkpt><trkpt lat="45.59343847986099" lon="8.219620861998377"><ele>321.20000000000005</ele><time>2026-04-07T13:38:53Z</time></trkpt><trkpt lat="45.5935027564022" lon="8.21966107899312"><ele>322.0</ele><time>2026-04-07T13:38:54Z</time></trkpt><trkpt lat="45.593574429790856" lon="8.219697860761297"><ele>322.0</ele><time>2026-04-07T13:38:55Z</time></trkpt><trkpt lat="45.593648776669696" lon="8.219720818879443"><ele>322.0</ele><time>2026-04-07T13:38:56Z</time></trkpt><trkpt lat="45.5937272441777" lon="8.219729043871348"><ele>322.0</ele><time>2026-04-07T13:38:57Z</time></trkpt><trkpt lat="45.593791987712365" lon="8.219739734656649"><ele>322.0</ele><time>2026-04-07T13:38:58Z</time></trkpt><trkpt lat="45.59392981167907" lon="8.219804433994398"><ele>322.0</ele><time>2026-04-07T13:39:00Z</time></trkpt><trkpt lat="45.59403306996816" lon="8.219826134486505"><ele>322.40000000000003</ele><time>2026-04-07T13:39:01Z</time></trkpt><trkpt lat="45.59414076117965" lon="8.219815969915151"><ele>322.8</ele><time>2026-04-07T13:39:02Z</time></trkpt><trkpt lat="45.59423966970183" lon="8.219858607586259"><ele>323.2</ele><time>2026-04-07T13:39:03Z</time></trkpt><trkpt lat="45.59433946693626" lon="8.219891878539622"><ele>323.6</ele><time>2026-04-07T13:39:04Z</time></trkpt><trkpt lat="45.594427633517704" lon="8.219909800165137"><ele>324.0</ele><time>2026-04-07T13:39:05Z</time></trkpt><trkpt lat="45.59451518377834" lon="8.219893759051848"><ele>324.0</ele><time>2026-04-07T13:39:06Z</time></trkpt><trkpt lat="45.59458538813616" lon="8.219847710173788"><ele>324.0</ele><time>2026-04-07T13:39:07Z</time></trkpt><trkpt lat="45.59465727642394" lon="8.219773110989859"><ele>324.0</ele><time>2026-04-07T13:39:08Z</time></trkpt><trkpt lat="45.594728202493194" lon="8.219680537956629"><ele>324.0</ele><time>2026-04-07T13:39:09Z</time></trkpt><trkpt lat="45.59479992754171" lon="8.219606773730828"><ele>324.0</ele><time>2026-04-07T13:39:10Z</time></trkpt><trkpt lat="45.5948716426186" lon="8.219547228086492"><ele>324.0</ele><time>2026-04-07T13:39:11Z</time></trkpt><trkpt lat="45.594949342204856" lon="8.219508503488253"><ele>325.1666666666667</ele><time>2026-04-07T13:39:12Z</time></trkpt><trkpt lat="45.59501408719511" lon="8.219460073224763"><ele>326.3333333333333</ele><time>2026-04-07T13:39:13Z</time></trkpt><trkpt lat="45.59507044206749" lon="8.219409010587517"><ele>327.5</ele><time>2026-04-07T13:39:14Z</time></trkpt><trkpt lat="45.595147827568994" lon="8.219291893312223"><ele>328.66666666666663</ele><time>2026-04-07T13:39:16Z</time></trkpt><trkpt lat="45.5951864241257" lon="8.219207143027935"><ele>329.8333333333333</ele><time>2026-04-07T13:39:17Z</time></trkpt><trkpt lat="45.59523908484619" lon="8.219108140472851"><ele>331.0</ele><time>2026-04-07T13:39:18Z</time></trkpt><trkpt lat="45.59529964301183" lon="8.219011240956302"><ele>330.4</ele><time>2026-04-07T13:39:19Z</time></trkpt><trkpt lat="45.59537373411218" lon="8.218933090818881"><ele>329.8</ele><time>2026-04-07T13:39:20Z</time></trkpt><trkpt lat="45.59545045278069" lon="8.218857663645137"><ele>329.2</ele><time>2026-04-07T13:39:21Z</time></trkpt><trkpt lat="45.595522944543916" lon="8.21878316626696"><ele>328.59999999999997</ele><time>2026-04-07T13:39:22Z</time></trkpt><trkpt lat="45.5955963383243" lon="8.21869660925269"><ele>328.0</ele><time>2026-04-07T13:39:23Z</time></trkpt><trkpt lat="45.59566541141004" lon="8.218613510902792"><ele>328.0</ele><time>2026-04-07T13:39:24Z</time></trkpt><trkpt lat="45.595734166128025" lon="8.218544332340745"><ele>328.0</ele><time>2026-04-07T13:39:25Z</time></trkpt><trkpt lat="45.595830146262415" lon="8.218441670061342"><ele>328.0</ele><time>2026-04-07T13:39:27Z</time></trkpt><trkpt lat="45.59589149311506" lon="8.21836284631256"><ele>328.0</ele><time>2026-04-07T13:39:29Z</time></trkpt><trkpt lat="45.595986479939256" lon="8.218275835463963"><ele>328.0</ele><time>2026-04-07T13:39:31Z</time></trkpt><trkpt lat="45.596045780491984" lon="8.218241010109855"><ele>327.99999999999994</ele><time>2026-04-07T13:39:32Z</time></trkpt><trkpt lat="45.59611121153885" lon="8.218213601133998"><ele>328.0</ele><time>2026-04-07T13:39:33Z</time></trkpt><trkpt lat="45.596176170151175" lon="8.21816828356455"><ele>328.0</ele><time>2026-04-07T13:39:34Z</time></trkpt><trkpt lat="45.59623950054288" lon="8.218140639791459"><ele>328.0</ele><time>2026-04-07T13:39:35Z</time></trkpt><trkpt lat="45.59631221249684" lon="8.218100396714242"><ele>328.0</ele><time>2026-04-07T13:39:36Z</time></trkpt><trkpt lat="45.59637051710782" lon="8.218047877511438"><ele>327.99999999999994</ele><time>2026-04-07T13:39:37Z</time></trkpt><trkpt lat="45.596429605205216" lon="8.217986912639327"><ele>328.0</ele><time>2026-04-07T13:39:38Z</time></trkpt><trkpt lat="45.59648587972789" lon="8.217929757375897"><ele>328.66666666666663</ele><time>2026-04-07T13:39:39Z</time></trkpt><trkpt lat="45.596583085752656" lon="8.217819469730827"><ele>329.3333333333333</ele><time>2026-04-07T13:39:40.999Z</time></trkpt><trkpt lat="45.59662995649546" lon="8.217754210132572"><ele>330.0</ele><time>2026-04-07T13:39:41.999Z</time></trkpt><trkpt lat="45.596660826856144" lon="8.217674759139133"><ele>330.6666666666667</ele><time>2026-04-07T13:39:42.999Z</time></trkpt><trkpt lat="45.59668235233399" lon="8.217517111390412"><ele>331.33333333333337</ele><time>2026-04-07T13:39:44.999Z</time></trkpt><trkpt lat="45.59668711617352" lon="8.217404577422307"><ele>332.0</ele><time>2026-04-07T13:39:45.999Z</time></trkpt><trkpt lat="45.596696612969815" lon="8.217289756553296"><ele>332.5</ele><time>2026-04-07T13:39:46.999Z</time></trkpt><trkpt lat="45.5966915324151" lon="8.21719485912692"><ele>333.0</ele><time>2026-04-07T13:39:47.999Z</time></trkpt><trkpt lat="45.596637761880785" lon="8.21705902934167"><ele>333.5</ele><time>2026-04-07T13:39:49.999Z</time></trkpt><trkpt lat="45.5966006971804" lon="8.216952026055111"><ele>334.0</ele><time>2026-04-07T13:39:51.999Z</time></trkpt><trkpt lat="45.59658784591704" lon="8.216861616540369"><ele>334.5</ele><time>2026-04-07T13:39:52.999Z</time></trkpt><trkpt lat="45.59652954052577" lon="8.216804948895568"><ele>335.0</ele><time>2026-04-07T13:39:53.999Z</time></trkpt><trkpt lat="45.59648024471444" lon="8.216696714606"><ele>335.0</ele><time>2026-04-07T13:39:54.999Z</time></trkpt><trkpt lat="45.59641825339119" lon="8.21657188997384"><ele>335.0</ele><time>2026-04-07T13:39:55.999Z</time></trkpt><trkpt lat="45.59637860319779" lon="8.216463599590107"><ele>335.0</ele><time>2026-04-07T13:39:56.999Z</time></trkpt><trkpt lat="45.59637304964216" lon="8.216363357031254"><ele>335.0</ele><time>2026-04-07T13:39:57.999Z</time></trkpt><trkpt lat="45.59637590746871" lon="8.216266608805403"><ele>335.0</ele><time>2026-04-07T13:39:58.999Z</time></trkpt><trkpt lat="45.59636303979109" lon="8.216169976812754"><ele>335.0</ele><time>2026-04-07T13:39:59.999Z</time></trkpt><trkpt lat="45.59634222435997" lon="8.216074355386436"><ele>335.6666666666667</ele><time>2026-04-07T13:40:00.999Z</time></trkpt><trkpt lat="45.596316005905635" lon="8.21597413519012"><ele>336.33333333333337</ele><time>2026-04-07T13:40:01.999Z</time></trkpt><trkpt lat="45.59630528567218" lon="8.21585835668198"><ele>337.0</ele><time>2026-04-07T13:40:02.999Z</time></trkpt><trkpt lat="45.596303302241246" lon="8.215735135974267"><ele>337.6666666666667</ele><time>2026-04-07T13:40:03.999Z</time></trkpt><trkpt lat="45.59630993046874" lon="8.215608141485246"><ele>338.3333333333333</ele><time>2026-04-07T13:40:04.999Z</time></trkpt><trkpt lat="45.596312023700214" lon="8.215476429933757"><ele>339.0</ele><time>2026-04-07T13:40:05.999Z</time></trkpt><trkpt lat="45.59631911913656" lon="8.215346177521138"><ele>339.5</ele><time>2026-04-07T13:40:06.999Z</time></trkpt><trkpt lat="45.59632373503581" lon="8.215215053453278"><ele>340.0</ele><time>2026-04-07T13:40:07.999Z</time></trkpt><trkpt lat="45.59632492226443" lon="8.215088783297267"><ele>340.5</ele><time>2026-04-07T13:40:08.999Z</time></trkpt><trkpt lat="45.596318498245424" lon="8.214965448794182"><ele>341.0</ele><time>2026-04-07T13:40:09.999Z</time></trkpt><trkpt lat="45.59630219932007" lon="8.214851164442647"><ele>341.5</ele><time>2026-04-07T13:40:10.999Z</time></trkpt><trkpt lat="45.596276379607424" lon="8.214750715985828"><ele>342.0</ele><time>2026-04-07T13:40:11.999Z</time></trkpt><trkpt lat="45.59619870431833" lon="8.214649579959971"><ele>342.8</ele><time>2026-04-07T13:40:13.999Z</time></trkpt><trkpt lat="45.596088051536256" lon="8.214632234877836"><ele>343.6</ele><time>2026-04-07T13:40:15.999Z</time></trkpt><trkpt lat="45.59599273317418" lon="8.214634145137069"><ele>344.40000000000003</ele><time>2026-04-07T13:40:17.999Z</time></trkpt><trkpt lat="45.59585449441617" lon="8.214697838128929"><ele>345.20000000000005</ele><time>2026-04-07T13:40:20Z</time></trkpt><trkpt lat="45.595772186576646" lon="8.214705325320516"><ele>346.0</ele><time>2026-04-07T13:40:21Z</time></trkpt><trkpt lat="45.59567974686449" lon="8.214717135527417"><ele>346.0</ele><time>2026-04-07T13:40:22Z</time></trkpt><trkpt lat="45.595591856641086" lon="8.214727030670907"><ele>346.0</ele><time>2026-04-07T13:40:23Z</time></trkpt><trkpt lat="45.59550700927601" lon="8.214744517818444"><ele>346.0</ele><time>2026-04-07T13:40:24Z</time></trkpt><trkpt lat="45.59542226544375" lon="8.214773676900382"><ele>346.0</ele><time>2026-04-07T13:40:25Z</time></trkpt><trkpt lat="45.59534017161404" lon="8.214819549000305"><ele>346.0</ele><time>2026-04-07T13:40:26Z</time></trkpt><trkpt lat="45.59526725837614" lon="8.21489561406526"><ele>346.0</ele><time>2026-04-07T13:40:27Z</time></trkpt><trkpt lat="45.595202766344805" lon="8.214991777358755"><ele>345.20000000000005</ele><time>2026-04-07T13:40:28Z</time></trkpt><trkpt lat="45.5951292501325" lon="8.215072062697587"><ele>344.40000000000003</ele><time>2026-04-07T13:40:29Z</time></trkpt><trkpt lat="45.59506731760803" lon="8.215168282541992"><ele>343.6</ele><time>2026-04-07T13:40:30Z</time></trkpt><trkpt lat="45.59500924718043" lon="8.215259732463998"><ele>342.8</ele><time>2026-04-07T13:40:31Z</time></trkpt><trkpt lat="45.59494557065239" lon="8.215360010819325"><ele>342.0</ele><time>2026-04-07T13:40:32Z</time></trkpt><trkpt lat="45.59488484181256" lon="8.215457312891946"><ele>342.0</ele><time>2026-04-07T13:40:33Z</time></trkpt><trkpt lat="45.59482804802609" lon="8.215551261574841"><ele>342.0</ele><time>2026-04-07T13:40:34Z</time></trkpt><trkpt lat="45.59476822822969" lon="8.215651561467022"><ele>342.0</ele><time>2026-04-07T13:40:35Z</time></trkpt><trkpt lat="45.59471039845171" lon="8.215749785033427"><ele>342.0</ele><time>2026-04-07T13:40:36Z</time></trkpt><trkpt lat="45.59465145014955" lon="8.215846441491342"><ele>342.0</ele><time>2026-04-07T13:40:37Z</time></trkpt><trkpt lat="45.594589198839216" lon="8.21594283999288"><ele>342.0</ele><time>2026-04-07T13:40:38Z</time></trkpt><trkpt lat="45.594542857833815" lon="8.21602624810592"><ele>342.0</ele><time>2026-04-07T13:40:39Z</time></trkpt><trkpt lat="45.59448058927768" lon="8.216075339325544"><ele>342.0</ele><time>2026-04-07T13:40:40Z</time></trkpt><trkpt lat="45.59439813255477" lon="8.216170497924221"><ele>342.0</ele><time>2026-04-07T13:40:41Z</time></trkpt><trkpt lat="45.59433197282708" lon="8.216222921572612"><ele>342.0</ele><time>2026-04-07T13:40:42Z</time></trkpt><trkpt lat="45.59425988641041" lon="8.216273802764618"><ele>342.0</ele><time>2026-04-07T13:40:43Z</time></trkpt><trkpt lat="45.59419215874475" lon="8.216317603700888"><ele>342.0</ele><time>2026-04-07T13:40:44Z</time></trkpt><trkpt lat="45.59412015402033" lon="8.216359149327308"><ele>342.0</ele><time>2026-04-07T13:40:45Z</time></trkpt><trkpt lat="45.594049036499214" lon="8.216415089274879"><ele>342.0</ele><time>2026-04-07T13:40:46Z</time></trkpt><trkpt lat="45.59397839263959" lon="8.2164528000557"><ele>342.0</ele><time>2026-04-07T13:40:47Z</time></trkpt><trkpt lat="45.59390610109786" lon="8.21648455093814"><ele>342.0</ele><time>2026-04-07T13:40:48Z</time></trkpt><trkpt lat="45.593835958964675" lon="8.216523508226079"><ele>342.0</ele><time>2026-04-07T13:40:49Z</time></trkpt><trkpt lat="45.59375789475482" lon="8.216580736394013"><ele>341.8333333333333</ele><time>2026-04-07T13:40:50Z</time></trkpt><trkpt lat="45.59368626192254" lon="8.21664558455116"><ele>341.6666666666667</ele><time>2026-04-07T13:40:51Z</time></trkpt><trkpt lat="45.593612054291185" lon="8.216728936903392"><ele>341.5</ele><time>2026-04-07T13:40:52Z</time></trkpt><trkpt lat="45.593540755075075" lon="8.21681842548192"><ele>341.33333333333337</ele><time>2026-04-07T13:40:53Z</time></trkpt><trkpt lat="45.59347614674314" lon="8.216900803369827"><ele>341.1666666666667</ele><time>2026-04-07T13:40:54Z</time></trkpt><trkpt lat="45.593407460455225" lon="8.216978781029544"><ele>341.0</ele><time>2026-04-07T13:40:55Z</time></trkpt><trkpt lat="45.593352052418396" lon="8.2170772662647"><ele>340.8</ele><time>2026-04-07T13:40:56Z</time></trkpt><trkpt lat="45.593312201572715" lon="8.217191285902997"><ele>340.6</ele><time>2026-04-07T13:40:57Z</time></trkpt><trkpt lat="45.59327642661223" lon="8.217311319950264"><ele>340.4</ele><time>2026-04-07T13:40:58Z</time></trkpt><trkpt lat="45.593216496035524" lon="8.21741025815571"><ele>340.2</ele><time>2026-04-07T13:40:59Z</time></trkpt><trkpt lat="45.59315719276131" lon="8.217517333492193"><ele>340.0</ele><time>2026-04-07T13:41:00Z</time></trkpt><trkpt lat="45.59309267648087" lon="8.217618144352842"><ele>339.2</ele><time>2026-04-07T13:41:01Z</time></trkpt><trkpt lat="45.593033333981765" lon="8.217733311452527"><ele>338.4</ele><time>2026-04-07T13:41:02Z</time></trkpt><trkpt lat="45.592947871199016" lon="8.217804787979306"><ele>337.6</ele><time>2026-04-07T13:41:03Z</time></trkpt><trkpt lat="45.59286801232932" lon="8.217881548442362"><ele>336.8</ele><time>2026-04-07T13:41:04Z</time></trkpt><trkpt lat="45.59278646509704" lon="8.21794896125161"><ele>336.0</ele><time>2026-04-07T13:41:05Z</time></trkpt><trkpt lat="45.59269832578248" lon="8.217993114963102"><ele>335.20000000000005</ele><time>2026-04-07T13:41:06Z</time></trkpt><trkpt lat="45.592606312844026" lon="8.218023360157074"><ele>334.40000000000003</ele><time>2026-04-07T13:41:07Z</time></trkpt><trkpt lat="45.59251116918756" lon="8.218037530744633"><ele>333.6</ele><time>2026-04-07T13:41:08Z</time></trkpt><trkpt lat="45.592418229557715" lon="8.21803591877327"><ele>332.8</ele><time>2026-04-07T13:41:09Z</time></trkpt><trkpt lat="45.592324096955906" lon="8.218036818947093"><ele>332.0</ele><time>2026-04-07T13:41:10Z</time></trkpt><trkpt lat="45.592230789383585" lon="8.218035067299503"><ele>332.0</ele><time>2026-04-07T13:41:11Z</time></trkpt><trkpt lat="45.59213596569522" lon="8.218033369581569"><ele>332.0</ele><time>2026-04-07T13:41:12Z</time></trkpt><trkpt lat="45.59204015491461" lon="8.21803056453579"><ele>332.0</ele><time>2026-04-07T13:41:13Z</time></trkpt><trkpt lat="45.59194542512639" lon="8.218049972773732"><ele>332.0</ele><time>2026-04-07T13:41:14Z</time></trkpt><trkpt lat="45.59185520507868" lon="8.218033653236956"><ele>332.0</ele><time>2026-04-07T13:41:15Z</time></trkpt><trkpt lat="45.5917561536701" lon="8.218028415583321"><ele>330.8</ele><time>2026-04-07T13:41:16Z</time></trkpt><trkpt lat="45.59166005306656" lon="8.218031800969051"><ele>329.6</ele><time>2026-04-07T13:41:17Z</time></trkpt><trkpt lat="45.59156247363183" lon="8.218032341063987"><ele>328.40000000000003</ele><time>2026-04-07T13:41:18Z</time></trkpt><trkpt lat="45.591466590748325" lon="8.218028091593997"><ele>327.20000000000005</ele><time>2026-04-07T13:41:19Z</time></trkpt><trkpt lat="45.59136914253354" lon="8.218024667215557"><ele>326.0</ele><time>2026-04-07T13:41:20Z</time></trkpt><trkpt lat="45.591272891597804" lon="8.218036496382119"><ele>326.0</ele><time>2026-04-07T13:41:21Z</time></trkpt><trkpt lat="45.59118492611695" lon="8.21803277095185"><ele>326.0</ele><time>2026-04-07T13:41:22Z</time></trkpt><trkpt lat="45.59109929014182" lon="8.218049708452321"><ele>326.0</ele><time>2026-04-07T13:41:23Z</time></trkpt><trkpt lat="45.59101585848269" lon="8.218064151196987"><ele>326.0</ele><time>2026-04-07T13:41:24Z</time></trkpt><trkpt lat="45.59092251442031" lon="8.218077662612545"><ele>326.0</ele><time>2026-04-07T13:41:25Z</time></trkpt><trkpt lat="45.59083977470308" lon="8.218091609814032"><ele>326.0</ele><time>2026-04-07T13:41:26Z</time></trkpt><trkpt lat="45.59076017514268" lon="8.218094391695763"><ele>325.6666666666667</ele><time>2026-04-07T13:41:27Z</time></trkpt><trkpt lat="45.590692653850816" lon="8.21809062680736"><ele>325.33333333333337</ele><time>2026-04-07T13:41:28Z</time></trkpt><trkpt lat="45.59061660150709" lon="8.218060188520784"><ele>325.0</ele><time>2026-04-07T13:41:29Z</time></trkpt><trkpt lat="45.590545102367" lon="8.218038295296473"><ele>324.6666666666667</ele><time>2026-04-07T13:41:30Z</time></trkpt><trkpt lat="45.590473442697096" lon="8.218034283768326"><ele>324.3333333333333</ele><time>2026-04-07T13:41:31Z</time></trkpt><trkpt lat="45.59039394070376" lon="8.218036444885971"><ele>324.0</ele><time>2026-04-07T13:41:32Z</time></trkpt><trkpt lat="45.59031457679214" lon="8.218042732068012"><ele>323.3333333333333</ele><time>2026-04-07T13:41:33Z</time></trkpt><trkpt lat="45.59023987631296" lon="8.218058853912513"><ele>322.6666666666667</ele><time>2026-04-07T13:41:34Z</time></trkpt><trkpt lat="45.590169810039185" lon="8.218068145832678"><ele>322.0</ele><time>2026-04-07T13:41:35Z</time></trkpt><trkpt lat="45.5901018984714" lon="8.218083363378637"><ele>321.33333333333337</ele><time>2026-04-07T13:41:36Z</time></trkpt><trkpt lat="45.589994931060026" lon="8.218129781887296"><ele>320.6666666666667</ele><time>2026-04-07T13:41:38Z</time></trkpt><trkpt lat="45.58993541172696" lon="8.218175636370704"><ele>320.0</ele><time>2026-04-07T13:41:39Z</time></trkpt><trkpt lat="45.589820094874085" lon="8.218314196682677"><ele>320.0</ele><time>2026-04-07T13:41:41Z</time></trkpt><trkpt lat="45.58976031867824" lon="8.218369482522332"><ele>320.0</ele><time>2026-04-07T13:41:42Z</time></trkpt><trkpt lat="45.58970931226979" lon="8.218476060175922"><ele>320.0</ele><time>2026-04-07T13:41:43Z</time></trkpt><trkpt lat="45.58964825908935" lon="8.218561779536024"><ele>320.0</ele><time>2026-04-07T13:41:44Z</time></trkpt><trkpt lat="45.589584116602666" lon="8.218658326127533"><ele>320.0</ele><time>2026-04-07T13:41:45Z</time></trkpt><trkpt lat="45.589515364266816" lon="8.218749649465833"><ele>320.0</ele><time>2026-04-07T13:41:46Z</time></trkpt><trkpt lat="45.58943851668143" lon="8.218826794933024"><ele>319.8</ele><time>2026-04-07T13:41:46.999Z</time></trkpt><trkpt lat="45.589356668077066" lon="8.218901079797044"><ele>319.6</ele><time>2026-04-07T13:41:47.998Z</time></trkpt><trkpt lat="45.589273344384736" lon="8.218971540139371"><ele>319.4</ele><time>2026-04-07T13:41:48.998Z</time></trkpt><trkpt lat="45.58918717901841" lon="8.219045237100602"><ele>319.2</ele><time>2026-04-07T13:41:49.998Z</time></trkpt><trkpt lat="45.589100321908425" lon="8.219112134833619"><ele>319.0</ele><time>2026-04-07T13:41:50.998Z</time></trkpt><trkpt lat="45.589014502475194" lon="8.219185778908706"><ele>318.8</ele><time>2026-04-07T13:41:51.999Z</time></trkpt><trkpt lat="45.588931902273785" lon="8.219260474285807"><ele>318.59999999999997</ele><time>2026-04-07T13:41:52.999Z</time></trkpt><trkpt lat="45.588853230171814" lon="8.21934033664257"><ele>318.4</ele><time>2026-04-07T13:41:53.999Z</time></trkpt><trkpt lat="45.588777283568405" lon="8.219427472224142"><ele>318.2</ele><time>2026-04-07T13:41:54.999Z</time></trkpt><trkpt lat="45.58870433303773" lon="8.219517600463169"><ele>318.0</ele><time>2026-04-07T13:41:55.999Z</time></trkpt><trkpt lat="45.58863423207258" lon="8.219608419985956"><ele>317.8</ele><time>2026-04-07T13:41:56.999Z</time></trkpt><trkpt lat="45.5885673494188" lon="8.219695589027408"><ele>317.6</ele><time>2026-04-07T13:41:57.999Z</time></trkpt><trkpt lat="45.58849563065777" lon="8.219790777591307"><ele>317.4</ele><time>2026-04-07T13:41:58.999Z</time></trkpt><trkpt lat="45.58841840727675" lon="8.219865469426027"><ele>317.2</ele><time>2026-04-07T13:41:59.999Z</time></trkpt><trkpt lat="45.58833715269967" lon="8.219926033776314"><ele>317.0</ele><time>2026-04-07T13:42:00.999Z</time></trkpt><trkpt lat="45.58825125945526" lon="8.219974437661326"><ele>316.0</ele><time>2026-04-07T13:42:01.999Z</time></trkpt><trkpt lat="45.588162972524046" lon="8.220002802803211"><ele>315.0</ele><time>2026-04-07T13:42:02.999Z</time></trkpt><trkpt lat="45.588070874101156" lon="8.220018203716958"><ele>314.0</ele><time>2026-04-07T13:42:03.999Z</time></trkpt><trkpt lat="45.58797990605354" lon="8.220033252648266"><ele>313.0</ele><time>2026-04-07T13:42:04.999Z</time></trkpt><trkpt lat="45.58788889288638" lon="8.220051410616923"><ele>312.0</ele><time>2026-04-07T13:42:05.999Z</time></trkpt><trkpt lat="45.587803997529896" lon="8.220069612323025"><ele>311.8333333333333</ele><time>2026-04-07T13:42:06.999Z</time></trkpt><trkpt lat="45.58771653082236" lon="8.220081855767225"><ele>311.6666666666667</ele><time>2026-04-07T13:42:07.999Z</time></trkpt><trkpt lat="45.58763673761321" lon="8.22008914028531"><ele>311.5</ele><time>2026-04-07T13:42:08.999Z</time></trkpt><trkpt lat="45.587558384341975" lon="8.220087808854338"><ele>311.33333333333337</ele><time>2026-04-07T13:42:09.999Z</time></trkpt><trkpt lat="45.58747940547882" lon="8.220102583029334"><ele>311.1666666666667</ele><time>2026-04-07T13:42:10.999Z</time></trkpt><trkpt lat="45.58739529140576" lon="8.220127925519083"><ele>311.0</ele><time>2026-04-07T13:42:11.999Z</time></trkpt><trkpt lat="45.587326257955546" lon="8.22013990938177"><ele>311.0</ele><time>2026-04-07T13:42:12.999Z</time></trkpt><trkpt lat="45.58726987018055" lon="8.22018976653757"><ele>311.0</ele><time>2026-04-07T13:42:13.999Z</time></trkpt><trkpt lat="45.58720492037126" lon="8.22021310149447"><ele>311.0</ele><time>2026-04-07T13:42:14.999Z</time></trkpt><trkpt lat="45.587100042418875" lon="8.220235359625484"><ele>311.0</ele><time>2026-04-07T13:42:16.999Z</time></trkpt><trkpt lat="45.58700128281348" lon="8.220227861183691"><ele>311.0</ele><time>2026-04-07T13:42:18.999Z</time></trkpt><trkpt lat="45.58690009442045" lon="8.220228461747105"><ele>311.0</ele><time>2026-04-07T13:42:20.999Z</time></trkpt><trkpt lat="45.586766827452585" lon="8.220167524479455"><ele>310.33333333333337</ele><time>2026-04-07T13:42:22.999Z</time></trkpt><trkpt lat="45.586697107580086" lon="8.220132671970248"><ele>309.6666666666667</ele><time>2026-04-07T13:42:23.999Z</time></trkpt><trkpt lat="45.58662476066914" lon="8.220100131421319"><ele>309.0</ele><time>2026-04-07T13:42:24.999Z</time></trkpt><trkpt lat="45.58654020834586" lon="8.22007282633593"><ele>308.3333333333333</ele><time>2026-04-07T13:42:25.999Z</time></trkpt><trkpt lat="45.58645487944344" lon="8.22003462915402"><ele>307.66666666666663</ele><time>2026-04-07T13:42:26.999Z</time></trkpt><trkpt lat="45.58635658853054" lon="8.219993819167602"><ele>307.0</ele><time>2026-04-07T13:42:27.999Z</time></trkpt><trkpt lat="45.586268060957934" lon="8.219953142420797"><ele>307.0</ele><time>2026-04-07T13:42:28.999Z</time></trkpt><trkpt lat="45.586181608720615" lon="8.219914375773074"><ele>307.0</ele><time>2026-04-07T13:42:29.999Z</time></trkpt><trkpt lat="45.58608975712055" lon="8.219877768034198"><ele>307.0</ele><time>2026-04-07T13:42:30.999Z</time></trkpt><trkpt lat="45.58600424086611" lon="8.219854699505506"><ele>307.0</ele><time>2026-04-07T13:42:31.999Z</time></trkpt><trkpt lat="45.58591266867331" lon="8.219837011640134"><ele>307.0</ele><time>2026-04-07T13:42:32.999Z</time></trkpt><trkpt lat="45.585827148133845" lon="8.219829377798085"><ele>305.66666666666663</ele><time>2026-04-07T13:42:33.999Z</time></trkpt><trkpt lat="45.58573678645991" lon="8.219812625893685"><ele>304.3333333333333</ele><time>2026-04-07T13:42:35Z</time></trkpt><trkpt lat="45.58565594165843" lon="8.219867481927777"><ele>303.0</ele><time>2026-04-07T13:42:36Z</time></trkpt><trkpt lat="45.58557670109574" lon="8.219909241015099"><ele>301.6666666666667</ele><time>2026-04-07T13:42:37Z</time></trkpt><trkpt lat="45.58549013626457" lon="8.219928618450279"><ele>300.33333333333337</ele><time>2026-04-07T13:42:38Z</time></trkpt><trkpt lat="45.585407354532954" lon="8.219967158931565"><ele>299.0</ele><time>2026-04-07T13:42:39Z</time></trkpt><trkpt lat="45.58532346641066" lon="8.220003915215875"><ele>297.83333333333337</ele><time>2026-04-07T13:42:40Z</time></trkpt><trkpt lat="45.585238649813505" lon="8.220042234860182"><ele>296.6666666666667</ele><time>2026-04-07T13:42:41Z</time></trkpt><trkpt lat="45.58515744595191" lon="8.220081718829737"><ele>295.5</ele><time>2026-04-07T13:42:42Z</time></trkpt><trkpt lat="45.58507844362029" lon="8.220115405220579"><ele>294.3333333333333</ele><time>2026-04-07T13:42:43Z</time></trkpt><trkpt lat="45.58499634199442" lon="8.220139984239939"><ele>293.16666666666663</ele><time>2026-04-07T13:42:44Z</time></trkpt><trkpt lat="45.584914252798015" lon="8.22016207527761"><ele>292.0</ele><time>2026-04-07T13:42:45Z</time></trkpt><trkpt lat="45.58483572343149" lon="8.220183208416445"><ele>292.0</ele><time>2026-04-07T13:42:46Z</time></trkpt><trkpt lat="45.58476140194008" lon="8.2202245314763"><ele>292.0</ele><time>2026-04-07T13:42:47Z</time></trkpt><trkpt lat="45.58468951742225" lon="8.22024371146546"><ele>292.0</ele><time>2026-04-07T13:42:48Z</time></trkpt><trkpt lat="45.584619265003035" lon="8.220274493721075"><ele>292.0</ele><time>2026-04-07T13:42:49Z</time></trkpt><trkpt lat="45.58454269142853" lon="8.220319672815512"><ele>292.0</ele><time>2026-04-07T13:42:51Z</time></trkpt><trkpt lat="45.58461706494237" lon="8.220295970238519"><ele>292.0</ele><time>2026-04-07T13:43:58.998Z</time></trkpt><trkpt lat="45.58477240340367" lon="8.220490025548948"><ele>292.0</ele><time>2026-04-07T13:44:02.998Z</time></trkpt><trkpt lat="45.584936099909605" lon="8.220628371528026"><ele>292.0</ele><time>2026-04-07T13:44:03.998Z</time></trkpt><trkpt lat="45.585044296473946" lon="8.220672038595612"><ele>292.0</ele><time>2026-04-07T13:44:04.998Z</time></trkpt><trkpt lat="45.58511799145981" lon="8.220696544947204"><ele>292.0</ele><time>2026-04-07T13:44:05.998Z</time></trkpt><trkpt lat="45.585184884719" lon="8.220717093849254"><ele>292.0</ele><time>2026-04-07T13:44:06.998Z</time></trkpt><trkpt lat="45.58525323671133" lon="8.220718765049133"><ele>291.0</ele><time>2026-04-07T13:44:07.998Z</time></trkpt><trkpt lat="45.585375923146486" lon="8.220713193587391"><ele>290.0</ele><time>2026-04-07T13:44:09.999Z</time></trkpt><trkpt lat="45.58558135055404" lon="8.219905905987934"><ele>291.5</ele><time>2026-04-07T13:44:10.999Z</time></trkpt><trkpt lat="45.585657907251125" lon="8.219873644991567"><ele>293.0</ele><time>2026-04-07T13:44:11.999Z</time></trkpt><trkpt lat="45.58573550640345" lon="8.21984695273708"><ele>294.5</ele><time>2026-04-07T13:44:12.999Z</time></trkpt><trkpt lat="45.58581892969504" lon="8.219836830074923"><ele>296.0</ele><time>2026-04-07T13:44:13.999Z</time></trkpt><trkpt lat="45.5859059142521" lon="8.219847223117586"><ele>297.5</ele><time>2026-04-07T13:44:14.999Z</time></trkpt><trkpt lat="45.585993922404505" lon="8.219865624239528"><ele>299.0</ele><time>2026-04-07T13:44:15.999Z</time></trkpt><trkpt lat="45.586077597097024" lon="8.219891306103783"><ele>299.0</ele><time>2026-04-07T13:44:16.999Z</time></trkpt><trkpt lat="45.58616221994434" lon="8.219921389403993"><ele>299.0</ele><time>2026-04-07T13:44:17.999Z</time></trkpt><trkpt lat="45.58624329769345" lon="8.219956337015347"><ele>299.0</ele><time>2026-04-07T13:44:18.999Z</time></trkpt><trkpt lat="45.586327638011525" lon="8.219992867909218"><ele>299.0</ele><time>2026-04-07T13:44:19.999Z</time></trkpt><trkpt lat="45.58640736687692" lon="8.2200297002169"><ele>299.0</ele><time>2026-04-07T13:44:20.999Z</time></trkpt><trkpt lat="45.58648501861321" lon="8.220068919660651"><ele>299.0</ele><time>2026-04-07T13:44:21.999Z</time></trkpt><trkpt lat="45.586564424314155" lon="8.220104066274185"><ele>300.33333333333337</ele><time>2026-04-07T13:44:22.999Z</time></trkpt><trkpt lat="45.58664023129926" lon="8.220135481315747"><ele>301.6666666666667</ele><time>2026-04-07T13:44:23.999Z</time></trkpt><trkpt lat="45.58671504741251" lon="8.220168553969101"><ele>303.0</ele><time>2026-04-07T13:44:24.999Z</time></trkpt><trkpt lat="45.58678993254834" lon="8.22020158886751"><ele>304.3333333333333</ele><time>2026-04-07T13:44:25.999Z</time></trkpt><trkpt lat="45.58686577778378" lon="8.220225851997446"><ele>305.66666666666663</ele><time>2026-04-07T13:44:26.999Z</time></trkpt><trkpt lat="45.58694586853559" lon="8.220243990213152"><ele>307.0</ele><time>2026-04-07T13:44:27.999Z</time></trkpt><trkpt lat="45.58702649844501" lon="8.220253029967084"><ele>307.66666666666663</ele><time>2026-04-07T13:44:28.999Z</time></trkpt><trkpt lat="45.58711289032157" lon="8.220244207759057"><ele>308.3333333333333</ele><time>2026-04-07T13:44:29.999Z</time></trkpt><trkpt lat="45.58719826147176" lon="8.22022800196465"><ele>309.0</ele><time>2026-04-07T13:44:30.999Z</time></trkpt><trkpt lat="45.58727844048195" lon="8.220205010781372"><ele>309.6666666666667</ele><time>2026-04-07T13:44:31.999Z</time></trkpt><trkpt lat="45.58734925695967" lon="8.220174569301083"><ele>310.33333333333337</ele><time>2026-04-07T13:44:32.999Z</time></trkpt><trkpt lat="45.587426056828235" lon="8.220148090611511"><ele>311.0</ele><time>2026-04-07T13:44:33.999Z</time></trkpt><trkpt lat="45.587500442482025" lon="8.220132078876153"><ele>311.0</ele><time>2026-04-07T13:44:34.999Z</time></trkpt><trkpt lat="45.58758676542603" lon="8.220121776137786"><ele>311.0</ele><time>2026-04-07T13:44:35.999Z</time></trkpt><trkpt lat="45.58767182218456" lon="8.220114290412317"><ele>311.0</ele><time>2026-04-07T13:44:36.999Z</time></trkpt><trkpt lat="45.58776893412923" lon="8.220099966284403"><ele>311.0</ele><time>2026-04-07T13:44:37.999Z</time></trkpt><trkpt lat="45.58786487111799" lon="8.220089113301082"><ele>311.0</ele><time>2026-04-07T13:44:38.999Z</time></trkpt><trkpt lat="45.58795581731883" lon="8.220073470826867"><ele>311.2</ele><time>2026-04-07T13:44:39.999Z</time></trkpt><trkpt lat="45.58805059801922" lon="8.220053369714362"><ele>311.40000000000003</ele><time>2026-04-07T13:44:40.999Z</time></trkpt><trkpt lat="45.58814932725123" lon="8.220031384271518"><ele>311.6</ele><time>2026-04-07T13:44:41.999Z</time></trkpt><trkpt lat="45.58824776995664" lon="8.22000486144348"><ele>311.8</ele><time>2026-04-07T13:44:42.999Z</time></trkpt><trkpt lat="45.58834058536966" lon="8.219956565517128"><ele>312.0</ele><time>2026-04-07T13:44:43.999Z</time></trkpt><trkpt lat="45.58842679992694" lon="8.219884817690692"><ele>313.0</ele><time>2026-04-07T13:44:45Z</time></trkpt><trkpt lat="45.588508564535154" lon="8.219800923045334"><ele>314.0</ele><time>2026-04-07T13:44:46Z</time></trkpt><trkpt lat="45.58859861955925" lon="8.21972653235238"><ele>315.0</ele><time>2026-04-07T13:44:47Z</time></trkpt><trkpt lat="45.588664968183906" lon="8.219616377871299"><ele>316.0</ele><time>2026-04-07T13:44:48Z</time></trkpt><trkpt lat="45.588747802065335" lon="8.219532425292378"><ele>317.0</ele><time>2026-04-07T13:44:49Z</time></trkpt><trkpt lat="45.58882620015222" lon="8.219437837683367"><ele>317.2</ele><time>2026-04-07T13:44:50Z</time></trkpt><trkpt lat="45.5889088306855" lon="8.219352167806619"><ele>317.4</ele><time>2026-04-07T13:44:51Z</time></trkpt><trkpt lat="45.58899674182736" lon="8.219270009016498"><ele>317.6</ele><time>2026-04-07T13:44:52Z</time></trkpt><trkpt lat="45.589088686081716" lon="8.21919348328844"><ele>317.8</ele><time>2026-04-07T13:44:53Z</time></trkpt><trkpt lat="45.58918496002631" lon="8.219114284438856"><ele>318.0</ele><time>2026-04-07T13:44:54Z</time></trkpt><trkpt lat="45.58928178893166" lon="8.219032804011084"><ele>318.2</ele><time>2026-04-07T13:44:55Z</time></trkpt><trkpt lat="45.58937676117044" lon="8.218951012674024"><ele>318.4</ele><time>2026-04-07T13:44:56Z</time></trkpt><trkpt lat="45.58946866408291" lon="8.218865511224312"><ele>318.59999999999997</ele><time>2026-04-07T13:44:57Z</time></trkpt><trkpt lat="45.58955379568235" lon="8.218775620122225"><ele>318.8</ele><time>2026-04-07T13:44:58Z</time></trkpt><trkpt lat="45.58963304443156" lon="8.218675820692203"><ele>319.0</ele><time>2026-04-07T13:44:59Z</time></trkpt><trkpt lat="45.58970378640214" lon="8.218572435984274"><ele>319.16666666666663</ele><time>2026-04-07T13:45:00Z</time></trkpt><trkpt lat="45.589767484565606" lon="8.218481040992419"><ele>319.3333333333333</ele><time>2026-04-07T13:45:01Z</time></trkpt><trkpt lat="45.58982933168723" lon="8.218399567897569"><ele>319.5</ele><time>2026-04-07T13:45:02Z</time></trkpt><trkpt lat="45.589886707838076" lon="8.218330438094934"><ele>319.6666666666667</ele><time>2026-04-07T13:45:03Z</time></trkpt><trkpt lat="45.58994619722947" lon="8.218265945777862"><ele>319.83333333333337</ele><time>2026-04-07T13:45:04Z</time></trkpt><trkpt lat="45.59004651997794" lon="8.21819058059082"><ele>320.0</ele><time>2026-04-07T13:45:06Z</time></trkpt><trkpt lat="45.59014806542491" lon="8.218131463300937"><ele>319.4</ele><time>2026-04-07T13:45:08Z</time></trkpt><trkpt lat="45.59026144761003" lon="8.218097866445657"><ele>318.8</ele><time>2026-04-07T13:45:10Z</time></trkpt><trkpt lat="45.59032375352933" lon="8.218084077977599"><ele>318.2</ele><time>2026-04-07T13:45:11Z</time></trkpt><trkpt lat="45.59044256586673" lon="8.218077647878816"><ele>317.6</ele><time>2026-04-07T13:45:13Z</time></trkpt><trkpt lat="45.590519358097126" lon="8.218076709636925"><ele>317.0</ele><time>2026-04-07T13:45:14Z</time></trkpt><trkpt lat="45.59061515460117" lon="8.218080949649343"><ele>318.1666666666667</ele><time>2026-04-07T13:45:15Z</time></trkpt><trkpt lat="45.590687219894455" lon="8.218104242221063"><ele>319.33333333333337</ele><time>2026-04-07T13:45:16Z</time></trkpt><trkpt lat="45.59075555881135" lon="8.218118935046402"><ele>320.5</ele><time>2026-04-07T13:45:17Z</time></trkpt><trkpt lat="45.590832267377735" lon="8.218140551200829"><ele>321.6666666666667</ele><time>2026-04-07T13:45:18Z</time></trkpt><trkpt lat="45.59091375440866" lon="8.218126463359404"><ele>322.8333333333333</ele><time>2026-04-07T13:45:19Z</time></trkpt><trkpt lat="45.591045815543225" lon="8.218098890938554"><ele>324.0</ele><time>2026-04-07T13:45:21Z</time></trkpt><trkpt lat="45.591120878463116" lon="8.21808486220398"><ele>324.3333333333333</ele><time>2026-04-07T13:45:22Z</time></trkpt><trkpt lat="45.59119832580718" lon="8.21807082387304"><ele>324.6666666666667</ele><time>2026-04-07T13:45:23Z</time></trkpt><trkpt lat="45.59127093354965" lon="8.218058463153255"><ele>325.0</ele><time>2026-04-07T13:45:24Z</time></trkpt><trkpt lat="45.59136235663478" lon="8.218050928892973"><ele>325.33333333333337</ele><time>2026-04-07T13:45:25Z</time></trkpt><trkpt lat="45.59145071828276" lon="8.218042016523471"><ele>325.6666666666667</ele><time>2026-04-07T13:45:26Z</time></trkpt><trkpt lat="45.59154352221781" lon="8.218037989394562"><ele>326.0</ele><time>2026-04-07T13:45:27Z</time></trkpt><trkpt lat="45.59163423398966" lon="8.21806312247906"><ele>326.0</ele><time>2026-04-07T13:45:28Z</time></trkpt><trkpt lat="45.59173509499185" lon="8.218044630175978"><ele>326.0</ele><time>2026-04-07T13:45:29Z</time></trkpt><trkpt lat="45.591834991991426" lon="8.218056824113509"><ele>326.0</ele><time>2026-04-07T13:45:30Z</time></trkpt><trkpt lat="45.59193726775044" lon="8.218066593217573"><ele>326.0</ele><time>2026-04-07T13:45:31Z</time></trkpt><trkpt lat="45.59203672465624" lon="8.218081193951994"><ele>326.0</ele><time>2026-04-07T13:45:32Z</time></trkpt><trkpt lat="45.59213594075957" lon="8.218083699297194"><ele>327.20000000000005</ele><time>2026-04-07T13:45:33Z</time></trkpt><trkpt lat="45.59223884164945" lon="8.218085391430641"><ele>328.40000000000003</ele><time>2026-04-07T13:45:34Z</time></trkpt><trkpt lat="45.5923433106186" lon="8.2180759936364"><ele>329.6</ele><time>2026-04-07T13:45:35Z</time></trkpt><trkpt lat="45.592443782767944" lon="8.218067604410853"><ele>330.8</ele><time>2026-04-07T13:45:36Z</time></trkpt><trkpt lat="45.59254202954031" lon="8.218063094356985"><ele>332.0</ele><time>2026-04-07T13:45:37Z</time></trkpt><trkpt lat="45.59263892868488" lon="8.218061340096462"><ele>332.0</ele><time>2026-04-07T13:45:38Z</time></trkpt><trkpt lat="45.59273742889628" lon="8.218031910766037"><ele>332.0</ele><time>2026-04-07T13:45:39Z</time></trkpt><trkpt lat="45.59283346362311" lon="8.217976296061284"><ele>332.0</ele><time>2026-04-07T13:45:40Z</time></trkpt><trkpt lat="45.59292204309343" lon="8.217899088870308"><ele>332.0</ele><time>2026-04-07T13:45:41Z</time></trkpt><trkpt lat="45.59300039622718" lon="8.217797842732763"><ele>332.0</ele><time>2026-04-07T13:45:42Z</time></trkpt><trkpt lat="45.593074577883364" lon="8.217704016811467"><ele>332.6666666666667</ele><time>2026-04-07T13:45:43Z</time></trkpt><trkpt lat="45.59314631528779" lon="8.21760331268096"><ele>333.33333333333337</ele><time>2026-04-07T13:45:44Z</time></trkpt><trkpt lat="45.59320908440194" lon="8.217495278743986"><ele>334.0</ele><time>2026-04-07T13:45:45Z</time></trkpt><trkpt lat="45.59325537630284" lon="8.217403292691557"><ele>334.6666666666667</ele><time>2026-04-07T13:45:46Z</time></trkpt><trkpt lat="45.59330234440367" lon="8.21730549007803"><ele>335.3333333333333</ele><time>2026-04-07T13:45:47Z</time></trkpt><trkpt lat="45.59334460578402" lon="8.217207134668994"><ele>336.0</ele><time>2026-04-07T13:45:48Z</time></trkpt><trkpt lat="45.593384567489224" lon="8.21709673898312"><ele>336.6666666666667</ele><time>2026-04-07T13:45:49Z</time></trkpt><trkpt lat="45.59343441680734" lon="8.2169925133636"><ele>337.3333333333333</ele><time>2026-04-07T13:45:50Z</time></trkpt><trkpt lat="45.59349454488659" lon="8.21690740861711"><ele>338.0</ele><time>2026-04-07T13:45:51Z</time></trkpt><trkpt lat="45.59355997563768" lon="8.21683202597597"><ele>338.66666666666663</ele><time>2026-04-07T13:45:52Z</time></trkpt><trkpt lat="45.593625259850235" lon="8.21675678256704"><ele>339.3333333333333</ele><time>2026-04-07T13:45:53Z</time></trkpt><trkpt lat="45.593689642933626" lon="8.216684243037845"><ele>340.0</ele><time>2026-04-07T13:45:54Z</time></trkpt><trkpt lat="45.59375594696431" lon="8.216614845908374"><ele>340.16666666666663</ele><time>2026-04-07T13:45:55Z</time></trkpt><trkpt lat="45.59383038125953" lon="8.216562296794004"><ele>340.3333333333333</ele><time>2026-04-07T13:45:56Z</time></trkpt><trkpt lat="45.59390769268858" lon="8.216514910285895"><ele>340.5</ele><time>2026-04-07T13:45:57Z</time></trkpt><trkpt lat="45.59398997659622" lon="8.21646836639509"><ele>340.6666666666667</ele><time>2026-04-07T13:45:58Z</time></trkpt><trkpt lat="45.594076006752765" lon="8.216419275540606"><ele>340.83333333333337</ele><time>2026-04-07T13:45:58.998Z</time></trkpt><trkpt lat="45.5941684914924" lon="8.216375428528847"><ele>341.0</ele><time>2026-04-07T13:45:59.998Z</time></trkpt><trkpt lat="45.594256868988836" lon="8.21631139859988"><ele>341.20000000000005</ele><time>2026-04-07T13:46:00.998Z</time></trkpt><trkpt lat="45.594355272911216" lon="8.216259746799778"><ele>341.40000000000003</ele><time>2026-04-07T13:46:01.998Z</time></trkpt><trkpt lat="45.59444351110954" lon="8.216200907499305"><ele>341.6</ele><time>2026-04-07T13:46:02.998Z</time></trkpt><trkpt lat="45.594521814856435" lon="8.216116449016392"><ele>341.8</ele><time>2026-04-07T13:46:03.998Z</time></trkpt><trkpt lat="45.59459818534328" lon="8.216027375834745"><ele>342.0</ele><time>2026-04-07T13:46:04.999Z</time></trkpt><trkpt lat="45.594659398572304" lon="8.215924694789758"><ele>342.0</ele><time>2026-04-07T13:46:05.999Z</time></trkpt><trkpt lat="45.59471356024758" lon="8.215822602900605"><ele>342.0</ele><time>2026-04-07T13:46:06.999Z</time></trkpt><trkpt lat="45.59477326939038" lon="8.215721159888467"><ele>342.0</ele><time>2026-04-07T13:46:07.999Z</time></trkpt><trkpt lat="45.59483358826556" lon="8.215622147305293"><ele>342.0</ele><time>2026-04-07T13:46:08.999Z</time></trkpt><trkpt lat="45.59489346369447" lon="8.215519978329494"><ele>342.0</ele><time>2026-04-07T13:46:09.999Z</time></trkpt><trkpt lat="45.5949521626062" lon="8.215417436238322"><ele>342.0</ele><time>2026-04-07T13:46:10.999Z</time></trkpt><trkpt lat="45.59501421565532" lon="8.215317066054968"><ele>342.0</ele><time>2026-04-07T13:46:11.999Z</time></trkpt><trkpt lat="45.59507599142154" lon="8.215218547931237"><ele>342.0</ele><time>2026-04-07T13:46:12.999Z</time></trkpt><trkpt lat="45.59513916495815" lon="8.215131970123894"><ele>342.0</ele><time>2026-04-07T13:46:13.999Z</time></trkpt><trkpt lat="45.595196839024126" lon="8.215041085055454"><ele>342.0</ele><time>2026-04-07T13:46:14.999Z</time></trkpt><trkpt lat="45.59525427963824" lon="8.214953397058958"><ele>342.0</ele><time>2026-04-07T13:46:15.999Z</time></trkpt><trkpt lat="45.59531286543151" lon="8.214875562876783"><ele>342.6666666666667</ele><time>2026-04-07T13:46:16.999Z</time></trkpt><trkpt lat="45.59538356964479" lon="8.21480777631762"><ele>343.3333333333333</ele><time>2026-04-07T13:46:17.999Z</time></trkpt><trkpt lat="45.59546460128715" lon="8.214787159965685"><ele>344.0</ele><time>2026-04-07T13:46:18.999Z</time></trkpt><trkpt lat="45.595543510670645" lon="8.21476266995834"><ele>344.66666666666663</ele><time>2026-04-07T13:46:19.999Z</time></trkpt><trkpt lat="45.59562313816685" lon="8.214738575030333"><ele>345.3333333333333</ele><time>2026-04-07T13:46:20.999Z</time></trkpt><trkpt lat="45.59570282530119" lon="8.214736186496507"><ele>346.0</ele><time>2026-04-07T13:46:21.999Z</time></trkpt><trkpt lat="45.59578422722568" lon="8.214725018550569"><ele>346.0</ele><time>2026-04-07T13:46:22.999Z</time></trkpt><trkpt lat="45.59586154540926" lon="8.214716650068695"><ele>346.0</ele><time>2026-04-07T13:46:23.999Z</time></trkpt><trkpt lat="45.595931555497486" lon="8.214705782674766"><ele>346.0</ele><time>2026-04-07T13:46:24.999Z</time></trkpt><trkpt lat="45.596029201663384" lon="8.214641207822332"><ele>346.0</ele><time>2026-04-07T13:46:26.999Z</time></trkpt><trkpt lat="45.59606988018446" lon="8.214572316569772"><ele>346.0</ele><time>2026-04-07T13:46:27.999Z</time></trkpt><trkpt lat="45.59610973796372" lon="8.214473304505765"><ele>346.0</ele><time>2026-04-07T13:46:28.999Z</time></trkpt><trkpt lat="45.596160625358365" lon="8.214374821670145"><ele>346.0</ele><time>2026-04-07T13:46:29.999Z</time></trkpt><trkpt lat="45.59621353311232" lon="8.214280447850372"><ele>346.0</ele><time>2026-04-07T13:46:30.999Z</time></trkpt><trkpt lat="45.596265709551965" lon="8.214185073372986"><ele>346.0</ele><time>2026-04-07T13:46:31.999Z</time></trkpt><trkpt lat="45.59632809388383" lon="8.214109997790786"><ele>346.0</ele><time>2026-04-07T13:46:32.999Z</time></trkpt><trkpt lat="45.596364014851375" lon="8.21401018117721"><ele>346.0</ele><time>2026-04-07T13:46:33.999Z</time></trkpt><trkpt lat="45.59641200938441" lon="8.213940041795178"><ele>346.0</ele><time>2026-04-07T13:46:34.999Z</time></trkpt><trkpt lat="45.596504788339686" lon="8.213843866957859"><ele>347.0</ele><time>2026-04-07T13:46:37Z</time></trkpt><trkpt lat="45.596617706868955" lon="8.213813749984906"><ele>348.0</ele><time>2026-04-07T13:46:39Z</time></trkpt><trkpt lat="45.59668101979348" lon="8.213799784465069"><ele>349.0</ele><time>2026-04-07T13:46:40Z</time></trkpt><trkpt lat="45.59680035869841" lon="8.213764634387495"><ele>350.0</ele><time>2026-04-07T13:46:42Z</time></trkpt><trkpt lat="45.596923298862755" lon="8.213757616102171"><ele>351.0</ele><time>2026-04-07T13:46:44Z</time></trkpt><trkpt lat="45.596987812498284" lon="8.213746195786458"><ele>351.5</ele><time>2026-04-07T13:46:45Z</time></trkpt><trkpt lat="45.597051040764256" lon="8.213718764247417"><ele>352.0</ele><time>2026-04-07T13:46:46Z</time></trkpt><trkpt lat="45.597112421909515" lon="8.213665144306134"><ele>352.5</ele><time>2026-04-07T13:46:47Z</time></trkpt><trkpt lat="45.59716732462295" lon="8.213594349968917"><ele>353.0</ele><time>2026-04-07T13:46:48Z</time></trkpt><trkpt lat="45.597216466307096" lon="8.213534381132494"><ele>353.5</ele><time>2026-04-07T13:46:49Z</time></trkpt><trkpt lat="45.597264533036885" lon="8.213475493264376"><ele>354.0</ele><time>2026-04-07T13:46:50Z</time></trkpt><trkpt lat="45.5973577830828" lon="8.213360418857917"><ele>354.0</ele><time>2026-04-07T13:46:52Z</time></trkpt><trkpt lat="45.59740492444319" lon="8.213294006791209"><ele>354.0</ele><time>2026-04-07T13:46:53Z</time></trkpt><trkpt lat="45.59745850343562" lon="8.213223756194543"><ele>354.0</ele><time>2026-04-07T13:46:54Z</time></trkpt><trkpt lat="45.59751345600894" lon="8.213153029259045"><ele>354.0</ele><time>2026-04-07T13:46:55Z</time></trkpt><trkpt lat="45.59756228992987" lon="8.21306385735008"><ele>354.0</ele><time>2026-04-07T13:46:56Z</time></trkpt><trkpt lat="45.59760187730826" lon="8.212958239851996"><ele>354.0</ele><time>2026-04-07T13:46:57Z</time></trkpt><trkpt lat="45.59763828593445" lon="8.21284267289274"><ele>355.4</ele><time>2026-04-07T13:46:58Z</time></trkpt><trkpt lat="45.59766058864046" lon="8.212726840531344"><ele>356.79999999999995</ele><time>2026-04-07T13:46:59Z</time></trkpt><trkpt lat="45.597701430314935" lon="8.212632987046073"><ele>358.20000000000005</ele><time>2026-04-07T13:47:00Z</time></trkpt><trkpt lat="45.59775028100775" lon="8.212482236391189"><ele>359.6</ele><time>2026-04-07T13:47:02Z</time></trkpt><trkpt lat="45.59778753179236" lon="8.21233531877949"><ele>361.0</ele><time>2026-04-07T13:47:04Z</time></trkpt><trkpt lat="45.59782467394693" lon="8.212241421980101"><ele>361.0</ele><time>2026-04-07T13:47:05Z</time></trkpt><trkpt lat="45.5978669222063" lon="8.212135714725653"><ele>361.0</ele><time>2026-04-07T13:47:06Z</time></trkpt><trkpt lat="45.59791387786958" lon="8.212031716391184"><ele>361.0</ele><time>2026-04-07T13:47:07Z</time></trkpt><trkpt lat="45.597962523734864" lon="8.211922366663831"><ele>361.0</ele><time>2026-04-07T13:47:08Z</time></trkpt><trkpt lat="45.598009685793315" lon="8.211816545415642"><ele>361.0</ele><time>2026-04-07T13:47:09Z</time></trkpt><trkpt lat="45.598051393391785" lon="8.211708039375925"><ele>361.0</ele><time>2026-04-07T13:47:10Z</time></trkpt><trkpt lat="45.59809215284016" lon="8.211601538027436"><ele>362.16666666666663</ele><time>2026-04-07T13:47:11Z</time></trkpt><trkpt lat="45.59812523189298" lon="8.211485843710033"><ele>363.3333333333333</ele><time>2026-04-07T13:47:12Z</time></trkpt><trkpt lat="45.598163276026355" lon="8.211378122025968"><ele>364.5</ele><time>2026-04-07T13:47:13Z</time></trkpt><trkpt lat="45.598202777337896" lon="8.211273971991949"><ele>365.6666666666667</ele><time>2026-04-07T13:47:14Z</time></trkpt><trkpt lat="45.5982374686868" lon="8.211167572594093"><ele>366.83333333333337</ele><time>2026-04-07T13:47:15Z</time></trkpt><trkpt lat="45.59827273565788" lon="8.211084680872771"><ele>368.0</ele><time>2026-04-07T13:47:16Z</time></trkpt><trkpt lat="45.59829771819579" lon="8.210981476587328"><ele>368.0</ele><time>2026-04-07T13:47:18Z</time></trkpt><trkpt lat="45.598173813132995" lon="8.211068297107243"><ele>368.0</ele><time>2026-04-07T13:47:21Z</time></trkpt><trkpt lat="45.59812994539943" lon="8.21118105280899"><ele>368.0</ele><time>2026-04-07T13:47:22Z</time></trkpt><trkpt lat="45.59806342153283" lon="8.211255624958563"><ele>368.0</ele><time>2026-04-07T13:47:23Z</time></trkpt><trkpt lat="45.59801266565892" lon="8.211352741615677"><ele>368.0</ele><time>2026-04-07T13:47:24Z</time></trkpt><trkpt lat="45.59794677460863" lon="8.211396425373373"><ele>368.0</ele><time>2026-04-07T13:47:25Z</time></trkpt><trkpt lat="45.59788396578778" lon="8.211371051519732"><ele>368.0</ele><time>2026-04-07T13:47:26Z</time></trkpt><trkpt lat="45.59785665077912" lon="8.211275322785841"><ele>368.0</ele><time>2026-04-07T13:47:27Z</time></trkpt><trkpt lat="45.597876356282924" lon="8.211160907755236"><ele>368.0</ele><time>2026-04-07T13:47:28Z</time></trkpt><trkpt lat="45.59792606522978" lon="8.211050498317498"><ele>368.0</ele><time>2026-04-07T13:47:29Z</time></trkpt><trkpt lat="45.59797291078374" lon="8.210936691282706"><ele>368.0</ele><time>2026-04-07T13:47:30Z</time></trkpt><trkpt lat="45.59800989957826" lon="8.210820356580525"><ele>368.0</ele><time>2026-04-07T13:47:31Z</time></trkpt><trkpt lat="45.59804939873462" lon="8.210705575905122"><ele>368.0</ele><time>2026-04-07T13:47:32Z</time></trkpt><trkpt lat="45.598088450881974" lon="8.210589495955363"><ele>368.0</ele><time>2026-04-07T13:47:33Z</time></trkpt><trkpt lat="45.598129118405765" lon="8.210471182911748"><ele>368.0</ele><time>2026-04-07T13:47:34Z</time></trkpt><trkpt lat="45.59816501693895" lon="8.210355197101771"><ele>368.0</ele><time>2026-04-07T13:47:35Z</time></trkpt><trkpt lat="45.59819895582611" lon="8.21024160588099"><ele>368.0</ele><time>2026-04-07T13:47:36Z</time></trkpt><trkpt lat="45.59822915522834" lon="8.210132838129894"><ele>369.1666666666667</ele><time>2026-04-07T13:47:37Z</time></trkpt><trkpt lat="45.59826138788526" lon="8.210029728624963"><ele>370.33333333333337</ele><time>2026-04-07T13:47:38Z</time></trkpt><trkpt lat="45.59828956894273" lon="8.209925333695294"><ele>371.5</ele><time>2026-04-07T13:47:39Z</time></trkpt><trkpt lat="45.59830345210549" lon="8.209819853001992"><ele>372.6666666666667</ele><time>2026-04-07T13:47:40Z</time></trkpt><trkpt lat="45.598309733091014" lon="8.209723534715174"><ele>373.8333333333333</ele><time>2026-04-07T13:47:41Z</time></trkpt><trkpt lat="45.598309744165924" lon="8.209610910801144"><ele>375.0</ele><time>2026-04-07T13:47:43Z</time></trkpt><trkpt lat="45.598182913445385" lon="8.209675519019067"><ele>374.6666666666667</ele><time>2026-04-07T13:47:45Z</time></trkpt><trkpt lat="45.598086355090544" lon="8.209757804470422"><ele>374.3333333333333</ele><time>2026-04-07T13:47:47Z</time></trkpt><trkpt lat="45.59802320707726" lon="8.209763713384989"><ele>374.0</ele><time>2026-04-07T13:47:48Z</time></trkpt><trkpt lat="45.59795087796135" lon="8.20976026837272"><ele>373.66666666666663</ele><time>2026-04-07T13:47:49.001Z</time></trkpt><trkpt lat="45.597871180977634" lon="8.209775141848745"><ele>373.3333333333333</ele><time>2026-04-07T13:47:50.001Z</time></trkpt><trkpt lat="45.59779394404603" lon="8.209762332513751"><ele>373.0</ele><time>2026-04-07T13:47:51.001Z</time></trkpt><trkpt lat="45.597711463599104" lon="8.209759359145453"><ele>373.0</ele><time>2026-04-07T13:47:52.001Z</time></trkpt><trkpt lat="45.597631886167946" lon="8.209766581280869"><ele>373.0</ele><time>2026-04-07T13:47:53.001Z</time></trkpt><trkpt lat="45.59754764022543" lon="8.20977634202663"><ele>373.0</ele><time>2026-04-07T13:47:54.001Z</time></trkpt><trkpt lat="45.59746665552042" lon="8.209780120679268"><ele>373.0</ele><time>2026-04-07T13:47:55.001Z</time></trkpt><trkpt lat="45.597384934485994" lon="8.209789995501016"><ele>373.0</ele><time>2026-04-07T13:47:56.001Z</time></trkpt><trkpt lat="45.59730598148359" lon="8.209807144987103"><ele>373.0</ele><time>2026-04-07T13:47:57.001Z</time></trkpt><trkpt lat="45.59722680100889" lon="8.209823176961878"><ele>373.0</ele><time>2026-04-07T13:47:58.001Z</time></trkpt><trkpt lat="45.59714338978283" lon="8.209827875601716"><ele>373.0</ele><time>2026-04-07T13:47:59.001Z</time></trkpt><trkpt lat="45.597065513289934" lon="8.209866940858735"><ele>373.0</ele><time>2026-04-07T13:48:00.001Z</time></trkpt><trkpt lat="45.596997505089185" lon="8.20994450162671"><ele>373.0</ele><time>2026-04-07T13:48:01.001Z</time></trkpt><trkpt lat="45.59692798050931" lon="8.210018627918082"><ele>373.0</ele><time>2026-04-07T13:48:02.001Z</time></trkpt><trkpt lat="45.59686270630405" lon="8.210104477900302"><ele>373.0</ele><time>2026-04-07T13:48:03.001Z</time></trkpt><trkpt lat="45.59679860144974" lon="8.21019137786319"><ele>373.0</ele><time>2026-04-07T13:48:04.001Z</time></trkpt><trkpt lat="45.5967345383356" lon="8.210271097950502"><ele>373.0</ele><time>2026-04-07T13:48:04.998Z</time></trkpt><trkpt lat="45.59665935612981" lon="8.210322068770024"><ele>373.0</ele><time>2026-04-07T13:48:05.998Z</time></trkpt><trkpt lat="45.59658499067585" lon="8.210372960973267"><ele>373.0</ele><time>2026-04-07T13:48:06.998Z</time></trkpt><trkpt lat="45.59650443072953" lon="8.210412605712133"><ele>373.0</ele><time>2026-04-07T13:48:07.998Z</time></trkpt><trkpt lat="45.59642216948942" lon="8.210466290589228"><ele>373.0</ele><time>2026-04-07T13:48:08.998Z</time></trkpt><trkpt lat="45.596336523013186" lon="8.210497234690274"><ele>373.0</ele><time>2026-04-07T13:48:09.998Z</time></trkpt><trkpt lat="45.59626297483448" lon="8.210547209541732"><ele>373.0</ele><time>2026-04-07T13:48:10.998Z</time></trkpt><trkpt lat="45.59620008782265" lon="8.210612811094395"><ele>373.0</ele><time>2026-04-07T13:48:11.998Z</time></trkpt><trkpt lat="45.596159963502814" lon="8.210684090859457"><ele>373.0</ele><time>2026-04-07T13:48:12.998Z</time></trkpt><trkpt lat="45.59610463449941" lon="8.210810263161678"><ele>373.0</ele><time>2026-04-07T13:48:14.999Z</time></trkpt><trkpt lat="45.596000834394566" lon="8.210818323194369"><ele>373.0</ele><time>2026-04-07T13:48:16.999Z</time></trkpt><trkpt lat="45.59593035096017" lon="8.210832887423669"><ele>371.14285714285717</ele><time>2026-04-07T13:48:17.999Z</time></trkpt><trkpt lat="45.595844362480534" lon="8.21084681134152"><ele>369.28571428571433</ele><time>2026-04-07T13:48:19.999Z</time></trkpt><trkpt lat="45.59577490084933" lon="8.210859548859368"><ele>367.42857142857144</ele><time>2026-04-07T13:48:20.999Z</time></trkpt><trkpt lat="45.595703872853186" lon="8.210868289235359"><ele>365.57142857142856</ele><time>2026-04-07T13:48:21.999Z</time></trkpt><trkpt lat="45.59563030381814" lon="8.210880270912742"><ele>363.7142857142857</ele><time>2026-04-07T13:48:22.999Z</time></trkpt><trkpt lat="45.59556114640083" lon="8.21092735932862"><ele>361.85714285714283</ele><time>2026-04-07T13:48:23.999Z</time></trkpt><trkpt lat="45.59549891567286" lon="8.210959769536892"><ele>360.0</ele><time>2026-04-07T13:48:24.999Z</time></trkpt><trkpt lat="45.5954356950504" lon="8.21099625232561"><ele>360.0</ele><time>2026-04-07T13:48:25.999Z</time></trkpt><trkpt lat="45.595340786334226" lon="8.211056142063583"><ele>360.0</ele><time>2026-04-07T13:48:27.999Z</time></trkpt><trkpt lat="45.59527771652569" lon="8.211080690326302"><ele>360.0</ele><time>2026-04-07T13:48:33.999Z</time></trkpt><trkpt lat="45.59518909023265" lon="8.211146682161061"><ele>360.0</ele><time>2026-04-07T13:48:35.999Z</time></trkpt><trkpt lat="45.59508381360414" lon="8.211221482050716"><ele>360.0</ele><time>2026-04-07T13:48:36.999Z</time></trkpt><trkpt lat="45.59500126181865" lon="8.211244665829826"><ele>357.6666666666667</ele><time>2026-04-07T13:48:37.999Z</time></trkpt><trkpt lat="45.59492054913614" lon="8.211287037039057"><ele>355.3333333333333</ele><time>2026-04-07T13:48:38.999Z</time></trkpt><trkpt lat="45.594851582077624" lon="8.211345405260357"><ele>353.0</ele><time>2026-04-07T13:48:40Z</time></trkpt><trkpt lat="45.594775238349115" lon="8.211404944672928"><ele>350.66666666666663</ele><time>2026-04-07T13:48:41Z</time></trkpt><trkpt lat="45.59471720036113" lon="8.211486071509892"><ele>348.3333333333333</ele><time>2026-04-07T13:48:42Z</time></trkpt><trkpt lat="45.59467964288244" lon="8.211594095948252"><ele>346.0</ele><time>2026-04-07T13:48:43Z</time></trkpt><trkpt lat="45.594656401405835" lon="8.2117107642718"><ele>346.0</ele><time>2026-04-07T13:48:44Z</time></trkpt><trkpt lat="45.59463280062215" lon="8.21183321513798"><ele>346.0</ele><time>2026-04-07T13:48:45Z</time></trkpt><trkpt lat="45.59460999308706" lon="8.211955902435552"><ele>346.0</ele><time>2026-04-07T13:48:46Z</time></trkpt><trkpt lat="45.59455885301048" lon="8.212052076089334"><ele>346.0</ele><time>2026-04-07T13:48:47Z</time></trkpt><trkpt lat="45.59450979826907" lon="8.212127413320207"><ele>346.0</ele><time>2026-04-07T13:48:48Z</time></trkpt><trkpt lat="45.59445256652216" lon="8.212177865000461"><ele>346.0</ele><time>2026-04-07T13:48:49Z</time></trkpt><trkpt lat="45.59439614238508" lon="8.212220274264975"><ele>344.8</ele><time>2026-04-07T13:48:50Z</time></trkpt><trkpt lat="45.59428999739449" lon="8.212284058241723"><ele>343.6</ele><time>2026-04-07T13:48:52Z</time></trkpt><trkpt lat="45.594181923632945" lon="8.212352098326603"><ele>342.4</ele><time>2026-04-07T13:48:54Z</time></trkpt><trkpt lat="45.59407123669046" lon="8.212426491773911"><ele>341.2</ele><time>2026-04-07T13:48:56Z</time></trkpt><trkpt lat="45.59401471687792" lon="8.212466212431911"><ele>340.0</ele><time>2026-04-07T13:48:57Z</time></trkpt><trkpt lat="45.5939574268117" lon="8.212506474264638"><ele>339.2</ele><time>2026-04-07T13:48:58Z</time></trkpt><trkpt lat="45.59389935144597" lon="8.212547288431459"><ele>338.4</ele><time>2026-04-07T13:48:59Z</time></trkpt><trkpt lat="45.59384168778816" lon="8.212584371257567"><ele>337.6</ele><time>2026-04-07T13:49:00Z</time></trkpt><trkpt lat="45.593734003249295" lon="8.212662595398294"><ele>336.8</ele><time>2026-04-07T13:49:02Z</time></trkpt><trkpt lat="45.59362025234129" lon="8.212707712068744"><ele>336.0</ele><time>2026-04-07T13:49:04Z</time></trkpt><trkpt lat="45.59350392130593" lon="8.212748470904158"><ele>335.7142857142857</ele><time>2026-04-07T13:49:06Z</time></trkpt><trkpt lat="45.59343810853962" lon="8.212774608189456"><ele>335.42857142857144</ele><time>2026-04-07T13:49:07Z</time></trkpt><trkpt lat="45.593368682954804" lon="8.212801373759243"><ele>335.1428571428571</ele><time>2026-04-07T13:49:08Z</time></trkpt><trkpt lat="45.5932992479263" lon="8.21284772516664"><ele>334.8571428571429</ele><time>2026-04-07T13:49:09Z</time></trkpt><trkpt lat="45.59323200149847" lon="8.212894769033145"><ele>334.57142857142856</ele><time>2026-04-07T13:49:10Z</time></trkpt><trkpt lat="45.59316561747708" lon="8.212940455905905"><ele>334.2857142857143</ele><time>2026-04-07T13:49:11Z</time></trkpt><trkpt lat="45.59310194185069" lon="8.212988534085051"><ele>334.0</ele><time>2026-04-07T13:49:12Z</time></trkpt><trkpt lat="45.59304044452825" lon="8.213038278071524"><ele>334.0</ele><time>2026-04-07T13:49:13Z</time></trkpt><trkpt lat="45.592975635794396" lon="8.213084789921433"><ele>334.0</ele><time>2026-04-07T13:49:14Z</time></trkpt><trkpt lat="45.59291518619787" lon="8.21313499328221"><ele>334.0</ele><time>2026-04-07T13:49:15Z</time></trkpt><trkpt lat="45.592848955856155" lon="8.213171880030972"><ele>334.0</ele><time>2026-04-07T13:49:16Z</time></trkpt><trkpt lat="45.592783272967566" lon="8.213216825976295"><ele>334.0</ele><time>2026-04-07T13:49:17Z</time></trkpt><trkpt lat="45.59272112359473" lon="8.213262540676876"><ele>334.0</ele><time>2026-04-07T13:49:18Z</time></trkpt><trkpt lat="45.59265380333026" lon="8.21329790616323"><ele>334.0</ele><time>2026-04-07T13:49:19Z</time></trkpt><trkpt lat="45.5925873236727" lon="8.213330948605178"><ele>334.2</ele><time>2026-04-07T13:49:20Z</time></trkpt><trkpt lat="45.59252738314416" lon="8.213368900317654"><ele>334.4</ele><time>2026-04-07T13:49:21Z</time></trkpt><trkpt lat="45.592450334039135" lon="8.213411745880194"><ele>334.6</ele><time>2026-04-07T13:49:22Z</time></trkpt><trkpt lat="45.5923476905397" lon="8.213471393358802"><ele>334.8</ele><time>2026-04-07T13:49:24Z</time></trkpt><trkpt lat="45.59223282480135" lon="8.213538730193658"><ele>335.0</ele><time>2026-04-07T13:49:26Z</time></trkpt><trkpt lat="45.59216660183862" lon="8.213569217926267"><ele>335.0</ele><time>2026-04-07T13:49:27Z</time></trkpt><trkpt lat="45.59208668705622" lon="8.213593973104368"><ele>335.0</ele><time>2026-04-07T13:49:28Z</time></trkpt><trkpt lat="45.59201125215073" lon="8.213633363303112"><ele>335.0</ele><time>2026-04-07T13:49:29Z</time></trkpt><trkpt lat="45.59194020593513" lon="8.213660876591705"><ele>335.0</ele><time>2026-04-07T13:49:30Z</time></trkpt><trkpt lat="45.59186371296923" lon="8.213686021482683"><ele>335.0</ele><time>2026-04-07T13:49:31Z</time></trkpt><trkpt lat="45.59178120125763" lon="8.213715884918667"><ele>335.0</ele><time>2026-04-07T13:49:32Z</time></trkpt><trkpt lat="45.591705865156285" lon="8.21372455230929"><ele>334.1666666666667</ele><time>2026-04-07T13:49:33Z</time></trkpt><trkpt lat="45.591625466911964" lon="8.213734852102839"><ele>333.33333333333337</ele><time>2026-04-07T13:49:34Z</time></trkpt><trkpt lat="45.59155976350718" lon="8.213717218888053"><ele>332.5</ele><time>2026-04-07T13:49:35Z</time></trkpt><trkpt lat="45.59148106145505" lon="8.213762925864247"><ele>331.6666666666667</ele><time>2026-04-07T13:49:36.001Z</time></trkpt><trkpt lat="45.591411860456255" lon="8.21377019143889"><ele>330.8333333333333</ele><time>2026-04-07T13:49:37.001Z</time></trkpt><trkpt lat="45.59134064188186" lon="8.213775616543932"><ele>330.0</ele><time>2026-04-07T13:49:38.001Z</time></trkpt><trkpt lat="45.59128371785027" lon="8.213866227621365"><ele>330.0</ele><time>2026-04-07T13:49:39.001Z</time></trkpt><trkpt lat="45.591232842344255" lon="8.213943181577452"><ele>330.0</ele><time>2026-04-07T13:49:40.001Z</time></trkpt><trkpt lat="45.59113902815597" lon="8.214069469077746"><ele>330.0</ele><time>2026-04-07T13:49:42.001Z</time></trkpt><trkpt lat="45.59109051432396" lon="8.21414818651228"><ele>330.0</ele><time>2026-04-07T13:49:43.001Z</time></trkpt><trkpt lat="45.591047654769696" lon="8.214236535051716"><ele>330.0</ele><time>2026-04-07T13:49:44.001Z</time></trkpt><trkpt lat="45.59099466257338" lon="8.214320320985735"><ele>330.0</ele><time>2026-04-07T13:49:45.001Z</time></trkpt><trkpt lat="45.590930822048044" lon="8.21436537565073"><ele>330.5</ele><time>2026-04-07T13:49:46.001Z</time></trkpt><trkpt lat="45.590847705392434" lon="8.214397900755497"><ele>331.0</ele><time>2026-04-07T13:49:47.001Z</time></trkpt><trkpt lat="45.59075444729429" lon="8.214423918794564"><ele>331.5</ele><time>2026-04-07T13:49:48.001Z</time></trkpt><trkpt lat="45.59065284572532" lon="8.214447047303793"><ele>332.0</ele><time>2026-04-07T13:49:49.001Z</time></trkpt><trkpt lat="45.590579054714745" lon="8.214476575758162"><ele>332.5</ele><time>2026-04-07T13:49:50.001Z</time></trkpt><trkpt lat="45.59051404155554" lon="8.214524548483645"><ele>333.0</ele><time>2026-04-07T13:49:51.001Z</time></trkpt><trkpt lat="45.59044157969915" lon="8.214591353962144"><ele>333.0</ele><time>2026-04-07T13:49:52.001Z</time></trkpt><trkpt lat="45.59035701705365" lon="8.214685222684123"><ele>333.0</ele><time>2026-04-07T13:49:53.001Z</time></trkpt><trkpt lat="45.59028348868957" lon="8.214769875417145"><ele>333.0</ele><time>2026-04-07T13:49:54.001Z</time></trkpt><trkpt lat="45.590212151118976" lon="8.214811384492833"><ele>333.0</ele><time>2026-04-07T13:49:55.001Z</time></trkpt><trkpt lat="45.590130411389715" lon="8.21485175116708"><ele>333.0</ele><time>2026-04-07T13:49:56.001Z</time></trkpt><trkpt lat="45.59003346690232" lon="8.214852728074776"><ele>332.5</ele><time>2026-04-07T13:49:57.001Z</time></trkpt><trkpt lat="45.58993049768718" lon="8.214836830881929"><ele>332.0</ele><time>2026-04-07T13:49:58.001Z</time></trkpt><trkpt lat="45.58986560427027" lon="8.21483711445176"><ele>331.5</ele><time>2026-04-07T13:49:59.001Z</time></trkpt><trkpt lat="45.58977333939695" lon="8.214845458690085"><ele>331.0</ele><time>2026-04-07T13:50:00.001Z</time></trkpt><trkpt lat="45.5896948952373" lon="8.214859317714412"><ele>330.5</ele><time>2026-04-07T13:50:01.001Z</time></trkpt><trkpt lat="45.58959324613018" lon="8.214891402811082"><ele>330.0</ele><time>2026-04-07T13:50:02.001Z</time></trkpt><trkpt lat="45.58953076388536" lon="8.214910875369991"><ele>329.2</ele><time>2026-04-07T13:50:03.001Z</time></trkpt><trkpt lat="45.58941773921979" lon="8.214918738783577"><ele>328.4</ele><time>2026-04-07T13:50:08.001Z</time></trkpt><trkpt lat="45.58933663549511" lon="8.21493254431353"><ele>327.6</ele><time>2026-04-07T13:50:10.999Z</time></trkpt><trkpt lat="45.58926530573637" lon="8.214966056902126"><ele>326.8</ele><time>2026-04-07T13:50:11.999Z</time></trkpt><trkpt lat="45.58914125448775" lon="8.214964681695593"><ele>326.0</ele><time>2026-04-07T13:50:12.999Z</time></trkpt><trkpt lat="45.58905362515784" lon="8.214964550691604"><ele>326.0</ele><time>2026-04-07T13:50:13.999Z</time></trkpt><trkpt lat="45.58897974089208" lon="8.214969274586402"><ele>326.0</ele><time>2026-04-07T13:50:14.999Z</time></trkpt><trkpt lat="45.58890321286452" lon="8.214999954755827"><ele>326.0</ele><time>2026-04-07T13:50:15.999Z</time></trkpt><trkpt lat="45.58883029409454" lon="8.215026955342402"><ele>326.0</ele><time>2026-04-07T13:50:16.999Z</time></trkpt><trkpt lat="45.588740422625754" lon="8.215038191642577"><ele>326.0</ele><time>2026-04-07T13:50:17.999Z</time></trkpt><trkpt lat="45.588657420549616" lon="8.215077179398618"><ele>326.0</ele><time>2026-04-07T13:50:18.999Z</time></trkpt><trkpt lat="45.588562009022304" lon="8.215123845178747"><ele>324.6666666666667</ele><time>2026-04-07T13:50:19.999Z</time></trkpt><trkpt lat="45.58847885442583" lon="8.21517069069121"><ele>323.33333333333337</ele><time>2026-04-07T13:50:20.999Z</time></trkpt><trkpt lat="45.58839795159041" lon="8.215198741332728"><ele>322.0</ele><time>2026-04-07T13:50:21.999Z</time></trkpt><trkpt lat="45.58833165385707" lon="8.215230097963085"><ele>320.6666666666667</ele><time>2026-04-07T13:50:22.999Z</time></trkpt><trkpt lat="45.58825684932787" lon="8.215281588768622"><ele>319.3333333333333</ele><time>2026-04-07T13:50:23.999Z</time></trkpt><trkpt lat="45.58816469049465" lon="8.215346800341786"><ele>318.0</ele><time>2026-04-07T13:50:24.999Z</time></trkpt><trkpt lat="45.5880918737203" lon="8.21540600271254"><ele>318.0</ele><time>2026-04-07T13:50:25.999Z</time></trkpt><trkpt lat="45.58803063897199" lon="8.215455593441233"><ele>318.0</ele><time>2026-04-07T13:50:26.999Z</time></trkpt><trkpt lat="45.58796635493195" lon="8.215492175699168"><ele>318.0</ele><time>2026-04-07T13:50:27.999Z</time></trkpt><trkpt lat="45.58786272270783" lon="8.215465087866317"><ele>318.0</ele><time>2026-04-07T13:50:29.999Z</time></trkpt><trkpt lat="45.58775500558091" lon="8.21540945192853"><ele>318.0</ele><time>2026-04-07T13:50:31.999Z</time></trkpt><trkpt lat="45.58768898549085" lon="8.215419285544568"><ele>318.0</ele><time>2026-04-07T13:50:33Z</time></trkpt><trkpt lat="45.58762240327145" lon="8.215434686608507"><ele>317.85714285714283</ele><time>2026-04-07T13:50:34Z</time></trkpt><trkpt lat="45.587549940784804" lon="8.215448733276887"><ele>317.7142857142857</ele><time>2026-04-07T13:50:35Z</time></trkpt><trkpt lat="45.58747857683565" lon="8.215467071223545"><ele>317.57142857142856</ele><time>2026-04-07T13:50:36Z</time></trkpt><trkpt lat="45.58741133015596" lon="8.21548237915506"><ele>317.42857142857144</ele><time>2026-04-07T13:50:37Z</time></trkpt><trkpt lat="45.58734682275155" lon="8.215520829059537"><ele>317.2857142857143</ele><time>2026-04-07T13:50:38Z</time></trkpt><trkpt lat="45.587284023797416" lon="8.21556619735447"><ele>317.14285714285717</ele><time>2026-04-07T13:50:39Z</time></trkpt><trkpt lat="45.587208942419785" lon="8.215628338462283"><ele>317.0</ele><time>2026-04-07T13:50:40Z</time></trkpt><trkpt lat="45.58715448826788" lon="8.215712796849909"><ele>316.0</ele><time>2026-04-07T13:50:41Z</time></trkpt><trkpt lat="45.58708226961364" lon="8.2157809278652"><ele>315.0</ele><time>2026-04-07T13:50:42Z</time></trkpt><trkpt lat="45.5870079023216" lon="8.21585942643731"><ele>314.0</ele><time>2026-04-07T13:50:43Z</time></trkpt><trkpt lat="45.58697292251679" lon="8.215952955273798"><ele>313.0</ele><time>2026-04-07T13:50:44Z</time></trkpt><trkpt lat="45.586942891906766" lon="8.216035924844885"><ele>312.0</ele><time>2026-04-07T13:50:45Z</time></trkpt><trkpt lat="45.5868571624736" lon="8.216164334634897"><ele>311.0</ele><time>2026-04-07T13:50:47Z</time></trkpt><trkpt lat="45.5867692701685" lon="8.216232328598135"><ele>310.83333333333337</ele><time>2026-04-07T13:50:48Z</time></trkpt><trkpt lat="45.58671156455493" lon="8.216283211978519"><ele>310.6666666666667</ele><time>2026-04-07T13:50:49Z</time></trkpt><trkpt lat="45.58662694288317" lon="8.21633172931098"><ele>310.5</ele><time>2026-04-07T13:50:51Z</time></trkpt><trkpt lat="45.586575867610186" lon="8.216438238807404"><ele>310.3333333333333</ele><time>2026-04-07T13:50:53Z</time></trkpt><trkpt lat="45.58652258886297" lon="8.216498618921728"><ele>310.16666666666663</ele><time>2026-04-07T13:51:00Z</time></trkpt><trkpt lat="45.586460643733076" lon="8.216574363035758"><ele>310.0</ele><time>2026-04-07T13:51:02Z</time></trkpt><trkpt lat="45.58643132519393" lon="8.216665757657104"><ele>309.0</ele><time>2026-04-07T13:51:05Z</time></trkpt><trkpt lat="45.58635590716561" lon="8.216766099592851"><ele>308.0</ele><time>2026-04-07T13:51:08Z</time></trkpt><trkpt lat="45.586314580222975" lon="8.216842309136364"><ele>307.0</ele><time>2026-04-07T13:51:09Z</time></trkpt><trkpt lat="45.58626318967275" lon="8.21690755228176"><ele>306.0</ele><time>2026-04-07T13:51:10Z</time></trkpt><trkpt lat="45.58621714155315" lon="8.21697073022676"><ele>305.0</ele><time>2026-04-07T13:51:11Z</time></trkpt><trkpt lat="45.586108380379834" lon="8.217100927163388"><ele>304.0</ele><time>2026-04-07T13:51:13Z</time></trkpt><trkpt lat="45.58603866500927" lon="8.217223027714805"><ele>302.66666666666663</ele><time>2026-04-07T13:51:15Z</time></trkpt><trkpt lat="45.5859259677586" lon="8.217331826562056"><ele>301.3333333333333</ele><time>2026-04-07T13:51:17.001Z</time></trkpt><trkpt lat="45.585860651565056" lon="8.217370061340054"><ele>300.0</ele><time>2026-04-07T13:51:18.001Z</time></trkpt><trkpt lat="45.58579064508441" lon="8.217431642235178"><ele>298.6666666666667</ele><time>2026-04-07T13:51:19.001Z</time></trkpt><trkpt lat="45.58573530226248" lon="8.217490950298465"><ele>297.33333333333337</ele><time>2026-04-07T13:51:20.001Z</time></trkpt><trkpt lat="45.58568633502385" lon="8.217562490037428"><ele>296.0</ele><time>2026-04-07T13:51:21.001Z</time></trkpt><trkpt lat="45.58563672135387" lon="8.217626267436588"><ele>296.0</ele><time>2026-04-07T13:51:22.001Z</time></trkpt><trkpt lat="45.58552739405873" lon="8.217713647847141"><ele>296.0</ele><time>2026-04-07T13:51:24.001Z</time></trkpt><trkpt lat="45.585458503317234" lon="8.217764133907473"><ele>296.0</ele><time>2026-04-07T13:51:25.001Z</time></trkpt><trkpt lat="45.58539931654026" lon="8.217822996225905"><ele>296.0</ele><time>2026-04-07T13:51:26.001Z</time></trkpt><trkpt lat="45.585345191081416" lon="8.217885891035149"><ele>296.0</ele><time>2026-04-07T13:51:27.001Z</time></trkpt><trkpt lat="45.5852864806265" lon="8.217951471865899"><ele>296.0</ele><time>2026-04-07T13:51:28.001Z</time></trkpt><trkpt lat="45.58522604502965" lon="8.218000082632136"><ele>296.33333333333337</ele><time>2026-04-07T13:51:29.001Z</time></trkpt><trkpt lat="45.58514764533762" lon="8.218029855296226"><ele>296.6666666666667</ele><time>2026-04-07T13:51:30.001Z</time></trkpt><trkpt lat="45.585077921061554" lon="8.218050129301094"><ele>297.0</ele><time>2026-04-07T13:51:31.001Z</time></trkpt><trkpt lat="45.58499657864175" lon="8.218098733378834"><ele>297.3333333333333</ele><time>2026-04-07T13:51:33.001Z</time></trkpt><trkpt lat="45.58489615622697" lon="8.218163947090764"><ele>297.66666666666663</ele><time>2026-04-07T13:51:35.001Z</time></trkpt><trkpt lat="45.58483587135062" lon="8.218195734610958"><ele>298.0</ele><time>2026-04-07T13:51:36.001Z</time></trkpt><trkpt lat="45.584766475737595" lon="8.218237169951685"><ele>295.6</ele><time>2026-04-07T13:51:39.001Z</time></trkpt><trkpt lat="45.58467977894237" lon="8.218237703317403"><ele>293.20000000000005</ele><time>2026-04-07T13:51:41.001Z</time></trkpt><trkpt lat="45.58455375742204" lon="8.218250503016174"><ele>290.8</ele><time>2026-04-07T13:51:43.001Z</time></trkpt><trkpt lat="45.5844388275214" lon="8.218249762340085"><ele>288.40000000000003</ele><time>2026-04-07T13:51:44.001Z</time></trkpt><trkpt lat="45.584356835185545" lon="8.218259752014163"><ele>286.0</ele><time>2026-04-07T13:51:45.001Z</time></trkpt><trkpt lat="45.58426215505078" lon="8.218268352552254"><ele>285.4285714285714</ele><time>2026-04-07T13:51:46.001Z</time></trkpt><trkpt lat="45.5841883738553" lon="8.218271418292304"><ele>284.85714285714283</ele><time>2026-04-07T13:51:49.001Z</time></trkpt><trkpt lat="45.58412482421822" lon="8.218277642871609"><ele>284.2857142857143</ele><time>2026-04-07T13:51:54.001Z</time></trkpt><trkpt lat="45.584062742110405" lon="8.218315616897256"><ele>283.71428571428567</ele><time>2026-04-07T13:52:18Z</time></trkpt><trkpt lat="45.58399590764141" lon="8.218342012445568"><ele>283.1428571428571</ele><time>2026-04-07T13:52:24Z</time></trkpt><trkpt lat="45.58393781744314" lon="8.218295927828285"><ele>282.57142857142856</ele><time>2026-04-07T13:52:28Z</time></trkpt><trkpt lat="45.58384445045677" lon="8.218267717557474"><ele>282.0</ele><time>2026-04-07T13:52:31Z</time></trkpt><trkpt lat="45.58376761192241" lon="8.218262108279557"><ele>279.75</ele><time>2026-04-07T13:52:32Z</time></trkpt><trkpt lat="45.5836688892796" lon="8.218269439053831"><ele>277.5</ele><time>2026-04-07T13:52:33Z</time></trkpt><trkpt lat="45.583541824640996" lon="8.218265658762858"><ele>275.25</ele><time>2026-04-07T13:52:34Z</time></trkpt><trkpt lat="45.583407194909995" lon="8.218286752956926"><ele>273.0</ele><time>2026-04-07T13:52:35Z</time></trkpt><trkpt lat="45.58330265775672" lon="8.21831609422715"><ele>273.0</ele><time>2026-04-07T13:52:36Z</time></trkpt><trkpt lat="45.583204520679246" lon="8.218338587178925"><ele>273.0</ele><time>2026-04-07T13:52:37Z</time></trkpt><trkpt lat="45.583118822541756" lon="8.218343916947507"><ele>273.0</ele><time>2026-04-07T13:52:38Z</time></trkpt><trkpt lat="45.5830497534261" lon="8.218343996780973"><ele>273.0</ele><time>2026-04-07T13:52:39Z</time></trkpt><trkpt lat="45.582983402453706" lon="8.2183225148918"><ele>273.0</ele><time>2026-04-07T13:52:41Z</time></trkpt><trkpt lat="45.582920713621114" lon="8.218282590242397"><ele>273.0</ele><time>2026-04-07T13:53:47.001Z</time></trkpt><trkpt lat="45.582820125226576" lon="8.21825087779587"><ele>272.0</ele><time>2026-04-07T13:53:49.001Z</time></trkpt><trkpt lat="45.58274122775523" lon="8.218226424563133"><ele>271.0</ele><time>2026-04-07T13:53:51.001Z</time></trkpt><trkpt lat="45.58264196619771" lon="8.21821015808384"><ele>270.0</ele><time>2026-04-07T13:53:53.001Z</time></trkpt><trkpt lat="45.58257169927055" lon="8.218312142996549"><ele>269.0</ele><time>2026-04-07T13:53:56.001Z</time></trkpt><trkpt lat="45.58251856936801" lon="8.218373792365313"><ele>268.0</ele><time>2026-04-07T13:53:57.001Z</time></trkpt><trkpt lat="45.58244381140635" lon="8.218436282217413"><ele>267.0</ele><time>2026-04-07T13:53:58.001Z</time></trkpt><trkpt lat="45.58235403795483" lon="8.218443774324534"><ele>267.0</ele><time>2026-04-07T13:54:01.002Z</time></trkpt><trkpt lat="45.58232627654338" lon="8.218562227392102"><ele>267.0</ele><time>2026-04-07T13:54:03.002Z</time></trkpt><trkpt lat="45.582298637658965" lon="8.218659572550404"><ele>267.0</ele><time>2026-04-07T13:54:04.002Z</time></trkpt><trkpt lat="45.582292874103565" lon="8.218750125170704"><ele>267.0</ele><time>2026-04-07T13:54:05.002Z</time></trkpt><trkpt lat="45.58236875525185" lon="8.21885018740233"><ele>267.0</ele><time>2026-04-07T13:54:07.002Z</time></trkpt><trkpt lat="45.58239362749747" lon="8.218962468357212"><ele>267.0</ele><time>2026-04-07T13:54:09.002Z</time></trkpt><trkpt lat="45.58229856045062" lon="8.219003760892297"><ele>267.0</ele><time>2026-04-07T13:54:12.002Z</time></trkpt><trkpt lat="45.58222517502087" lon="8.218975330102403"><ele>267.0</ele><time>2026-04-07T13:54:13.002Z</time></trkpt><trkpt lat="45.582165420726405" lon="8.218915501083389"><ele>267.0</ele><time>2026-04-07T13:54:14.002Z</time></trkpt><trkpt lat="45.582107553566665" lon="8.218830570873228"><ele>267.0</ele><time>2026-04-07T13:54:15.002Z</time></trkpt><trkpt lat="45.58204932517158" lon="8.218760530699624"><ele>267.0</ele><time>2026-04-07T13:54:16.002Z</time></trkpt><trkpt lat="45.58195713523628" lon="8.21875726006896"><ele>267.0</ele><time>2026-04-07T13:54:18.002Z</time></trkpt><trkpt lat="45.581875523894794" lon="8.218794549327686"><ele>265.0</ele><time>2026-04-07T13:54:19.002Z</time></trkpt><trkpt lat="45.581806742228444" lon="8.218690676326938"><ele>263.0</ele><time>2026-04-07T13:54:21.002Z</time></trkpt><trkpt lat="45.581731831061276" lon="8.21865686932486"><ele>261.0</ele><time>2026-04-07T13:54:23.001Z</time></trkpt><trkpt lat="45.5816318371091" lon="8.218588906139583"><ele>259.0</ele><time>2026-04-07T13:54:25.001Z</time></trkpt><trkpt lat="45.58152592952165" lon="8.218547347791487"><ele>257.0</ele><time>2026-04-07T13:54:26.001Z</time></trkpt><trkpt lat="45.58142014917686" lon="8.218505500328686"><ele>257.0</ele><time>2026-04-07T13:54:27.001Z</time></trkpt><trkpt lat="45.58131719307077" lon="8.21850142669093"><ele>257.0</ele><time>2026-04-07T13:54:28.001Z</time></trkpt><trkpt lat="45.58122658269008" lon="8.218517551183256"><ele>257.0</ele><time>2026-04-07T13:54:29.001Z</time></trkpt><trkpt lat="45.58114861278494" lon="8.218536003275766"><ele>257.0</ele><time>2026-04-07T13:54:30.001Z</time></trkpt><trkpt lat="45.58106633065126" lon="8.21854183169891"><ele>257.0</ele><time>2026-04-07T13:54:31.001Z</time></trkpt><trkpt lat="45.58097897321462" lon="8.218554845747631"><ele>257.0</ele><time>2026-04-07T13:54:32.001Z</time></trkpt><trkpt lat="45.58090231438326" lon="8.218589551919951"><ele>256.5</ele><time>2026-04-07T13:54:33.001Z</time></trkpt><trkpt lat="45.58083021902183" lon="8.218644141531305"><ele>256.0</ele><time>2026-04-07T13:54:34.001Z</time></trkpt><trkpt lat="45.58077363622001" lon="8.218728010615676"><ele>255.5</ele><time>2026-04-07T13:54:35.001Z</time></trkpt><trkpt lat="45.5807247939588" lon="8.218821733069731"><ele>255.0</ele><time>2026-04-07T13:54:36.001Z</time></trkpt><trkpt lat="45.5806832839605" lon="8.218903891215696"><ele>254.50000000000003</ele><time>2026-04-07T13:54:37.001Z</time></trkpt><trkpt lat="45.58062603477041" lon="8.218959745610597"><ele>254.0</ele><time>2026-04-07T13:54:39.001Z</time></trkpt><trkpt lat="45.58055955511013" lon="8.218966464455914"><ele>254.0</ele><time>2026-04-07T13:54:41.001Z</time></trkpt><trkpt lat="45.5804721247921" lon="8.218969622037294"><ele>253.99999999999997</ele><time>2026-04-07T13:54:44.001Z</time></trkpt><trkpt lat="45.580415188449045" lon="8.218924800922954"><ele>253.99999999999997</ele><time>2026-04-07T13:54:47.001Z</time></trkpt><trkpt lat="45.58036980145052" lon="8.218835613623927"><ele>254.0</ele><time>2026-04-07T13:54:51.001Z</time></trkpt><trkpt lat="45.58028868217603" lon="8.218595918204553"><ele>254.0</ele><time>2026-04-07T13:54:54.001Z</time></trkpt><trkpt lat="45.58030420026145" lon="8.21848363331675"><ele>255.0</ele><time>2026-04-07T13:54:56.001Z</time></trkpt><trkpt lat="45.58027546444772" lon="8.218375295238625"><ele>255.99999999999997</ele><time>2026-04-07T13:54:58.001Z</time></trkpt><trkpt lat="45.58025309373387" lon="8.218234709511329"><ele>257.0</ele><time>2026-04-07T13:55:00.001Z</time></trkpt><trkpt lat="45.58028784419948" lon="8.218094450657995"><ele>258.0</ele><time>2026-04-07T13:55:02.001Z</time></trkpt><trkpt lat="45.58031056668954" lon="8.2180057482321"><ele>259.0</ele><time>2026-04-07T13:55:03.001Z</time></trkpt><trkpt lat="45.580396763725034" lon="8.217887290606656"><ele>259.0</ele><time>2026-04-07T13:55:05.001Z</time></trkpt><trkpt lat="45.580470350681566" lon="8.217832383853668"><ele>259.0</ele><time>2026-04-07T13:55:06.001Z</time></trkpt><trkpt lat="45.58057579537954" lon="8.217748047308191"><ele>259.0</ele><time>2026-04-07T13:55:07.001Z</time></trkpt><trkpt lat="45.58065118076395" lon="8.217683112771779"><ele>259.0</ele><time>2026-04-07T13:55:08.001Z</time></trkpt><trkpt lat="45.58068277644416" lon="8.217585467862527"><ele>259.0</ele><time>2026-04-07T13:55:09.001Z</time></trkpt><trkpt lat="45.58068045321788" lon="8.217444544246423"><ele>260.75</ele><time>2026-04-07T13:55:10.001Z</time></trkpt><trkpt lat="45.58069214898327" lon="8.217190133139328"><ele>262.5</ele><time>2026-04-07T13:55:11.001Z</time></trkpt><trkpt lat="45.58065568454777" lon="8.216951926640158"><ele>264.25</ele><time>2026-04-07T13:55:12.001Z</time></trkpt><trkpt lat="45.58067578964573" lon="8.216860988305363"><ele>266.0</ele><time>2026-04-07T13:55:13.001Z</time></trkpt><trkpt lat="45.58070596589715" lon="8.216781070939849"><ele>266.0</ele><time>2026-04-07T13:55:14.001Z</time></trkpt><trkpt lat="45.58078516812292" lon="8.216770373747837"><ele>266.0</ele><time>2026-04-07T13:55:16.001Z</time></trkpt><trkpt lat="45.5808391442637" lon="8.21693121724524"><ele>266.0</ele><time>2026-04-07T13:55:18.001Z</time></trkpt><trkpt lat="45.58089250142302" lon="8.216867401736675"><ele>266.0</ele><time>2026-04-07T13:55:20.001Z</time></trkpt><trkpt lat="45.58092157549057" lon="8.2167837180312"><ele>266.0</ele><time>2026-04-07T13:55:21.002Z</time></trkpt><trkpt lat="45.580950829835636" lon="8.216681446887822"><ele>266.0</ele><time>2026-04-07T13:55:22.002Z</time></trkpt><trkpt lat="45.5810024537557" lon="8.216589493122463"><ele>266.0</ele><time>2026-04-07T13:55:23.002Z</time></trkpt><trkpt lat="45.581067341450314" lon="8.216518725668355"><ele>266.0</ele><time>2026-04-07T13:55:24.002Z</time></trkpt><trkpt lat="45.58116280623179" lon="8.216539492350636"><ele>266.0</ele><time>2026-04-07T13:55:25.002Z</time></trkpt><trkpt lat="45.58124228252502" lon="8.216612427944245"><ele>266.0</ele><time>2026-04-07T13:55:26.002Z</time></trkpt><trkpt lat="45.581301643352795" lon="8.216655113694548"><ele>266.0</ele><time>2026-04-07T13:55:27.002Z</time></trkpt><trkpt lat="45.581424696536686" lon="8.216678830609453"><ele>268.2</ele><time>2026-04-07T13:55:29.002Z</time></trkpt><trkpt lat="45.581512993767475" lon="8.216659010447232"><ele>270.40000000000003</ele><time>2026-04-07T13:55:30.002Z</time></trkpt><trkpt lat="45.581592113732626" lon="8.216635088671216"><ele>272.6</ele><time>2026-04-07T13:55:31.002Z</time></trkpt><trkpt lat="45.58168868820241" lon="8.216583003881155"><ele>274.8</ele><time>2026-04-07T13:55:32.002Z</time></trkpt><trkpt lat="45.58181097199961" lon="8.216505969533214"><ele>277.0</ele><time>2026-04-07T13:55:33.002Z</time></trkpt><trkpt lat="45.58193631082503" lon="8.21643977762169"><ele>280.75</ele><time>2026-04-07T13:55:34.002Z</time></trkpt><trkpt lat="45.58204154253713" lon="8.21637937172044"><ele>284.5</ele><time>2026-04-07T13:55:35.002Z</time></trkpt><trkpt lat="45.58213957105033" lon="8.21628040008251"><ele>288.25</ele><time>2026-04-07T13:55:36.002Z</time></trkpt><trkpt lat="45.58222566248259" lon="8.216213871615079"><ele>292.0</ele><time>2026-04-07T13:55:37.002Z</time></trkpt><trkpt lat="45.58234135408768" lon="8.21608063015686"><ele>292.0</ele><time>2026-04-07T13:55:39.002Z</time></trkpt><trkpt lat="45.58242737237691" lon="8.21598985071191"><ele>292.0</ele><time>2026-04-07T13:55:40.002Z</time></trkpt><trkpt lat="45.58253530316702" lon="8.215882608059296"><ele>292.0</ele><time>2026-04-07T13:55:41.002Z</time></trkpt><trkpt lat="45.582594323092984" lon="8.215767062208197"><ele>292.0</ele><time>2026-04-07T13:55:42.002Z</time></trkpt><trkpt lat="45.58263417524098" lon="8.215644656142272"><ele>292.0</ele><time>2026-04-07T13:55:43.002Z</time></trkpt><trkpt lat="45.582665175012174" lon="8.215531251650894"><ele>293.0</ele><time>2026-04-07T13:55:44.002Z</time></trkpt><trkpt lat="45.58269296801594" lon="8.215435700257295"><ele>294.0</ele><time>2026-04-07T13:55:45.002Z</time></trkpt><trkpt lat="45.58270960609811" lon="8.215343016877359"><ele>295.0</ele><time>2026-04-07T13:55:46.002Z</time></trkpt><trkpt lat="45.5827314743263" lon="8.215252154804974"><ele>296.0</ele><time>2026-04-07T13:55:47.002Z</time></trkpt><trkpt lat="45.58275166347311" lon="8.215142650153762"><ele>297.0</ele><time>2026-04-07T13:55:48.002Z</time></trkpt><trkpt lat="45.58277847856266" lon="8.215018193138114"><ele>298.0</ele><time>2026-04-07T13:55:49.002Z</time></trkpt><trkpt lat="45.582790820904904" lon="8.214892277771959"><ele>298.2</ele><time>2026-04-07T13:55:50.002Z</time></trkpt><trkpt lat="45.5828090811551" lon="8.214762852159026"><ele>298.4</ele><time>2026-04-07T13:55:51.002Z</time></trkpt><trkpt lat="45.58282706911596" lon="8.214632607165052"><ele>298.59999999999997</ele><time>2026-04-07T13:55:52.002Z</time></trkpt><trkpt lat="45.582829602461054" lon="8.214501798681004"><ele>298.8</ele><time>2026-04-07T13:55:53.002Z</time></trkpt><trkpt lat="45.58285181771509" lon="8.214382122594733"><ele>299.0</ele><time>2026-04-07T13:55:54.002Z</time></trkpt><trkpt lat="45.5829020924602" lon="8.214233240492412"><ele>301.1666666666667</ele><time>2026-04-07T13:55:56.002Z</time></trkpt><trkpt lat="45.58297408667815" lon="8.214215388569754"><ele>303.33333333333337</ele><time>2026-04-07T13:55:57.002Z</time></trkpt><trkpt lat="45.583057823888375" lon="8.214182477163908"><ele>305.5</ele><time>2026-04-07T13:55:58.002Z</time></trkpt><trkpt lat="45.58315198023423" lon="8.214163422758482"><ele>307.6666666666667</ele><time>2026-04-07T13:55:59.002Z</time></trkpt><trkpt lat="45.58323439355826" lon="8.214137873176396"><ele>309.8333333333333</ele><time>2026-04-07T13:56:00.002Z</time></trkpt><trkpt lat="45.58331031828896" lon="8.214108551799104"><ele>312.0</ele><time>2026-04-07T13:56:01.002Z</time></trkpt><trkpt lat="45.58337553742527" lon="8.21397072228283"><ele>312.3333333333333</ele><time>2026-04-07T13:56:03.002Z</time></trkpt><trkpt lat="45.583468152479185" lon="8.213893162163872"><ele>312.6666666666667</ele><time>2026-04-07T13:56:05.002Z</time></trkpt><trkpt lat="45.58351653096455" lon="8.213819673316207"><ele>313.0</ele><time>2026-04-07T13:56:06.002Z</time></trkpt><trkpt lat="45.58358351902817" lon="8.213730561045072"><ele>313.33333333333337</ele><time>2026-04-07T13:56:07.002Z</time></trkpt><trkpt lat="45.58365362538786" lon="8.213685223517974"><ele>313.6666666666667</ele><time>2026-04-07T13:56:08.002Z</time></trkpt><trkpt lat="45.58374313611863" lon="8.21366534064845"><ele>314.0</ele><time>2026-04-07T13:56:09.002Z</time></trkpt><trkpt lat="45.58382763831292" lon="8.213641811304772"><ele>314.2</ele><time>2026-04-07T13:56:10.002Z</time></trkpt><trkpt lat="45.583962130656225" lon="8.213545489622666"><ele>314.4</ele><time>2026-04-07T13:56:12.002Z</time></trkpt><trkpt lat="45.584041808943105" lon="8.213416997837806"><ele>314.6</ele><time>2026-04-07T13:56:13.002Z</time></trkpt><trkpt lat="45.58408469048497" lon="8.213277901528382"><ele>314.8</ele><time>2026-04-07T13:56:14.002Z</time></trkpt><trkpt lat="45.58408536199458" lon="8.21318296227165"><ele>315.0</ele><time>2026-04-07T13:56:15.002Z</time></trkpt><trkpt lat="45.58411216497656" lon="8.21304464880111"><ele>316.2</ele><time>2026-04-07T13:56:16.002Z</time></trkpt><trkpt lat="45.58412493403866" lon="8.212856083878691"><ele>317.4</ele><time>2026-04-07T13:56:17.002Z</time></trkpt><trkpt lat="45.584168901776515" lon="8.212718084355933"><ele>318.6</ele><time>2026-04-07T13:56:18.002Z</time></trkpt><trkpt lat="45.58421985000654" lon="8.212604462237252"><ele>319.8</ele><time>2026-04-07T13:56:19.002Z</time></trkpt><trkpt lat="45.58425979445132" lon="8.21248327601652"><ele>321.0</ele><time>2026-04-07T13:56:20.002Z</time></trkpt><trkpt lat="45.58430764355309" lon="8.21235529158232"><ele>321.25</ele><time>2026-04-07T13:56:21.002Z</time></trkpt><trkpt lat="45.58434784353262" lon="8.212248141493399"><ele>321.5</ele><time>2026-04-07T13:56:22.002Z</time></trkpt><trkpt lat="45.58435871951579" lon="8.212132566485014"><ele>321.75</ele><time>2026-04-07T13:56:23.003Z</time></trkpt><trkpt lat="45.58463093371124" lon="8.212161111742613"><ele>322.0</ele><time>2026-04-07T13:56:24.003Z</time></trkpt><trkpt lat="45.584702541864786" lon="8.212079521554871"><ele>322.0</ele><time>2026-04-07T13:56:25.003Z</time></trkpt><trkpt lat="45.58474765605755" lon="8.211999992629138"><ele>322.0</ele><time>2026-04-07T13:56:26.003Z</time></trkpt><trkpt lat="45.58480352435538" lon="8.211927507136329"><ele>322.0</ele><time>2026-04-07T13:56:27.003Z</time></trkpt><trkpt lat="45.58485147915877" lon="8.211837554997066"><ele>322.0</ele><time>2026-04-07T13:56:29.002Z</time></trkpt><trkpt lat="45.584877105888246" lon="8.21194353227902"><ele>322.0</ele><time>2026-04-07T13:56:32.002Z</time></trkpt><trkpt lat="45.58490068384037" lon="8.212056639248976"><ele>322.0</ele><time>2026-04-07T13:56:34.002Z</time></trkpt><trkpt lat="45.58491159621336" lon="8.212272180100424"><ele>320.40000000000003</ele><time>2026-04-07T13:56:35.002Z</time></trkpt><trkpt lat="45.58494421907113" lon="8.212455342553149"><ele>318.8</ele><time>2026-04-07T13:56:36.002Z</time></trkpt><trkpt lat="45.5849627618882" lon="8.212620905866071"><ele>317.2</ele><time>2026-04-07T13:56:37.002Z</time></trkpt><trkpt lat="45.58497479447255" lon="8.212769825754329"><ele>315.6</ele><time>2026-04-07T13:56:38.002Z</time></trkpt><trkpt lat="45.584972601654144" lon="8.212897679660571"><ele>314.0</ele><time>2026-04-07T13:56:39.002Z</time></trkpt><trkpt lat="45.58496887038987" lon="8.21302742379295"><ele>314.0</ele><time>2026-04-07T13:56:40.002Z</time></trkpt><trkpt lat="45.58495742434786" lon="8.213128046674266"><ele>314.0</ele><time>2026-04-07T13:56:41.002Z</time></trkpt><trkpt lat="45.584967290589105" lon="8.213279969877087"><ele>314.0</ele><time>2026-04-07T13:56:43.002Z</time></trkpt><trkpt lat="45.58503708379124" lon="8.21328766386082"><ele>314.0</ele><time>2026-04-07T13:56:45.002Z</time></trkpt><trkpt lat="45.585102757964805" lon="8.213244407855854"><ele>314.0</ele><time>2026-04-07T13:56:48.002Z</time></trkpt><trkpt lat="45.58511453600248" lon="8.21314348308423"><ele>314.0</ele><time>2026-04-07T13:56:50.002Z</time></trkpt><trkpt lat="45.58515633032348" lon="8.213072742493944"><ele>314.0</ele><time>2026-04-07T13:57:13.002Z</time></trkpt><trkpt lat="45.585150336529466" lon="8.212935901128136"><ele>314.0</ele><time>2026-04-07T13:58:38.002Z</time></trkpt><trkpt lat="45.58515087701876" lon="8.212790815435165"><ele>314.0</ele><time>2026-04-07T13:58:40.002Z</time></trkpt><trkpt lat="45.58516138891335" lon="8.212691459273255"><ele>314.0</ele><time>2026-04-07T13:58:41.002Z</time></trkpt><trkpt lat="45.585233241855256" lon="8.212593078763813"><ele>314.0</ele><time>2026-04-07T13:58:43.002Z</time></trkpt><trkpt lat="45.5853066979997" lon="8.212662024551417"><ele>314.1666666666667</ele><time>2026-04-07T13:58:44.002Z</time></trkpt><trkpt lat="45.58535727022358" lon="8.212729640053144"><ele>314.33333333333337</ele><time>2026-04-07T13:58:45.002Z</time></trkpt><trkpt lat="45.585432962890565" lon="8.21272079864805"><ele>314.5</ele><time>2026-04-07T13:58:48.002Z</time></trkpt><trkpt lat="45.585407246380015" lon="8.212578098151413"><ele>314.6666666666667</ele><time>2026-04-07T13:58:50.002Z</time></trkpt><trkpt lat="45.585390013990626" lon="8.212479510435701"><ele>314.8333333333333</ele><time>2026-04-07T13:58:51.002Z</time></trkpt><trkpt lat="45.58538240446738" lon="8.212382403039296"><ele>315.0</ele><time>2026-04-07T13:58:52.002Z</time></trkpt><trkpt lat="45.58538780005444" lon="8.212260782771878"><ele>315.0</ele><time>2026-04-07T13:58:53.002Z</time></trkpt><trkpt lat="45.58539106553587" lon="8.212153514242246"><ele>315.0</ele><time>2026-04-07T13:58:54.002Z</time></trkpt><trkpt lat="45.58536509289414" lon="8.212054758238743"><ele>315.0</ele><time>2026-04-07T13:58:55.002Z</time></trkpt><trkpt lat="45.58544341431967" lon="8.212005228575517"><ele>315.0</ele><time>2026-04-07T13:58:58.002Z</time></trkpt><trkpt lat="45.585538615620735" lon="8.212016151355337"><ele>315.0</ele><time>2026-04-07T13:59:00.002Z</time></trkpt><trkpt lat="45.58559945861678" lon="8.21192692262227"><ele>315.0</ele><time>2026-04-07T13:59:02.002Z</time></trkpt><trkpt lat="45.585673643468716" lon="8.212031358324815"><ele>315.0</ele><time>2026-04-07T13:59:04.001Z</time></trkpt><trkpt lat="45.58576185415352" lon="8.212055115686828"><ele>315.0</ele><time>2026-04-07T13:59:06.001Z</time></trkpt><trkpt lat="45.58580602499271" lon="8.211959000834753"><ele>315.0</ele><time>2026-04-07T13:59:09.001Z</time></trkpt><trkpt lat="45.585845622517596" lon="8.211802449373307"><ele>315.0</ele><time>2026-04-07T13:59:11.001Z</time></trkpt><trkpt lat="45.585871972541725" lon="8.211679631413206"><ele>315.0</ele><time>2026-04-07T13:59:12.001Z</time></trkpt><trkpt lat="45.585872072829694" lon="8.211568337527243"><ele>315.5</ele><time>2026-04-07T13:59:13.001Z</time></trkpt><trkpt lat="45.58587337324017" lon="8.211456808149958"><ele>316.0</ele><time>2026-04-07T13:59:14.001Z</time></trkpt><trkpt lat="45.58587693887112" lon="8.211335792285231"><ele>316.5</ele><time>2026-04-07T13:59:15.001Z</time></trkpt><trkpt lat="45.585885846419586" lon="8.211191865734069"><ele>317.0</ele><time>2026-04-07T13:59:16.001Z</time></trkpt><trkpt lat="45.58588262290041" lon="8.211045394595656"><ele>317.5</ele><time>2026-04-07T13:59:17.001Z</time></trkpt><trkpt lat="45.58589616876072" lon="8.210936407478926"><ele>318.0</ele><time>2026-04-07T13:59:18.001Z</time></trkpt><trkpt lat="45.58591855743079" lon="8.210842550040399"><ele>318.0</ele><time>2026-04-07T13:59:19.001Z</time></trkpt><trkpt lat="45.58597575787005" lon="8.210722033465048"><ele>318.0</ele><time>2026-04-07T13:59:21.002Z</time></trkpt><trkpt lat="45.58604246907293" lon="8.21069946488602"><ele>318.0</ele><time>2026-04-07T13:59:24.002Z</time></trkpt><trkpt lat="45.58607607785695" lon="8.210777180261179"><ele>318.0</ele><time>2026-04-07T13:59:25.002Z</time></trkpt><trkpt lat="45.58610288157074" lon="8.210907067689192"><ele>318.0</ele><time>2026-04-07T13:59:26.002Z</time></trkpt><trkpt lat="45.586168635706244" lon="8.211007439592233"><ele>318.0</ele><time>2026-04-07T13:59:27.002Z</time></trkpt><trkpt lat="45.586178687421075" lon="8.211106184910147"><ele>318.0</ele><time>2026-04-07T13:59:28.002Z</time></trkpt><trkpt lat="45.586243965883774" lon="8.21109453437926"><ele>318.0</ele><time>2026-04-07T13:59:30.002Z</time></trkpt><trkpt lat="45.58633249857416" lon="8.211047693981845"><ele>318.0</ele><time>2026-04-07T13:59:31.002Z</time></trkpt><trkpt lat="45.58640885475814" lon="8.21102134302529"><ele>318.0</ele><time>2026-04-07T13:59:32.002Z</time></trkpt><trkpt lat="45.58647404899631" lon="8.210968414769217"><ele>318.0</ele><time>2026-04-07T13:59:34.002Z</time></trkpt><trkpt lat="45.58641761506524" lon="8.210803211691163"><ele>318.0</ele><time>2026-04-07T13:59:36.002Z</time></trkpt><trkpt lat="45.586475888255656" lon="8.210732100985563"><ele>318.0</ele><time>2026-04-07T13:59:38.002Z</time></trkpt><trkpt lat="45.586558505132764" lon="8.210718257212799"><ele>318.0</ele><time>2026-04-07T13:59:39.002Z</time></trkpt><trkpt lat="45.58665752670945" lon="8.210679855816762"><ele>318.0</ele><time>2026-04-07T13:59:40.002Z</time></trkpt><trkpt lat="45.58676195014968" lon="8.210618121809583"><ele>318.0</ele><time>2026-04-07T13:59:41.002Z</time></trkpt><trkpt lat="45.586868315322775" lon="8.210556188427557"><ele>318.0</ele><time>2026-04-07T13:59:42.002Z</time></trkpt><trkpt lat="45.58696294258653" lon="8.210499480277425"><ele>318.3333333333333</ele><time>2026-04-07T13:59:43.002Z</time></trkpt><trkpt lat="45.58702023413454" lon="8.210451973737523"><ele>318.6666666666667</ele><time>2026-04-07T13:59:44.002Z</time></trkpt><trkpt lat="45.587045803025475" lon="8.210323143296396"><ele>319.0</ele><time>2026-04-07T13:59:46.002Z</time></trkpt><trkpt lat="45.5870290765143" lon="8.210192505155563"><ele>319.33333333333337</ele><time>2026-04-07T13:59:47.002Z</time></trkpt><trkpt lat="45.58702131134478" lon="8.210083591457542"><ele>319.6666666666667</ele><time>2026-04-07T13:59:48.002Z</time></trkpt><trkpt lat="45.58698478195771" lon="8.210001894566382"><ele>320.0</ele><time>2026-04-07T13:59:49.002Z</time></trkpt><trkpt lat="45.586915647811175" lon="8.209960871001835"><ele>320.0</ele><time>2026-04-07T13:59:51.002Z</time></trkpt><trkpt lat="45.58697782882835" lon="8.209927888914812"><ele>320.0</ele><time>2026-04-07T13:59:53.002Z</time></trkpt><trkpt lat="45.58711209654441" lon="8.210002076161725"><ele>320.0</ele><time>2026-04-07T13:59:55.002Z</time></trkpt><trkpt lat="45.58722253926531" lon="8.21001925655819"><ele>320.0</ele><time>2026-04-07T13:59:56.002Z</time></trkpt><trkpt lat="45.58732768913595" lon="8.210054776815745"><ele>320.0</ele><time>2026-04-07T13:59:57.002Z</time></trkpt><trkpt lat="45.58742899908309" lon="8.210104643164216"><ele>320.0</ele><time>2026-04-07T13:59:58.002Z</time></trkpt><trkpt lat="45.58750252384317" lon="8.210157304294125"><ele>320.0</ele><time>2026-04-07T13:59:59.002Z</time></trkpt><trkpt lat="45.58758065577476" lon="8.210208634280377"><ele>320.0</ele><time>2026-04-07T14:00:00.002Z</time></trkpt><trkpt lat="45.58764818884486" lon="8.210298972741795"><ele>320.0</ele><time>2026-04-07T14:00:01.002Z</time></trkpt><trkpt lat="45.58770458673912" lon="8.21041526743766"><ele>320.0</ele><time>2026-04-07T14:00:02.002Z</time></trkpt><trkpt lat="45.58773869505298" lon="8.2105099031051"><ele>320.0</ele><time>2026-04-07T14:00:03.002Z</time></trkpt><trkpt lat="45.58777767229501" lon="8.210586340491567"><ele>320.0</ele><time>2026-04-07T14:00:04.002Z</time></trkpt><trkpt lat="45.58782687859786" lon="8.210650469374704"><ele>320.0</ele><time>2026-04-07T14:00:05.002Z</time></trkpt><trkpt lat="45.5878823259462" lon="8.210746350925472"><ele>320.0</ele><time>2026-04-07T14:00:06.002Z</time></trkpt><trkpt lat="45.5879457160212" lon="8.210846048529287"><ele>320.0</ele><time>2026-04-07T14:00:07.002Z</time></trkpt><trkpt lat="45.58798626354638" lon="8.21092520404373"><ele>320.0</ele><time>2026-04-07T14:00:08.002Z</time></trkpt><trkpt lat="45.587956089605896" lon="8.21108823938968"><ele>320.0</ele><time>2026-04-07T14:00:10.002Z</time></trkpt><trkpt lat="45.587917961054266" lon="8.211169556004384"><ele>319.5</ele><time>2026-04-07T14:00:11.002Z</time></trkpt><trkpt lat="45.5878515574223" lon="8.211293450635932"><ele>319.0</ele><time>2026-04-07T14:00:13.002Z</time></trkpt><trkpt lat="45.58780872213758" lon="8.211387151547608"><ele>318.5</ele><time>2026-04-07T14:00:14.002Z</time></trkpt><trkpt lat="45.58776626174286" lon="8.211470335730919"><ele>318.0</ele><time>2026-04-07T14:00:15.002Z</time></trkpt><trkpt lat="45.58769824719814" lon="8.21152610153277"><ele>317.5</ele><time>2026-04-07T14:00:16.002Z</time></trkpt><trkpt lat="45.58764492878078" lon="8.211597844071123"><ele>317.0</ele><time>2026-04-07T14:00:19.002Z</time></trkpt><trkpt lat="45.58771914531886" lon="8.21162938712872"><ele>314.6666666666667</ele><time>2026-04-07T14:00:21.002Z</time></trkpt><trkpt lat="45.58778844039693" lon="8.211576529377298"><ele>312.33333333333337</ele><time>2026-04-07T14:00:23.002Z</time></trkpt><trkpt lat="45.58786345744973" lon="8.211533576376127"><ele>310.0</ele><time>2026-04-07T14:01:15.001Z</time></trkpt><trkpt lat="45.587928022607755" lon="8.2114488800823"><ele>307.6666666666667</ele><time>2026-04-07T14:01:17.001Z</time></trkpt><trkpt lat="45.58798465929575" lon="8.211399144273795"><ele>305.3333333333333</ele><time>2026-04-07T14:01:18.001Z</time></trkpt><trkpt lat="45.588044049939164" lon="8.211342731458663"><ele>303.0</ele><time>2026-04-07T14:01:19.001Z</time></trkpt><trkpt lat="45.58812394848818" lon="8.211285762193164"><ele>301.8</ele><time>2026-04-07T14:01:20.001Z</time></trkpt><trkpt lat="45.58820107962124" lon="8.211238652835032"><ele>300.6</ele><time>2026-04-07T14:01:21.001Z</time></trkpt><trkpt lat="45.58826477553016" lon="8.211185180684133"><ele>299.4</ele><time>2026-04-07T14:01:22.001Z</time></trkpt><trkpt lat="45.5883256921794" lon="8.211066446842548"><ele>298.2</ele><time>2026-04-07T14:01:24.001Z</time></trkpt><trkpt lat="45.58829374918339" lon="8.210894118541928"><ele>297.0</ele><time>2026-04-07T14:01:26.001Z</time></trkpt><trkpt lat="45.58825944302055" lon="8.21075557472289"><ele>297.0</ele><time>2026-04-07T14:01:27.001Z</time></trkpt><trkpt lat="45.588240310703725" lon="8.21065899497139"><ele>297.0</ele><time>2026-04-07T14:01:28.001Z</time></trkpt><trkpt lat="45.58818637495225" lon="8.210516141975386"><ele>297.0</ele><time>2026-04-07T14:01:30.001Z</time></trkpt><trkpt lat="45.58821720352505" lon="8.21041266329336"><ele>297.0</ele><time>2026-04-07T14:01:31.001Z</time></trkpt><trkpt lat="45.58822870383904" lon="8.21031895975035"><ele>297.0</ele><time>2026-04-07T14:01:32.001Z</time></trkpt><trkpt lat="45.58824862968527" lon="8.210213360377097"><ele>297.0</ele><time>2026-04-07T14:01:33.001Z</time></trkpt><trkpt lat="45.5882501665591" lon="8.210115494695803"><ele>297.1666666666667</ele><time>2026-04-07T14:01:34.001Z</time></trkpt><trkpt lat="45.58823611967305" lon="8.209990158675051"><ele>297.3333333333333</ele><time>2026-04-07T14:01:36.001Z</time></trkpt><trkpt lat="45.588309951743355" lon="8.20997088245249"><ele>297.5</ele><time>2026-04-07T14:01:38.001Z</time></trkpt><trkpt lat="45.58837491160424" lon="8.21000540731934"><ele>297.66666666666663</ele><time>2026-04-07T14:01:39.001Z</time></trkpt><trkpt lat="45.58843719996189" lon="8.21003163041635"><ele>297.8333333333333</ele><time>2026-04-07T14:01:40.001Z</time></trkpt><trkpt lat="45.588510478865125" lon="8.209961708985261"><ele>298.0</ele><time>2026-04-07T14:01:42.001Z</time></trkpt><trkpt lat="45.58851473539412" lon="8.209836753428815"><ele>298.8333333333333</ele><time>2026-04-07T14:01:44.001Z</time></trkpt><trkpt lat="45.588507367340426" lon="8.209727998941164"><ele>299.66666666666663</ele><time>2026-04-07T14:01:47.001Z</time></trkpt><trkpt lat="45.58846893217865" lon="8.209654014047329"><ele>300.5</ele><time>2026-04-07T14:01:49.001Z</time></trkpt><trkpt lat="45.588443185657326" lon="8.209550735834922"><ele>301.3333333333333</ele><time>2026-04-07T14:01:51.001Z</time></trkpt><trkpt lat="45.58840291989177" lon="8.209375728666018"><ele>302.1666666666667</ele><time>2026-04-07T14:01:53.001Z</time></trkpt><trkpt lat="45.58841011165929" lon="8.209264965815473"><ele>303.0</ele><time>2026-04-07T14:01:54.001Z</time></trkpt><trkpt lat="45.58847620471408" lon="8.209116314191968"><ele>303.0</ele><time>2026-04-07T14:01:56.001Z</time></trkpt><trkpt lat="45.58853768371239" lon="8.209077951241952"><ele>303.0</ele><time>2026-04-07T14:01:57.001Z</time></trkpt><trkpt lat="45.58861615797987" lon="8.20906097258717"><ele>303.0</ele><time>2026-04-07T14:01:58.001Z</time></trkpt><trkpt lat="45.58869285225372" lon="8.209072951522394"><ele>303.0</ele><time>2026-04-07T14:01:59.001Z</time></trkpt><trkpt lat="45.58877562366" lon="8.209129284110476"><ele>303.0</ele><time>2026-04-07T14:02:00.001Z</time></trkpt><trkpt lat="45.588838888309205" lon="8.209143196570068"><ele>303.0</ele><time>2026-04-07T14:02:01.001Z</time></trkpt><trkpt lat="45.58892043558641" lon="8.209086989290382"><ele>303.4</ele><time>2026-04-07T14:02:02.001Z</time></trkpt><trkpt lat="45.58896461599775" lon="8.208971519455732"><ele>303.8</ele><time>2026-04-07T14:02:03.001Z</time></trkpt><trkpt lat="45.589047728381246" lon="8.208881020300792"><ele>304.2</ele><time>2026-04-07T14:02:04.001Z</time></trkpt><trkpt lat="45.58913640224928" lon="8.208798192189205"><ele>304.6</ele><time>2026-04-07T14:02:05.001Z</time></trkpt><trkpt lat="45.5892224106913" lon="8.208738417281529"><ele>305.0</ele><time>2026-04-07T14:02:06.001Z</time></trkpt><trkpt lat="45.58929265683797" lon="8.208639081496514"><ele>305.0</ele><time>2026-04-07T14:02:07.001Z</time></trkpt><trkpt lat="45.5893499045575" lon="8.20852618557844"><ele>305.0</ele><time>2026-04-07T14:02:08.001Z</time></trkpt><trkpt lat="45.58938986997727" lon="8.20841590762798"><ele>305.0</ele><time>2026-04-07T14:02:09.001Z</time></trkpt><trkpt lat="45.589417573950556" lon="8.208287056409256"><ele>305.0</ele><time>2026-04-07T14:02:11.001Z</time></trkpt><trkpt lat="45.589455378797695" lon="8.208161168455437"><ele>305.0</ele><time>2026-04-07T14:02:14.001Z</time></trkpt><trkpt lat="45.58948353938542" lon="8.20803189864615"><ele>306.33333333333337</ele><time>2026-04-07T14:02:16.001Z</time></trkpt><trkpt lat="45.589421575863305" lon="8.207906286227173"><ele>307.6666666666667</ele><time>2026-04-07T14:02:18.001Z</time></trkpt><trkpt lat="45.589350857075786" lon="8.207881760387478"><ele>309.0</ele><time>2026-04-07T14:02:19.002Z</time></trkpt><trkpt lat="45.58927205249617" lon="8.207864620590525"><ele>310.3333333333333</ele><time>2026-04-07T14:02:20.002Z</time></trkpt><trkpt lat="45.589202432311794" lon="8.207848645676307"><ele>311.66666666666663</ele><time>2026-04-07T14:02:21.002Z</time></trkpt><trkpt lat="45.58913823097823" lon="8.20786584233343"><ele>313.0</ele><time>2026-04-07T14:02:22.002Z</time></trkpt><trkpt lat="45.58907996072322" lon="8.207915660182323"><ele>313.0</ele><time>2026-04-07T14:02:23.002Z</time></trkpt><trkpt lat="45.58901048040333" lon="8.207991356858699"><ele>313.0</ele><time>2026-04-07T14:02:24.002Z</time></trkpt><trkpt lat="45.58896725883786" lon="8.208069718058544"><ele>313.0</ele><time>2026-04-07T14:02:25.002Z</time></trkpt><trkpt lat="45.588897897632215" lon="8.208211593984162"><ele>313.0</ele><time>2026-04-07T14:02:27.002Z</time></trkpt><trkpt lat="45.58883466079293" lon="8.208285623928242"><ele>313.0</ele><time>2026-04-07T14:02:28.002Z</time></trkpt><trkpt lat="45.588780466527176" lon="8.208347957450242"><ele>313.0</ele><time>2026-04-07T14:02:29.002Z</time></trkpt><trkpt lat="45.588717434483335" lon="8.208397277254216"><ele>313.0</ele><time>2026-04-07T14:02:30.002Z</time></trkpt><trkpt lat="45.588644306606746" lon="8.208450670888482"><ele>313.0</ele><time>2026-04-07T14:02:31.002Z</time></trkpt><trkpt lat="45.58857819342168" lon="8.20848871584238"><ele>313.0</ele><time>2026-04-07T14:02:32.002Z</time></trkpt><trkpt lat="45.588509919566995" lon="8.208506805861663"><ele>313.0</ele><time>2026-04-07T14:02:33.002Z</time></trkpt><trkpt lat="45.58842963158052" lon="8.20851066734635"><ele>313.0</ele><time>2026-04-07T14:02:34.002Z</time></trkpt><trkpt lat="45.58835671375836" lon="8.208543717364943"><ele>313.0</ele><time>2026-04-07T14:02:35.002Z</time></trkpt><trkpt lat="45.58828860059726" lon="8.208565909076128"><ele>313.0</ele><time>2026-04-07T14:02:36.002Z</time></trkpt><trkpt lat="45.58822013282442" lon="8.208577990282098"><ele>313.0</ele><time>2026-04-07T14:02:37.002Z</time></trkpt><trkpt lat="45.58814512234173" lon="8.208573396773307"><ele>313.0</ele><time>2026-04-07T14:02:38.002Z</time></trkpt><trkpt lat="45.58808086774028" lon="8.208555566125241"><ele>313.0</ele><time>2026-04-07T14:02:39.002Z</time></trkpt><trkpt lat="45.58801057181629" lon="8.208608481180017"><ele>313.0</ele><time>2026-04-07T14:02:41.002Z</time></trkpt><trkpt lat="45.58801250323376" lon="8.208698963890614"><ele>313.0</ele><time>2026-04-07T14:02:42.002Z</time></trkpt><trkpt lat="45.58806285676911" lon="8.208782438987232"><ele>313.0</ele><time>2026-04-07T14:02:43.002Z</time></trkpt><trkpt lat="45.58810413487301" lon="8.208911295964649"><ele>313.0</ele><time>2026-04-07T14:02:45.002Z</time></trkpt><trkpt lat="45.5880377401551" lon="8.209001478746954"><ele>313.0</ele><time>2026-04-07T14:02:47.002Z</time></trkpt><trkpt lat="45.58791969640941" lon="8.208984476883538"><ele>313.0</ele><time>2026-04-07T14:02:49.002Z</time></trkpt><trkpt lat="45.58786500929219" lon="8.208919673942502"><ele>313.0</ele><time>2026-04-07T14:02:50.002Z</time></trkpt><trkpt lat="45.58784993562931" lon="8.208735847455072"><ele>313.0</ele><time>2026-04-07T14:02:52.002Z</time></trkpt><trkpt lat="45.587877238260106" lon="8.208609891917302"><ele>313.0</ele><time>2026-04-07T14:02:53.002Z</time></trkpt><trkpt lat="45.58787290486502" lon="8.208448294293978"><ele>313.0</ele><time>2026-04-07T14:02:54.002Z</time></trkpt><trkpt lat="45.587855885401" lon="8.208305834529648"><ele>313.0</ele><time>2026-04-07T14:02:55.002Z</time></trkpt><trkpt lat="45.58786065736525" lon="8.208210882373558"><ele>313.0</ele><time>2026-04-07T14:02:56.002Z</time></trkpt><trkpt lat="45.58792231614158" lon="8.208168817878892"><ele>313.0</ele><time>2026-04-07T14:02:57.002Z</time></trkpt><trkpt lat="45.58799662383868" lon="8.208152829881104"><ele>313.0</ele><time>2026-04-07T14:02:58.002Z</time></trkpt><trkpt lat="45.58806027038666" lon="8.208196114440987"><ele>313.0</ele><time>2026-04-07T14:02:59.001Z</time></trkpt><trkpt lat="45.588134809688185" lon="8.208309940884524"><ele>313.0</ele><time>2026-04-07T14:03:00.001Z</time></trkpt><trkpt lat="45.58819536194675" lon="8.208373312976843"><ele>313.0</ele><time>2026-04-07T14:03:01.001Z</time></trkpt><trkpt lat="45.58832300296875" lon="8.208338374970328"><ele>313.0</ele><time>2026-04-07T14:03:03.001Z</time></trkpt><trkpt lat="45.588391686373036" lon="8.208282217243724"><ele>313.0</ele><time>2026-04-07T14:03:04.001Z</time></trkpt><trkpt lat="45.5884706304107" lon="8.208217052491593"><ele>313.0</ele><time>2026-04-07T14:03:05.001Z</time></trkpt><trkpt lat="45.588552633928195" lon="8.208189997534705"><ele>313.0</ele><time>2026-04-07T14:03:06.001Z</time></trkpt><trkpt lat="45.58862386880505" lon="8.208157146157458"><ele>313.0</ele><time>2026-04-07T14:03:07.001Z</time></trkpt><trkpt lat="45.5887058908054" lon="8.208040837930504"><ele>313.0</ele><time>2026-04-07T14:03:09.001Z</time></trkpt><trkpt lat="45.58873660037281" lon="8.207951129064174"><ele>313.0</ele><time>2026-04-07T14:03:10.001Z</time></trkpt><trkpt lat="45.58875887134779" lon="8.207857488537115"><ele>313.0</ele><time>2026-04-07T14:03:11.001Z</time></trkpt><trkpt lat="45.588801893155235" lon="8.207775160832487"><ele>313.0</ele><time>2026-04-07T14:03:12.001Z</time></trkpt><trkpt lat="45.58885841123718" lon="8.20768939486193"><ele>313.0</ele><time>2026-04-07T14:03:13.001Z</time></trkpt><trkpt lat="45.58890972483051" lon="8.207593355142855"><ele>313.0</ele><time>2026-04-07T14:03:14.001Z</time></trkpt><trkpt lat="45.58894914855187" lon="8.20750049756195"><ele>313.0</ele><time>2026-04-07T14:03:15.001Z</time></trkpt><trkpt lat="45.5889916057412" lon="8.207406536003086"><ele>313.0</ele><time>2026-04-07T14:03:16.001Z</time></trkpt><trkpt lat="45.58904001664515" lon="8.207312750291111"><ele>313.0</ele><time>2026-04-07T14:03:17.001Z</time></trkpt><trkpt lat="45.5890853519056" lon="8.207216501255214"><ele>313.8333333333333</ele><time>2026-04-07T14:03:18.001Z</time></trkpt><trkpt lat="45.58910809297273" lon="8.207125512407611"><ele>314.66666666666663</ele><time>2026-04-07T14:03:19.001Z</time></trkpt><trkpt lat="45.58910210917645" lon="8.207030182440716"><ele>315.5</ele><time>2026-04-07T14:03:20.001Z</time></trkpt><trkpt lat="45.589056786582816" lon="8.206945308784615"><ele>316.3333333333333</ele><time>2026-04-07T14:03:21.001Z</time></trkpt><trkpt lat="45.58898046710402" lon="8.206861239535677"><ele>317.1666666666667</ele><time>2026-04-07T14:03:22.001Z</time></trkpt><trkpt lat="45.58890685727503" lon="8.206790444817006"><ele>318.0</ele><time>2026-04-07T14:03:23.001Z</time></trkpt><trkpt lat="45.588828561244426" lon="8.206726484120708"><ele>318.0</ele><time>2026-04-07T14:03:25.001Z</time></trkpt><trkpt lat="45.58880553502705" lon="8.20684328418529"><ele>318.0</ele><time>2026-04-07T14:03:27.001Z</time></trkpt><trkpt lat="45.58881507547112" lon="8.206989463103648"><ele>318.0</ele><time>2026-04-07T14:03:29.001Z</time></trkpt><trkpt lat="45.58873718042863" lon="8.207012788672179"><ele>318.0</ele><time>2026-04-07T14:03:31.001Z</time></trkpt><trkpt lat="45.58867858124451" lon="8.206966602063142"><ele>318.0</ele><time>2026-04-07T14:03:32.001Z</time></trkpt><trkpt lat="45.58862021346488" lon="8.206890772546352"><ele>318.0</ele><time>2026-04-07T14:03:33.001Z</time></trkpt><trkpt lat="45.58856578809008" lon="8.206801355701225"><ele>320.0</ele><time>2026-04-07T14:03:34.001Z</time></trkpt><trkpt lat="45.58851215661421" lon="8.206730240923369"><ele>322.0</ele><time>2026-04-07T14:03:35.001Z</time></trkpt><trkpt lat="45.58843586373965" lon="8.2066052820623"><ele>324.0</ele><time>2026-04-07T14:03:37.001Z</time></trkpt><trkpt lat="45.58837921979704" lon="8.206527591605076"><ele>326.0</ele><time>2026-04-07T14:03:39.001Z</time></trkpt><trkpt lat="45.58831348269744" lon="8.20645882723536"><ele>328.0</ele><time>2026-04-07T14:03:41.001Z</time></trkpt><trkpt lat="45.58819845801269" lon="8.206370483473773"><ele>329.0</ele><time>2026-04-07T14:03:43.001Z</time></trkpt><trkpt lat="45.58814405951217" lon="8.206264016785198"><ele>330.0</ele><time>2026-04-07T14:03:45.001Z</time></trkpt><trkpt lat="45.58806788685993" lon="8.206174283338116"><ele>331.0</ele><time>2026-04-07T14:03:47.001Z</time></trkpt><trkpt lat="45.588024096549745" lon="8.206096995669174"><ele>332.0</ele><time>2026-04-07T14:03:49.001Z</time></trkpt><trkpt lat="45.58805128884345" lon="8.205976706856088"><ele>333.0</ele><time>2026-04-07T14:03:51.001Z</time></trkpt><trkpt lat="45.58814227320552" lon="8.205842173555475"><ele>333.0</ele><time>2026-04-07T14:03:53.001Z</time></trkpt><trkpt lat="45.58820312232264" lon="8.20577599263487"><ele>333.0</ele><time>2026-04-07T14:03:54.001Z</time></trkpt><trkpt lat="45.58825990433675" lon="8.205718139795069"><ele>333.0</ele><time>2026-04-07T14:03:55.001Z</time></trkpt><trkpt lat="45.588322778491666" lon="8.205659390319395"><ele>333.0</ele><time>2026-04-07T14:03:56.001Z</time></trkpt><trkpt lat="45.588394707815624" lon="8.205590159721247"><ele>333.0</ele><time>2026-04-07T14:03:57.001Z</time></trkpt><trkpt lat="45.588471723396076" lon="8.205518918463305"><ele>333.0</ele><time>2026-04-07T14:03:58.001Z</time></trkpt><trkpt lat="45.58855250298292" lon="8.205441213350888"><ele>333.79999999999995</ele><time>2026-04-07T14:03:59.001Z</time></trkpt><trkpt lat="45.58863100019339" lon="8.205365323422805"><ele>334.6</ele><time>2026-04-07T14:04:00.001Z</time></trkpt><trkpt lat="45.588711869487064" lon="8.205295407198388"><ele>335.4</ele><time>2026-04-07T14:04:01.001Z</time></trkpt><trkpt lat="45.58879359225289" lon="8.205225817288596"><ele>336.20000000000005</ele><time>2026-04-07T14:04:02.001Z</time></trkpt><trkpt lat="45.58887625108016" lon="8.205151494311668"><ele>337.0</ele><time>2026-04-07T14:04:03.001Z</time></trkpt><trkpt lat="45.588958711971" lon="8.205076824700088"><ele>337.0</ele><time>2026-04-07T14:04:04.001Z</time></trkpt><trkpt lat="45.589041771097556" lon="8.2049999651297"><ele>337.0</ele><time>2026-04-07T14:04:05.001Z</time></trkpt><trkpt lat="45.58912918613328" lon="8.204922487570432"><ele>337.0</ele><time>2026-04-07T14:04:06.001Z</time></trkpt><trkpt lat="45.5892149520853" lon="8.204846070128488"><ele>337.0</ele><time>2026-04-07T14:04:07.001Z</time></trkpt><trkpt lat="45.58929973265698" lon="8.204765787371294"><ele>337.0</ele><time>2026-04-07T14:04:08.001Z</time></trkpt><trkpt lat="45.58938343420139" lon="8.204684273619954"><ele>336.8</ele><time>2026-04-07T14:04:09.001Z</time></trkpt><trkpt lat="45.58947243604507" lon="8.204604181288973"><ele>336.6</ele><time>2026-04-07T14:04:10.001Z</time></trkpt><trkpt lat="45.58955488361171" lon="8.20452603165242"><ele>336.40000000000003</ele><time>2026-04-07T14:04:11.001Z</time></trkpt><trkpt lat="45.5896377477302" lon="8.204446765458439"><ele>336.20000000000005</ele><time>2026-04-07T14:04:12.001Z</time></trkpt><trkpt lat="45.58971949853624" lon="8.204369127835479"><ele>336.0</ele><time>2026-04-07T14:04:13.001Z</time></trkpt><trkpt lat="45.5898058903435" lon="8.20428966539714"><ele>336.0</ele><time>2026-04-07T14:04:14.001Z</time></trkpt><trkpt lat="45.58988878478946" lon="8.204208359263486"><ele>336.0</ele><time>2026-04-07T14:04:15.001Z</time></trkpt><trkpt lat="45.58997564453473" lon="8.204127359831634"><ele>336.0</ele><time>2026-04-07T14:04:16.001Z</time></trkpt><trkpt lat="45.590061573264045" lon="8.204045491339645"><ele>336.0</ele><time>2026-04-07T14:04:17.001Z</time></trkpt><trkpt lat="45.59014569835903" lon="8.203960896880513"><ele>336.0</ele><time>2026-04-07T14:04:18.001Z</time></trkpt><trkpt lat="45.59023235211351" lon="8.203878647263661"><ele>335.8</ele><time>2026-04-07T14:04:19.001Z</time></trkpt><trkpt lat="45.59031920595439" lon="8.203796510793717"><ele>335.6</ele><time>2026-04-07T14:04:20.001Z</time></trkpt><trkpt lat="45.59040690764474" lon="8.203714578010416"><ele>335.4</ele><time>2026-04-07T14:04:21.001Z</time></trkpt><trkpt lat="45.590499085397994" lon="8.203641236548306"><ele>335.2</ele><time>2026-04-07T14:04:22.001Z</time></trkpt><trkpt lat="45.590596198823434" lon="8.203581629953353"><ele>335.0</ele><time>2026-04-07T14:04:23.001Z</time></trkpt><trkpt lat="45.59069409067516" lon="8.20354422931271"><ele>335.0</ele><time>2026-04-07T14:04:24.001Z</time></trkpt><trkpt lat="45.59079405374441" lon="8.20353444521791"><ele>335.0</ele><time>2026-04-07T14:04:25.001Z</time></trkpt><trkpt lat="45.590894058551136" lon="8.203547927107802"><ele>335.0</ele><time>2026-04-07T14:04:26.001Z</time></trkpt><trkpt lat="45.59098838214563" lon="8.203584624486195"><ele>335.0</ele><time>2026-04-07T14:04:27.001Z</time></trkpt><trkpt lat="45.59108071094408" lon="8.20363533343451"><ele>335.0</ele><time>2026-04-07T14:04:28.001Z</time></trkpt><trkpt lat="45.59116583673039" lon="8.20370290688868"><ele>333.0</ele><time>2026-04-07T14:04:29.001Z</time></trkpt><trkpt lat="45.591238747614334" lon="8.203788111324716"><ele>331.0</ele><time>2026-04-07T14:04:30.001Z</time></trkpt><trkpt lat="45.59130128255796" lon="8.203884661236081"><ele>329.0</ele><time>2026-04-07T14:04:31.001Z</time></trkpt><trkpt lat="45.59135717773687" lon="8.20398976407007"><ele>327.0</ele><time>2026-04-07T14:04:32.001Z</time></trkpt><trkpt lat="45.59139380031565" lon="8.204108669582501"><ele>325.0</ele><time>2026-04-07T14:04:33.001Z</time></trkpt><trkpt lat="45.59142323823941" lon="8.204233021309458"><ele>325.0</ele><time>2026-04-07T14:04:34.001Z</time></trkpt><trkpt lat="45.5914534306926" lon="8.204358446428833"><ele>325.0</ele><time>2026-04-07T14:04:35.001Z</time></trkpt><trkpt lat="45.591485786104734" lon="8.204479689533846"><ele>325.0</ele><time>2026-04-07T14:04:36.001Z</time></trkpt><trkpt lat="45.59151386729895" lon="8.204597320235537"><ele>325.0</ele><time>2026-04-07T14:04:37.001Z</time></trkpt><trkpt lat="45.59154456306056" lon="8.204711342382337"><ele>325.0</ele><time>2026-04-07T14:04:38.001Z</time></trkpt><trkpt lat="45.59157150238573" lon="8.20481898949063"><ele>325.0</ele><time>2026-04-07T14:04:39.001Z</time></trkpt><trkpt lat="45.591587191470246" lon="8.20491736749411"><ele>325.2</ele><time>2026-04-07T14:04:40.001Z</time></trkpt><trkpt lat="45.59161714675927" lon="8.205047769917975"><ele>325.4</ele><time>2026-04-07T14:04:42.001Z</time></trkpt><trkpt lat="45.591655622559145" lon="8.205120669006615"><ele>325.6</ele><time>2026-04-07T14:04:45.001Z</time></trkpt><trkpt lat="45.59166663311411" lon="8.20524695092055"><ele>325.8</ele><time>2026-04-07T14:04:47.001Z</time></trkpt><trkpt lat="45.591684852068916" lon="8.205380587476654"><ele>326.0</ele><time>2026-04-07T14:04:50.001Z</time></trkpt><trkpt lat="45.59170705424281" lon="8.205572316157989"><ele>329.5</ele><time>2026-04-07T14:04:52.002Z</time></trkpt><trkpt lat="45.59169935572387" lon="8.20568023525747"><ele>333.0</ele><time>2026-04-07T14:04:54.002Z</time></trkpt><trkpt lat="45.592392573239394" lon="8.205978098334755"><ele>336.0</ele><time>2026-04-07T14:04:58.002Z</time></trkpt><trkpt lat="45.592466699925716" lon="8.206060949936118"><ele>339.0</ele><time>2026-04-07T14:04:59.002Z</time></trkpt><trkpt lat="45.592533390167404" lon="8.206116667577703"><ele>342.0</ele><time>2026-04-07T14:05:00.002Z</time></trkpt><trkpt lat="45.59259647405013" lon="8.206180718206653"><ele>345.0</ele><time>2026-04-07T14:05:01.002Z</time></trkpt><trkpt lat="45.59264993669741" lon="8.206230714093927"><ele>348.0</ele><time>2026-04-07T14:05:02.002Z</time></trkpt><trkpt lat="45.59271106904138" lon="8.206284874654578"><ele>351.0</ele><time>2026-04-07T14:05:03.001Z</time></trkpt><trkpt lat="45.59276858526501" lon="8.206343839913728"><ele>351.0</ele><time>2026-04-07T14:05:04.001Z</time></trkpt><trkpt lat="45.592824069404195" lon="8.206391287395865"><ele>351.0</ele><time>2026-04-07T14:05:05.001Z</time></trkpt><trkpt lat="45.592886911535295" lon="8.206448015014487"><ele>351.0</ele><time>2026-04-07T14:05:06.001Z</time></trkpt><trkpt lat="45.59294902047051" lon="8.206524899584153"><ele>351.0</ele><time>2026-04-07T14:05:07.001Z</time></trkpt><trkpt lat="45.593003357403106" lon="8.206581540597943"><ele>351.0</ele><time>2026-04-07T14:05:08.001Z</time></trkpt><trkpt lat="45.59306943505078" lon="8.206605656604136"><ele>351.0</ele><time>2026-04-07T14:05:09.001Z</time></trkpt><trkpt lat="45.593189880834146" lon="8.20660304869839"><ele>351.6</ele><time>2026-04-07T14:05:11.001Z</time></trkpt><trkpt lat="45.59327794576932" lon="8.206602845714208"><ele>352.20000000000005</ele><time>2026-04-07T14:05:13.001Z</time></trkpt><trkpt lat="45.59334771319517" lon="8.206509797837557"><ele>352.79999999999995</ele><time>2026-04-07T14:05:16.001Z</time></trkpt><trkpt lat="45.593411965435195" lon="8.206407046880779"><ele>353.4</ele><time>2026-04-07T14:05:18.001Z</time></trkpt><trkpt lat="45.59345107778256" lon="8.206246280239817"><ele>354.0</ele><time>2026-04-07T14:05:20.001Z</time></trkpt><trkpt lat="45.59346914308372" lon="8.206154405303172"><ele>355.5</ele><time>2026-04-07T14:05:21.001Z</time></trkpt><trkpt lat="45.59347382602133" lon="8.206057598399898"><ele>357.0</ele><time>2026-04-07T14:05:22.001Z</time></trkpt><trkpt lat="45.59348013875991" lon="8.205967532060967"><ele>358.5</ele><time>2026-04-07T14:05:23.001Z</time></trkpt><trkpt lat="45.59349758203152" lon="8.20579699401925"><ele>360.0</ele><time>2026-04-07T14:05:25.001Z</time></trkpt><trkpt lat="45.59356691193646" lon="8.205648481156967"><ele>361.5</ele><time>2026-04-07T14:05:27.001Z</time></trkpt><trkpt lat="45.59360225486559" lon="8.205567424873683"><ele>363.0</ele><time>2026-04-07T14:05:28.001Z</time></trkpt><trkpt lat="45.59364922956047" lon="8.205505356142298"><ele>364.4285714285714</ele><time>2026-04-07T14:05:29.001Z</time></trkpt><trkpt lat="45.59369897719857" lon="8.205445140135343"><ele>365.85714285714283</ele><time>2026-04-07T14:05:30.001Z</time></trkpt><trkpt lat="45.5937658754009" lon="8.205433525723578"><ele>367.2857142857143</ele><time>2026-04-07T14:05:31.001Z</time></trkpt><trkpt lat="45.593825999907885" lon="8.20540311201038"><ele>368.71428571428567</ele><time>2026-04-07T14:05:32.001Z</time></trkpt><trkpt lat="45.593901267697966" lon="8.205344990388406"><ele>370.14285714285717</ele><time>2026-04-07T14:05:33.001Z</time></trkpt><trkpt lat="45.59397072157583" lon="8.205292200212273"><ele>371.57142857142856</ele><time>2026-04-07T14:05:34.001Z</time></trkpt><trkpt lat="45.59404406571383" lon="8.205245964148281"><ele>373.0</ele><time>2026-04-07T14:05:35.001Z</time></trkpt><trkpt lat="45.59408824977405" lon="8.205133790714335"><ele>373.0</ele><time>2026-04-07T14:05:36.001Z</time></trkpt><trkpt lat="45.59414054876494" lon="8.205045563806287"><ele>373.0</ele><time>2026-04-07T14:05:37.001Z</time></trkpt><trkpt lat="45.59418268912227" lon="8.20494683975144"><ele>373.0</ele><time>2026-04-07T14:05:38.001Z</time></trkpt><trkpt lat="45.594229165802936" lon="8.20485143572161"><ele>373.0</ele><time>2026-04-07T14:05:39.001Z</time></trkpt><trkpt lat="45.59427795563983" lon="8.204758911721676"><ele>373.0</ele><time>2026-04-07T14:05:40.001Z</time></trkpt><trkpt lat="45.594319113961596" lon="8.204666716644713"><ele>373.0</ele><time>2026-04-07T14:05:41.001Z</time></trkpt><trkpt lat="45.594351602924924" lon="8.20457008463585"><ele>373.0</ele><time>2026-04-07T14:05:42.001Z</time></trkpt><trkpt lat="45.594384527443076" lon="8.204475750866365"><ele>373.0</ele><time>2026-04-07T14:05:43.001Z</time></trkpt><trkpt lat="45.59436556844915" lon="8.204367524098734"><ele>373.0</ele><time>2026-04-07T14:05:44.001Z</time></trkpt><trkpt lat="45.59436844607106" lon="8.204277057679553"><ele>373.0</ele><time>2026-04-07T14:05:45.001Z</time></trkpt><trkpt lat="45.59439849031057" lon="8.204195440074333"><ele>373.0</ele><time>2026-04-07T14:05:46.001Z</time></trkpt><trkpt lat="45.594466400442876" lon="8.204152756324993"><ele>373.0</ele><time>2026-04-07T14:05:47.001Z</time></trkpt><trkpt lat="45.59458576075195" lon="8.204145194215998"><ele>375.16666666666663</ele><time>2026-04-07T14:05:49.001Z</time></trkpt><trkpt lat="45.59461846725072" lon="8.204243288239509"><ele>377.3333333333333</ele><time>2026-04-07T14:05:50.001Z</time></trkpt><trkpt lat="45.59467474121239" lon="8.204310435235115"><ele>379.5</ele><time>2026-04-07T14:05:51.001Z</time></trkpt><trkpt lat="45.59474250862835" lon="8.204357664850598"><ele>381.66666666666663</ele><time>2026-04-07T14:05:52.001Z</time></trkpt><trkpt lat="45.594805647006126" lon="8.204414993839185"><ele>383.8333333333333</ele><time>2026-04-07T14:05:53.001Z</time></trkpt><trkpt lat="45.594873415092636" lon="8.204456725515785"><ele>386.0</ele><time>2026-04-07T14:05:54.001Z</time></trkpt><trkpt lat="45.5949673413802" lon="8.204454202148263"><ele>386.0</ele><time>2026-04-07T14:05:56.001Z</time></trkpt><trkpt lat="45.594982342946786" lon="8.204255217135266"><ele>386.0</ele><time>2026-04-07T14:05:57.001Z</time></trkpt><trkpt lat="45.59497437360896" lon="8.204134289385367"><ele>386.0</ele><time>2026-04-07T14:05:58.001Z</time></trkpt><trkpt lat="45.5949869802492" lon="8.204019995213178"><ele>386.0</ele><time>2026-04-07T14:05:59.001Z</time></trkpt><trkpt lat="45.59500504300923" lon="8.203905823433496"><ele>386.0</ele><time>2026-04-07T14:06:00.001Z</time></trkpt><trkpt lat="45.595036730589186" lon="8.203801297787043"><ele>386.3333333333333</ele><time>2026-04-07T14:06:01.001Z</time></trkpt><trkpt lat="45.59508963840891" lon="8.203719578971745"><ele>386.66666666666663</ele><time>2026-04-07T14:06:02.001Z</time></trkpt><trkpt lat="45.59516363274274" lon="8.203680805927197"><ele>387.0</ele><time>2026-04-07T14:06:03.001Z</time></trkpt><trkpt lat="45.59523420197779" lon="8.203626310505316"><ele>387.33333333333337</ele><time>2026-04-07T14:06:04.001Z</time></trkpt><trkpt lat="45.59530488558904" lon="8.203560221645267"><ele>387.6666666666667</ele><time>2026-04-07T14:06:05.001Z</time></trkpt><trkpt lat="45.59538299993771" lon="8.203509216185925"><ele>388.0</ele><time>2026-04-07T14:06:06.001Z</time></trkpt><trkpt lat="45.59546578771439" lon="8.203469946433582"><ele>388.50000000000006</ele><time>2026-04-07T14:06:07.001Z</time></trkpt><trkpt lat="45.59555385182941" lon="8.203491515362474"><ele>389.0</ele><time>2026-04-07T14:06:08.001Z</time></trkpt><trkpt lat="45.59563484762077" lon="8.203530802702966"><ele>389.5</ele><time>2026-04-07T14:06:09.001Z</time></trkpt><trkpt lat="45.59571755433781" lon="8.203569221400315"><ele>390.0</ele><time>2026-04-07T14:06:10.001Z</time></trkpt><trkpt lat="45.59580056394943" lon="8.203592398938046"><ele>390.50000000000006</ele><time>2026-04-07T14:06:11.001Z</time></trkpt><trkpt lat="45.595877598883696" lon="8.203629409235953"><ele>391.0</ele><time>2026-04-07T14:06:12.001Z</time></trkpt><trkpt lat="45.595938768539014" lon="8.203659349241697"><ele>391.00000000000006</ele><time>2026-04-07T14:06:13.001Z</time></trkpt><trkpt lat="45.595993808627064" lon="8.203704295578705"><ele>391.0</ele><time>2026-04-07T14:06:15.001Z</time></trkpt><trkpt lat="45.59602328376797" lon="8.203544739545245"><ele>391.0</ele><time>2026-04-07T14:06:16.001Z</time></trkpt><trkpt lat="45.59609601593448" lon="8.203460409136584"><ele>391.0</ele><time>2026-04-07T14:06:18.001Z</time></trkpt><trkpt lat="45.59616421859319" lon="8.20345830087424"><ele>391.00000000000006</ele><time>2026-04-07T14:06:19.001Z</time></trkpt><trkpt lat="45.59624115086896" lon="8.203432920579383"><ele>391.0</ele><time>2026-04-07T14:06:20.001Z</time></trkpt><trkpt lat="45.5963265489678" lon="8.203373643882285"><ele>391.00000000000006</ele><time>2026-04-07T14:06:21.001Z</time></trkpt><trkpt lat="45.59640708291186" lon="8.203324520470145"><ele>391.0</ele><time>2026-04-07T14:06:22.001Z</time></trkpt><trkpt lat="45.59648053587209" lon="8.203290431278875"><ele>391.0</ele><time>2026-04-07T14:06:23.001Z</time></trkpt><trkpt lat="45.5965481304074" lon="8.203272162206432"><ele>391.0</ele><time>2026-04-07T14:06:24.001Z</time></trkpt><trkpt lat="45.59661644550839" lon="8.203261491608774"><ele>391.00000000000006</ele><time>2026-04-07T14:06:25.001Z</time></trkpt><trkpt lat="45.59670420136581" lon="8.203122515236867"><ele>391.0</ele><time>2026-04-07T14:06:27.001Z</time></trkpt><trkpt lat="45.596733297580705" lon="8.203031334956293"><ele>391.00000000000006</ele><time>2026-04-07T14:06:28.001Z</time></trkpt><trkpt lat="45.59677124507784" lon="8.202954453742203"><ele>391.0</ele><time>2026-04-07T14:06:29.001Z</time></trkpt><trkpt lat="45.59686530588498" lon="8.202853564289494"><ele>391.0</ele><time>2026-04-07T14:06:31.001Z</time></trkpt><trkpt lat="45.59693299003045" lon="8.202816099461103"><ele>391.0</ele><time>2026-04-07T14:06:32.001Z</time></trkpt><trkpt lat="45.59700078529453" lon="8.2027913590095"><ele>391.00000000000006</ele><time>2026-04-07T14:06:33.001Z</time></trkpt><trkpt lat="45.59706970535179" lon="8.202769637136218"><ele>391.0</ele><time>2026-04-07T14:06:34.001Z</time></trkpt><trkpt lat="45.59715023595607" lon="8.202730568537067"><ele>393.00000000000006</ele><time>2026-04-07T14:06:35.001Z</time></trkpt><trkpt lat="45.59721394086655" lon="8.20266735696098"><ele>395.0</ele><time>2026-04-07T14:06:36.001Z</time></trkpt><trkpt lat="45.597267004389806" lon="8.202610875091361"><ele>397.0</ele><time>2026-04-07T14:06:37.001Z</time></trkpt><trkpt lat="45.597329477510776" lon="8.202582325133054"><ele>399.0</ele><time>2026-04-07T14:06:38.001Z</time></trkpt><trkpt lat="45.59745511731573" lon="8.202578050865448"><ele>401.00000000000006</ele><time>2026-04-07T14:06:40.001Z</time></trkpt><trkpt lat="45.59752020917187" lon="8.202612170012355"><ele>403.0</ele><time>2026-04-07T14:06:41.001Z</time></trkpt><trkpt lat="45.59763270545996" lon="8.20264488402934"><ele>403.00000000000006</ele><time>2026-04-07T14:06:43.001Z</time></trkpt><trkpt lat="45.59771000298616" lon="8.202558115211223"><ele>403.0</ele><time>2026-04-07T14:06:45.001Z</time></trkpt><trkpt lat="45.59772252373864" lon="8.20244281528006"><ele>403.0</ele><time>2026-04-07T14:06:46.001Z</time></trkpt><trkpt lat="45.59771740063599" lon="8.20232730784241"><ele>403.0</ele><time>2026-04-07T14:06:47.001Z</time></trkpt><trkpt lat="45.59768764199561" lon="8.202203392843664"><ele>403.00000000000006</ele><time>2026-04-07T14:06:48.001Z</time></trkpt><trkpt lat="45.59765671820565" lon="8.202101247897687"><ele>403.0</ele><time>2026-04-07T14:06:49.001Z</time></trkpt><trkpt lat="45.59761461907848" lon="8.202002699225863"><ele>401.00000000000006</ele><time>2026-04-07T14:06:50.001Z</time></trkpt><trkpt lat="45.59757206264366" lon="8.201903212991969"><ele>399.0</ele><time>2026-04-07T14:06:51.001Z</time></trkpt><trkpt lat="45.59752806351868" lon="8.201818667447181"><ele>397.0</ele><time>2026-04-07T14:06:52.001Z</time></trkpt><trkpt lat="45.59749011044861" lon="8.201745408727223"><ele>395.0</ele><time>2026-04-07T14:06:53.001Z</time></trkpt><trkpt lat="45.597461614157204" lon="8.201620361853253"><ele>393.00000000000006</ele><time>2026-04-07T14:06:55.001Z</time></trkpt><trkpt lat="45.5974854236431" lon="8.201466834171502"><ele>391.0</ele><time>2026-04-07T14:06:57.001Z</time></trkpt><trkpt lat="45.59751975809501" lon="8.201351238192025"><ele>391.2857142857143</ele><time>2026-04-07T14:06:58.001Z</time></trkpt><trkpt lat="45.597540361016286" lon="8.20126063596319"><ele>391.57142857142856</ele><time>2026-04-07T14:06:59.001Z</time></trkpt><trkpt lat="45.59758095101758" lon="8.201189046033734"><ele>391.8571428571429</ele><time>2026-04-07T14:07:00.001Z</time></trkpt><trkpt lat="45.59763267436633" lon="8.201069413693657"><ele>392.1428571428571</ele><time>2026-04-07T14:07:02.001Z</time></trkpt><trkpt lat="45.59768768196406" lon="8.201016565629677"><ele>392.42857142857144</ele><time>2026-04-07T14:07:04.001Z</time></trkpt><trkpt lat="45.59774308683635" lon="8.200973368443472"><ele>392.7142857142857</ele><time>2026-04-07T14:07:21.001Z</time></trkpt><trkpt lat="45.59781320512557" lon="8.200944913631464"><ele>393.0</ele><time>2026-04-07T14:07:23.001Z</time></trkpt><trkpt lat="45.597952334474876" lon="8.200922353712434"><ele>393.0</ele><time>2026-04-07T14:07:25.001Z</time></trkpt><trkpt lat="45.59801651517672" lon="8.20088846014436"><ele>393.0</ele><time>2026-04-07T14:07:26.001Z</time></trkpt><trkpt lat="45.59808599211208" lon="8.200881715326057"><ele>393.0</ele><time>2026-04-07T14:07:27.001Z</time></trkpt><trkpt lat="45.59815823035565" lon="8.200901343468736"><ele>393.0</ele><time>2026-04-07T14:07:28.001Z</time></trkpt><trkpt lat="45.59824168421874" lon="8.200888176864366"><ele>393.0</ele><time>2026-04-07T14:07:30.001Z</time></trkpt><trkpt lat="45.59822215655292" lon="8.20073327342138"><ele>393.0</ele><time>2026-04-07T14:07:32.001Z</time></trkpt><trkpt lat="45.598194204113334" lon="8.20060843424248"><ele>393.0</ele><time>2026-04-07T14:07:34.001Z</time></trkpt><trkpt lat="45.598125293861074" lon="8.200639250220288"><ele>393.0</ele><time>2026-04-07T14:07:39.001Z</time></trkpt><trkpt lat="45.598111638181656" lon="8.200731786006568"><ele>393.0</ele><time>2026-04-07T14:07:40.001Z</time></trkpt><trkpt lat="45.59798680448576" lon="8.200703471455592"><ele>393.0</ele><time>2026-04-07T14:07:43.001Z</time></trkpt><trkpt lat="45.59791669197307" lon="8.200645549416231"><ele>393.0</ele><time>2026-04-07T14:07:44.001Z</time></trkpt><trkpt lat="45.597872493118984" lon="8.200509470633795"><ele>391.3333333333333</ele><time>2026-04-07T14:07:46.001Z</time></trkpt><trkpt lat="45.597849817430955" lon="8.20038993193412"><ele>389.6666666666667</ele><time>2026-04-07T14:07:48.001Z</time></trkpt><trkpt lat="45.59791050437356" lon="8.200453679886705"><ele>388.0</ele><time>2026-04-07T14:07:51.001Z</time></trkpt><trkpt lat="45.59796678752848" lon="8.200552624486972"><ele>386.33333333333337</ele><time>2026-04-07T14:07:52.001Z</time></trkpt><trkpt lat="45.59803167882513" lon="8.200628884618679"><ele>384.6666666666667</ele><time>2026-04-07T14:07:54.001Z</time></trkpt><trkpt lat="45.598044284331706" lon="8.200517704837765"><ele>383.0</ele><time>2026-04-07T14:07:56.001Z</time></trkpt><trkpt lat="45.598088728589985" lon="8.200354310763695"><ele>383.0</ele><time>2026-04-07T14:07:58.001Z</time></trkpt><trkpt lat="45.59813359070147" lon="8.200216763639531"><ele>383.0</ele><time>2026-04-07T14:08:00.001Z</time></trkpt><trkpt lat="45.59812585195375" lon="8.200081083541995"><ele>383.0</ele><time>2026-04-07T14:08:02.001Z</time></trkpt><trkpt lat="45.59810186567477" lon="8.199983788762284"><ele>383.0</ele><time>2026-04-07T14:08:03.001Z</time></trkpt><trkpt lat="45.598052802187496" lon="8.199923163664213"><ele>383.0</ele><time>2026-04-07T14:08:04.001Z</time></trkpt><trkpt lat="45.59800664027197" lon="8.199829831480335"><ele>383.0</ele><time>2026-04-07T14:08:05.001Z</time></trkpt><trkpt lat="45.59794469674843" lon="8.199760134780922"><ele>381.7142857142857</ele><time>2026-04-07T14:08:06.001Z</time></trkpt><trkpt lat="45.59791267024754" lon="8.199666661477105"><ele>380.42857142857144</ele><time>2026-04-07T14:08:07.001Z</time></trkpt><trkpt lat="45.59787524249552" lon="8.199571759037367"><ele>379.1428571428571</ele><time>2026-04-07T14:08:08.001Z</time></trkpt><trkpt lat="45.597822425063235" lon="8.199494174643299"><ele>377.8571428571429</ele><time>2026-04-07T14:08:09.001Z</time></trkpt><trkpt lat="45.59779458160845" lon="8.199409263562185"><ele>376.5714285714286</ele><time>2026-04-07T14:08:10.001Z</time></trkpt><trkpt lat="45.59777176380752" lon="8.199315398850866"><ele>375.2857142857143</ele><time>2026-04-07T14:08:11.001Z</time></trkpt><trkpt lat="45.59773546114423" lon="8.199214552830595"><ele>374.0</ele><time>2026-04-07T14:08:12.001Z</time></trkpt><trkpt lat="45.59770390462065" lon="8.199135285717718"><ele>370.6666666666667</ele><time>2026-04-07T14:08:13.001Z</time></trkpt><trkpt lat="45.59769145731839" lon="8.199040813489368"><ele>367.33333333333337</ele><time>2026-04-07T14:08:14.001Z</time></trkpt><trkpt lat="45.597730064008246" lon="8.198915334958748"><ele>364.0</ele><time>2026-04-07T14:08:16.001Z</time></trkpt><trkpt lat="45.59776636314422" lon="8.198840309525055"><ele>360.6666666666667</ele><time>2026-04-07T14:08:17.001Z</time></trkpt><trkpt lat="45.59780852500797" lon="8.198762357780621"><ele>357.3333333333333</ele><time>2026-04-07T14:08:18.001Z</time></trkpt><trkpt lat="45.5978237635512" lon="8.19866808643959"><ele>354.0</ele><time>2026-04-07T14:08:19.001Z</time></trkpt><trkpt lat="45.59788270475007" lon="8.198518087745365"><ele>354.0</ele><time>2026-04-07T14:08:21.001Z</time></trkpt><trkpt lat="45.59793448554188" lon="8.198462178162263"><ele>354.0</ele><time>2026-04-07T14:08:22.001Z</time></trkpt><trkpt lat="45.59788221455974" lon="8.198358435200053"><ele>354.0</ele><time>2026-04-07T14:08:25.001Z</time></trkpt><trkpt lat="45.59787167485698" lon="8.19817567627953"><ele>354.0</ele><time>2026-04-07T14:08:27.001Z</time></trkpt><trkpt lat="45.59787446873356" lon="8.198056311548818"><ele>354.0</ele><time>2026-04-07T14:08:28.001Z</time></trkpt><trkpt lat="45.59786832763394" lon="8.19788241209542"><ele>352.3333333333333</ele><time>2026-04-07T14:08:30.001Z</time></trkpt><trkpt lat="45.59784681880516" lon="8.197729347996352"><ele>350.6666666666667</ele><time>2026-04-07T14:08:32.001Z</time></trkpt><trkpt lat="45.59782356368807" lon="8.197601780680587"><ele>349.0</ele><time>2026-04-07T14:08:34.001Z</time></trkpt><trkpt lat="45.59791001479777" lon="8.197522758701817"><ele>347.33333333333337</ele><time>2026-04-07T14:08:36.001Z</time></trkpt><trkpt lat="45.59793646704821" lon="8.197440042967843"><ele>345.6666666666667</ele><time>2026-04-07T14:08:38.001Z</time></trkpt><trkpt lat="45.59797682005764" lon="8.197355013325188"><ele>344.0</ele><time>2026-04-07T14:08:41.001Z</time></trkpt><trkpt lat="45.5980638005384" lon="8.197301920075809"><ele>344.0</ele><time>2026-04-07T14:08:43.001Z</time></trkpt><trkpt lat="45.59814744863421" lon="8.197230778964894"><ele>344.0</ele><time>2026-04-07T14:08:46Z</time></trkpt><trkpt lat="45.598253850934654" lon="8.19707808976252"><ele>344.0</ele><time>2026-04-07T14:08:48Z</time></trkpt><trkpt lat="45.59830865615246" lon="8.197029193952819"><ele>344.0</ele><time>2026-04-07T14:08:50Z</time></trkpt><trkpt lat="45.59840552473685" lon="8.197006325507793"><ele>344.0</ele><time>2026-04-07T14:08:53Z</time></trkpt><trkpt lat="45.59851442394066" lon="8.197029508541778"><ele>344.0</ele><time>2026-04-07T14:08:59Z</time></trkpt><trkpt lat="45.59857703884245" lon="8.197053594662547"><ele>344.0</ele><time>2026-04-07T14:09:01Z</time></trkpt><trkpt lat="45.59866249188526" lon="8.19712313684731"><ele>344.0</ele><time>2026-04-07T14:09:03.001Z</time></trkpt><trkpt lat="45.59879159326257" lon="8.197109554845651"><ele>344.0</ele><time>2026-04-07T14:09:05.001Z</time></trkpt><trkpt lat="45.59884589507084" lon="8.19715801716694"><ele>344.0</ele><time>2026-04-07T14:09:06.001Z</time></trkpt><trkpt lat="45.59891187126718" lon="8.197229586928737"><ele>344.0</ele><time>2026-04-07T14:09:07.001Z</time></trkpt><trkpt lat="45.59898021445803" lon="8.197271108658413"><ele>344.4</ele><time>2026-04-07T14:09:08.001Z</time></trkpt><trkpt lat="45.59905166864156" lon="8.197296295193988"><ele>344.79999999999995</ele><time>2026-04-07T14:09:10.001Z</time></trkpt><trkpt lat="45.599086857696776" lon="8.197390438970048"><ele>345.20000000000005</ele><time>2026-04-07T14:09:12.001Z</time></trkpt><trkpt lat="45.59923058599757" lon="8.19737308679028"><ele>345.6</ele><time>2026-04-07T14:09:14.001Z</time></trkpt><trkpt lat="45.599333001793134" lon="8.197359411123724"><ele>346.0</ele><time>2026-04-07T14:09:15.001Z</time></trkpt><trkpt lat="45.5994406159692" lon="8.197351098839071"><ele>345.6</ele><time>2026-04-07T14:09:16.001Z</time></trkpt><trkpt lat="45.59954873138929" lon="8.19728517217135"><ele>345.20000000000005</ele><time>2026-04-07T14:09:18.001Z</time></trkpt><trkpt lat="45.59962268251462" lon="8.197200625154023"><ele>344.79999999999995</ele><time>2026-04-07T14:09:19.001Z</time></trkpt><trkpt lat="45.59972667620578" lon="8.197302698205732"><ele>344.4</ele><time>2026-04-07T14:09:21.001Z</time></trkpt><trkpt lat="45.59980281186039" lon="8.197392151807772"><ele>344.0</ele><time>2026-04-07T14:09:23.001Z</time></trkpt><trkpt lat="45.59975755309998" lon="8.197507846322006"><ele>344.0</ele><time>2026-04-07T14:09:30.001Z</time></trkpt><trkpt lat="45.59968237197208" lon="8.197518400044435"><ele>344.0</ele><time>2026-04-07T14:09:32.001Z</time></trkpt><trkpt lat="45.599726833644986" lon="8.197643631650848"><ele>344.0</ele><time>2026-04-07T14:09:35.001Z</time></trkpt><trkpt lat="45.599800063533216" lon="8.197705278916875"><ele>344.0</ele><time>2026-04-07T14:09:37.001Z</time></trkpt><trkpt lat="45.59979346292295" lon="8.197851980982277"><ele>344.0</ele><time>2026-04-07T14:09:40.001Z</time></trkpt><trkpt lat="45.59983137801499" lon="8.197988464219742"><ele>344.0</ele><time>2026-04-07T14:09:42Z</time></trkpt><trkpt lat="45.59978019969384" lon="8.19810619572465"><ele>344.0</ele><time>2026-04-07T14:09:45Z</time></trkpt><trkpt lat="45.59973108933369" lon="8.198193743621486"><ele>344.0</ele><time>2026-04-07T14:09:47Z</time></trkpt><trkpt lat="45.59962759377558" lon="8.198343769944268"><ele>344.0</ele><time>2026-04-07T14:09:49Z</time></trkpt><trkpt lat="45.59959710628753" lon="8.198452536022243"><ele>344.0</ele><time>2026-04-07T14:09:51Z</time></trkpt><trkpt lat="45.59951461416802" lon="8.198478747908519"><ele>346.33333333333337</ele><time>2026-04-07T14:09:53Z</time></trkpt><trkpt lat="45.59948616113465" lon="8.198583955864066"><ele>348.6666666666667</ele><time>2026-04-07T14:09:55Z</time></trkpt><trkpt lat="45.59948747776752" lon="8.198709862098786"><ele>351.0</ele><time>2026-04-07T14:09:56Z</time></trkpt><trkpt lat="45.59947359934893" lon="8.198818731128156"><ele>353.3333333333333</ele><time>2026-04-07T14:09:57Z</time></trkpt><trkpt lat="45.599422078622965" lon="8.198925108782232"><ele>355.66666666666663</ele><time>2026-04-07T14:10:00Z</time></trkpt><trkpt lat="45.59938379955947" lon="8.199019008707948"><ele>358.0</ele><time>2026-04-07T14:10:01Z</time></trkpt><trkpt lat="45.599382733341265" lon="8.199129153134729"><ele>358.79999999999995</ele><time>2026-04-07T14:10:03Z</time></trkpt><trkpt lat="45.59938407572087" lon="8.199219146829579"><ele>359.6</ele><time>2026-04-07T14:10:04Z</time></trkpt><trkpt lat="45.59937533891568" lon="8.19943010877904"><ele>360.4</ele><time>2026-04-07T14:10:06Z</time></trkpt><trkpt lat="45.599410854946754" lon="8.199558545632858"><ele>361.20000000000005</ele><time>2026-04-07T14:10:08Z</time></trkpt><trkpt lat="45.59948012515527" lon="8.199622832194965"><ele>362.0</ele><time>2026-04-07T14:10:11Z</time></trkpt><trkpt lat="45.59953021490871" lon="8.199752410347157"><ele>367.33333333333337</ele><time>2026-04-07T14:10:13Z</time></trkpt><trkpt lat="45.59949743486771" lon="8.199897492832855"><ele>372.6666666666667</ele><time>2026-04-07T14:10:15Z</time></trkpt><trkpt lat="45.59945956450524" lon="8.200001788120725"><ele>378.0</ele><time>2026-04-07T14:10:17Z</time></trkpt><trkpt lat="45.59941758323334" lon="8.200095963277343"><ele>383.33333333333337</ele><time>2026-04-07T14:10:18Z</time></trkpt><trkpt lat="45.59939464765862" lon="8.200211721817563"><ele>388.6666666666667</ele><time>2026-04-07T14:10:19Z</time></trkpt><trkpt lat="45.599395515462035" lon="8.200344576399928"><ele>394.0</ele><time>2026-04-07T14:10:21Z</time></trkpt><trkpt lat="45.5993609191985" lon="8.200460701077118"><ele>394.0</ele><time>2026-04-07T14:10:23Z</time></trkpt><trkpt lat="45.59931855342811" lon="8.200566765079202"><ele>394.0</ele><time>2026-04-07T14:10:25Z</time></trkpt><trkpt lat="45.59934267577796" lon="8.200688736287816"><ele>394.0</ele><time>2026-04-07T14:10:27Z</time></trkpt><trkpt lat="45.59932561565966" lon="8.20082112460361"><ele>394.0</ele><time>2026-04-07T14:10:30Z</time></trkpt><trkpt lat="45.599374770710384" lon="8.200943165068184"><ele>394.0</ele><time>2026-04-07T14:10:31Z</time></trkpt><trkpt lat="45.59943192527993" lon="8.20105703319736"><ele>395.83333333333337</ele><time>2026-04-07T14:10:32Z</time></trkpt><trkpt lat="45.59945080769861" lon="8.201156817653674"><ele>397.6666666666667</ele><time>2026-04-07T14:10:33Z</time></trkpt><trkpt lat="45.599373095492474" lon="8.201205594205268"><ele>399.5</ele><time>2026-04-07T14:10:35Z</time></trkpt><trkpt lat="45.59939342011264" lon="8.201291253563229"><ele>401.33333333333337</ele><time>2026-04-07T14:10:37Z</time></trkpt><trkpt lat="45.59944818706152" lon="8.201390046908683"><ele>403.1666666666667</ele><time>2026-04-07T14:10:39Z</time></trkpt><trkpt lat="45.59940578052354" lon="8.201476053359304"><ele>405.0</ele><time>2026-04-07T14:10:41Z</time></trkpt><trkpt lat="45.59939570062456" lon="8.201606388358229"><ele>407.0</ele><time>2026-04-07T14:10:43Z</time></trkpt><trkpt lat="45.599325877228274" lon="8.201651544715848"><ele>409.0</ele><time>2026-04-07T14:10:45Z</time></trkpt><trkpt lat="45.59921241653592" lon="8.201765178543342"><ele>411.0</ele><time>2026-04-07T14:10:47Z</time></trkpt><trkpt lat="45.59917305200849" lon="8.20186207901591"><ele>413.0</ele><time>2026-04-07T14:10:48Z</time></trkpt><trkpt lat="45.599140287759305" lon="8.201967180185772"><ele>415.0</ele><time>2026-04-07T14:10:49Z</time></trkpt><trkpt lat="45.599093303789566" lon="8.20207083144585"><ele>415.00000000000006</ele><time>2026-04-07T14:10:50Z</time></trkpt><trkpt lat="45.599056767625925" lon="8.202152698534434"><ele>415.0</ele><time>2026-04-07T14:10:51Z</time></trkpt><trkpt lat="45.59911501505569" lon="8.202231888419846"><ele>415.0</ele><time>2026-04-07T14:10:53Z</time></trkpt><trkpt lat="45.59917889529378" lon="8.202238574446692"><ele>415.0</ele><time>2026-04-07T14:10:54Z</time></trkpt><trkpt lat="45.59924847812119" lon="8.202207165654697"><ele>415.00000000000006</ele><time>2026-04-07T14:10:55Z</time></trkpt><trkpt lat="45.59936374765565" lon="8.202336711531423"><ele>415.0</ele><time>2026-04-07T14:10:57Z</time></trkpt><trkpt lat="45.59940654382904" lon="8.202420883137172"><ele>417.2</ele><time>2026-04-07T14:10:58Z</time></trkpt><trkpt lat="45.59940257729406" lon="8.202543723919431"><ele>419.4</ele><time>2026-04-07T14:11:00Z</time></trkpt><trkpt lat="45.599317366761525" lon="8.202620199315303"><ele>421.6</ele><time>2026-04-07T14:11:02Z</time></trkpt><trkpt lat="45.599229420860645" lon="8.202744496715498"><ele>423.8</ele><time>2026-04-07T14:11:04Z</time></trkpt><trkpt lat="45.59923171640106" lon="8.202839991359747"><ele>426.0</ele><time>2026-04-07T14:11:05Z</time></trkpt><trkpt lat="45.599246166926456" lon="8.202960254694299"><ele>426.0</ele><time>2026-04-07T14:11:06Z</time></trkpt><trkpt lat="45.59925644807035" lon="8.203097303163311"><ele>426.0</ele><time>2026-04-07T14:11:07Z</time></trkpt><trkpt lat="45.59926028803263" lon="8.20322302668264"><ele>426.0</ele><time>2026-04-07T14:11:08.001Z</time></trkpt><trkpt lat="45.59931112718177" lon="8.203344797391397"><ele>426.0</ele><time>2026-04-07T14:11:10.001Z</time></trkpt><trkpt lat="45.599360634844814" lon="8.20341774540239"><ele>426.0</ele><time>2026-04-07T14:11:11.001Z</time></trkpt><trkpt lat="45.599407062768144" lon="8.20351796595325"><ele>426.0</ele><time>2026-04-07T14:11:12.001Z</time></trkpt><trkpt lat="45.599457811495455" lon="8.203624320661845"><ele>425.6</ele><time>2026-04-07T14:11:13.001Z</time></trkpt><trkpt lat="45.599525036275" lon="8.203745660860422"><ele>425.20000000000005</ele><time>2026-04-07T14:11:14.001Z</time></trkpt><trkpt lat="45.5995892575318" lon="8.203861593500271"><ele>424.79999999999995</ele><time>2026-04-07T14:11:15.001Z</time></trkpt><trkpt lat="45.59964252174803" lon="8.203978511524673"><ele>424.4</ele><time>2026-04-07T14:11:16.001Z</time></trkpt><trkpt lat="45.5997022847823" lon="8.204072495602944"><ele>424.0</ele><time>2026-04-07T14:11:17.001Z</time></trkpt><trkpt lat="45.59976376821735" lon="8.2041457592119"><ele>426.00000000000006</ele><time>2026-04-07T14:11:18.001Z</time></trkpt><trkpt lat="45.59981879904382" lon="8.204216747880208"><ele>428.0</ele><time>2026-04-07T14:11:19.001Z</time></trkpt><trkpt lat="45.59989988462605" lon="8.20431207008406"><ele>430.0</ele><time>2026-04-07T14:11:21.001Z</time></trkpt><trkpt lat="45.599965895342" lon="8.204399010341563"><ele>432.0</ele><time>2026-04-07T14:11:23.001Z</time></trkpt><trkpt lat="45.59999254813918" lon="8.204483995069287"><ele>434.00000000000006</ele><time>2026-04-07T14:11:24.001Z</time></trkpt><trkpt lat="45.600014061162106" lon="8.20458457573326"><ele>436.0</ele><time>2026-04-07T14:11:25.001Z</time></trkpt><trkpt lat="45.60002765089797" lon="8.20467519721638"><ele>436.00000000000006</ele><time>2026-04-07T14:11:26.001Z</time></trkpt><trkpt lat="45.600037220502536" lon="8.204767760004497"><ele>436.0</ele><time>2026-04-07T14:11:27.001Z</time></trkpt><trkpt lat="45.60007097333691" lon="8.20484901664446"><ele>436.0</ele><time>2026-04-07T14:11:28Z</time></trkpt><trkpt lat="45.60011917280245" lon="8.204954455938513"><ele>436.0</ele><time>2026-04-07T14:11:29Z</time></trkpt><trkpt lat="45.60015703094639" lon="8.205042899608124"><ele>436.00000000000006</ele><time>2026-04-07T14:11:30Z</time></trkpt><trkpt lat="45.60022942045645" lon="8.205145772689368"><ele>436.0</ele><time>2026-04-07T14:11:32Z</time></trkpt><trkpt lat="45.600309470423696" lon="8.205210606052143"><ele>434.6666666666667</ele><time>2026-04-07T14:11:34Z</time></trkpt><trkpt lat="45.60036651440466" lon="8.205281987495106"><ele>433.33333333333337</ele><time>2026-04-07T14:11:36Z</time></trkpt><trkpt lat="45.600364271199034" lon="8.205398008889107"><ele>432.0</ele><time>2026-04-07T14:11:40Z</time></trkpt><trkpt lat="45.60044345926061" lon="8.205516029512784"><ele>430.66666666666663</ele><time>2026-04-07T14:11:42Z</time></trkpt><trkpt lat="45.60050387024629" lon="8.205552613954609"><ele>429.3333333333333</ele><time>2026-04-07T14:11:43Z</time></trkpt><trkpt lat="45.60057807422136" lon="8.205574672480715"><ele>428.0</ele><time>2026-04-07T14:11:44Z</time></trkpt><trkpt lat="45.60065195037763" lon="8.205594614589161"><ele>428.00000000000006</ele><time>2026-04-07T14:11:45Z</time></trkpt><trkpt lat="45.60072205304953" lon="8.20561809470522"><ele>428.0</ele><time>2026-04-07T14:11:46Z</time></trkpt><trkpt lat="45.60078952739954" lon="8.205627347450404"><ele>428.0</ele><time>2026-04-07T14:11:47Z</time></trkpt><trkpt lat="45.60085471773496" lon="8.205626135001559"><ele>428.0</ele><time>2026-04-07T14:11:48Z</time></trkpt><trkpt lat="45.600920493711314" lon="8.205650405659712"><ele>428.0</ele><time>2026-04-07T14:11:49Z</time></trkpt><trkpt lat="45.60098657949247" lon="8.205661069086359"><ele>428.00000000000006</ele><time>2026-04-07T14:11:50Z</time></trkpt><trkpt lat="45.60106107428831" lon="8.205634279374681"><ele>428.0</ele><time>2026-04-07T14:11:51Z</time></trkpt><trkpt lat="45.60112070167755" lon="8.205588838913846"><ele>426.3333333333333</ele><time>2026-04-07T14:11:52Z</time></trkpt><trkpt lat="45.60117380742176" lon="8.205512236340919"><ele>424.66666666666663</ele><time>2026-04-07T14:11:53Z</time></trkpt><trkpt lat="45.601222384297074" lon="8.205431156573415"><ele>423.0</ele><time>2026-04-07T14:11:54Z</time></trkpt><trkpt lat="45.601292403627376" lon="8.205400103298603"><ele>421.33333333333337</ele><time>2026-04-07T14:11:55Z</time></trkpt><trkpt lat="45.60139121294257" lon="8.205411171939044"><ele>419.6666666666667</ele><time>2026-04-07T14:11:57Z</time></trkpt><trkpt lat="45.60146294854062" lon="8.205540642510051"><ele>418.0</ele><time>2026-04-07T14:11:59Z</time></trkpt><trkpt lat="45.60150281842982" lon="8.205644497034381"><ele>420.33333333333337</ele><time>2026-04-07T14:12:00Z</time></trkpt><trkpt lat="45.60154485403696" lon="8.205732657182992"><ele>422.6666666666667</ele><time>2026-04-07T14:12:01Z</time></trkpt><trkpt lat="45.601605127126724" lon="8.205789520291924"><ele>425.0</ele><time>2026-04-07T14:12:02Z</time></trkpt><trkpt lat="45.60166636366817" lon="8.205839556418562"><ele>427.33333333333337</ele><time>2026-04-07T14:12:03Z</time></trkpt><trkpt lat="45.601739381273795" lon="8.205890937430242"><ele>429.6666666666667</ele><time>2026-04-07T14:12:04Z</time></trkpt><trkpt lat="45.601846177332604" lon="8.205947850052194"><ele>432.0</ele><time>2026-04-07T14:12:06Z</time></trkpt><trkpt lat="45.60195470877985" lon="8.205979186941944"><ele>432.0</ele><time>2026-04-07T14:12:08Z</time></trkpt><trkpt lat="45.60201932103968" lon="8.205945782970474"><ele>432.00000000000006</ele><time>2026-04-07T14:12:10Z</time></trkpt><trkpt lat="45.601967269546996" lon="8.205889987455677"><ele>432.00000000000006</ele><time>2026-04-07T14:12:13Z</time></trkpt><trkpt lat="45.6018679850966" lon="8.20585546839293"><ele>432.0</ele><time>2026-04-07T14:12:15Z</time></trkpt><trkpt lat="45.6017585284343" lon="8.205797643226619"><ele>432.0</ele><time>2026-04-07T14:12:16Z</time></trkpt><trkpt lat="45.601673989094365" lon="8.205700185069366"><ele>429.20000000000005</ele><time>2026-04-07T14:12:17Z</time></trkpt><trkpt lat="45.60159518830329" lon="8.205590872788708"><ele>426.40000000000003</ele><time>2026-04-07T14:12:18Z</time></trkpt><trkpt lat="45.60155493591642" lon="8.205474325105474"><ele>423.6</ele><time>2026-04-07T14:12:19Z</time></trkpt><trkpt lat="45.6015261769844" lon="8.20535919672101"><ele>420.79999999999995</ele><time>2026-04-07T14:12:20Z</time></trkpt><trkpt lat="45.60151900311385" lon="8.20520459812837"><ele>418.0</ele><time>2026-04-07T14:12:22Z</time></trkpt><trkpt lat="45.601550222820144" lon="8.205097096462765"><ele>418.00000000000006</ele><time>2026-04-07T14:12:23Z</time></trkpt><trkpt lat="45.601548158880874" lon="8.20499522058954"><ele>418.0</ele><time>2026-04-07T14:12:24Z</time></trkpt><trkpt lat="45.601525935509606" lon="8.20491024767094"><ele>418.0</ele><time>2026-04-07T14:12:25Z</time></trkpt><trkpt lat="45.60142278320477" lon="8.20490701620839"><ele>418.0</ele><time>2026-04-07T14:12:27Z</time></trkpt><trkpt lat="45.60132750606264" lon="8.204915231155523"><ele>418.00000000000006</ele><time>2026-04-07T14:12:28Z</time></trkpt><trkpt lat="45.601220540930115" lon="8.20490520623857"><ele>418.0</ele><time>2026-04-07T14:12:29Z</time></trkpt><trkpt lat="45.60112976792482" lon="8.20492219519683"><ele>418.2</ele><time>2026-04-07T14:12:30Z</time></trkpt><trkpt lat="45.601054045849175" lon="8.20498012295698"><ele>418.4</ele><time>2026-04-07T14:12:31Z</time></trkpt><trkpt lat="45.60097521955897" lon="8.20502424608063"><ele>418.59999999999997</ele><time>2026-04-07T14:12:32Z</time></trkpt><trkpt lat="45.60087546114152" lon="8.20498261533085"><ele>418.79999999999995</ele><time>2026-04-07T14:12:34Z</time></trkpt><trkpt lat="45.60079920138942" lon="8.204805294423146"><ele>419.0</ele><time>2026-04-07T14:12:36Z</time></trkpt><trkpt lat="45.60082646412828" lon="8.204629191458796"><ele>418.99999999999994</ele><time>2026-04-07T14:12:38Z</time></trkpt><trkpt lat="45.600858987090795" lon="8.204542330884454"><ele>419.0</ele><time>2026-04-07T14:12:39Z</time></trkpt><trkpt lat="45.600887664490045" lon="8.20444707890385"><ele>419.0</ele><time>2026-04-07T14:12:40Z</time></trkpt><trkpt lat="45.600811080418914" lon="8.204306108840536"><ele>419.0</ele><time>2026-04-07T14:12:42Z</time></trkpt><trkpt lat="45.6007406225776" lon="8.204243454010285"><ele>418.99999999999994</ele><time>2026-04-07T14:12:43Z</time></trkpt><trkpt lat="45.60073963210936" lon="8.204117914003222"><ele>419.0</ele><time>2026-04-07T14:12:45Z</time></trkpt><trkpt lat="45.60079245238185" lon="8.20404765475974"><ele>418.4</ele><time>2026-04-07T14:12:46Z</time></trkpt><trkpt lat="45.600905147281416" lon="8.203952157928802"><ele>417.79999999999995</ele><time>2026-04-07T14:12:47Z</time></trkpt><trkpt lat="45.60096168203972" lon="8.203853909951972"><ele>417.20000000000005</ele><time>2026-04-07T14:12:48Z</time></trkpt><trkpt lat="45.600978662523836" lon="8.203729772961973"><ele>416.6</ele><time>2026-04-07T14:12:49Z</time></trkpt><trkpt lat="45.60100109140242" lon="8.203596476323222"><ele>416.0</ele><time>2026-04-07T14:12:50Z</time></trkpt><trkpt lat="45.60105500420317" lon="8.20347205667601"><ele>416.0</ele><time>2026-04-07T14:12:51Z</time></trkpt><trkpt lat="45.601130250458716" lon="8.203382436949687"><ele>416.0</ele><time>2026-04-07T14:12:52Z</time></trkpt><trkpt lat="45.60121014752314" lon="8.203322030869407"><ele>416.0</ele><time>2026-04-07T14:12:53Z</time></trkpt><trkpt lat="45.601283948621884" lon="8.203240005527949"><ele>416.0</ele><time>2026-04-07T14:12:54Z</time></trkpt><trkpt lat="45.60136339076682" lon="8.203158091780438"><ele>416.0</ele><time>2026-04-07T14:12:55Z</time></trkpt><trkpt lat="45.60143194608477" lon="8.203126274940029"><ele>415.66666666666663</ele><time>2026-04-07T14:12:56Z</time></trkpt><trkpt lat="45.60150764274183" lon="8.203095616168655"><ele>415.3333333333333</ele><time>2026-04-07T14:12:57Z</time></trkpt><trkpt lat="45.6015552599324" lon="8.203036570152893"><ele>415.0</ele><time>2026-04-07T14:12:58Z</time></trkpt><trkpt lat="45.601570490268074" lon="8.202851142467265"><ele>414.66666666666663</ele><time>2026-04-07T14:13:00Z</time></trkpt><trkpt lat="45.60157213522117" lon="8.202741707633598"><ele>414.3333333333333</ele><time>2026-04-07T14:13:01Z</time></trkpt><trkpt lat="45.60154775796814" lon="8.202640418795266"><ele>414.0</ele><time>2026-04-07T14:13:02Z</time></trkpt><trkpt lat="45.60157871938708" lon="8.202499137549896"><ele>414.0</ele><time>2026-04-07T14:13:04Z</time></trkpt><trkpt lat="45.60164991834142" lon="8.202331439530624"><ele>414.0</ele><time>2026-04-07T14:13:06Z</time></trkpt><trkpt lat="45.60167032452923" lon="8.20223794777261"><ele>414.0</ele><time>2026-04-07T14:13:07Z</time></trkpt><trkpt lat="45.60166279382303" lon="8.202101178557772"><ele>414.0</ele><time>2026-04-07T14:13:09Z</time></trkpt><trkpt lat="45.601596444368994" lon="8.202004650544758"><ele>414.0</ele><time>2026-04-07T14:13:10Z</time></trkpt><trkpt lat="45.60155205388608" lon="8.20186642519095"><ele>414.0</ele><time>2026-04-07T14:13:11Z</time></trkpt><trkpt lat="45.601570490323915" lon="8.201721337632453"><ele>414.0</ele><time>2026-04-07T14:13:13Z</time></trkpt><trkpt lat="45.60164685932332" lon="8.201635147170395"><ele>414.0</ele><time>2026-04-07T14:13:15.001Z</time></trkpt><trkpt lat="45.60174860754768" lon="8.2015660178053"><ele>414.0</ele><time>2026-04-07T14:13:17.001Z</time></trkpt><trkpt lat="45.60185305237184" lon="8.201486877992119"><ele>414.0</ele><time>2026-04-07T14:13:19.001Z</time></trkpt><trkpt lat="45.601884880049326" lon="8.201408751277873"><ele>413.2</ele><time>2026-04-07T14:13:20.001Z</time></trkpt><trkpt lat="45.60192360021166" lon="8.201320427508943"><ele>412.4</ele><time>2026-04-07T14:13:21.001Z</time></trkpt><trkpt lat="45.60200752457778" lon="8.201214808243979"><ele>411.6</ele><time>2026-04-07T14:13:23.001Z</time></trkpt><trkpt lat="45.60207652908505" lon="8.201113932932886"><ele>410.8</ele><time>2026-04-07T14:13:25Z</time></trkpt><trkpt lat="45.60211936756534" lon="8.201006608715304"><ele>410.0</ele><time>2026-04-07T14:13:39Z</time></trkpt><trkpt lat="45.602084005414824" lon="8.200893092988188"><ele>410.0</ele><time>2026-04-07T14:13:41Z</time></trkpt><trkpt lat="45.602008163926286" lon="8.20083086913941"><ele>410.0</ele><time>2026-04-07T14:13:43Z</time></trkpt><trkpt lat="45.60191825496152" lon="8.200781474695665"><ele>410.0</ele><time>2026-04-07T14:15:00Z</time></trkpt><trkpt lat="45.60183868407211" lon="8.200762884857694"><ele>410.0</ele><time>2026-04-07T14:15:01Z</time></trkpt><trkpt lat="45.6017688966618" lon="8.200734007698113"><ele>410.0</ele><time>2026-04-07T14:15:03Z</time></trkpt><trkpt lat="45.601726806686464" lon="8.200573084765308"><ele>406.8</ele><time>2026-04-07T14:15:05Z</time></trkpt><trkpt lat="45.601678776881485" lon="8.20047300281339"><ele>403.6</ele><time>2026-04-07T14:15:06Z</time></trkpt><trkpt lat="45.60160647691418" lon="8.20039095801589"><ele>400.4</ele><time>2026-04-07T14:15:07Z</time></trkpt><trkpt lat="45.601565787399316" lon="8.200311011923386"><ele>397.2</ele><time>2026-04-07T14:15:08Z</time></trkpt><trkpt lat="45.60146942065672" lon="8.200158901517641"><ele>394.0</ele><time>2026-04-07T14:15:09.999Z</time></trkpt><trkpt lat="45.60139982317148" lon="8.200094587062805"><ele>394.00000000000006</ele><time>2026-04-07T14:15:11.999Z</time></trkpt><trkpt lat="45.60131904777238" lon="8.19995224699985"><ele>394.0</ele><time>2026-04-07T14:15:13.999Z</time></trkpt><trkpt lat="45.60126488726011" lon="8.199902062664874"><ele>394.0</ele><time>2026-04-07T14:15:14.999Z</time></trkpt><trkpt lat="45.60116198420941" lon="8.199840091534186"><ele>394.0</ele><time>2026-04-07T14:15:16.999Z</time></trkpt><trkpt lat="45.601120164117475" lon="8.19976126352903"><ele>394.00000000000006</ele><time>2026-04-07T14:15:20Z</time></trkpt><trkpt lat="45.60110128548501" lon="8.199661554622415"><ele>394.0</ele><time>2026-04-07T14:15:25Z</time></trkpt><trkpt lat="45.601072083982025" lon="8.199573036757068"><ele>391.00000000000006</ele><time>2026-04-07T14:15:31Z</time></trkpt><trkpt lat="45.60100855100832" lon="8.199515267998093"><ele>388.0</ele><time>2026-04-07T14:15:35Z</time></trkpt><trkpt lat="45.60092229492231" lon="8.19953187138889"><ele>385.0</ele><time>2026-04-07T14:15:38Z</time></trkpt><trkpt lat="45.60085507204527" lon="8.19952957689992"><ele>382.0</ele><time>2026-04-07T14:15:41Z</time></trkpt><trkpt lat="45.60079775778032" lon="8.199573682989948"><ele>379.0</ele><time>2026-04-07T14:15:44Z</time></trkpt><trkpt lat="45.600768402099455" lon="8.199665196632454"><ele>376.0</ele><time>2026-04-07T14:15:50Z</time></trkpt><trkpt lat="45.600684561277774" lon="8.199575869875725"><ele>376.0</ele><time>2026-04-07T14:15:54Z</time></trkpt><trkpt lat="45.60064363158191" lon="8.199476015656177"><ele>376.0</ele><time>2026-04-07T14:15:56Z</time></trkpt><trkpt lat="45.60061349951036" lon="8.199357414903108"><ele>376.0</ele><time>2026-04-07T14:15:58Z</time></trkpt><trkpt lat="45.60060370327291" lon="8.199229921912004"><ele>376.0</ele><time>2026-04-07T14:16:00Z</time></trkpt><trkpt lat="45.6006328485416" lon="8.199083540741478"><ele>376.0</ele><time>2026-04-07T14:16:02Z</time></trkpt><trkpt lat="45.60063121554008" lon="8.19896033481664"><ele>373.0</ele><time>2026-04-07T14:16:03Z</time></trkpt><trkpt lat="45.600618531843885" lon="8.198857377919042"><ele>370.0</ele><time>2026-04-07T14:16:04Z</time></trkpt><trkpt lat="45.6006012767992" lon="8.198769795196231"><ele>367.0</ele><time>2026-04-07T14:16:05Z</time></trkpt><trkpt lat="45.600592383079935" lon="8.198629473065726"><ele>364.0</ele><time>2026-04-07T14:16:07Z</time></trkpt><trkpt lat="45.60055838938567" lon="8.198510775595983"><ele>361.0</ele><time>2026-04-07T14:16:09Z</time></trkpt><trkpt lat="45.600614854552276" lon="8.198432289996695"><ele>358.0</ele><time>2026-04-07T14:16:11Z</time></trkpt><trkpt lat="45.600682782023675" lon="8.198317502179124"><ele>358.0</ele><time>2026-04-07T14:16:13Z</time></trkpt><trkpt lat="45.600751085872034" lon="8.198246155119168"><ele>358.0</ele><time>2026-04-07T14:16:15Z</time></trkpt><trkpt lat="45.60082742301917" lon="8.198277518084565"><ele>358.0</ele><time>2026-04-07T14:16:52.999Z</time></trkpt></trkseg><trkseg><trkpt lat="45.60075655013313" lon="8.198145541739489"><ele>346.0</ele><time>2026-04-07T14:29:20.999Z</time></trkpt><trkpt lat="45.60069680779082" lon="8.198086880961037"><ele>346.0</ele><time>2026-04-07T14:29:23.999Z</time></trkpt><trkpt lat="45.60062996639602" lon="8.198113483881267"><ele>346.0</ele><time>2026-04-07T14:29:29.999Z</time></trkpt><trkpt lat="45.60058854328931" lon="8.198035089812977"><ele>346.0</ele><time>2026-04-07T14:29:34.999Z</time></trkpt><trkpt lat="45.60058636323208" lon="8.197941480325145"><ele>346.0</ele><time>2026-04-07T14:29:37.999Z</time></trkpt><trkpt lat="45.60053915977166" lon="8.197826897135709"><ele>346.0</ele><time>2026-04-07T14:29:40.999Z</time></trkpt><trkpt lat="45.60048261714191" lon="8.197767067898088"><ele>346.0</ele><time>2026-04-07T14:29:43.999Z</time></trkpt><trkpt lat="45.60041844807666" lon="8.197788349949093"><ele>346.0</ele><time>2026-04-07T14:29:45.999Z</time></trkpt><trkpt lat="45.60037228334728" lon="8.19769918534018"><ele>346.0</ele><time>2026-04-07T14:29:48.999Z</time></trkpt><trkpt lat="45.60033254129539" lon="8.197588109747125"><ele>346.0</ele><time>2026-04-07T14:29:51.999Z</time></trkpt><trkpt lat="45.600271517696164" lon="8.197515275401257"><ele>346.0</ele><time>2026-04-07T14:29:56.999Z</time></trkpt><trkpt lat="45.600215545349926" lon="8.197467772796085"><ele>346.0</ele><time>2026-04-07T14:30:00.999Z</time></trkpt><trkpt lat="45.60015090041447" lon="8.197459758753194"><ele>346.0</ele><time>2026-04-07T14:30:03.999Z</time></trkpt><trkpt lat="45.60008450957219" lon="8.197385295663288"><ele>345.66666666666663</ele><time>2026-04-07T14:30:08Z</time></trkpt><trkpt lat="45.600001873089525" lon="8.19740599368978"><ele>345.3333333333333</ele><time>2026-04-07T14:30:11Z</time></trkpt><trkpt lat="45.59992508464402" lon="8.197384101446591"><ele>345.0</ele><time>2026-04-07T14:30:13Z</time></trkpt><trkpt lat="45.599868291355364" lon="8.197319650069492"><ele>344.6666666666667</ele><time>2026-04-07T14:30:15Z</time></trkpt><trkpt lat="45.599810205889305" lon="8.197260603722139"><ele>344.33333333333337</ele><time>2026-04-07T14:30:17Z</time></trkpt><trkpt lat="45.59979806490479" lon="8.197165547163214"><ele>344.0</ele><time>2026-04-07T14:30:20Z</time></trkpt><trkpt lat="45.599873720071024" lon="8.197056084442567"><ele>343.8571428571429</ele><time>2026-04-07T14:30:22Z</time></trkpt><trkpt lat="45.59993662199148" lon="8.197024908423574"><ele>343.7142857142857</ele><time>2026-04-07T14:30:27Z</time></trkpt><trkpt lat="45.60001715048647" lon="8.196964297533018"><ele>343.57142857142856</ele><time>2026-04-07T14:30:29Z</time></trkpt><trkpt lat="45.60005068842183" lon="8.19688074477193"><ele>343.42857142857144</ele><time>2026-04-07T14:30:31Z</time></trkpt><trkpt lat="45.600054180805294" lon="8.19677761977897"><ele>343.2857142857143</ele><time>2026-04-07T14:30:33Z</time></trkpt><trkpt lat="45.6000962057305" lon="8.196708421028177"><ele>343.14285714285717</ele><time>2026-04-07T14:30:35Z</time></trkpt><trkpt lat="45.60014929542373" lon="8.196636898953548"><ele>343.0</ele><time>2026-04-07T14:30:38Z</time></trkpt><trkpt lat="45.60023001893487" lon="8.196680787039499"><ele>343.0</ele><time>2026-04-07T14:30:41Z</time></trkpt><trkpt lat="45.600271324812844" lon="8.196754069217162"><ele>343.0</ele><time>2026-04-07T14:30:42.999Z</time></trkpt><trkpt lat="45.60028654109946" lon="8.196859545556178"><ele>343.0</ele><time>2026-04-07T14:30:44.999Z</time></trkpt><trkpt lat="45.60033318227095" lon="8.196936247333413"><ele>343.0</ele><time>2026-04-07T14:30:46.999Z</time></trkpt><trkpt lat="45.60045045859382" lon="8.196984539748449"><ele>343.0</ele><time>2026-04-07T14:30:48.999Z</time></trkpt><trkpt lat="45.600537283354086" lon="8.197056108988555"><ele>343.0</ele><time>2026-04-07T14:30:50.999Z</time></trkpt><trkpt lat="45.60066204648035" lon="8.197206114423528"><ele>343.5</ele><time>2026-04-07T14:30:53.999Z</time></trkpt><trkpt lat="45.600719462182234" lon="8.197272233261096"><ele>344.0</ele><time>2026-04-07T14:30:54.999Z</time></trkpt><trkpt lat="45.600805452581156" lon="8.19736576536843"><ele>344.5</ele><time>2026-04-07T14:30:55.999Z</time></trkpt><trkpt lat="45.60088480868531" lon="8.19744795548599"><ele>345.0</ele><time>2026-04-07T14:30:56.999Z</time></trkpt><trkpt lat="45.600952200902206" lon="8.197497034211597"><ele>345.5</ele><time>2026-04-07T14:30:57.999Z</time></trkpt><trkpt lat="45.60102376199503" lon="8.197522675151724"><ele>346.0</ele><time>2026-04-07T14:30:59.999Z</time></trkpt><trkpt lat="45.60109568304426" lon="8.197550700841871"><ele>346.0</ele><time>2026-04-07T14:31:01.999Z</time></trkpt><trkpt lat="45.60114938195606" lon="8.197598424574455"><ele>346.0</ele><time>2026-04-07T14:31:03.999Z</time></trkpt><trkpt lat="45.60122615253136" lon="8.197635970001992"><ele>346.0</ele><time>2026-04-07T14:31:07.999Z</time></trkpt><trkpt lat="45.60131803202209" lon="8.19773074263973"><ele>346.0</ele><time>2026-04-07T14:31:14.999Z</time></trkpt><trkpt lat="45.601373087874" lon="8.197774505239861"><ele>346.0</ele><time>2026-04-07T14:31:15.999Z</time></trkpt><trkpt lat="45.60145360884283" lon="8.197819657852218"><ele>346.0</ele><time>2026-04-07T14:31:16.999Z</time></trkpt><trkpt lat="45.60155782105736" lon="8.197904939398864"><ele>347.8</ele><time>2026-04-07T14:31:18.999Z</time></trkpt><trkpt lat="45.60163990777535" lon="8.198029170908374"><ele>349.6</ele><time>2026-04-07T14:31:20.999Z</time></trkpt><trkpt lat="45.60168741994058" lon="8.198116207651566"><ele>351.4</ele><time>2026-04-07T14:31:21.999Z</time></trkpt><trkpt lat="45.60174495697609" lon="8.198193715468312"><ele>353.2</ele><time>2026-04-07T14:31:22.999Z</time></trkpt><trkpt lat="45.601799592749856" lon="8.198270034290992"><ele>355.0</ele><time>2026-04-07T14:31:23.999Z</time></trkpt><trkpt lat="45.60187823608823" lon="8.198383104311093"><ele>355.0</ele><time>2026-04-07T14:31:25.999Z</time></trkpt><trkpt lat="45.60192291237066" lon="8.198447033808419"><ele>355.0</ele><time>2026-04-07T14:31:26.999Z</time></trkpt><trkpt lat="45.602001546204605" lon="8.198463556100299"><ele>355.0</ele><time>2026-04-07T14:31:27.999Z</time></trkpt><trkpt lat="45.60208365543326" lon="8.198467591256604"><ele>355.0</ele><time>2026-04-07T14:31:28.999Z</time></trkpt><trkpt lat="45.60217062167641" lon="8.198455417973365"><ele>355.0</ele><time>2026-04-07T14:31:30.999Z</time></trkpt><trkpt lat="45.6022611100043" lon="8.198478296949153"><ele>355.0</ele><time>2026-04-07T14:31:31.999Z</time></trkpt><trkpt lat="45.60234231847635" lon="8.198470593543368"><ele>356.0</ele><time>2026-04-07T14:31:33.999Z</time></trkpt><trkpt lat="45.602453706408745" lon="8.198464102928886"><ele>357.0</ele><time>2026-04-07T14:31:35.999Z</time></trkpt><trkpt lat="45.60251827644601" lon="8.198367637254703"><ele>358.0</ele><time>2026-04-07T14:31:37.999Z</time></trkpt><trkpt lat="45.602621971921366" lon="8.198309502697887"><ele>359.0</ele><time>2026-04-07T14:31:39.999Z</time></trkpt><trkpt lat="45.60269953884" lon="8.198283373782198"><ele>360.0</ele><time>2026-04-07T14:31:40.999Z</time></trkpt><trkpt lat="45.60279657257124" lon="8.198263173839315"><ele>360.7142857142857</ele><time>2026-04-07T14:31:41.999Z</time></trkpt><trkpt lat="45.602871054177" lon="8.198267950885791"><ele>361.42857142857144</ele><time>2026-04-07T14:31:42.999Z</time></trkpt><trkpt lat="45.602927250155645" lon="8.19831231366982"><ele>362.14285714285717</ele><time>2026-04-07T14:31:45.999Z</time></trkpt><trkpt lat="45.60298201613462" lon="8.198390050331447"><ele>362.8571428571429</ele><time>2026-04-07T14:31:46.999Z</time></trkpt><trkpt lat="45.60305817753109" lon="8.19835788202804"><ele>363.57142857142856</ele><time>2026-04-07T14:31:48.999Z</time></trkpt><trkpt lat="45.60312633443013" lon="8.198396750923095"><ele>364.28571428571433</ele><time>2026-04-07T14:31:50.999Z</time></trkpt><trkpt lat="45.60319227179237" lon="8.198406924167918"><ele>365.0</ele><time>2026-04-07T14:31:51.999Z</time></trkpt><trkpt lat="45.6032424478222" lon="8.198346008467379"><ele>365.0</ele><time>2026-04-07T14:31:52.999Z</time></trkpt><trkpt lat="45.60333422728699" lon="8.198424572469786"><ele>365.0</ele><time>2026-04-07T14:31:55.999Z</time></trkpt><trkpt lat="45.60340061275971" lon="8.198475491371855"><ele>365.0</ele><time>2026-04-07T14:31:56.999Z</time></trkpt><trkpt lat="45.60347571940487" lon="8.19852281224142"><ele>365.0</ele><time>2026-04-07T14:31:57.999Z</time></trkpt><trkpt lat="45.60351247322853" lon="8.198612330915433"><ele>365.0</ele><time>2026-04-07T14:32:00.999Z</time></trkpt><trkpt lat="45.60358773571825" lon="8.198636337058046"><ele>365.0</ele><time>2026-04-07T14:32:02.999Z</time></trkpt><trkpt lat="45.603658002976815" lon="8.19853760334028"><ele>365.4</ele><time>2026-04-07T14:32:04.999Z</time></trkpt><trkpt lat="45.603723147089006" lon="8.198525358794956"><ele>365.8</ele><time>2026-04-07T14:32:05.999Z</time></trkpt><trkpt lat="45.603809731444336" lon="8.19850127234443"><ele>366.20000000000005</ele><time>2026-04-07T14:32:08Z</time></trkpt><trkpt lat="45.60388167439359" lon="8.198547171540179"><ele>366.6</ele><time>2026-04-07T14:32:11Z</time></trkpt><trkpt lat="45.604030442243065" lon="8.19866522095546"><ele>367.0</ele><time>2026-04-07T14:32:12Z</time></trkpt><trkpt lat="45.60408977188367" lon="8.198754920772036"><ele>367.0</ele><time>2026-04-07T14:32:13Z</time></trkpt><trkpt lat="45.60413161312884" lon="8.19883162269577"><ele>367.0</ele><time>2026-04-07T14:32:14Z</time></trkpt><trkpt lat="45.60416787984883" lon="8.19872863148938"><ele>367.0</ele><time>2026-04-07T14:32:17Z</time></trkpt><trkpt lat="45.60426846536829" lon="8.198735676326146"><ele>367.0</ele><time>2026-04-07T14:32:19Z</time></trkpt><trkpt lat="45.60433717920815" lon="8.19873904297055"><ele>367.0</ele><time>2026-04-07T14:32:20Z</time></trkpt><trkpt lat="45.604427102120546" lon="8.198778823070537"><ele>367.0</ele><time>2026-04-07T14:32:22Z</time></trkpt><trkpt lat="45.604439381960574" lon="8.198889197887768"><ele>367.66666666666663</ele><time>2026-04-07T14:32:24Z</time></trkpt><trkpt lat="45.604471497198766" lon="8.19900140139043"><ele>368.3333333333333</ele><time>2026-04-07T14:32:25Z</time></trkpt><trkpt lat="45.604506988770666" lon="8.19909988037576"><ele>369.0</ele><time>2026-04-07T14:32:26Z</time></trkpt><trkpt lat="45.60454576460948" lon="8.199210339058883"><ele>369.6666666666667</ele><time>2026-04-07T14:32:28Z</time></trkpt><trkpt lat="45.60454125456137" lon="8.199300651057644"><ele>370.33333333333337</ele><time>2026-04-07T14:32:31Z</time></trkpt><trkpt lat="45.60450435269574" lon="8.19938449530388"><ele>371.0</ele><time>2026-04-07T14:33:10Z</time></trkpt><trkpt lat="45.6044194388613" lon="8.199463562325638"><ele>371.0</ele><time>2026-04-07T14:33:12Z</time></trkpt><trkpt lat="45.604355115037336" lon="8.199495830285414"><ele>371.0</ele><time>2026-04-07T14:33:13Z</time></trkpt><trkpt lat="45.604259066268654" lon="8.199650483553459"><ele>371.0</ele><time>2026-04-07T14:33:15Z</time></trkpt><trkpt lat="45.60418092805012" lon="8.199617197476359"><ele>371.0</ele><time>2026-04-07T14:33:19Z</time></trkpt><trkpt lat="45.60417142239624" lon="8.19972900608684"><ele>371.0</ele><time>2026-04-07T14:33:22Z</time></trkpt><trkpt lat="45.604136393665186" lon="8.199883956469606"><ele>372.0</ele><time>2026-04-07T14:33:24Z</time></trkpt><trkpt lat="45.60412584391678" lon="8.199995541863602"><ele>373.0</ele><time>2026-04-07T14:33:25Z</time></trkpt><trkpt lat="45.60409485143055" lon="8.200088037954787"><ele>374.0</ele><time>2026-04-07T14:33:26Z</time></trkpt><trkpt lat="45.60405905915541" lon="8.20016456799377"><ele>375.0</ele><time>2026-04-07T14:33:27Z</time></trkpt><trkpt lat="45.6040276070135" lon="8.200305297005492"><ele>376.0</ele><time>2026-04-07T14:33:29Z</time></trkpt><trkpt lat="45.603985063958184" lon="8.200411769986424"><ele>377.0</ele><time>2026-04-07T14:33:30Z</time></trkpt><trkpt lat="45.60393741165365" lon="8.200515159000545"><ele>377.0</ele><time>2026-04-07T14:33:31Z</time></trkpt><trkpt lat="45.60391077846304" lon="8.200620896099144"><ele>377.0</ele><time>2026-04-07T14:33:32Z</time></trkpt><trkpt lat="45.603853804338144" lon="8.200718207787565"><ele>377.0</ele><time>2026-04-07T14:33:34Z</time></trkpt><trkpt lat="45.6037589146864" lon="8.200802589914458"><ele>377.0</ele><time>2026-04-07T14:33:37Z</time></trkpt><trkpt lat="45.60368679814824" lon="8.200892037362033"><ele>377.0</ele><time>2026-04-07T14:33:39Z</time></trkpt><trkpt lat="45.60367020215121" lon="8.200989154694435"><ele>377.0</ele><time>2026-04-07T14:33:40Z</time></trkpt><trkpt lat="45.6036386365023" lon="8.20108124695042"><ele>377.83333333333337</ele><time>2026-04-07T14:33:41Z</time></trkpt><trkpt lat="45.603587184757465" lon="8.201145121202336"><ele>378.6666666666667</ele><time>2026-04-07T14:33:42Z</time></trkpt><trkpt lat="45.6035070177994" lon="8.201220060808753"><ele>379.5</ele><time>2026-04-07T14:33:44Z</time></trkpt><trkpt lat="45.603458122595804" lon="8.201307245894657"><ele>380.3333333333333</ele><time>2026-04-07T14:33:45.999Z</time></trkpt><trkpt lat="45.603367961877375" lon="8.201377964389065"><ele>381.16666666666663</ele><time>2026-04-07T14:33:47.999Z</time></trkpt><trkpt lat="45.603321831757086" lon="8.201486242769736"><ele>382.0</ele><time>2026-04-07T14:33:49.999Z</time></trkpt><trkpt lat="45.60333642874266" lon="8.201637344786498"><ele>382.0</ele><time>2026-04-07T14:33:51.999Z</time></trkpt><trkpt lat="45.603351880234385" lon="8.201731822963135"><ele>382.0</ele><time>2026-04-07T14:33:52.999Z</time></trkpt><trkpt lat="45.603370862293474" lon="8.201840450709796"><ele>382.0</ele><time>2026-04-07T14:33:54.999Z</time></trkpt><trkpt lat="45.60344982096227" lon="8.201902078765958"><ele>382.0</ele><time>2026-04-07T14:33:56.999Z</time></trkpt><trkpt lat="45.603537127948975" lon="8.201913630430244"><ele>382.0</ele><time>2026-04-07T14:33:58.999Z</time></trkpt><trkpt lat="45.603562228276616" lon="8.202007608288024"><ele>382.0</ele><time>2026-04-07T14:34:00.999Z</time></trkpt><trkpt lat="45.60366524697937" lon="8.201912351579635"><ele>381.66666666666663</ele><time>2026-04-07T14:34:03.999Z</time></trkpt><trkpt lat="45.60375510918229" lon="8.201903048508429"><ele>381.3333333333333</ele><time>2026-04-07T14:34:04.999Z</time></trkpt><trkpt lat="45.60381729404949" lon="8.202001880635926"><ele>381.0</ele><time>2026-04-07T14:34:06.999Z</time></trkpt><trkpt lat="45.60387097565386" lon="8.20205589338265"><ele>380.6666666666667</ele><time>2026-04-07T14:34:08.999Z</time></trkpt><trkpt lat="45.60393068152575" lon="8.202121340130638"><ele>380.33333333333337</ele><time>2026-04-07T14:34:10.999Z</time></trkpt><trkpt lat="45.60394815888422" lon="8.202258041989097"><ele>380.0</ele><time>2026-04-07T14:34:14Z</time></trkpt><trkpt lat="45.60389211021769" lon="8.20237827520976"><ele>381.4</ele><time>2026-04-07T14:34:16Z</time></trkpt><trkpt lat="45.603809800920246" lon="8.20237167112314"><ele>382.8</ele><time>2026-04-07T14:34:18Z</time></trkpt><trkpt lat="45.60375836547893" lon="8.202477359121026"><ele>384.20000000000005</ele><time>2026-04-07T14:34:21Z</time></trkpt><trkpt lat="45.60373577711539" lon="8.202598997940637"><ele>385.6</ele><time>2026-04-07T14:34:22Z</time></trkpt><trkpt lat="45.60368335232597" lon="8.202712524744097"><ele>387.0</ele><time>2026-04-07T14:34:23Z</time></trkpt><trkpt lat="45.60362730157459" lon="8.202838984673194"><ele>387.3333333333333</ele><time>2026-04-07T14:34:24Z</time></trkpt><trkpt lat="45.60358151017568" lon="8.202986446135176"><ele>387.66666666666663</ele><time>2026-04-07T14:34:25Z</time></trkpt><trkpt lat="45.60355224786615" lon="8.203074083927454"><ele>388.0</ele><time>2026-04-07T14:34:26Z</time></trkpt><trkpt lat="45.60350285793702" lon="8.203147074731172"><ele>388.3333333333333</ele><time>2026-04-07T14:34:27Z</time></trkpt><trkpt lat="45.60345970214834" lon="8.203215943947683"><ele>388.66666666666663</ele><time>2026-04-07T14:34:28Z</time></trkpt><trkpt lat="45.60346027924469" lon="8.203342575784305"><ele>389.0</ele><time>2026-04-07T14:34:41Z</time></trkpt><trkpt lat="45.60345115116005" lon="8.203487176599827"><ele>389.3333333333333</ele><time>2026-04-07T14:34:43Z</time></trkpt><trkpt lat="45.60345991983993" lon="8.203624304422817"><ele>389.66666666666663</ele><time>2026-04-07T14:34:44Z</time></trkpt><trkpt lat="45.603475096175956" lon="8.203713349718834"><ele>390.0</ele><time>2026-04-07T14:34:45Z</time></trkpt><trkpt lat="45.60352966644859" lon="8.203819236278854"><ele>390.33333333333337</ele><time>2026-04-07T14:34:47.001Z</time></trkpt><trkpt lat="45.60361778216422" lon="8.203871749552803"><ele>390.6666666666667</ele><time>2026-04-07T14:34:49.001Z</time></trkpt><trkpt lat="45.603677483256284" lon="8.203938956715163"><ele>391.0</ele><time>2026-04-07T14:34:51.001Z</time></trkpt><trkpt lat="45.60372252826094" lon="8.204008039376166"><ele>392.33333333333337</ele><time>2026-04-07T14:34:52.001Z</time></trkpt><trkpt lat="45.603771126775534" lon="8.20407233205226"><ele>393.6666666666667</ele><time>2026-04-07T14:34:53.001Z</time></trkpt><trkpt lat="45.60383021720112" lon="8.204144778733198"><ele>395.0</ele><time>2026-04-07T14:34:55.001Z</time></trkpt><trkpt lat="45.60391441169611" lon="8.204208019494864"><ele>396.33333333333337</ele><time>2026-04-07T14:34:58.001Z</time></trkpt><trkpt lat="45.60396248115187" lon="8.20426964153103"><ele>397.6666666666667</ele><time>2026-04-07T14:35:00.001Z</time></trkpt><trkpt lat="45.604009514264206" lon="8.204337591602712"><ele>399.0</ele><time>2026-04-07T14:35:02.001Z</time></trkpt><trkpt lat="45.60407889397953" lon="8.204419548754984"><ele>399.0</ele><time>2026-04-07T14:35:05.001Z</time></trkpt><trkpt lat="45.60412068399682" lon="8.204501241954713"><ele>399.0</ele><time>2026-04-07T14:35:07.001Z</time></trkpt><trkpt lat="45.60419698484642" lon="8.204522975738897"><ele>399.0</ele><time>2026-04-07T14:35:15.001Z</time></trkpt><trkpt lat="45.60427590238095" lon="8.204493583857163"><ele>399.0</ele><time>2026-04-07T14:35:18.001Z</time></trkpt><trkpt lat="45.60431138224326" lon="8.204412329102945"><ele>399.0</ele><time>2026-04-07T14:35:21.001Z</time></trkpt><trkpt lat="45.604257599015995" lon="8.204269363590829"><ele>399.0</ele><time>2026-04-07T14:35:23.001Z</time></trkpt><trkpt lat="45.604220110431484" lon="8.204191809524756"><ele>399.0</ele><time>2026-04-07T14:35:24.001Z</time></trkpt><trkpt lat="45.60418525235779" lon="8.20410901359037"><ele>399.0</ele><time>2026-04-07T14:35:25.001Z</time></trkpt><trkpt lat="45.60414683306176" lon="8.204025726743486"><ele>399.0</ele><time>2026-04-07T14:35:26.001Z</time></trkpt><trkpt lat="45.604116043514395" lon="8.20393256820788"><ele>399.0</ele><time>2026-04-07T14:35:27.001Z</time></trkpt><trkpt lat="45.60409883531138" lon="8.203838696383013"><ele>399.0</ele><time>2026-04-07T14:35:28.001Z</time></trkpt><trkpt lat="45.60410520389474" lon="8.20373803633448"><ele>399.0</ele><time>2026-04-07T14:35:29.001Z</time></trkpt><trkpt lat="45.60412970980081" lon="8.20363382771558"><ele>399.0</ele><time>2026-04-07T14:35:30.001Z</time></trkpt><trkpt lat="45.604175592851355" lon="8.203527290426651"><ele>397.4</ele><time>2026-04-07T14:35:31.001Z</time></trkpt><trkpt lat="45.604226716691294" lon="8.203421270897925"><ele>395.79999999999995</ele><time>2026-04-07T14:35:32.001Z</time></trkpt><trkpt lat="45.60427681617376" lon="8.203305904033474"><ele>394.20000000000005</ele><time>2026-04-07T14:35:33.001Z</time></trkpt><trkpt lat="45.60432386146642" lon="8.203184853371495"><ele>392.6</ele><time>2026-04-07T14:35:34.001Z</time></trkpt><trkpt lat="45.604373582554814" lon="8.203067895650646"><ele>391.0</ele><time>2026-04-07T14:35:35.001Z</time></trkpt><trkpt lat="45.604421358227604" lon="8.202953471829707"><ele>390.20000000000005</ele><time>2026-04-07T14:35:36.001Z</time></trkpt><trkpt lat="45.6044689516187" lon="8.202839619935297"><ele>389.40000000000003</ele><time>2026-04-07T14:35:37.001Z</time></trkpt><trkpt lat="45.60451525455728" lon="8.202729574064794"><ele>388.6</ele><time>2026-04-07T14:35:38.001Z</time></trkpt><trkpt lat="45.604565919152066" lon="8.202623023857207"><ele>387.8</ele><time>2026-04-07T14:35:39.001Z</time></trkpt><trkpt lat="45.60463163241141" lon="8.202529264828087"><ele>387.0</ele><time>2026-04-07T14:35:40.001Z</time></trkpt><trkpt lat="45.60471073031075" lon="8.202457653889127"><ele>386.40000000000003</ele><time>2026-04-07T14:35:41.001Z</time></trkpt><trkpt lat="45.604800611310324" lon="8.20240597500739"><ele>385.8</ele><time>2026-04-07T14:35:42.001Z</time></trkpt><trkpt lat="45.6049020032167" lon="8.202373195707949"><ele>385.2</ele><time>2026-04-07T14:35:43.001Z</time></trkpt><trkpt lat="45.60500337244684" lon="8.202320908140184"><ele>384.6</ele><time>2026-04-07T14:35:44.001Z</time></trkpt><trkpt lat="45.6050850190997" lon="8.202249006363553"><ele>384.0</ele><time>2026-04-07T14:35:45.001Z</time></trkpt><trkpt lat="45.605156517807615" lon="8.202161594924299"><ele>384.0</ele><time>2026-04-07T14:35:46.001Z</time></trkpt><trkpt lat="45.60521301908155" lon="8.202080948939901"><ele>384.0</ele><time>2026-04-07T14:35:47.001Z</time></trkpt><trkpt lat="45.60527191417315" lon="8.202002043019846"><ele>384.0</ele><time>2026-04-07T14:35:48.001Z</time></trkpt><trkpt lat="45.60532944102354" lon="8.201913549472732"><ele>384.0</ele><time>2026-04-07T14:35:49.001Z</time></trkpt><trkpt lat="45.60539204039594" lon="8.201825562841071"><ele>384.0</ele><time>2026-04-07T14:35:50.001Z</time></trkpt><trkpt lat="45.6054532337227" lon="8.201738547296637"><ele>384.0</ele><time>2026-04-07T14:35:51.001Z</time></trkpt><trkpt lat="45.605509859963306" lon="8.201647668792464"><ele>383.3333333333333</ele><time>2026-04-07T14:35:52.001Z</time></trkpt><trkpt lat="45.60556147755946" lon="8.201550223461982"><ele>382.6666666666667</ele><time>2026-04-07T14:35:53.001Z</time></trkpt><trkpt lat="45.60559500268774" lon="8.20144020416846"><ele>382.0</ele><time>2026-04-07T14:35:54.001Z</time></trkpt><trkpt lat="45.605612115125574" lon="8.201325328758672"><ele>381.33333333333337</ele><time>2026-04-07T14:35:55.001Z</time></trkpt><trkpt lat="45.60562226106876" lon="8.20120984463944"><ele>380.6666666666667</ele><time>2026-04-07T14:35:56.001Z</time></trkpt><trkpt lat="45.60561638015714" lon="8.201085880962747"><ele>380.0</ele><time>2026-04-07T14:35:57Z</time></trkpt><trkpt lat="45.605598862028195" lon="8.200959931200975"><ele>379.8</ele><time>2026-04-07T14:35:58Z</time></trkpt><trkpt lat="45.60557871331625" lon="8.200832879843697"><ele>379.6</ele><time>2026-04-07T14:35:59Z</time></trkpt><trkpt lat="45.60556101586664" lon="8.200702297580294"><ele>379.4</ele><time>2026-04-07T14:36:00Z</time></trkpt><trkpt lat="45.605541296503965" lon="8.200570370223067"><ele>379.2</ele><time>2026-04-07T14:36:01Z</time></trkpt><trkpt lat="45.60552157737365" lon="8.200437901866184"><ele>379.0</ele><time>2026-04-07T14:36:02Z</time></trkpt><trkpt lat="45.605501508062034" lon="8.200303111464597"><ele>379.0</ele><time>2026-04-07T14:36:03Z</time></trkpt><trkpt lat="45.60548440044334" lon="8.200166030875055"><ele>379.0</ele><time>2026-04-07T14:36:04Z</time></trkpt><trkpt lat="45.60547597080113" lon="8.200029666264557"><ele>379.0</ele><time>2026-04-07T14:36:05Z</time></trkpt><trkpt lat="45.60548423781422" lon="8.199897420545868"><ele>379.0</ele><time>2026-04-07T14:36:06Z</time></trkpt><trkpt lat="45.605509972947395" lon="8.199780557309118"><ele>379.0</ele><time>2026-04-07T14:36:07Z</time></trkpt><trkpt lat="45.60554828214635" lon="8.199685636557597"><ele>379.0</ele><time>2026-04-07T14:36:08Z</time></trkpt><trkpt lat="45.605589610543795" lon="8.199614051796726"><ele>379.0</ele><time>2026-04-07T14:36:09Z</time></trkpt><trkpt lat="45.605664832425504" lon="8.199540249777645"><ele>379.0</ele><time>2026-04-07T14:36:11Z</time></trkpt><trkpt lat="45.605595682875716" lon="8.199572443569801"><ele>379.0</ele><time>2026-04-07T14:37:15.001Z</time></trkpt><trkpt lat="45.6055397021259" lon="8.199641762663124"><ele>379.0</ele><time>2026-04-07T14:37:16.001Z</time></trkpt><trkpt lat="45.60549749367503" lon="8.199711805659405"><ele>379.0</ele><time>2026-04-07T14:37:18.001Z</time></trkpt><trkpt lat="45.60546920261578" lon="8.199819132704745"><ele>379.0</ele><time>2026-04-07T14:37:21.001Z</time></trkpt><trkpt lat="45.605449035913445" lon="8.199915550156721"><ele>378.0</ele><time>2026-04-07T14:37:23.001Z</time></trkpt><trkpt lat="45.6054493267252" lon="8.200081135679694"><ele>377.0</ele><time>2026-04-07T14:37:25.001Z</time></trkpt><trkpt lat="45.60546057207728" lon="8.200178903520975"><ele>376.0</ele><time>2026-04-07T14:37:26.001Z</time></trkpt><trkpt lat="45.60547450999799" lon="8.200282513454793"><ele>375.0</ele><time>2026-04-07T14:37:27.001Z</time></trkpt><trkpt lat="45.60548850600237" lon="8.200392644118443"><ele>374.0</ele><time>2026-04-07T14:37:28.001Z</time></trkpt><trkpt lat="45.60550252606881" lon="8.200500528748183"><ele>373.0</ele><time>2026-04-07T14:37:29.001Z</time></trkpt><trkpt lat="45.60551417391355" lon="8.200604410437343"><ele>374.2</ele><time>2026-04-07T14:37:30.001Z</time></trkpt><trkpt lat="45.60552476018552" lon="8.200700139918535"><ele>375.4</ele><time>2026-04-07T14:37:31.001Z</time></trkpt><trkpt lat="45.60554694387566" lon="8.200861240506246"><ele>376.59999999999997</ele><time>2026-04-07T14:37:33Z</time></trkpt><trkpt lat="45.605560475061" lon="8.200985422794075"><ele>377.79999999999995</ele><time>2026-04-07T14:37:35Z</time></trkpt><trkpt lat="45.605573698617036" lon="8.201141109257428"><ele>379.0</ele><time>2026-04-07T14:37:37Z</time></trkpt><trkpt lat="45.60557367262997" lon="8.201309603581358"><ele>379.0</ele><time>2026-04-07T14:37:39Z</time></trkpt><trkpt lat="45.60554066350056" lon="8.201472392943513"><ele>379.0</ele><time>2026-04-07T14:37:41Z</time></trkpt><trkpt lat="45.60546745804543" lon="8.20162630394221"><ele>379.0</ele><time>2026-04-07T14:37:43Z</time></trkpt><trkpt lat="45.60541680453581" lon="8.20170256656746"><ele>379.0</ele><time>2026-04-07T14:37:44Z</time></trkpt><trkpt lat="45.60536214238381" lon="8.201779138661824"><ele>379.0</ele><time>2026-04-07T14:37:45Z</time></trkpt><trkpt lat="45.60530919748021" lon="8.20185755412934"><ele>379.7142857142857</ele><time>2026-04-07T14:37:46Z</time></trkpt><trkpt lat="45.605259853359215" lon="8.201940045403594"><ele>380.42857142857144</ele><time>2026-04-07T14:37:47Z</time></trkpt><trkpt lat="45.60520896761759" lon="8.202019113961088"><ele>381.1428571428571</ele><time>2026-04-07T14:37:48Z</time></trkpt><trkpt lat="45.605156858079205" lon="8.202091770149256"><ele>381.8571428571429</ele><time>2026-04-07T14:37:49Z</time></trkpt><trkpt lat="45.60510423646351" lon="8.202161708111982"><ele>382.57142857142856</ele><time>2026-04-07T14:37:50Z</time></trkpt><trkpt lat="45.60504909480896" lon="8.202226023118032"><ele>383.2857142857143</ele><time>2026-04-07T14:37:51Z</time></trkpt><trkpt lat="45.60498484004308" lon="8.202261321572992"><ele>384.0</ele><time>2026-04-07T14:37:53Z</time></trkpt><trkpt lat="45.60505542784364" lon="8.202246426525308"><ele>384.0</ele><time>2026-04-07T14:37:58Z</time></trkpt><trkpt lat="45.60497502909535" lon="8.20223968506558"><ele>384.0</ele><time>2026-04-07T14:38:02Z</time></trkpt><trkpt lat="45.60486273036432" lon="8.202314139473282"><ele>384.0</ele><time>2026-04-07T14:38:04Z</time></trkpt><trkpt lat="45.604787681085874" lon="8.202350682849804"><ele>384.0</ele><time>2026-04-07T14:38:05Z</time></trkpt><trkpt lat="45.60469988775624" lon="8.202397497080824"><ele>384.0</ele><time>2026-04-07T14:38:06Z</time></trkpt><trkpt lat="45.60463648991326" lon="8.202448371255398"><ele>383.79999999999995</ele><time>2026-04-07T14:38:07Z</time></trkpt><trkpt lat="45.60455742266444" lon="8.202539869494174"><ele>383.59999999999997</ele><time>2026-04-07T14:38:09Z</time></trkpt><trkpt lat="45.604483220728" lon="8.202659686716903"><ele>383.4</ele><time>2026-04-07T14:38:11Z</time></trkpt><trkpt lat="45.604422378574526" lon="8.202796307214523"><ele>383.2</ele><time>2026-04-07T14:38:13Z</time></trkpt><trkpt lat="45.604383471411175" lon="8.202887903604877"><ele>383.0</ele><time>2026-04-07T14:38:14Z</time></trkpt><trkpt lat="45.60432850345049" lon="8.203019695576806"><ele>383.6666666666667</ele><time>2026-04-07T14:38:16Z</time></trkpt><trkpt lat="45.604282130013765" lon="8.20313279311176"><ele>384.33333333333337</ele><time>2026-04-07T14:38:18Z</time></trkpt><trkpt lat="45.60424994430201" lon="8.203211289020384"><ele>385.0</ele><time>2026-04-07T14:38:19Z</time></trkpt><trkpt lat="45.604214706138634" lon="8.20329471889598"><ele>385.6666666666667</ele><time>2026-04-07T14:38:20Z</time></trkpt><trkpt lat="45.60417942198405" lon="8.203376560481098"><ele>386.3333333333333</ele><time>2026-04-07T14:38:21Z</time></trkpt><trkpt lat="45.60412089072898" lon="8.203518788713122"><ele>387.0</ele><time>2026-04-07T14:38:23Z</time></trkpt><trkpt lat="45.604093334505045" lon="8.203600933138237"><ele>388.33333333333337</ele><time>2026-04-07T14:38:24Z</time></trkpt><trkpt lat="45.60405433655619" lon="8.203726491220618"><ele>389.6666666666667</ele><time>2026-04-07T14:38:26.001Z</time></trkpt><trkpt lat="45.604047853258955" lon="8.20386149418639"><ele>391.0</ele><time>2026-04-07T14:38:30.001Z</time></trkpt><trkpt lat="45.60362803880792" lon="8.203857478597806"><ele>391.6666666666667</ele><time>2026-04-07T14:38:47Z</time></trkpt><trkpt lat="45.6036594653586" lon="8.203987372935496"><ele>392.33333333333337</ele><time>2026-04-07T14:39:27Z</time></trkpt><trkpt lat="45.6037140823109" lon="8.204053513041568"><ele>393.0</ele><time>2026-04-07T14:39:28Z</time></trkpt><trkpt lat="45.603764361281584" lon="8.204117217827765"><ele>393.66666666666663</ele><time>2026-04-07T14:39:29Z</time></trkpt><trkpt lat="45.60382724212905" lon="8.204208155508324"><ele>394.3333333333333</ele><time>2026-04-07T14:39:31Z</time></trkpt><trkpt lat="45.603904711155366" lon="8.204268291238098"><ele>395.0</ele><time>2026-04-07T14:39:34Z</time></trkpt><trkpt lat="45.60396465295048" lon="8.204303112785867"><ele>396.0</ele><time>2026-04-07T14:39:36Z</time></trkpt><trkpt lat="45.60402836700337" lon="8.20437849858756"><ele>397.0</ele><time>2026-04-07T14:39:38Z</time></trkpt><trkpt lat="45.60408424067848" lon="8.204425094450611"><ele>398.0</ele><time>2026-04-07T14:39:40Z</time></trkpt><trkpt lat="45.60423834137873" lon="8.20434884025812"><ele>399.0</ele><time>2026-04-07T14:39:42Z</time></trkpt><trkpt lat="45.60410454626031" lon="8.204525395591821"><ele>399.0</ele><time>2026-04-07T14:40:00Z</time></trkpt><trkpt lat="45.6040713624435" lon="8.204432041562015"><ele>399.0</ele><time>2026-04-07T14:40:31.001Z</time></trkpt><trkpt lat="45.60402967024817" lon="8.204363525629013"><ele>399.0</ele><time>2026-04-07T14:40:33.001Z</time></trkpt><trkpt lat="45.60396750371488" lon="8.204299942757403"><ele>399.0</ele><time>2026-04-07T14:40:36.001Z</time></trkpt><trkpt lat="45.60388480016944" lon="8.204225419004098"><ele>399.0</ele><time>2026-04-07T14:40:39.001Z</time></trkpt><trkpt lat="45.60380494325352" lon="8.204182155979712"><ele>399.0</ele><time>2026-04-07T14:40:43.001Z</time></trkpt><trkpt lat="45.60371913241639" lon="8.204056458156527"><ele>398.3333333333333</ele><time>2026-04-07T14:40:45.001Z</time></trkpt><trkpt lat="45.60367375476221" lon="8.203976254116135"><ele>397.66666666666663</ele><time>2026-04-07T14:40:46.001Z</time></trkpt><trkpt lat="45.6036219026038" lon="8.203917424758199"><ele>397.0</ele><time>2026-04-07T14:40:48.001Z</time></trkpt><trkpt lat="45.60367374452997" lon="8.203812636691197"><ele>396.3333333333333</ele><time>2026-04-07T14:40:50.001Z</time></trkpt><trkpt lat="45.603700191444226" lon="8.203701152361257"><ele>395.66666666666663</ele><time>2026-04-07T14:40:51.001Z</time></trkpt><trkpt lat="45.60371601690851" lon="8.203601109019324"><ele>395.0</ele><time>2026-04-07T14:40:52.001Z</time></trkpt><trkpt lat="45.603753412947015" lon="8.203494998863711"><ele>394.3333333333333</ele><time>2026-04-07T14:40:54.001Z</time></trkpt><trkpt lat="45.603811865911105" lon="8.203405401336909"><ele>393.66666666666663</ele><time>2026-04-07T14:40:56.001Z</time></trkpt><trkpt lat="45.603848589281014" lon="8.203320964154818"><ele>393.0</ele><time>2026-04-07T14:40:57.001Z</time></trkpt><trkpt lat="45.603898314024974" lon="8.203221116060348"><ele>392.33333333333337</ele><time>2026-04-07T14:40:58Z</time></trkpt><trkpt lat="45.603937129585844" lon="8.20313421869407"><ele>391.6666666666667</ele><time>2026-04-07T14:40:59Z</time></trkpt><trkpt lat="45.603990300180264" lon="8.203057117256456"><ele>391.0</ele><time>2026-04-07T14:41:00Z</time></trkpt><trkpt lat="45.604048101910124" lon="8.202942811029416"><ele>390.33333333333337</ele><time>2026-04-07T14:41:02Z</time></trkpt><trkpt lat="45.60408767107086" lon="8.202812525579576"><ele>389.6666666666667</ele><time>2026-04-07T14:41:04Z</time></trkpt><trkpt lat="45.604121559232574" lon="8.202729068559426"><ele>389.0</ele><time>2026-04-07T14:41:05Z</time></trkpt><trkpt lat="45.60415507149307" lon="8.202620544362777"><ele>388.33333333333337</ele><time>2026-04-07T14:41:06Z</time></trkpt><trkpt lat="45.6042000571656" lon="8.20251703362858"><ele>387.6666666666667</ele><time>2026-04-07T14:41:07Z</time></trkpt><trkpt lat="45.60424027950357" lon="8.202425392457588"><ele>387.0</ele><time>2026-04-07T14:41:08Z</time></trkpt><trkpt lat="45.604281791370134" lon="8.20235207693642"><ele>386.5</ele><time>2026-04-07T14:41:09Z</time></trkpt><trkpt lat="45.60433077502619" lon="8.202286460775072"><ele>386.0</ele><time>2026-04-07T14:41:10Z</time></trkpt><trkpt lat="45.604392502048626" lon="8.20223688000755"><ele>385.5</ele><time>2026-04-07T14:41:11Z</time></trkpt><trkpt lat="45.60447217916873" lon="8.202200787729863"><ele>385.0</ele><time>2026-04-07T14:41:12Z</time></trkpt><trkpt lat="45.60454909370454" lon="8.202159663677962"><ele>384.5</ele><time>2026-04-07T14:41:13Z</time></trkpt><trkpt lat="45.60463824629702" lon="8.20211536521916"><ele>384.0</ele><time>2026-04-07T14:41:14Z</time></trkpt><trkpt lat="45.604722390691244" lon="8.202065836773267"><ele>384.0</ele><time>2026-04-07T14:41:15Z</time></trkpt><trkpt lat="45.60479470404908" lon="8.202027369155687"><ele>384.0</ele><time>2026-04-07T14:41:16Z</time></trkpt><trkpt lat="45.604868645370246" lon="8.201994537820132"><ele>384.0</ele><time>2026-04-07T14:41:17Z</time></trkpt><trkpt lat="45.60493381814856" lon="8.201984558017408"><ele>384.0</ele><time>2026-04-07T14:41:18Z</time></trkpt><trkpt lat="45.60501784443098" lon="8.202076584852456"><ele>384.0</ele><time>2026-04-07T14:41:20Z</time></trkpt><trkpt lat="45.60505611210061" lon="8.20215722086531"><ele>384.0</ele><time>2026-04-07T14:41:22Z</time></trkpt><trkpt lat="45.60516223243966" lon="8.202150640685446"><ele>383.99999999999994</ele><time>2026-04-07T14:41:49Z</time></trkpt><trkpt lat="45.60521378533892" lon="8.202098048428482"><ele>384.0</ele><time>2026-04-07T14:41:50Z</time></trkpt><trkpt lat="45.60526296013104" lon="8.202023561531096"><ele>384.0</ele><time>2026-04-07T14:41:51Z</time></trkpt><trkpt lat="45.60531500973404" lon="8.20194187398809"><ele>384.0</ele><time>2026-04-07T14:41:52Z</time></trkpt><trkpt lat="45.605371056485424" lon="8.201857229859133"><ele>384.0</ele><time>2026-04-07T14:41:53Z</time></trkpt><trkpt lat="45.605425254905164" lon="8.201776168301894"><ele>383.99999999999994</ele><time>2026-04-07T14:41:54Z</time></trkpt><trkpt lat="45.60547390301271" lon="8.201694190945721"><ele>384.0</ele><time>2026-04-07T14:41:55Z</time></trkpt><trkpt lat="45.605520640875625" lon="8.201611581549779"><ele>383.4285714285714</ele><time>2026-04-07T14:41:56Z</time></trkpt><trkpt lat="45.605564715475175" lon="8.201524401500127"><ele>382.85714285714283</ele><time>2026-04-07T14:41:57Z</time></trkpt><trkpt lat="45.60559734613989" lon="8.20142906692697"><ele>382.2857142857143</ele><time>2026-04-07T14:41:58Z</time></trkpt><trkpt lat="45.60562428276497" lon="8.201328920042585"><ele>381.71428571428567</ele><time>2026-04-07T14:41:59Z</time></trkpt><trkpt lat="45.60563000606019" lon="8.201222115620855"><ele>381.14285714285717</ele><time>2026-04-07T14:42:00Z</time></trkpt><trkpt lat="45.60562459159315" lon="8.201115930094746"><ele>380.57142857142856</ele><time>2026-04-07T14:42:01Z</time></trkpt><trkpt lat="45.60561299749041" lon="8.201009838423069"><ele>380.0</ele><time>2026-04-07T14:42:02Z</time></trkpt><trkpt lat="45.60559332580983" lon="8.200901586209872"><ele>379.83333333333337</ele><time>2026-04-07T14:42:03Z</time></trkpt><trkpt lat="45.60557674776141" lon="8.200792397981706"><ele>379.6666666666667</ele><time>2026-04-07T14:42:04Z</time></trkpt><trkpt lat="45.60556073468442" lon="8.200679762261972"><ele>379.5</ele><time>2026-04-07T14:42:05Z</time></trkpt><trkpt lat="45.605544390075806" lon="8.2005642887562"><ele>379.3333333333333</ele><time>2026-04-07T14:42:06Z</time></trkpt><trkpt lat="45.60552671481925" lon="8.200446577436562"><ele>379.16666666666663</ele><time>2026-04-07T14:42:07Z</time></trkpt><trkpt lat="45.60550719580853" lon="8.200327520833502"><ele>379.0</ele><time>2026-04-07T14:42:08Z</time></trkpt><trkpt lat="45.60548988021001" lon="8.200206114826535"><ele>379.0</ele><time>2026-04-07T14:42:09Z</time></trkpt><trkpt lat="45.60548209438528" lon="8.200084945751605"><ele>379.0</ele><time>2026-04-07T14:42:10Z</time></trkpt><trkpt lat="45.60548215517468" lon="8.199962329471965"><ele>379.0</ele><time>2026-04-07T14:42:11Z</time></trkpt><trkpt lat="45.605493500215815" lon="8.199841165975549"><ele>379.0</ele><time>2026-04-07T14:42:12Z</time></trkpt><trkpt lat="45.60552029505567" lon="8.199729242561341"><ele>379.0</ele><time>2026-04-07T14:42:13Z</time></trkpt><trkpt lat="45.60556479721414" lon="8.199636277942423"><ele>379.0</ele><time>2026-04-07T14:42:14Z</time></trkpt><trkpt lat="45.60561712777315" lon="8.199561348433576"><ele>379.0</ele><time>2026-04-07T14:42:15Z</time></trkpt><trkpt lat="45.60570732732275" lon="8.199472774089243"><ele>379.0</ele><time>2026-04-07T14:42:17Z</time></trkpt><trkpt lat="45.605747305845256" lon="8.199396786381051"><ele>379.0</ele><time>2026-04-07T14:42:20Z</time></trkpt><trkpt lat="45.60566395911538" lon="8.199346179878278"><ele>379.0</ele><time>2026-04-07T14:42:22Z</time></trkpt><trkpt lat="45.605715736849845" lon="8.199400389360356"><ele>379.0</ele><time>2026-04-07T14:48:00Z</time></trkpt><trkpt lat="45.60571602156988" lon="8.199490996634722"><ele>379.0</ele><time>2026-04-07T14:48:05Z</time></trkpt><trkpt lat="45.60579507777115" lon="8.199496434491213"><ele>379.00000000000006</ele><time>2026-04-07T14:48:18Z</time></trkpt><trkpt lat="45.605856670090006" lon="8.199557636419163"><ele>379.0</ele><time>2026-04-07T14:48:22Z</time></trkpt><trkpt lat="45.60583514847154" lon="8.199657461693548"><ele>379.0</ele><time>2026-04-07T14:48:26Z</time></trkpt><trkpt lat="45.60587543954931" lon="8.199738807711473"><ele>379.0</ele><time>2026-04-07T14:48:30Z</time></trkpt><trkpt lat="45.60594235577601" lon="8.199744064399002"><ele>379.0</ele><time>2026-04-07T14:48:35Z</time></trkpt><trkpt lat="45.60600581034706" lon="8.199751809334"><ele>379.00000000000006</ele><time>2026-04-07T14:48:41Z</time></trkpt><trkpt lat="45.606073280099864" lon="8.199676541730405"><ele>379.0</ele><time>2026-04-07T14:48:44Z</time></trkpt><trkpt lat="45.60613570260959" lon="8.199614235946992"><ele>377.5714285714286</ele><time>2026-04-07T14:48:47Z</time></trkpt><trkpt lat="45.60616433357297" lon="8.199533389518766"><ele>376.14285714285717</ele><time>2026-04-07T14:48:49Z</time></trkpt><trkpt lat="45.60622833931173" lon="8.199538061268179"><ele>374.7142857142857</ele><time>2026-04-07T14:48:52Z</time></trkpt><trkpt lat="45.60627927190458" lon="8.19944576616961"><ele>373.28571428571433</ele><time>2026-04-07T14:48:56.001Z</time></trkpt><trkpt lat="45.60634239338199" lon="8.199423821111521"><ele>371.85714285714283</ele><time>2026-04-07T14:49:02.001Z</time></trkpt><trkpt lat="45.606409922904746" lon="8.19944258547592"><ele>370.42857142857144</ele><time>2026-04-07T14:49:06.001Z</time></trkpt><trkpt lat="45.60648787656436" lon="8.19950610205126"><ele>369.0</ele><time>2026-04-07T14:49:09Z</time></trkpt><trkpt lat="45.60657043962504" lon="8.199448263553942"><ele>369.0</ele><time>2026-04-07T14:49:11Z</time></trkpt><trkpt lat="45.60662986258982" lon="8.199396457659889"><ele>369.0</ele><time>2026-04-07T14:49:12Z</time></trkpt><trkpt lat="45.606685197874725" lon="8.199345216757834"><ele>369.0</ele><time>2026-04-07T14:49:16Z</time></trkpt><trkpt lat="45.60673783329483" lon="8.199278217516207"><ele>369.0</ele><time>2026-04-07T14:51:45Z</time></trkpt><trkpt lat="45.606683777408" lon="8.199339535484606"><ele>369.0</ele><time>2026-04-07T14:52:07Z</time></trkpt><trkpt lat="45.606755182136084" lon="8.199324191348042"><ele>369.0</ele><time>2026-04-07T14:53:17Z</time></trkpt><trkpt lat="45.60689520742762" lon="8.199348778160568"><ele>369.0</ele><time>2026-04-07T14:53:24Z</time></trkpt><trkpt lat="45.606957852423946" lon="8.199373797423478"><ele>369.0</ele><time>2026-04-07T14:54:14Z</time></trkpt><trkpt lat="45.607027742226116" lon="8.199394501406577"><ele>369.0</ele><time>2026-04-07T14:54:18Z</time></trkpt><trkpt lat="45.607091377287915" lon="8.199372191634925"><ele>369.0</ele><time>2026-04-07T14:54:22Z</time></trkpt><trkpt lat="45.60716614899557" lon="8.199342177371408"><ele>369.0</ele><time>2026-04-07T14:54:26Z</time></trkpt><trkpt lat="45.607254222546004" lon="8.199299453866034"><ele>369.0</ele><time>2026-04-07T14:54:29Z</time></trkpt><trkpt lat="45.607365614367154" lon="8.1992594822713"><ele>367.1666666666667</ele><time>2026-04-07T14:54:31Z</time></trkpt><trkpt lat="45.60743074701117" lon="8.199233883436063"><ele>365.3333333333333</ele><time>2026-04-07T14:54:32Z</time></trkpt><trkpt lat="45.607541467204406" lon="8.199179771473643"><ele>363.5</ele><time>2026-04-07T14:54:34Z</time></trkpt><trkpt lat="45.607609577224935" lon="8.199189609225852"><ele>361.66666666666663</ele><time>2026-04-07T14:54:35Z</time></trkpt><trkpt lat="45.60771947641958" lon="8.199165865237418"><ele>359.8333333333333</ele><time>2026-04-07T14:54:37Z</time></trkpt><trkpt lat="45.60779159578954" lon="8.199203867990807"><ele>358.0</ele><time>2026-04-07T14:54:39Z</time></trkpt><trkpt lat="45.60780841986866" lon="8.199340683651185"><ele>359.0</ele><time>2026-04-07T14:54:41Z</time></trkpt><trkpt lat="45.60786784211359" lon="8.199458502536785"><ele>360.0</ele><time>2026-04-07T14:54:42.999Z</time></trkpt><trkpt lat="45.6079151761055" lon="8.199556402197674"><ele>361.0</ele><time>2026-04-07T14:54:44.999Z</time></trkpt><trkpt lat="45.60795780735854" lon="8.199625171940996"><ele>362.0</ele><time>2026-04-07T14:54:46.999Z</time></trkpt><trkpt lat="45.60801365151804" lon="8.199680384984092"><ele>363.0</ele><time>2026-04-07T14:54:47.999Z</time></trkpt><trkpt lat="45.60809206128191" lon="8.199726294803003"><ele>364.0</ele><time>2026-04-07T14:54:49.999Z</time></trkpt><trkpt lat="45.60809941674631" lon="8.199850491610997"><ele>361.66666666666663</ele><time>2026-04-07T14:54:51.999Z</time></trkpt><trkpt lat="45.608156388736006" lon="8.199954058228785"><ele>359.3333333333333</ele><time>2026-04-07T14:54:53.999Z</time></trkpt><trkpt lat="45.608217946035005" lon="8.199983390960398"><ele>357.0</ele><time>2026-04-07T14:54:54.999Z</time></trkpt><trkpt lat="45.608278538966886" lon="8.200059145008428"><ele>354.6666666666667</ele><time>2026-04-07T14:54:55.999Z</time></trkpt><trkpt lat="45.60827070200074" lon="8.200204318025323"><ele>352.33333333333337</ele><time>2026-04-07T14:54:57.999Z</time></trkpt><trkpt lat="45.60827303951265" lon="8.200294689357394"><ele>350.0</ele><time>2026-04-07T14:54:59.999Z</time></trkpt><trkpt lat="45.60827772011223" lon="8.200388435423278"><ele>350.0</ele><time>2026-04-07T14:55:06.999Z</time></trkpt><trkpt lat="45.60832061022338" lon="8.200482535475267"><ele>350.0</ele><time>2026-04-07T14:55:09.999Z</time></trkpt><trkpt lat="45.60839733383359" lon="8.200543885787427"><ele>350.0</ele><time>2026-04-07T14:55:12Z</time></trkpt><trkpt lat="45.60847402235724" lon="8.200597122265467"><ele>350.0</ele><time>2026-04-07T14:55:14Z</time></trkpt><trkpt lat="45.608540478378316" lon="8.2006764320407"><ele>350.0</ele><time>2026-04-07T14:55:16Z</time></trkpt><trkpt lat="45.60863834591008" lon="8.200755045757486"><ele>349.4</ele><time>2026-04-07T14:55:18Z</time></trkpt><trkpt lat="45.6087114287038" lon="8.20090229364155"><ele>348.8</ele><time>2026-04-07T14:55:20Z</time></trkpt><trkpt lat="45.60875844046189" lon="8.200967647058578"><ele>348.20000000000005</ele><time>2026-04-07T14:55:21Z</time></trkpt><trkpt lat="45.60881447924456" lon="8.201030447637049"><ele>347.6</ele><time>2026-04-07T14:55:22Z</time></trkpt><trkpt lat="45.6089114624531" lon="8.201092416636538"><ele>347.0</ele><time>2026-04-07T14:55:24Z</time></trkpt><trkpt lat="45.60901474723793" lon="8.201114439007306"><ele>347.0</ele><time>2026-04-07T14:55:26Z</time></trkpt><trkpt lat="45.609002506654015" lon="8.201009607295466"><ele>347.0</ele><time>2026-04-07T14:55:30Z</time></trkpt><trkpt lat="45.60897715946246" lon="8.200920526649123"><ele>347.0</ele><time>2026-04-07T14:55:31Z</time></trkpt><trkpt lat="45.60894589801737" lon="8.200787243784198"><ele>347.0</ele><time>2026-04-07T14:55:32Z</time></trkpt><trkpt lat="45.60890786143897" lon="8.200646865791729"><ele>347.0</ele><time>2026-04-07T14:55:33Z</time></trkpt><trkpt lat="45.608864000554966" lon="8.20051123383051"><ele>350.0</ele><time>2026-04-07T14:55:34Z</time></trkpt><trkpt lat="45.608831440599154" lon="8.200415725338896"><ele>353.0</ele><time>2026-04-07T14:55:35Z</time></trkpt><trkpt lat="45.60884724047303" lon="8.200229061322702"><ele>356.0</ele><time>2026-04-07T14:55:37Z</time></trkpt><trkpt lat="45.608873357685525" lon="8.20012557584223"><ele>359.0</ele><time>2026-04-07T14:55:38Z</time></trkpt><trkpt lat="45.60893422549032" lon="8.1999871370625"><ele>362.0</ele><time>2026-04-07T14:55:40Z</time></trkpt><trkpt lat="45.608976342713696" lon="8.199906634049555"><ele>363.6666666666667</ele><time>2026-04-07T14:55:41Z</time></trkpt><trkpt lat="45.608995075033356" lon="8.199789460096037"><ele>365.33333333333337</ele><time>2026-04-07T14:55:42Z</time></trkpt><trkpt lat="45.609005878090194" lon="8.199667459865084"><ele>367.0</ele><time>2026-04-07T14:55:43Z</time></trkpt><trkpt lat="45.609024582905874" lon="8.199559200997886"><ele>368.6666666666667</ele><time>2026-04-07T14:55:44Z</time></trkpt><trkpt lat="45.60904212998009" lon="8.199462234737767"><ele>370.3333333333333</ele><time>2026-04-07T14:55:45Z</time></trkpt><trkpt lat="45.60909682511698" lon="8.199391648512966"><ele>372.0</ele><time>2026-04-07T14:55:47Z</time></trkpt><trkpt lat="45.60907511368609" lon="8.199524538993566"><ele>372.0</ele><time>2026-04-07T14:55:49Z</time></trkpt><trkpt lat="45.60907616395485" lon="8.199743464295826"><ele>372.0</ele><time>2026-04-07T14:55:51Z</time></trkpt><trkpt lat="45.609082734320886" lon="8.199867215757571"><ele>372.0</ele><time>2026-04-07T14:55:52Z</time></trkpt><trkpt lat="45.60911461767801" lon="8.199973637037903"><ele>372.0</ele><time>2026-04-07T14:55:53Z</time></trkpt><trkpt lat="45.60916428392255" lon="8.200096767646047"><ele>372.0</ele><time>2026-04-07T14:55:54Z</time></trkpt><trkpt lat="45.609214482516336" lon="8.200199985138648"><ele>372.0</ele><time>2026-04-07T14:55:55Z</time></trkpt><trkpt lat="45.609300843715125" lon="8.200291714016458"><ele>372.0</ele><time>2026-04-07T14:55:56Z</time></trkpt><trkpt lat="45.60938924530714" lon="8.200307046331691"><ele>372.0</ele><time>2026-04-07T14:55:58Z</time></trkpt><trkpt lat="45.60945296882284" lon="8.200281310656457"><ele>372.0</ele><time>2026-04-07T14:55:59Z</time></trkpt><trkpt lat="45.609499848994716" lon="8.200198100578866"><ele>372.0</ele><time>2026-04-07T14:56:00Z</time></trkpt><trkpt lat="45.60946271478727" lon="8.20005397399594"><ele>372.0</ele><time>2026-04-07T14:56:01Z</time></trkpt><trkpt lat="45.60944521765857" lon="8.199915545960248"><ele>372.0</ele><time>2026-04-07T14:56:03Z</time></trkpt><trkpt lat="45.609464766933755" lon="8.19980345625435"><ele>372.0</ele><time>2026-04-07T14:56:04Z</time></trkpt><trkpt lat="45.60951053679261" lon="8.199625172982564"><ele>372.0</ele><time>2026-04-07T14:56:06Z</time></trkpt><trkpt lat="45.609599146774826" lon="8.199591615363623"><ele>372.0</ele><time>2026-04-07T14:56:07Z</time></trkpt><trkpt lat="45.60960757389586" lon="8.199414865007244"><ele>372.0</ele><time>2026-04-07T14:56:09Z</time></trkpt><trkpt lat="45.60964961467723" lon="8.199294770577206"><ele>374.0</ele><time>2026-04-07T14:56:11Z</time></trkpt><trkpt lat="45.6096690756128" lon="8.199189891813614"><ele>376.0</ele><time>2026-04-07T14:56:13Z</time></trkpt><trkpt lat="45.609685395382414" lon="8.199039752617667"><ele>378.0</ele><time>2026-04-07T14:56:15Z</time></trkpt><trkpt lat="45.6097168153567" lon="8.198946221163844"><ele>380.0</ele><time>2026-04-07T14:56:16Z</time></trkpt><trkpt lat="45.60972278348429" lon="8.198826266455528"><ele>382.0</ele><time>2026-04-07T14:56:17Z</time></trkpt><trkpt lat="45.60973637120666" lon="8.19873201820651"><ele>384.0</ele><time>2026-04-07T14:56:18Z</time></trkpt><trkpt lat="45.60979780540948" lon="8.198660720373807"><ele>385.6</ele><time>2026-04-07T14:56:20Z</time></trkpt><trkpt lat="45.609870791169115" lon="8.198650164307564"><ele>387.2</ele><time>2026-04-07T14:56:21Z</time></trkpt><trkpt lat="45.60993383036263" lon="8.198597021274301"><ele>388.8</ele><time>2026-04-07T14:56:22Z</time></trkpt><trkpt lat="45.610009268049936" lon="8.198539570900131"><ele>390.40000000000003</ele><time>2026-04-07T14:56:23Z</time></trkpt><trkpt lat="45.610155289813115" lon="8.198550247796408"><ele>392.0</ele><time>2026-04-07T14:56:25Z</time></trkpt><trkpt lat="45.61024798353843" lon="8.19852114254889"><ele>394.75</ele><time>2026-04-07T14:56:26Z</time></trkpt><trkpt lat="45.610360188559376" lon="8.198470592742838"><ele>397.5</ele><time>2026-04-07T14:56:27Z</time></trkpt><trkpt lat="45.61046146353875" lon="8.198395133476614"><ele>400.25</ele><time>2026-04-07T14:56:28Z</time></trkpt><trkpt lat="45.6105550425464" lon="8.19826380893759"><ele>403.0</ele><time>2026-04-07T14:56:29Z</time></trkpt><trkpt lat="45.610631557584796" lon="8.198158557045334"><ele>403.00000000000006</ele><time>2026-04-07T14:56:30Z</time></trkpt><trkpt lat="45.61070669166439" lon="8.19813521550209"><ele>403.0</ele><time>2026-04-07T14:56:31Z</time></trkpt><trkpt lat="45.61076922951686" lon="8.198151683624394"><ele>403.0</ele><time>2026-04-07T14:56:32Z</time></trkpt><trkpt lat="45.61083535590547" lon="8.19821035726732"><ele>403.0</ele><time>2026-04-07T14:56:33Z</time></trkpt><trkpt lat="45.61092880798061" lon="8.198281892693371"><ele>403.00000000000006</ele><time>2026-04-07T14:56:34Z</time></trkpt><trkpt lat="45.61102569785871" lon="8.198301752122186"><ele>403.0</ele><time>2026-04-07T14:56:35Z</time></trkpt><trkpt lat="45.61108776746465" lon="8.198255587660052"><ele>404.00000000000006</ele><time>2026-04-07T14:56:36Z</time></trkpt><trkpt lat="45.61116742012992" lon="8.198252147577545"><ele>405.0</ele><time>2026-04-07T14:56:37Z</time></trkpt><trkpt lat="45.61125302172499" lon="8.19828872129505"><ele>406.0</ele><time>2026-04-07T14:56:38Z</time></trkpt><trkpt lat="45.611329792986396" lon="8.198289867404135"><ele>407.0</ele><time>2026-04-07T14:56:39Z</time></trkpt><trkpt lat="45.61140532541184" lon="8.198310391406046"><ele>408.00000000000006</ele><time>2026-04-07T14:56:40Z</time></trkpt><trkpt lat="45.61147707876575" lon="8.19834057237146"><ele>409.0</ele><time>2026-04-07T14:56:41Z</time></trkpt><trkpt lat="45.61153952679071" lon="8.198328943024919"><ele>409.0</ele><time>2026-04-07T14:56:42Z</time></trkpt><trkpt lat="45.611637849225886" lon="8.198331200287884"><ele>409.0</ele><time>2026-04-07T14:56:43.999Z</time></trkpt><trkpt lat="45.611690370020376" lon="8.198530027605349"><ele>409.0</ele><time>2026-04-07T14:57:04.999Z</time></trkpt><trkpt lat="45.6117355463124" lon="8.19867267718207"><ele>409.0</ele><time>2026-04-07T14:57:06.999Z</time></trkpt><trkpt lat="45.61175931840432" lon="8.198832049551488"><ele>409.0</ele><time>2026-04-07T14:57:08.999Z</time></trkpt><trkpt lat="45.61179146769276" lon="8.198929012635936"><ele>409.0</ele><time>2026-04-07T14:57:09.999Z</time></trkpt><trkpt lat="45.61183909392399" lon="8.199014509628336"><ele>409.0</ele><time>2026-04-07T14:57:10.999Z</time></trkpt><trkpt lat="45.61192090343937" lon="8.199114154251891"><ele>409.0</ele><time>2026-04-07T14:57:11.999Z</time></trkpt><trkpt lat="45.61202101941697" lon="8.199265403485557"><ele>409.0</ele><time>2026-04-07T14:57:13.999Z</time></trkpt><trkpt lat="45.6120561020619" lon="8.199397345527306"><ele>409.00000000000006</ele><time>2026-04-07T14:57:14.999Z</time></trkpt><trkpt lat="45.61209176944273" lon="8.199518117755225"><ele>409.0</ele><time>2026-04-07T14:57:15.999Z</time></trkpt><trkpt lat="45.61212059560785" lon="8.199606784124514"><ele>409.0</ele><time>2026-04-07T14:57:16.999Z</time></trkpt><trkpt lat="45.612180253147585" lon="8.199703424517388"><ele>409.0</ele><time>2026-04-07T14:57:19Z</time></trkpt><trkpt lat="45.6122081474207" lon="8.199800049535451"><ele>409.00000000000006</ele><time>2026-04-07T14:57:23Z</time></trkpt><trkpt lat="45.6121988394251" lon="8.199942821038958"><ele>409.0</ele><time>2026-04-07T14:57:25Z</time></trkpt><trkpt lat="45.61217772290419" lon="8.200115157067842"><ele>409.00000000000006</ele><time>2026-04-07T14:57:27Z</time></trkpt><trkpt lat="45.61212336049374" lon="8.200229058653873"><ele>409.0</ele><time>2026-04-07T14:57:28Z</time></trkpt><trkpt lat="45.61206722569529" lon="8.200331121641634"><ele>409.0</ele><time>2026-04-07T14:57:29Z</time></trkpt><trkpt lat="45.61203982921895" lon="8.200447619991342"><ele>409.0</ele><time>2026-04-07T14:57:30Z</time></trkpt><trkpt lat="45.61202352253338" lon="8.200559279533241"><ele>409.00000000000006</ele><time>2026-04-07T14:57:31Z</time></trkpt><trkpt lat="45.61199945659686" lon="8.20066489197246"><ele>409.0</ele><time>2026-04-07T14:57:32Z</time></trkpt><trkpt lat="45.61196431999738" lon="8.200771393720554"><ele>407.1666666666667</ele><time>2026-04-07T14:57:33Z</time></trkpt><trkpt lat="45.611967412846056" lon="8.20086759242632"><ele>405.33333333333337</ele><time>2026-04-07T14:57:34Z</time></trkpt><trkpt lat="45.61195634371007" lon="8.200983343682145"><ele>403.5</ele><time>2026-04-07T14:57:35Z</time></trkpt><trkpt lat="45.611917971990735" lon="8.201066241057132"><ele>401.66666666666663</ele><time>2026-04-07T14:57:36Z</time></trkpt><trkpt lat="45.611979855085735" lon="8.201132461983413"><ele>399.8333333333333</ele><time>2026-04-07T14:57:37Z</time></trkpt><trkpt lat="45.612046773801836" lon="8.201209574277575"><ele>398.0</ele><time>2026-04-07T14:57:38Z</time></trkpt><trkpt lat="45.61208761630992" lon="8.201379588708432"><ele>397.99999999999994</ele><time>2026-04-07T14:57:40Z</time></trkpt><trkpt lat="45.612139314359304" lon="8.201466070045434"><ele>398.0</ele><time>2026-04-07T14:57:41Z</time></trkpt><trkpt lat="45.61214953141757" lon="8.201559991856865"><ele>398.0</ele><time>2026-04-07T14:57:44Z</time></trkpt><trkpt lat="45.612171161492306" lon="8.201671925005288"><ele>398.0</ele><time>2026-04-07T14:57:59Z</time></trkpt><trkpt lat="45.61213320878442" lon="8.201809681342759"><ele>397.99999999999994</ele><time>2026-04-07T14:58:01Z</time></trkpt><trkpt lat="45.612116160675455" lon="8.201934925775939"><ele>398.0</ele><time>2026-04-07T14:58:02Z</time></trkpt><trkpt lat="45.612122265262485" lon="8.202033899218879"><ele>395.59999999999997</ele><time>2026-04-07T14:58:03Z</time></trkpt><trkpt lat="45.61212709930228" lon="8.202161563742514"><ele>393.2</ele><time>2026-04-07T14:58:05Z</time></trkpt><trkpt lat="45.612141854259924" lon="8.202332510338493"><ele>390.8</ele><time>2026-04-07T14:58:07Z</time></trkpt><trkpt lat="45.61212071728093" lon="8.202443364163493"><ele>388.4</ele><time>2026-04-07T14:58:08Z</time></trkpt><trkpt lat="45.612125221584826" lon="8.202567628258391"><ele>386.0</ele><time>2026-04-07T14:58:09Z</time></trkpt><trkpt lat="45.612152810060806" lon="8.20269475091305"><ele>384.20000000000005</ele><time>2026-04-07T14:58:10Z</time></trkpt><trkpt lat="45.61218953907945" lon="8.202841485070156"><ele>382.40000000000003</ele><time>2026-04-07T14:58:11Z</time></trkpt><trkpt lat="45.612226680570444" lon="8.203005036829625"><ele>380.6</ele><time>2026-04-07T14:58:12Z</time></trkpt><trkpt lat="45.61226463396707" lon="8.20314291548559"><ele>378.8</ele><time>2026-04-07T14:58:13Z</time></trkpt><trkpt lat="45.61229366408482" lon="8.203285839341648"><ele>377.0</ele><time>2026-04-07T14:58:14Z</time></trkpt><trkpt lat="45.61233181275215" lon="8.203372803614029"><ele>376.5</ele><time>2026-04-07T14:58:15Z</time></trkpt><trkpt lat="45.61236427791045" lon="8.2034659889638"><ele>376.0</ele><time>2026-04-07T14:58:16Z</time></trkpt><trkpt lat="45.61236975609459" lon="8.203566410003127"><ele>375.5</ele><time>2026-04-07T14:58:17Z</time></trkpt><trkpt lat="45.61235249745809" lon="8.203682009776928"><ele>375.0</ele><time>2026-04-07T14:58:18Z</time></trkpt><trkpt lat="45.61231854741004" lon="8.203783114772204"><ele>374.5</ele><time>2026-04-07T14:58:19Z</time></trkpt><trkpt lat="45.612301605188826" lon="8.203900820385146"><ele>374.0</ele><time>2026-04-07T14:58:20Z</time></trkpt><trkpt lat="45.61229886398916" lon="8.20403590562094"><ele>372.83333333333337</ele><time>2026-04-07T14:58:21Z</time></trkpt><trkpt lat="45.612305120690195" lon="8.204167281767628"><ele>371.6666666666667</ele><time>2026-04-07T14:58:22Z</time></trkpt><trkpt lat="45.61232157783127" lon="8.204316673162916"><ele>370.5</ele><time>2026-04-07T14:58:23Z</time></trkpt><trkpt lat="45.61236438303542" lon="8.204454522966916"><ele>369.3333333333333</ele><time>2026-04-07T14:58:24Z</time></trkpt><trkpt lat="45.612409846279796" lon="8.204545991326594"><ele>368.16666666666663</ele><time>2026-04-07T14:58:25Z</time></trkpt><trkpt lat="45.61239391554584" lon="8.20463882761621"><ele>367.0</ele><time>2026-04-07T14:58:27Z</time></trkpt><trkpt lat="45.61231724926507" lon="8.204664306927338"><ele>367.0</ele><time>2026-04-07T14:58:28Z</time></trkpt><trkpt lat="45.6122206143608" lon="8.20475519684226"><ele>367.0</ele><time>2026-04-07T14:58:30Z</time></trkpt><trkpt lat="45.612209320560545" lon="8.204847144477787"><ele>367.0</ele><time>2026-04-07T14:58:31Z</time></trkpt><trkpt lat="45.61219071209064" lon="8.204945685132367"><ele>367.0</ele><time>2026-04-07T14:58:32Z</time></trkpt><trkpt lat="45.61214862028074" lon="8.205022014310902"><ele>367.0</ele><time>2026-04-07T14:58:33Z</time></trkpt><trkpt lat="45.612110934609646" lon="8.205149671493174"><ele>367.0</ele><time>2026-04-07T14:58:35Z</time></trkpt><trkpt lat="45.61203439642422" lon="8.205224703783584"><ele>366.0</ele><time>2026-04-07T14:58:36Z</time></trkpt><trkpt lat="45.61201172819138" lon="8.205333878236504"><ele>365.0</ele><time>2026-04-07T14:58:38.999Z</time></trkpt><trkpt lat="45.61195915668998" lon="8.205434076803156"><ele>364.0</ele><time>2026-04-07T14:58:41.999Z</time></trkpt><trkpt lat="45.61190607777125" lon="8.205516175399323"><ele>363.0</ele><time>2026-04-07T14:58:44.999Z</time></trkpt><trkpt lat="45.61185101349578" lon="8.205643370490618"><ele>362.0</ele><time>2026-04-07T14:58:46.999Z</time></trkpt><trkpt lat="45.611831538993265" lon="8.205756644519955"><ele>361.0</ele><time>2026-04-07T14:58:47.999Z</time></trkpt><trkpt lat="45.61183335871755" lon="8.205856238011595"><ele>359.5</ele><time>2026-04-07T14:58:48.999Z</time></trkpt><trkpt lat="45.611838516037764" lon="8.205980606881292"><ele>358.0</ele><time>2026-04-07T14:58:49.999Z</time></trkpt><trkpt lat="45.611815664811736" lon="8.206068296139282"><ele>356.5</ele><time>2026-04-07T14:58:50.999Z</time></trkpt><trkpt lat="45.611780543701386" lon="8.206203736527419"><ele>355.0</ele><time>2026-04-07T14:58:52.999Z</time></trkpt><trkpt lat="45.611742356306536" lon="8.206282175087752"><ele>353.5</ele><time>2026-04-07T14:58:58.999Z</time></trkpt><trkpt lat="45.611765722266114" lon="8.206406488753235"><ele>352.0</ele><time>2026-04-07T14:59:45Z</time></trkpt><trkpt lat="45.611713556562705" lon="8.206499898912462"><ele>350.40000000000003</ele><time>2026-04-07T14:59:48Z</time></trkpt><trkpt lat="45.61165372734521" lon="8.20653835289836"><ele>348.8</ele><time>2026-04-07T14:59:50Z</time></trkpt><trkpt lat="45.61156581118213" lon="8.206597731289293"><ele>347.2</ele><time>2026-04-07T14:59:52Z</time></trkpt><trkpt lat="45.61148965427096" lon="8.206687640045809"><ele>345.6</ele><time>2026-04-07T14:59:54Z</time></trkpt><trkpt lat="45.61137212687879" lon="8.206813676279985"><ele>344.0</ele><time>2026-04-07T14:59:56Z</time></trkpt><trkpt lat="45.611307188792715" lon="8.206852903505567"><ele>344.0</ele><time>2026-04-07T14:59:57Z</time></trkpt><trkpt lat="45.61125330888003" lon="8.206906235820913"><ele>344.0</ele><time>2026-04-07T14:59:58Z</time></trkpt><trkpt lat="45.61120639831402" lon="8.206985841064657"><ele>344.0</ele><time>2026-04-07T14:59:59Z</time></trkpt><trkpt lat="45.61112435379946" lon="8.207024719971963"><ele>344.0</ele><time>2026-04-07T15:00:01Z</time></trkpt><trkpt lat="45.6110532533756" lon="8.207046671913433"><ele>344.0</ele><time>2026-04-07T15:00:02Z</time></trkpt><trkpt lat="45.610952772529885" lon="8.207031248856918"><ele>344.0</ele><time>2026-04-07T15:00:04Z</time></trkpt><trkpt lat="45.610840735147896" lon="8.207015073592137"><ele>342.5714285714286</ele><time>2026-04-07T15:00:06Z</time></trkpt><trkpt lat="45.610769813637184" lon="8.20704364909836"><ele>341.14285714285717</ele><time>2026-04-07T15:00:07Z</time></trkpt><trkpt lat="45.610708345807694" lon="8.207070227314093"><ele>339.7142857142857</ele><time>2026-04-07T15:00:08Z</time></trkpt><trkpt lat="45.61061804046791" lon="8.20707950515099"><ele>338.28571428571433</ele><time>2026-04-07T15:00:10Z</time></trkpt><trkpt lat="45.61056146380157" lon="8.207011974040217"><ele>336.8571428571429</ele><time>2026-04-07T15:00:12Z</time></trkpt><trkpt lat="45.61059042072344" lon="8.20692807927426"><ele>335.42857142857144</ele><time>2026-04-07T15:00:15Z</time></trkpt><trkpt lat="45.61061721529654" lon="8.206832205216793"><ele>334.0</ele><time>2026-04-07T15:00:18Z</time></trkpt><trkpt lat="45.61059574252755" lon="8.206711098908894"><ele>334.0</ele><time>2026-04-07T15:00:20Z</time></trkpt><trkpt lat="45.61062680218542" lon="8.206600249204316"><ele>334.0</ele><time>2026-04-07T15:00:43.999Z</time></trkpt><trkpt lat="45.610682456107256" lon="8.206494494312663"><ele>334.0</ele><time>2026-04-07T15:00:50.999Z</time></trkpt><trkpt lat="45.61073485981044" lon="8.206364451179086"><ele>334.0</ele><time>2026-04-07T15:00:52.999Z</time></trkpt><trkpt lat="45.61078759880211" lon="8.206298880540372"><ele>334.0</ele><time>2026-04-07T15:00:53.999Z</time></trkpt><trkpt lat="45.61084815492949" lon="8.206257470467825"><ele>334.0</ele><time>2026-04-07T15:00:54.999Z</time></trkpt><trkpt lat="45.61091295518716" lon="8.206218932063965"><ele>335.0</ele><time>2026-04-07T15:00:55.999Z</time></trkpt><trkpt lat="45.610986680722384" lon="8.206131976007947"><ele>336.0</ele><time>2026-04-07T15:00:57.999Z</time></trkpt><trkpt lat="45.61090288044207" lon="8.20605332933095"><ele>337.0</ele><time>2026-04-07T15:00:59.999Z</time></trkpt><trkpt lat="45.61079035950646" lon="8.20603833338976"><ele>338.0</ele><time>2026-04-07T15:01:00.999Z</time></trkpt><trkpt lat="45.61066470905556" lon="8.205993993161313"><ele>339.0</ele><time>2026-04-07T15:01:01.999Z</time></trkpt><trkpt lat="45.61058598054008" lon="8.2059767778289"><ele>339.0</ele><time>2026-04-07T15:01:02.999Z</time></trkpt><trkpt lat="45.61051919045161" lon="8.205972637898526"><ele>339.0</ele><time>2026-04-07T15:01:03.999Z</time></trkpt><trkpt lat="45.6104620326176" lon="8.206012991242524"><ele>339.0</ele><time>2026-04-07T15:01:04.999Z</time></trkpt><trkpt lat="45.61042674681967" lon="8.2061007842844"><ele>339.0</ele><time>2026-04-07T15:01:06.999Z</time></trkpt><trkpt lat="45.61032566104314" lon="8.206088944351066"><ele>339.0</ele><time>2026-04-07T15:01:08.999Z</time></trkpt><trkpt lat="45.61025641965803" lon="8.206074689553814"><ele>339.0</ele><time>2026-04-07T15:01:10.999Z</time></trkpt><trkpt lat="45.61020575281475" lon="8.205957493946022"><ele>338.2</ele><time>2026-04-07T15:01:12.999Z</time></trkpt><trkpt lat="45.61016070616658" lon="8.205829339000934"><ele>337.4</ele><time>2026-04-07T15:01:14.999Z</time></trkpt><trkpt lat="45.610197679376" lon="8.205705943943354"><ele>336.6</ele><time>2026-04-07T15:01:16.999Z</time></trkpt><trkpt lat="45.61020212794166" lon="8.205577110190015"><ele>335.8</ele><time>2026-04-07T15:01:18.999Z</time></trkpt><trkpt lat="45.61015765534662" lon="8.20540705647562"><ele>335.0</ele><time>2026-04-07T15:01:20.999Z</time></trkpt><trkpt lat="45.61012373019245" lon="8.205308880602512"><ele>335.0</ele><time>2026-04-07T15:01:21.999Z</time></trkpt><trkpt lat="45.61006632964311" lon="8.20521268009489"><ele>335.0</ele><time>2026-04-07T15:01:23.999Z</time></trkpt><trkpt lat="45.61003272792347" lon="8.20505447448675"><ele>335.0</ele><time>2026-04-07T15:01:25.999Z</time></trkpt><trkpt lat="45.61003256158311" lon="8.204955862094236"><ele>335.0</ele><time>2026-04-07T15:01:26.999Z</time></trkpt><trkpt lat="45.61001236300957" lon="8.204821145450575"><ele>335.0</ele><time>2026-04-07T15:01:28.999Z</time></trkpt><trkpt lat="45.61006638130028" lon="8.204739827627204"><ele>335.0</ele><time>2026-04-07T15:01:32Z</time></trkpt><trkpt lat="45.610119109349895" lon="8.204670344448711"><ele>335.1666666666667</ele><time>2026-04-07T15:01:35Z</time></trkpt><trkpt lat="45.61019166084728" lon="8.204624419589933"><ele>335.33333333333337</ele><time>2026-04-07T15:01:44Z</time></trkpt><trkpt lat="45.610206926178975" lon="8.204512478174747"><ele>335.5</ele><time>2026-04-07T15:01:51Z</time></trkpt><trkpt lat="45.61025002654639" lon="8.204433643649102"><ele>335.6666666666667</ele><time>2026-04-07T15:01:59Z</time></trkpt><trkpt lat="45.61031692666681" lon="8.204408658173358"><ele>335.8333333333333</ele><time>2026-04-07T15:02:21Z</time></trkpt><trkpt lat="45.6103689918571" lon="8.204355475337733"><ele>336.0</ele><time>2026-04-07T15:02:23Z</time></trkpt><trkpt lat="45.610331675176575" lon="8.204228758900857"><ele>336.0</ele><time>2026-04-07T15:02:26Z</time></trkpt><trkpt lat="45.61031412803561" lon="8.204137584805945"><ele>336.0</ele><time>2026-04-07T15:02:28Z</time></trkpt><trkpt lat="45.61025525110896" lon="8.204073992272441"><ele>336.0</ele><time>2026-04-07T15:02:30Z</time></trkpt><trkpt lat="45.61012127524128" lon="8.204104807047273"><ele>336.0</ele><time>2026-04-07T15:02:32Z</time></trkpt><trkpt lat="45.61005391567468" lon="8.204212711736778"><ele>336.0</ele><time>2026-04-07T15:02:34Z</time></trkpt><trkpt lat="45.609950866388516" lon="8.204258070839064"><ele>336.0</ele><time>2026-04-07T15:02:36Z</time></trkpt><trkpt lat="45.60984936326592" lon="8.204298083234844"><ele>336.0</ele><time>2026-04-07T15:02:38Z</time></trkpt><trkpt lat="45.609797160452885" lon="8.204208353756785"><ele>336.0</ele><time>2026-04-07T15:02:39Z</time></trkpt><trkpt lat="45.60975008459279" lon="8.204098714366472"><ele>336.0</ele><time>2026-04-07T15:02:40Z</time></trkpt><trkpt lat="45.609706377056085" lon="8.203997950701922"><ele>336.0</ele><time>2026-04-07T15:02:40.999Z</time></trkpt><trkpt lat="45.60961945769179" lon="8.203958259546331"><ele>337.1666666666667</ele><time>2026-04-07T15:02:42.999Z</time></trkpt><trkpt lat="45.609569874894156" lon="8.203895636393765"><ele>338.3333333333333</ele><time>2026-04-07T15:02:44.999Z</time></trkpt><trkpt lat="45.60958907662161" lon="8.203795275394006"><ele>339.5</ele><time>2026-04-07T15:02:46.999Z</time></trkpt><trkpt lat="45.609585907701145" lon="8.203651249201114"><ele>340.66666666666663</ele><time>2026-04-07T15:02:48.999Z</time></trkpt><trkpt lat="45.60958436932134" lon="8.203546620212386"><ele>341.8333333333333</ele><time>2026-04-07T15:02:50.999Z</time></trkpt><trkpt lat="45.609596787088" lon="8.203439284357321"><ele>343.0</ele><time>2026-04-07T15:02:52.999Z</time></trkpt><trkpt lat="45.609631931623184" lon="8.203328903597466"><ele>345.5</ele><time>2026-04-07T15:02:56.999Z</time></trkpt><trkpt lat="45.60970099157513" lon="8.203163628790737"><ele>348.0</ele><time>2026-04-07T15:02:58.999Z</time></trkpt><trkpt lat="45.60980458615986" lon="8.203071045677083"><ele>350.5</ele><time>2026-04-07T15:03:00.999Z</time></trkpt><trkpt lat="45.60971536485051" lon="8.203021028643319"><ele>353.0</ele><time>2026-04-07T15:03:03.999Z</time></trkpt><trkpt lat="45.60960881965702" lon="8.202955561512074"><ele>353.0</ele><time>2026-04-07T15:03:05.999Z</time></trkpt><trkpt lat="45.60953540537778" lon="8.202927393806794"><ele>353.0</ele><time>2026-04-07T15:03:07.999Z</time></trkpt><trkpt lat="45.60948540740911" lon="8.202809754059167"><ele>353.0</ele><time>2026-04-07T15:03:09.999Z</time></trkpt><trkpt lat="45.60945551547157" lon="8.20271987935396"><ele>353.0</ele><time>2026-04-07T15:03:10.999Z</time></trkpt><trkpt lat="45.60941453559123" lon="8.202626213284336"><ele>353.0</ele><time>2026-04-07T15:03:11.999Z</time></trkpt><trkpt lat="45.60934504592019" lon="8.202580285043034"><ele>353.0</ele><time>2026-04-07T15:03:13.999Z</time></trkpt><trkpt lat="45.60934905589412" lon="8.202687468988316"><ele>350.33333333333337</ele><time>2026-04-07T15:03:25.999Z</time></trkpt><trkpt lat="45.609333506013485" lon="8.202803371804588"><ele>347.6666666666667</ele><time>2026-04-07T15:03:29.999Z</time></trkpt><trkpt lat="45.60927592285409" lon="8.202872437643002"><ele>345.0</ele><time>2026-04-07T15:03:34.999Z</time></trkpt><trkpt lat="45.60920625986936" lon="8.202891877583538"><ele>342.3333333333333</ele><time>2026-04-07T15:03:39Z</time></trkpt><trkpt lat="45.609153103899885" lon="8.20294328220022"><ele>339.66666666666663</ele><time>2026-04-07T15:03:41Z</time></trkpt><trkpt lat="45.60905462978031" lon="8.202991128422564"><ele>337.0</ele><time>2026-04-07T15:03:43Z</time></trkpt><trkpt lat="45.608992533269046" lon="8.203025546715173"><ele>337.00000000000006</ele><time>2026-04-07T15:03:44Z</time></trkpt><trkpt lat="45.608938883594845" lon="8.203081138923892"><ele>337.0</ele><time>2026-04-07T15:03:45Z</time></trkpt><trkpt lat="45.60888770187943" lon="8.203145750014182"><ele>337.0</ele><time>2026-04-07T15:03:46Z</time></trkpt><trkpt lat="45.60882681241667" lon="8.203192835146027"><ele>337.0</ele><time>2026-04-07T15:03:47Z</time></trkpt><trkpt lat="45.60875662316626" lon="8.203175750438325"><ele>337.0</ele><time>2026-04-07T15:04:12Z</time></trkpt><trkpt lat="45.608692627047404" lon="8.203134276389862"><ele>337.00000000000006</ele><time>2026-04-07T15:04:15Z</time></trkpt><trkpt lat="45.60862704191906" lon="8.20311116687861"><ele>337.0</ele><time>2026-04-07T15:04:17Z</time></trkpt><trkpt lat="45.60855624949615" lon="8.203072188823144"><ele>338.16666666666663</ele><time>2026-04-07T15:04:19Z</time></trkpt><trkpt lat="45.608484670168316" lon="8.203017219763769"><ele>339.3333333333333</ele><time>2026-04-07T15:04:21Z</time></trkpt><trkpt lat="45.60841861532971" lon="8.20297312630883"><ele>340.5</ele><time>2026-04-07T15:04:23Z</time></trkpt><trkpt lat="45.60835611466165" lon="8.202907317962396"><ele>341.6666666666667</ele><time>2026-04-07T15:04:27Z</time></trkpt><trkpt lat="45.60827126466022" lon="8.202843554267568"><ele>342.83333333333337</ele><time>2026-04-07T15:04:29Z</time></trkpt><trkpt lat="45.60821011683913" lon="8.20280900375429"><ele>344.0</ele><time>2026-04-07T15:04:32Z</time></trkpt><trkpt lat="45.60815760271662" lon="8.202741806968683"><ele>344.0</ele><time>2026-04-07T15:04:34Z</time></trkpt><trkpt lat="45.60809735924743" lon="8.2026727419261"><ele>344.0</ele><time>2026-04-07T15:04:37Z</time></trkpt><trkpt lat="45.60801127913245" lon="8.202603639596466"><ele>344.0</ele><time>2026-04-07T15:04:39Z</time></trkpt><trkpt lat="45.60792028886876" lon="8.202567800303719"><ele>344.0</ele><time>2026-04-07T15:04:41Z</time></trkpt><trkpt lat="45.60779568701171" lon="8.202477094634155"><ele>344.0</ele><time>2026-04-07T15:04:42.999Z</time></trkpt><trkpt lat="45.60771162529141" lon="8.202413896586739"><ele>345.6666666666667</ele><time>2026-04-07T15:04:43.999Z</time></trkpt><trkpt lat="45.60762484153661" lon="8.202360197449856"><ele>347.33333333333337</ele><time>2026-04-07T15:04:45.999Z</time></trkpt><trkpt lat="45.60755862379205" lon="8.202355064263065"><ele>349.0</ele><time>2026-04-07T15:04:47.999Z</time></trkpt><trkpt lat="45.607481083586904" lon="8.202347094264038"><ele>350.6666666666667</ele><time>2026-04-07T15:04:50.999Z</time></trkpt><trkpt lat="45.60740090623666" lon="8.20230765574192"><ele>352.3333333333333</ele><time>2026-04-07T15:04:53.999Z</time></trkpt><trkpt lat="45.60735079998562" lon="8.202217062630083"><ele>354.0</ele><time>2026-04-07T15:04:55.999Z</time></trkpt><trkpt lat="45.60729140611214" lon="8.20214194094224"><ele>354.1666666666667</ele><time>2026-04-07T15:04:57.999Z</time></trkpt><trkpt lat="45.60723325089986" lon="8.202083672213003"><ele>354.3333333333333</ele><time>2026-04-07T15:05:00.999Z</time></trkpt><trkpt lat="45.607169274833" lon="8.202067470829949"><ele>354.5</ele><time>2026-04-07T15:05:02.999Z</time></trkpt><trkpt lat="45.607096874539" lon="8.202083361681177"><ele>354.66666666666663</ele><time>2026-04-07T15:05:04.999Z</time></trkpt><trkpt lat="45.60699499860825" lon="8.202060148060857"><ele>354.8333333333333</ele><time>2026-04-07T15:05:07.999Z</time></trkpt><trkpt lat="45.60692343810502" lon="8.202071587410844"><ele>355.0</ele><time>2026-04-07T15:05:10.999Z</time></trkpt><trkpt lat="45.60684723767404" lon="8.202088007171843"><ele>357.8333333333333</ele><time>2026-04-07T15:05:14.999Z</time></trkpt><trkpt lat="45.60677258063524" lon="8.202118692886543"><ele>360.66666666666663</ele><time>2026-04-07T15:05:17.999Z</time></trkpt><trkpt lat="45.606698072884924" lon="8.202162447132398"><ele>363.5</ele><time>2026-04-07T15:05:20.999Z</time></trkpt><trkpt lat="45.60663748138125" lon="8.202191853052335"><ele>366.3333333333333</ele><time>2026-04-07T15:05:22.999Z</time></trkpt><trkpt lat="45.60652813802555" lon="8.202133259109697"><ele>369.1666666666667</ele><time>2026-04-07T15:05:36.999Z</time></trkpt><trkpt lat="45.60649961185703" lon="8.20205270294615"><ele>372.0</ele><time>2026-04-07T15:05:38.999Z</time></trkpt><trkpt lat="45.606474375447995" lon="8.201966594280208"><ele>372.0</ele><time>2026-04-07T15:05:40.999Z</time></trkpt><trkpt lat="45.60644662095461" lon="8.201861979270666"><ele>372.0</ele><time>2026-04-07T15:05:43Z</time></trkpt><trkpt lat="45.60640690659853" lon="8.201749710084034"><ele>372.0</ele><time>2026-04-07T15:05:45Z</time></trkpt><trkpt lat="45.60637451250575" lon="8.201624089407728"><ele>372.0</ele><time>2026-04-07T15:05:47Z</time></trkpt><trkpt lat="45.60630195511903" lon="8.201499809080765"><ele>372.0</ele><time>2026-04-07T15:05:49Z</time></trkpt><trkpt lat="45.60621622092974" lon="8.201393975612131"><ele>373.1666666666667</ele><time>2026-04-07T15:05:51Z</time></trkpt><trkpt lat="45.60612501205577" lon="8.2012975813079"><ele>374.3333333333333</ele><time>2026-04-07T15:05:53Z</time></trkpt><trkpt lat="45.606070690453144" lon="8.2012385161327"><ele>375.5</ele><time>2026-04-07T15:05:54Z</time></trkpt><trkpt lat="45.60602117930526" lon="8.201166248533179"><ele>376.66666666666663</ele><time>2026-04-07T15:05:55Z</time></trkpt><trkpt lat="45.605970998455405" lon="8.201091907387758"><ele>377.8333333333333</ele><time>2026-04-07T15:05:56Z</time></trkpt><trkpt lat="45.6059274914057" lon="8.201024807258632"><ele>379.0</ele><time>2026-04-07T15:05:57Z</time></trkpt><trkpt lat="45.605846750869084" lon="8.200907862605892"><ele>379.0</ele><time>2026-04-07T15:05:59Z</time></trkpt><trkpt lat="45.60578822552487" lon="8.200811748387673"><ele>379.0</ele><time>2026-04-07T15:06:01Z</time></trkpt><trkpt lat="45.60572326401449" lon="8.200767850631268"><ele>379.0</ele><time>2026-04-07T15:06:03Z</time></trkpt><trkpt lat="45.60565953709898" lon="8.200671662185282"><ele>379.0</ele><time>2026-04-07T15:06:06Z</time></trkpt><trkpt lat="45.60559076610125" lon="8.200613819303667"><ele>379.0</ele><time>2026-04-07T15:06:08Z</time></trkpt><trkpt lat="45.605520299450596" lon="8.200673197497535"><ele>379.0</ele><time>2026-04-07T15:06:23Z</time></trkpt><trkpt lat="45.60552419654185" lon="8.200798012148397"><ele>379.0</ele><time>2026-04-07T15:06:25Z</time></trkpt><trkpt lat="45.605549124998525" lon="8.20096295505628"><ele>379.0</ele><time>2026-04-07T15:06:27Z</time></trkpt><trkpt lat="45.60556066248256" lon="8.20105165375453"><ele>379.0</ele><time>2026-04-07T15:06:28Z</time></trkpt><trkpt lat="45.60557365179678" lon="8.201148151147834"><ele>379.0</ele><time>2026-04-07T15:06:29Z</time></trkpt><trkpt lat="45.605577079488995" lon="8.201252301269081"><ele>379.0</ele><time>2026-04-07T15:06:30Z</time></trkpt><trkpt lat="45.60557021600791" lon="8.201357895423499"><ele>379.0</ele><time>2026-04-07T15:06:31Z</time></trkpt><trkpt lat="45.605550044017725" lon="8.201466099543536"><ele>379.16666666666663</ele><time>2026-04-07T15:06:32Z</time></trkpt><trkpt lat="45.60551710010352" lon="8.201568024861407"><ele>379.3333333333333</ele><time>2026-04-07T15:06:33Z</time></trkpt><trkpt lat="45.605457412244704" lon="8.201641143431143"><ele>379.5</ele><time>2026-04-07T15:06:34Z</time></trkpt><trkpt lat="45.60540485678005" lon="8.201722946008333"><ele>379.6666666666667</ele><time>2026-04-07T15:06:35Z</time></trkpt><trkpt lat="45.60534830236341" lon="8.201808340889214"><ele>379.83333333333337</ele><time>2026-04-07T15:06:36Z</time></trkpt><trkpt lat="45.605304494572465" lon="8.201909249843466"><ele>380.0</ele><time>2026-04-07T15:06:37Z</time></trkpt><trkpt lat="45.60524628809334" lon="8.201994726512657"><ele>380.6666666666667</ele><time>2026-04-07T15:06:38Z</time></trkpt><trkpt lat="45.605189540046716" lon="8.202079202206127"><ele>381.33333333333337</ele><time>2026-04-07T15:06:38.999Z</time></trkpt><trkpt lat="45.60513340665725" lon="8.2021606982066"><ele>382.0</ele><time>2026-04-07T15:06:39.999Z</time></trkpt><trkpt lat="45.605076885133094" lon="8.202227513636066"><ele>382.6666666666667</ele><time>2026-04-07T15:06:40.999Z</time></trkpt><trkpt lat="45.60499687596322" lon="8.202272229822047"><ele>383.3333333333333</ele><time>2026-04-07T15:06:42.999Z</time></trkpt><trkpt lat="45.605083424945406" lon="8.202222707796604"><ele>384.0</ele><time>2026-04-07T15:06:47.999Z</time></trkpt><trkpt lat="45.60501874418724" lon="8.202235939771764"><ele>384.0</ele><time>2026-04-07T15:06:50.999Z</time></trkpt><trkpt lat="45.604947180628045" lon="8.202052913317404"><ele>384.0</ele><time>2026-04-07T15:06:51.999Z</time></trkpt><trkpt lat="45.60481289248571" lon="8.20208195364495"><ele>384.0</ele><time>2026-04-07T15:06:53.999Z</time></trkpt><trkpt lat="45.604765233391916" lon="8.202361469542964"><ele>383.8333333333333</ele><time>2026-04-07T15:06:54.999Z</time></trkpt><trkpt lat="45.6046883902395" lon="8.202403780401545"><ele>383.6666666666667</ele><time>2026-04-07T15:06:55.999Z</time></trkpt><trkpt lat="45.60463174087487" lon="8.2024520186496"><ele>383.5</ele><time>2026-04-07T15:06:56.999Z</time></trkpt><trkpt lat="45.60456808767835" lon="8.202534428494792"><ele>383.33333333333337</ele><time>2026-04-07T15:06:58.999Z</time></trkpt><trkpt lat="45.60452004260599" lon="8.202597588815511"><ele>383.1666666666667</ele><time>2026-04-07T15:06:59.999Z</time></trkpt><trkpt lat="45.60445180432229" lon="8.20272672286085"><ele>383.0</ele><time>2026-04-07T15:07:01.999Z</time></trkpt><trkpt lat="45.604413353920776" lon="8.202817553069849"><ele>383.79999999999995</ele><time>2026-04-07T15:07:02.999Z</time></trkpt><trkpt lat="45.60436725413358" lon="8.202926082608606"><ele>384.6</ele><time>2026-04-07T15:07:03.999Z</time></trkpt><trkpt lat="45.60432131383436" lon="8.203037229760074"><ele>385.4</ele><time>2026-04-07T15:07:05.999Z</time></trkpt><trkpt lat="45.604255814408646" lon="8.203196972563372"><ele>386.20000000000005</ele><time>2026-04-07T15:07:07.999Z</time></trkpt><trkpt lat="45.60420770558609" lon="8.203310956461934"><ele>387.0</ele><time>2026-04-07T15:07:09.999Z</time></trkpt><trkpt lat="45.60416662521188" lon="8.203405750907207"><ele>388.0</ele><time>2026-04-07T15:07:10.999Z</time></trkpt><trkpt lat="45.60409862278728" lon="8.203586060050702"><ele>389.0</ele><time>2026-04-07T15:07:12.999Z</time></trkpt><trkpt lat="45.604059623977996" lon="8.20372470333432"><ele>390.0</ele><time>2026-04-07T15:07:14.999Z</time></trkpt><trkpt lat="45.604046297373294" lon="8.203813559282592"><ele>391.0</ele><time>2026-04-07T15:07:17.999Z</time></trkpt><trkpt lat="45.60367992588735" lon="8.203843111944005"><ele>391.00000000000006</ele><time>2026-04-07T15:07:32.999Z</time></trkpt><trkpt lat="45.603733303070584" lon="8.203966749853572"><ele>391.0</ele><time>2026-04-07T15:07:37.999Z</time></trkpt><trkpt lat="45.603781330411884" lon="8.204033420041094"><ele>391.0</ele><time>2026-04-07T15:07:38.999Z</time></trkpt><trkpt lat="45.60383739768291" lon="8.204119742424064"><ele>391.0</ele><time>2026-04-07T15:07:40.999Z</time></trkpt><trkpt lat="45.60390746263563" lon="8.204185924573276"><ele>391.00000000000006</ele><time>2026-04-07T15:07:43.999Z</time></trkpt><trkpt lat="45.60398602812715" lon="8.204268831588974"><ele>391.0</ele><time>2026-04-07T15:07:45.999Z</time></trkpt><trkpt lat="45.60404039739096" lon="8.204331124510157"><ele>393.0</ele><time>2026-04-07T15:07:48Z</time></trkpt><trkpt lat="45.60421663859152" lon="8.204306482939236"><ele>395.0</ele><time>2026-04-07T15:07:51Z</time></trkpt><trkpt lat="45.60426535179918" lon="8.204400153451864"><ele>397.0</ele><time>2026-04-07T15:07:54Z</time></trkpt><trkpt lat="45.6043726425099" lon="8.204616902022874"><ele>399.0</ele><time>2026-04-07T15:07:55Z</time></trkpt><trkpt lat="45.60432719385414" lon="8.20491832742943"><ele>400.66666666666663</ele><time>2026-04-07T15:07:56Z</time></trkpt><trkpt lat="45.60413416533263" lon="8.20507587469322"><ele>402.3333333333333</ele><time>2026-04-07T15:07:57Z</time></trkpt><trkpt lat="45.60404682496862" lon="8.205074994843972"><ele>404.0</ele><time>2026-04-07T15:08:00Z</time></trkpt><trkpt lat="45.60394160697767" lon="8.205270266494386"><ele>403.99999999999994</ele><time>2026-04-07T15:08:02Z</time></trkpt><trkpt lat="45.60388750965492" lon="8.205392583717167"><ele>404.0</ele><time>2026-04-07T15:08:03Z</time></trkpt><trkpt lat="45.60385383213759" lon="8.205495474063639"><ele>404.0</ele><time>2026-04-07T15:08:04Z</time></trkpt><trkpt lat="45.603822741830754" lon="8.205600665331835"><ele>404.0</ele><time>2026-04-07T15:08:05Z</time></trkpt><trkpt lat="45.603790096191894" lon="8.205711118815938"><ele>403.99999999999994</ele><time>2026-04-07T15:08:06Z</time></trkpt><trkpt lat="45.60375433871521" lon="8.2058368359558"><ele>404.0</ele><time>2026-04-07T15:08:07Z</time></trkpt><trkpt lat="45.60372217900127" lon="8.205952849455095"><ele>403.0</ele><time>2026-04-07T15:08:08Z</time></trkpt><trkpt lat="45.60368031572199" lon="8.206098225748645"><ele>402.0</ele><time>2026-04-07T15:08:09Z</time></trkpt><trkpt lat="45.603617125199165" lon="8.206231219378624"><ele>401.0</ele><time>2026-04-07T15:08:10Z</time></trkpt><trkpt lat="45.603516947395065" lon="8.206325710677094"><ele>400.0</ele><time>2026-04-07T15:08:11Z</time></trkpt><trkpt lat="45.603435126292034" lon="8.206378937341524"><ele>399.0</ele><time>2026-04-07T15:08:13Z</time></trkpt><trkpt lat="45.60335276282146" lon="8.20642664490367"><ele>401.0</ele><time>2026-04-07T15:08:15Z</time></trkpt><trkpt lat="45.60324669429048" lon="8.206489560760021"><ele>403.0</ele><time>2026-04-07T15:08:17Z</time></trkpt><trkpt lat="45.60317935601036" lon="8.20652592269467"><ele>405.0</ele><time>2026-04-07T15:08:19Z</time></trkpt><trkpt lat="45.60310127390967" lon="8.206568464492081"><ele>407.0</ele><time>2026-04-07T15:08:22Z</time></trkpt><trkpt lat="45.602993037401454" lon="8.206608040278354"><ele>409.0</ele><time>2026-04-07T15:08:24Z</time></trkpt><trkpt lat="45.602928066893625" lon="8.206620896550815"><ele>411.0</ele><time>2026-04-07T15:08:25Z</time></trkpt><trkpt lat="45.602827616805016" lon="8.206626537427029"><ele>413.1666666666667</ele><time>2026-04-07T15:08:26Z</time></trkpt><trkpt lat="45.602748047843164" lon="8.20662981777639"><ele>415.33333333333337</ele><time>2026-04-07T15:08:27Z</time></trkpt><trkpt lat="45.60267597840028" lon="8.206638854009318"><ele>417.5</ele><time>2026-04-07T15:08:28Z</time></trkpt><trkpt lat="45.60260631117505" lon="8.20666003190049"><ele>419.6666666666667</ele><time>2026-04-07T15:08:29Z</time></trkpt><trkpt lat="45.60250355912962" lon="8.206704474070014"><ele>421.83333333333337</ele><time>2026-04-07T15:08:31Z</time></trkpt><trkpt lat="45.60240647458613" lon="8.206746359567694"><ele>424.0</ele><time>2026-04-07T15:08:33Z</time></trkpt><trkpt lat="45.60230614797599" lon="8.206762603019321"><ele>424.0</ele><time>2026-04-07T15:08:35Z</time></trkpt><trkpt lat="45.602208032611834" lon="8.20682842740199"><ele>424.0</ele><time>2026-04-07T15:08:37Z</time></trkpt><trkpt lat="45.602140051764074" lon="8.206852928658279"><ele>424.0</ele><time>2026-04-07T15:08:38Z</time></trkpt><trkpt lat="45.60205241321055" lon="8.206836998309662"><ele>424.0</ele><time>2026-04-07T15:08:39Z</time></trkpt><trkpt lat="45.60196165029386" lon="8.206844804250226"><ele>424.0</ele><time>2026-04-07T15:08:40Z</time></trkpt><trkpt lat="45.60183059382715" lon="8.206856071682171"><ele>425.4</ele><time>2026-04-07T15:08:40.999Z</time></trkpt><trkpt lat="45.60169495369997" lon="8.206873307824567"><ele>426.79999999999995</ele><time>2026-04-07T15:08:41.999Z</time></trkpt><trkpt lat="45.60158020082504" lon="8.20689142663286"><ele>428.20000000000005</ele><time>2026-04-07T15:08:42.999Z</time></trkpt><trkpt lat="45.601480263678624" lon="8.206906989088438"><ele>429.6</ele><time>2026-04-07T15:08:43.999Z</time></trkpt><trkpt lat="45.60140241118901" lon="8.20691847136539"><ele>431.0</ele><time>2026-04-07T15:08:44.999Z</time></trkpt><trkpt lat="45.6013013297536" lon="8.206932343714026"><ele>431.0</ele><time>2026-04-07T15:08:46.999Z</time></trkpt><trkpt lat="45.601295616441234" lon="8.207161253053233"><ele>431.0</ele><time>2026-04-07T15:08:50.999Z</time></trkpt><trkpt lat="45.60123632271547" lon="8.207305421577034"><ele>431.0</ele><time>2026-04-07T15:08:52.999Z</time></trkpt><trkpt lat="45.60119861064494" lon="8.207405149980607"><ele>431.0</ele><time>2026-04-07T15:08:53.999Z</time></trkpt><trkpt lat="45.601160278501034" lon="8.207507485121795"><ele>431.0</ele><time>2026-04-07T15:08:54.999Z</time></trkpt><trkpt lat="45.60112154401781" lon="8.20760323606451"><ele>426.8333333333333</ele><time>2026-04-07T15:08:55.999Z</time></trkpt><trkpt lat="45.60109109342234" lon="8.207705211889909"><ele>422.66666666666663</ele><time>2026-04-07T15:08:56.999Z</time></trkpt><trkpt lat="45.6010623475851" lon="8.207810113793837"><ele>418.5</ele><time>2026-04-07T15:08:57.999Z</time></trkpt><trkpt lat="45.60104782747142" lon="8.207921498695228"><ele>414.33333333333337</ele><time>2026-04-07T15:08:58.999Z</time></trkpt><trkpt lat="45.60103906453078" lon="8.208031824288707"><ele>410.1666666666667</ele><time>2026-04-07T15:08:59.999Z</time></trkpt><trkpt lat="45.60102848705524" lon="8.208136301652239"><ele>406.0</ele><time>2026-04-07T15:09:00.999Z</time></trkpt><trkpt lat="45.60102222242603" lon="8.208245798943427"><ele>405.6666666666667</ele><time>2026-04-07T15:09:01.999Z</time></trkpt><trkpt lat="45.60103187915372" lon="8.20835371396714"><ele>405.33333333333337</ele><time>2026-04-07T15:09:02.999Z</time></trkpt><trkpt lat="45.60105441629472" lon="8.208455601303434"><ele>405.0</ele><time>2026-04-07T15:09:03.999Z</time></trkpt><trkpt lat="45.60109224606503" lon="8.20855820799662"><ele>404.66666666666663</ele><time>2026-04-07T15:09:04.999Z</time></trkpt><trkpt lat="45.60114558841849" lon="8.20865220482177"><ele>404.3333333333333</ele><time>2026-04-07T15:09:05.999Z</time></trkpt><trkpt lat="45.60121196758285" lon="8.208727074924305"><ele>404.0</ele><time>2026-04-07T15:09:06.999Z</time></trkpt><trkpt lat="45.60128582215182" lon="8.20880483215384"><ele>405.66666666666663</ele><time>2026-04-07T15:09:07.999Z</time></trkpt><trkpt lat="45.60136288162678" lon="8.20890228592258"><ele>407.3333333333333</ele><time>2026-04-07T15:09:08.999Z</time></trkpt><trkpt lat="45.60142216545913" lon="8.209007265766566"><ele>409.0</ele><time>2026-04-07T15:09:09.999Z</time></trkpt><trkpt lat="45.601447079488565" lon="8.209118475147728"><ele>410.66666666666663</ele><time>2026-04-07T15:09:10.999Z</time></trkpt><trkpt lat="45.60147519859396" lon="8.20923835092181"><ele>412.3333333333333</ele><time>2026-04-07T15:09:11.999Z</time></trkpt><trkpt lat="45.601512652723855" lon="8.209342522930797"><ele>414.0</ele><time>2026-04-07T15:09:12.999Z</time></trkpt><trkpt lat="45.601555605294365" lon="8.209442724177997"><ele>414.0</ele><time>2026-04-07T15:09:13.999Z</time></trkpt><trkpt lat="45.60160053354076" lon="8.209527270254478"><ele>414.0</ele><time>2026-04-07T15:09:14.999Z</time></trkpt><trkpt lat="45.60166100800523" lon="8.209594089071622"><ele>414.0</ele><time>2026-04-07T15:09:15.999Z</time></trkpt><trkpt lat="45.6017712438717" lon="8.209577350100744"><ele>414.0</ele><time>2026-04-07T15:09:16.999Z</time></trkpt><trkpt lat="45.60186127877252" lon="8.20956420097832"><ele>414.0</ele><time>2026-04-07T15:09:17.999Z</time></trkpt><trkpt lat="45.60195162809419" lon="8.209546781374804"><ele>414.0</ele><time>2026-04-07T15:09:18.999Z</time></trkpt><trkpt lat="45.60202322266426" lon="8.209630375303606"><ele>414.5</ele><time>2026-04-07T15:09:20.999Z</time></trkpt><trkpt lat="45.602051321261655" lon="8.209775613417342"><ele>415.0</ele><time>2026-04-07T15:09:22.999Z</time></trkpt><trkpt lat="45.60210773846428" lon="8.20987602068957"><ele>415.5</ele><time>2026-04-07T15:09:23.999Z</time></trkpt><trkpt lat="45.60215586109886" lon="8.209956584656275"><ele>416.0</ele><time>2026-04-07T15:09:24.999Z</time></trkpt><trkpt lat="45.60219716749789" lon="8.210041477254034"><ele>416.5</ele><time>2026-04-07T15:09:25.999Z</time></trkpt><trkpt lat="45.602291798488906" lon="8.210021231187364"><ele>417.0</ele><time>2026-04-07T15:09:27.999Z</time></trkpt><trkpt lat="45.60238417632401" lon="8.209999400641554"><ele>417.0</ele><time>2026-04-07T15:09:29.999Z</time></trkpt><trkpt lat="45.60247487165885" lon="8.21003630860085"><ele>417.0</ele><time>2026-04-07T15:09:32.999Z</time></trkpt><trkpt lat="45.60254570546913" lon="8.210024300657414"><ele>417.0</ele><time>2026-04-07T15:09:34.999Z</time></trkpt><trkpt lat="45.602625064982035" lon="8.210012210961679"><ele>417.0</ele><time>2026-04-07T15:09:36.999Z</time></trkpt><trkpt lat="45.6026679324216" lon="8.2100875838237"><ele>417.0</ele><time>2026-04-07T15:09:38.999Z</time></trkpt><trkpt lat="45.602765823062605" lon="8.210073455379549"><ele>417.0</ele><time>2026-04-07T15:09:40.999Z</time></trkpt><trkpt lat="45.6028483811803" lon="8.2100675623622"><ele>416.6666666666667</ele><time>2026-04-07T15:09:41.999Z</time></trkpt><trkpt lat="45.60293028956784" lon="8.210051589253872"><ele>416.33333333333337</ele><time>2026-04-07T15:09:42.999Z</time></trkpt><trkpt lat="45.60299411726432" lon="8.210027630038347"><ele>416.0</ele><time>2026-04-07T15:09:43.999Z</time></trkpt><trkpt lat="45.60305683227209" lon="8.209987897144797"><ele>415.6666666666667</ele><time>2026-04-07T15:09:45.999Z</time></trkpt><trkpt lat="45.603121770529775" lon="8.209975376682126"><ele>415.33333333333337</ele><time>2026-04-07T15:09:46.999Z</time></trkpt><trkpt lat="45.60318489005287" lon="8.209889895504094"><ele>415.0</ele><time>2026-04-07T15:09:48.999Z</time></trkpt><trkpt lat="45.60325670282111" lon="8.20983358556348"><ele>415.00000000000006</ele><time>2026-04-07T15:09:50.999Z</time></trkpt><trkpt lat="45.603328921461106" lon="8.2098182489584"><ele>415.0</ele><time>2026-04-07T15:09:51.999Z</time></trkpt><trkpt lat="45.60339282953798" lon="8.209815037322166"><ele>415.0</ele><time>2026-04-07T15:09:53Z</time></trkpt><trkpt lat="45.60347817061831" lon="8.20981084641352"><ele>415.0</ele><time>2026-04-07T15:09:55Z</time></trkpt><trkpt lat="45.60354850098302" lon="8.209915841438487"><ele>415.00000000000006</ele><time>2026-04-07T15:09:57Z</time></trkpt><trkpt lat="45.60361677020505" lon="8.20991758174505"><ele>415.0</ele><time>2026-04-07T15:09:59Z</time></trkpt><trkpt lat="45.603810638324276" lon="8.21010930438683"><ele>414.0</ele><time>2026-04-07T15:10:02Z</time></trkpt><trkpt lat="45.603915552280725" lon="8.210095511797808"><ele>413.0</ele><time>2026-04-07T15:10:04Z</time></trkpt><trkpt lat="45.60396424749149" lon="8.21002929977142"><ele>412.0</ele><time>2026-04-07T15:10:06Z</time></trkpt><trkpt lat="45.60403964393248" lon="8.209979062865184"><ele>411.0</ele><time>2026-04-07T15:10:11Z</time></trkpt><trkpt lat="45.60411334036987" lon="8.209986396260776"><ele>410.0</ele><time>2026-04-07T15:10:13Z</time></trkpt><trkpt lat="45.60423671287694" lon="8.210029458690673"><ele>410.0</ele><time>2026-04-07T15:10:15Z</time></trkpt><trkpt lat="45.60430354099774" lon="8.210048807068471"><ele>410.0</ele><time>2026-04-07T15:10:16Z</time></trkpt><trkpt lat="45.604423169697476" lon="8.210040251603377"><ele>410.0</ele><time>2026-04-07T15:10:18Z</time></trkpt><trkpt lat="45.6045212904543" lon="8.209955008930471"><ele>410.0</ele><time>2026-04-07T15:10:20Z</time></trkpt><trkpt lat="45.60459218678156" lon="8.20987429460295"><ele>410.0</ele><time>2026-04-07T15:10:22Z</time></trkpt><trkpt lat="45.604639150284285" lon="8.209951104360808"><ele>408.0</ele><time>2026-04-07T15:10:23Z</time></trkpt><trkpt lat="45.60467213433514" lon="8.210051562339348"><ele>406.0</ele><time>2026-04-07T15:10:24Z</time></trkpt><trkpt lat="45.60469995499899" lon="8.210178631270015"><ele>404.0</ele><time>2026-04-07T15:10:26Z</time></trkpt><trkpt lat="45.60476073570753" lon="8.210273886936372"><ele>402.0</ele><time>2026-04-07T15:10:29Z</time></trkpt><trkpt lat="45.604695928714214" lon="8.2103622666923"><ele>400.0</ele><time>2026-04-07T15:10:32Z</time></trkpt><trkpt lat="45.60459964574987" lon="8.210449047751428"><ele>400.0</ele><time>2026-04-07T15:10:34Z</time></trkpt><trkpt lat="45.60450418711707" lon="8.21053850517068"><ele>400.0</ele><time>2026-04-07T15:10:36Z</time></trkpt><trkpt lat="45.60443600963653" lon="8.210602181553169"><ele>400.0</ele><time>2026-04-07T15:10:38Z</time></trkpt><trkpt lat="45.60430517785368" lon="8.210695764073789"><ele>400.0</ele><time>2026-04-07T15:12:25Z</time></trkpt><trkpt lat="45.604239857444234" lon="8.210629314520563"><ele>400.0</ele><time>2026-04-07T15:12:27Z</time></trkpt><trkpt lat="45.60415626234432" lon="8.210598149433546"><ele>398.6</ele><time>2026-04-07T15:12:29Z</time></trkpt><trkpt lat="45.60405677027541" lon="8.210543287743924"><ele>397.2</ele><time>2026-04-07T15:12:32Z</time></trkpt><trkpt lat="45.60396711957537" lon="8.210623123288359"><ele>395.79999999999995</ele><time>2026-04-07T15:12:34Z</time></trkpt><trkpt lat="45.60392194173784" lon="8.210762611996888"><ele>394.4</ele><time>2026-04-07T15:12:36Z</time></trkpt><trkpt lat="45.60380831838724" lon="8.210771194046798"><ele>393.0</ele><time>2026-04-07T15:12:38Z</time></trkpt><trkpt lat="45.60370176571747" lon="8.2108447209756"><ele>392.2</ele><time>2026-04-07T15:12:40Z</time></trkpt><trkpt lat="45.603596947416754" lon="8.210832228680298"><ele>391.4</ele><time>2026-04-07T15:12:42Z</time></trkpt><trkpt lat="45.60354358936589" lon="8.210760061760276"><ele>390.59999999999997</ele><time>2026-04-07T15:12:43Z</time></trkpt><trkpt lat="45.60343713661153" lon="8.21065677177204"><ele>389.79999999999995</ele><time>2026-04-07T15:12:45Z</time></trkpt><trkpt lat="45.603371991520795" lon="8.210542521669492"><ele>389.0</ele><time>2026-04-07T15:12:47Z</time></trkpt><trkpt lat="45.60328263439999" lon="8.21047620960259"><ele>389.0</ele><time>2026-04-07T15:12:49Z</time></trkpt><trkpt lat="45.60318649615405" lon="8.210466451551754"><ele>389.0</ele><time>2026-04-07T15:12:50.999Z</time></trkpt><trkpt lat="45.60314716653916" lon="8.210540664786013"><ele>389.0</ele><time>2026-04-07T15:12:51.999Z</time></trkpt><trkpt lat="45.603097295266394" lon="8.210677780732016"><ele>389.0</ele><time>2026-04-07T15:12:53.999Z</time></trkpt><trkpt lat="45.603038163607096" lon="8.210819000287005"><ele>389.0</ele><time>2026-04-07T15:12:55.999Z</time></trkpt><trkpt lat="45.602960747605145" lon="8.210941502746584"><ele>389.0</ele><time>2026-04-07T15:12:57.999Z</time></trkpt><trkpt lat="45.60288735278863" lon="8.211057217973428"><ele>389.0</ele><time>2026-04-07T15:12:59.999Z</time></trkpt><trkpt lat="45.602788916692795" lon="8.211138073072973"><ele>389.0</ele><time>2026-04-07T15:13:01.999Z</time></trkpt><trkpt lat="45.60268473006155" lon="8.21115068898599"><ele>389.0</ele><time>2026-04-07T15:13:03.999Z</time></trkpt><trkpt lat="45.60259131552798" lon="8.21116592873768"><ele>389.0</ele><time>2026-04-07T15:13:05.999Z</time></trkpt><trkpt lat="45.60256165822381" lon="8.211085811656343"><ele>388.8333333333333</ele><time>2026-04-07T15:13:06.999Z</time></trkpt><trkpt lat="45.60246850329287" lon="8.210967516282887"><ele>388.66666666666663</ele><time>2026-04-07T15:13:08.999Z</time></trkpt><trkpt lat="45.6024308331308" lon="8.210889378577207"><ele>388.5</ele><time>2026-04-07T15:13:09.999Z</time></trkpt><trkpt lat="45.6023755171349" lon="8.210841263812526"><ele>388.33333333333337</ele><time>2026-04-07T15:13:10.999Z</time></trkpt><trkpt lat="45.60230888729637" lon="8.210820908130371"><ele>388.1666666666667</ele><time>2026-04-07T15:13:11.999Z</time></trkpt><trkpt lat="45.60224504623458" lon="8.210846049905316"><ele>388.0</ele><time>2026-04-07T15:13:12.999Z</time></trkpt><trkpt lat="45.6021882886822" lon="8.210909241897975"><ele>388.00000000000006</ele><time>2026-04-07T15:13:13.999Z</time></trkpt><trkpt lat="45.60211897255343" lon="8.21094728794392"><ele>388.0</ele><time>2026-04-07T15:13:14.999Z</time></trkpt><trkpt lat="45.602022214154985" lon="8.211026155629725"><ele>388.0</ele><time>2026-04-07T15:13:16.999Z</time></trkpt><trkpt lat="45.60191632604595" lon="8.211071226186272"><ele>388.0</ele><time>2026-04-07T15:13:18.999Z</time></trkpt><trkpt lat="45.60184549768253" lon="8.211080959705495"><ele>388.00000000000006</ele><time>2026-04-07T15:13:19.999Z</time></trkpt><trkpt lat="45.601767531406196" lon="8.211094998032907"><ele>388.0</ele><time>2026-04-07T15:13:20.999Z</time></trkpt><trkpt lat="45.60168894230183" lon="8.211108496827563"><ele>387.6666666666667</ele><time>2026-04-07T15:13:21.999Z</time></trkpt><trkpt lat="45.60161022905265" lon="8.21111025253443"><ele>387.33333333333337</ele><time>2026-04-07T15:13:22.999Z</time></trkpt><trkpt lat="45.6015328088067" lon="8.21114723200663"><ele>387.0</ele><time>2026-04-07T15:13:23.999Z</time></trkpt><trkpt lat="45.60146645120704" lon="8.211185026376441"><ele>386.66666666666663</ele><time>2026-04-07T15:13:24.999Z</time></trkpt><trkpt lat="45.601400876614974" lon="8.211233087025676"><ele>386.3333333333333</ele><time>2026-04-07T15:13:25.999Z</time></trkpt><trkpt lat="45.601344099230914" lon="8.211306601944694"><ele>386.0</ele><time>2026-04-07T15:13:26.999Z</time></trkpt><trkpt lat="45.60125870888928" lon="8.21144446550631"><ele>384.49999999999994</ele><time>2026-04-07T15:13:28.999Z</time></trkpt><trkpt lat="45.60120924853669" lon="8.21151459066801"><ele>383.0</ele><time>2026-04-07T15:13:29.999Z</time></trkpt><trkpt lat="45.60116119098261" lon="8.211601194413552"><ele>381.5</ele><time>2026-04-07T15:13:30.999Z</time></trkpt><trkpt lat="45.6011135739794" lon="8.211702737690219"><ele>380.0</ele><time>2026-04-07T15:13:31.999Z</time></trkpt><trkpt lat="45.601060413406586" lon="8.21178276840339"><ele>378.5</ele><time>2026-04-07T15:13:32.999Z</time></trkpt><trkpt lat="45.60102767408561" lon="8.211879152989113"><ele>377.0</ele><time>2026-04-07T15:13:33.999Z</time></trkpt><trkpt lat="45.60099800354625" lon="8.211968400384011"><ele>375.8</ele><time>2026-04-07T15:13:34.999Z</time></trkpt><trkpt lat="45.600915564939385" lon="8.212094620218542"><ele>374.6</ele><time>2026-04-07T15:13:36.999Z</time></trkpt><trkpt lat="45.600821338355125" lon="8.212195481958714"><ele>373.40000000000003</ele><time>2026-04-07T15:13:38.999Z</time></trkpt><trkpt lat="45.600738871616166" lon="8.212170886552801"><ele>372.20000000000005</ele><time>2026-04-07T15:13:40.999Z</time></trkpt><trkpt lat="45.600674659675825" lon="8.212168252250809"><ele>371.0</ele><time>2026-04-07T15:13:41.999Z</time></trkpt><trkpt lat="45.60060594909312" lon="8.212119189702056"><ele>371.0</ele><time>2026-04-07T15:13:42.999Z</time></trkpt><trkpt lat="45.600546152296005" lon="8.212052624357073"><ele>371.0</ele><time>2026-04-07T15:13:43.999Z</time></trkpt><trkpt lat="45.600469320878574" lon="8.211933184759236"><ele>371.0</ele><time>2026-04-07T15:13:45.999Z</time></trkpt><trkpt lat="45.600456745806326" lon="8.211779257493868"><ele>371.0</ele><time>2026-04-07T15:13:47.999Z</time></trkpt><trkpt lat="45.6004762144495" lon="8.211670094637803"><ele>371.0</ele><time>2026-04-07T15:13:48.999Z</time></trkpt><trkpt lat="45.60045681570899" lon="8.211557886847507"><ele>371.0</ele><time>2026-04-07T15:13:49.999Z</time></trkpt><trkpt lat="45.600461618115155" lon="8.21144323293629"><ele>371.0</ele><time>2026-04-07T15:13:50.999Z</time></trkpt><trkpt lat="45.60047139557213" lon="8.211344847365163"><ele>371.0</ele><time>2026-04-07T15:13:51.999Z</time></trkpt><trkpt lat="45.6004736549885" lon="8.211252163970611"><ele>371.0</ele><time>2026-04-07T15:13:52.999Z</time></trkpt><trkpt lat="45.60048587858084" lon="8.211156506609566"><ele>371.0</ele><time>2026-04-07T15:13:53.999Z</time></trkpt><trkpt lat="45.600443642134756" lon="8.210995208216127"><ele>371.0</ele><time>2026-04-07T15:13:55.999Z</time></trkpt><trkpt lat="45.60031854800719" lon="8.210927788305568"><ele>371.0</ele><time>2026-04-07T15:13:57.999Z</time></trkpt><trkpt lat="45.6002395857778" lon="8.210957308738044"><ele>371.0</ele><time>2026-04-07T15:13:58.999Z</time></trkpt><trkpt lat="45.60017790866655" lon="8.211040337734374"><ele>371.0</ele><time>2026-04-07T15:13:59.999Z</time></trkpt><trkpt lat="45.60011558175893" lon="8.211103854623527"><ele>371.0</ele><time>2026-04-07T15:14:00.999Z</time></trkpt><trkpt lat="45.60004605416048" lon="8.211152906456254"><ele>371.0</ele><time>2026-04-07T15:14:01.999Z</time></trkpt><trkpt lat="45.59999185526292" lon="8.21122964811046"><ele>371.0</ele><time>2026-04-07T15:14:02.999Z</time></trkpt><trkpt lat="45.59994488604112" lon="8.211299872421515"><ele>371.0</ele><time>2026-04-07T15:14:03.999Z</time></trkpt><trkpt lat="45.599893958715136" lon="8.211450538808473"><ele>371.0</ele><time>2026-04-07T15:14:06Z</time></trkpt><trkpt lat="45.59983571184526" lon="8.21160824692215"><ele>371.0</ele><time>2026-04-07T15:14:08Z</time></trkpt><trkpt lat="45.5997993056088" lon="8.211687762889087"><ele>371.0</ele><time>2026-04-07T15:14:09Z</time></trkpt><trkpt lat="45.59976446589912" lon="8.211770602861503"><ele>371.0</ele><time>2026-04-07T15:14:10Z</time></trkpt><trkpt lat="45.59972632296726" lon="8.211853247720715"><ele>371.0</ele><time>2026-04-07T15:14:11Z</time></trkpt><trkpt lat="45.599685490939365" lon="8.211926953614682"><ele>369.6666666666667</ele><time>2026-04-07T15:14:12Z</time></trkpt><trkpt lat="45.59959631611273" lon="8.212064128630278"><ele>368.33333333333337</ele><time>2026-04-07T15:14:14Z</time></trkpt><trkpt lat="45.59955368059205" lon="8.212142249942982"><ele>367.0</ele><time>2026-04-07T15:14:15Z</time></trkpt><trkpt lat="45.599521675630044" lon="8.212227254049752"><ele>365.6666666666667</ele><time>2026-04-07T15:14:16Z</time></trkpt><trkpt lat="45.59950680820222" lon="8.212327554609278"><ele>364.3333333333333</ele><time>2026-04-07T15:14:17Z</time></trkpt><trkpt lat="45.59948147611929" lon="8.212412403581947"><ele>363.0</ele><time>2026-04-07T15:14:18Z</time></trkpt><trkpt lat="45.599467008768094" lon="8.212509131877253"><ele>362.1666666666667</ele><time>2026-04-07T15:14:19Z</time></trkpt><trkpt lat="45.59939895982398" lon="8.212671878090136"><ele>361.3333333333333</ele><time>2026-04-07T15:14:21Z</time></trkpt><trkpt lat="45.59936873351658" lon="8.212761467315314"><ele>360.5</ele><time>2026-04-07T15:14:22Z</time></trkpt><trkpt lat="45.59933825836784" lon="8.212850370805059"><ele>359.66666666666663</ele><time>2026-04-07T15:14:23Z</time></trkpt><trkpt lat="45.59930666676938" lon="8.212941862845588"><ele>358.8333333333333</ele><time>2026-04-07T15:14:24Z</time></trkpt><trkpt lat="45.59927747336224" lon="8.21302561568978"><ele>358.0</ele><time>2026-04-07T15:14:25Z</time></trkpt><trkpt lat="45.59924440983719" lon="8.213117981582204"><ele>357.3333333333333</ele><time>2026-04-07T15:14:26Z</time></trkpt><trkpt lat="45.599213596345926" lon="8.213204061910348"><ele>356.66666666666663</ele><time>2026-04-07T15:14:27Z</time></trkpt><trkpt lat="45.599184292318185" lon="8.213285925436681"><ele>356.0</ele><time>2026-04-07T15:14:28Z</time></trkpt><trkpt lat="45.59915300802255" lon="8.21336801087851"><ele>355.3333333333333</ele><time>2026-04-07T15:14:29Z</time></trkpt><trkpt lat="45.59909390825335" lon="8.213503775326872"><ele>354.6666666666667</ele><time>2026-04-07T15:14:31Z</time></trkpt><trkpt lat="45.599026473229685" lon="8.21358651525819"><ele>354.0</ele><time>2026-04-07T15:14:33Z</time></trkpt><trkpt lat="45.59896526576332" lon="8.213643916605777"><ele>354.0</ele><time>2026-04-07T15:14:35Z</time></trkpt><trkpt lat="45.59890841850774" lon="8.213691032202389"><ele>354.0</ele><time>2026-04-07T15:15:12.999Z</time></trkpt><trkpt lat="45.598864991423184" lon="8.213764599107648"><ele>354.0</ele><time>2026-04-07T15:15:15.999Z</time></trkpt><trkpt lat="45.59881586187245" lon="8.213882369004038"><ele>354.0</ele><time>2026-04-07T15:15:18.999Z</time></trkpt><trkpt lat="45.598786153224594" lon="8.213973579006973"><ele>354.0</ele><time>2026-04-07T15:15:20.999Z</time></trkpt><trkpt lat="45.59874540471996" lon="8.214060105962647"><ele>354.0</ele><time>2026-04-07T15:15:22.999Z</time></trkpt><trkpt lat="45.59871473013149" lon="8.214163304526487"><ele>353.6</ele><time>2026-04-07T15:15:24.999Z</time></trkpt><trkpt lat="45.598707352768685" lon="8.21430250500675"><ele>353.2</ele><time>2026-04-07T15:15:26.999Z</time></trkpt><trkpt lat="45.59869307709116" lon="8.214452987997252"><ele>352.8</ele><time>2026-04-07T15:15:28.999Z</time></trkpt><trkpt lat="45.59855697646217" lon="8.214492534839371"><ele>352.40000000000003</ele><time>2026-04-07T15:15:29.999Z</time></trkpt><trkpt lat="45.59854273027798" lon="8.214596368342884"><ele>352.0</ele><time>2026-04-07T15:15:31.999Z</time></trkpt><trkpt lat="45.598521141048714" lon="8.214753720995022"><ele>352.40000000000003</ele><time>2026-04-07T15:15:34.999Z</time></trkpt><trkpt lat="45.59850027877306" lon="8.21490577428132"><ele>352.8</ele><time>2026-04-07T15:15:53.999Z</time></trkpt><trkpt lat="45.59848260512837" lon="8.215034587285402"><ele>353.2</ele><time>2026-04-07T15:15:55.999Z</time></trkpt><trkpt lat="45.59858737171719" lon="8.21508797500633"><ele>353.6</ele><time>2026-04-07T15:15:58.999Z</time></trkpt><trkpt lat="45.598677041692696" lon="8.215149725173001"><ele>354.0</ele><time>2026-04-07T15:16:00.999Z</time></trkpt><trkpt lat="45.59877254705874" lon="8.21526522194899"><ele>352.8333333333333</ele><time>2026-04-07T15:16:02.999Z</time></trkpt><trkpt lat="45.59881844629209" lon="8.215336160583288"><ele>351.6666666666667</ele><time>2026-04-07T15:16:03.999Z</time></trkpt><trkpt lat="45.59888337653762" lon="8.215385739447152"><ele>350.5</ele><time>2026-04-07T15:16:04.999Z</time></trkpt><trkpt lat="45.598909511431614" lon="8.215468987449407"><ele>349.33333333333337</ele><time>2026-04-07T15:16:05.999Z</time></trkpt><trkpt lat="45.598960044797025" lon="8.215581455200722"><ele>348.1666666666667</ele><time>2026-04-07T15:16:07.999Z</time></trkpt><trkpt lat="45.5990151573967" lon="8.215713703659436"><ele>347.0</ele><time>2026-04-07T15:16:09.999Z</time></trkpt><trkpt lat="45.59904318025422" lon="8.215859012303051"><ele>347.0</ele><time>2026-04-07T15:16:12Z</time></trkpt><trkpt lat="45.5990981752681" lon="8.21598846983367"><ele>347.0</ele><time>2026-04-07T15:16:14Z</time></trkpt><trkpt lat="45.599186457454294" lon="8.216046771638883"><ele>347.0</ele><time>2026-04-07T15:16:16Z</time></trkpt><trkpt lat="45.59923592964709" lon="8.216113618610656"><ele>347.0</ele><time>2026-04-07T15:16:18Z</time></trkpt><trkpt lat="45.599271449766526" lon="8.216198391416066"><ele>347.0</ele><time>2026-04-07T15:16:21Z</time></trkpt><trkpt lat="45.59931070874421" lon="8.216289941148785"><ele>347.0</ele><time>2026-04-07T15:16:24Z</time></trkpt><trkpt lat="45.599347473342064" lon="8.216378470447339"><ele>347.0</ele><time>2026-04-07T15:16:27Z</time></trkpt><trkpt lat="45.59939495991039" lon="8.216461080350125"><ele>347.0</ele><time>2026-04-07T15:16:31Z</time></trkpt><trkpt lat="45.59937407899539" lon="8.216336352939745"><ele>347.0</ele><time>2026-04-07T15:16:41Z</time></trkpt><trkpt lat="45.59933289210441" lon="8.216245775579196"><ele>347.0</ele><time>2026-04-07T15:16:42Z</time></trkpt><trkpt lat="45.599286289386555" lon="8.21617132518593"><ele>347.0</ele><time>2026-04-07T15:16:43Z</time></trkpt><trkpt lat="45.59921614984626" lon="8.216027335800185"><ele>347.0</ele><time>2026-04-07T15:16:45Z</time></trkpt><trkpt lat="45.59910805106198" lon="8.215933870797699"><ele>347.0</ele><time>2026-04-07T15:16:47Z</time></trkpt><trkpt lat="45.599058026012415" lon="8.215839259359448"><ele>347.0</ele><time>2026-04-07T15:16:48Z</time></trkpt><trkpt lat="45.599047493449696" lon="8.215746164981343"><ele>347.0</ele><time>2026-04-07T15:16:49Z</time></trkpt><trkpt lat="45.59902354508655" lon="8.215657954553448"><ele>347.0</ele><time>2026-04-07T15:16:50Z</time></trkpt><trkpt lat="45.59898112162358" lon="8.215514965368385"><ele>347.0</ele><time>2026-04-07T15:16:52Z</time></trkpt><trkpt lat="45.59894725505527" lon="8.215431261840061"><ele>347.0</ele><time>2026-04-07T15:16:53Z</time></trkpt><trkpt lat="45.5988603789262" lon="8.215273155052495"><ele>347.0</ele><time>2026-04-07T15:16:55Z</time></trkpt><trkpt lat="45.5988138025793" lon="8.215204658907636"><ele>347.0</ele><time>2026-04-07T15:16:56Z</time></trkpt><trkpt lat="45.59872149515687" lon="8.215097036788425"><ele>347.0</ele><time>2026-04-07T15:16:57.999Z</time></trkpt><trkpt lat="45.59863079140774" lon="8.215106764435458"><ele>347.0</ele><time>2026-04-07T15:16:59.999Z</time></trkpt><trkpt lat="45.59862865503223" lon="8.214958575738201"><ele>347.0</ele><time>2026-04-07T15:17:05.999Z</time></trkpt><trkpt lat="45.59866096028949" lon="8.214788319378362"><ele>348.0</ele><time>2026-04-07T15:17:07.999Z</time></trkpt><trkpt lat="45.598642266853666" lon="8.21467163289704"><ele>349.0</ele><time>2026-04-07T15:17:09.999Z</time></trkpt><trkpt lat="45.598662122304354" lon="8.214565644591469"><ele>350.0</ele><time>2026-04-07T15:17:10.999Z</time></trkpt><trkpt lat="45.598697153990834" lon="8.214385323741658"><ele>351.0</ele><time>2026-04-07T15:17:12.999Z</time></trkpt><trkpt lat="45.59874277187556" lon="8.214240982400929"><ele>352.0</ele><time>2026-04-07T15:17:14.999Z</time></trkpt><trkpt lat="45.59877864460161" lon="8.21406966459138"><ele>352.3333333333333</ele><time>2026-04-07T15:17:16.999Z</time></trkpt><trkpt lat="45.59881522142751" lon="8.213975231022843"><ele>352.66666666666663</ele><time>2026-04-07T15:17:17.999Z</time></trkpt><trkpt lat="45.59885732618243" lon="8.21389914885909"><ele>353.0</ele><time>2026-04-07T15:17:18.999Z</time></trkpt><trkpt lat="45.59891788138369" lon="8.213770506086899"><ele>353.3333333333333</ele><time>2026-04-07T15:17:20.999Z</time></trkpt><trkpt lat="45.5988802042611" lon="8.213669186283653"><ele>353.6666666666667</ele><time>2026-04-07T15:17:21.999Z</time></trkpt><trkpt lat="45.59887892042906" lon="8.213558099151545"><ele>354.0</ele><time>2026-04-07T15:17:23.999Z</time></trkpt><trkpt lat="45.5987260189832" lon="8.213396940015683"><ele>354.0</ele><time>2026-04-07T15:17:25.999Z</time></trkpt><trkpt lat="45.598930435847265" lon="8.213467491937065"><ele>354.0</ele><time>2026-04-07T15:17:27.999Z</time></trkpt></trkseg></trk></gpx>